<?xml version="1.0" encoding="UTF-8" standalone="no" ?>
<gpx xmlns="http://www.topografix.com/GPX/1/1" xmlns:xsi="http://www.w3.org/2001/XMLSchema-instance" xsi:schemaLocation="http://www.topografix.com/GPX/1/1 http://www.topografix.com/GPX/1/1/gpx.xsd" version="1.1" creator="VisuGPX - https://www.visugpx.com">
  <metadata>
    <name>Trek au Ladakh</name>
    <desc><![CDATA[Trek au Ladakh - Septembre 2015]]></desc>
  </metadata>
  <trk>
    <name><![CDATA[Camp de Chaktsang La (4900m) - Pose La (4950m) - Camp de Lato (4010m)]]></name>
    <trkseg>
      <trkpt lat="33.7483" lon="77.64931">
        <ele>4902</ele>
        <time>2015-09-06T02:06:05Z</time>
      </trkpt>
      <trkpt lat="33.74829" lon="77.64934">
        <ele>4902.4</ele>
        <time>2015-09-06T02:06:07Z</time>
      </trkpt>
      <trkpt lat="33.74829" lon="77.64936">
        <ele>4902.4</ele>
        <time>2015-09-06T02:06:09Z</time>
      </trkpt>
      <trkpt lat="33.74826" lon="77.64931">
        <ele>4902.6</ele>
        <time>2015-09-06T02:06:11Z</time>
      </trkpt>
      <trkpt lat="33.74817" lon="77.6493">
        <ele>4902.2</ele>
        <time>2015-09-06T02:06:26Z</time>
      </trkpt>
      <trkpt lat="33.74814" lon="77.64931">
        <ele>4902.2</ele>
        <time>2015-09-06T02:06:28Z</time>
      </trkpt>
      <trkpt lat="33.74814" lon="77.64937">
        <ele>4901.4</ele>
        <time>2015-09-06T02:07:05Z</time>
      </trkpt>
      <trkpt lat="33.7481" lon="77.64936">
        <ele>4901</ele>
        <time>2015-09-06T02:07:27Z</time>
      </trkpt>
      <trkpt lat="33.74814" lon="77.64934">
        <ele>4900.8</ele>
        <time>2015-09-06T02:07:41Z</time>
      </trkpt>
      <trkpt lat="33.74818" lon="77.64933">
        <ele>4901</ele>
        <time>2015-09-06T02:07:44Z</time>
      </trkpt>
      <trkpt lat="33.74824" lon="77.64943">
        <ele>4900</ele>
        <time>2015-09-06T02:08:13Z</time>
      </trkpt>
      <trkpt lat="33.74822" lon="77.64944">
        <ele>4899.8</ele>
        <time>2015-09-06T02:08:14Z</time>
      </trkpt>
      <trkpt lat="33.74819" lon="77.64942">
        <ele>4899.4</ele>
        <time>2015-09-06T02:08:19Z</time>
      </trkpt>
      <trkpt lat="33.74821" lon="77.64942">
        <ele>4898.8</ele>
        <time>2015-09-06T02:08:34Z</time>
      </trkpt>
      <trkpt lat="33.74825" lon="77.64951">
        <ele>4897.6</ele>
        <time>2015-09-06T02:08:49Z</time>
      </trkpt>
      <trkpt lat="33.74824" lon="77.64958">
        <ele>4896.6</ele>
        <time>2015-09-06T02:08:56Z</time>
      </trkpt>
      <trkpt lat="33.74826" lon="77.64961">
        <ele>4896.6</ele>
        <time>2015-09-06T02:08:57Z</time>
      </trkpt>
      <trkpt lat="33.74827" lon="77.64964">
        <ele>4896.4</ele>
        <time>2015-09-06T02:08:59Z</time>
      </trkpt>
      <trkpt lat="33.74826" lon="77.64973">
        <ele>4895.6</ele>
        <time>2015-09-06T02:09:06Z</time>
      </trkpt>
      <trkpt lat="33.74823" lon="77.64979">
        <ele>4894.6</ele>
        <time>2015-09-06T02:09:18Z</time>
      </trkpt>
      <trkpt lat="33.74827" lon="77.6498">
        <ele>4893.6</ele>
        <time>2015-09-06T02:09:59Z</time>
      </trkpt>
      <trkpt lat="33.74832" lon="77.64986">
        <ele>4892.6</ele>
        <time>2015-09-06T02:10:19Z</time>
      </trkpt>
      <trkpt lat="33.74835" lon="77.64992">
        <ele>4891.4</ele>
        <time>2015-09-06T02:10:26Z</time>
      </trkpt>
      <trkpt lat="33.74835" lon="77.64993">
        <ele>4891.2</ele>
        <time>2015-09-06T02:10:27Z</time>
      </trkpt>
      <trkpt lat="33.7484" lon="77.65003">
        <ele>4890.4</ele>
        <time>2015-09-06T02:10:36Z</time>
      </trkpt>
      <trkpt lat="33.74842" lon="77.65007">
        <ele>4889.2</ele>
        <time>2015-09-06T02:10:45Z</time>
      </trkpt>
      <trkpt lat="33.74846" lon="77.65013">
        <ele>4889.2</ele>
        <time>2015-09-06T02:10:51Z</time>
      </trkpt>
      <trkpt lat="33.74848" lon="77.65023">
        <ele>4888.2</ele>
        <time>2015-09-06T02:11:00Z</time>
      </trkpt>
      <trkpt lat="33.74851" lon="77.65033">
        <ele>4887.2</ele>
        <time>2015-09-06T02:11:09Z</time>
      </trkpt>
      <trkpt lat="33.74851" lon="77.65038">
        <ele>4886.2</ele>
        <time>2015-09-06T02:11:15Z</time>
      </trkpt>
      <trkpt lat="33.74852" lon="77.65048">
        <ele>4885</ele>
        <time>2015-09-06T02:11:25Z</time>
      </trkpt>
      <trkpt lat="33.74855" lon="77.65058">
        <ele>4884</ele>
        <time>2015-09-06T02:11:33Z</time>
      </trkpt>
      <trkpt lat="33.74856" lon="77.65064">
        <ele>4882.8</ele>
        <time>2015-09-06T02:11:39Z</time>
      </trkpt>
      <trkpt lat="33.74858" lon="77.65074">
        <ele>4881.8</ele>
        <time>2015-09-06T02:11:48Z</time>
      </trkpt>
      <trkpt lat="33.74857" lon="77.65084">
        <ele>4880.6</ele>
        <time>2015-09-06T02:11:56Z</time>
      </trkpt>
      <trkpt lat="33.74858" lon="77.65095">
        <ele>4879.6</ele>
        <time>2015-09-06T02:12:07Z</time>
      </trkpt>
      <trkpt lat="33.74859" lon="77.651">
        <ele>4879.2</ele>
        <time>2015-09-06T02:12:12Z</time>
      </trkpt>
      <trkpt lat="33.74863" lon="77.65108">
        <ele>4878.6</ele>
        <time>2015-09-06T02:12:19Z</time>
      </trkpt>
      <trkpt lat="33.74868" lon="77.6512">
        <ele>4877.4</ele>
        <time>2015-09-06T02:12:27Z</time>
      </trkpt>
      <trkpt lat="33.7487" lon="77.65134">
        <ele>4876.4</ele>
        <time>2015-09-06T02:12:37Z</time>
      </trkpt>
      <trkpt lat="33.7487" lon="77.65142">
        <ele>4875.4</ele>
        <time>2015-09-06T02:12:44Z</time>
      </trkpt>
      <trkpt lat="33.74872" lon="77.65154">
        <ele>4874.2</ele>
        <time>2015-09-06T02:12:51Z</time>
      </trkpt>
      <trkpt lat="33.74874" lon="77.65161">
        <ele>4873</ele>
        <time>2015-09-06T02:12:57Z</time>
      </trkpt>
      <trkpt lat="33.74876" lon="77.65172">
        <ele>4872</ele>
        <time>2015-09-06T02:13:07Z</time>
      </trkpt>
      <trkpt lat="33.74876" lon="77.6518">
        <ele>4870.8</ele>
        <time>2015-09-06T02:13:12Z</time>
      </trkpt>
      <trkpt lat="33.74872" lon="77.65177">
        <ele>4870.6</ele>
        <time>2015-09-06T02:13:14Z</time>
      </trkpt>
      <trkpt lat="33.74869" lon="77.65178">
        <ele>4870.2</ele>
        <time>2015-09-06T02:13:17Z</time>
      </trkpt>
      <trkpt lat="33.74868" lon="77.6518">
        <ele>4870</ele>
        <time>2015-09-06T02:13:21Z</time>
      </trkpt>
      <trkpt lat="33.74864" lon="77.65185">
        <ele>4869.8</ele>
        <time>2015-09-06T02:13:26Z</time>
      </trkpt>
      <trkpt lat="33.74864" lon="77.65186">
        <ele>4869.8</ele>
        <time>2015-09-06T02:13:27Z</time>
      </trkpt>
      <trkpt lat="33.74864" lon="77.65191">
        <ele>4868.8</ele>
        <time>2015-09-06T02:13:31Z</time>
      </trkpt>
      <trkpt lat="33.74865" lon="77.65206">
        <ele>4867.8</ele>
        <time>2015-09-06T02:13:41Z</time>
      </trkpt>
      <trkpt lat="33.74862" lon="77.6521">
        <ele>4867.2</ele>
        <time>2015-09-06T02:13:45Z</time>
      </trkpt>
      <trkpt lat="33.74858" lon="77.65211">
        <ele>4866.6</ele>
        <time>2015-09-06T02:13:49Z</time>
      </trkpt>
      <trkpt lat="33.74853" lon="77.65215">
        <ele>4865.6</ele>
        <time>2015-09-06T02:13:54Z</time>
      </trkpt>
      <trkpt lat="33.74851" lon="77.65222">
        <ele>4864.4</ele>
        <time>2015-09-06T02:13:59Z</time>
      </trkpt>
      <trkpt lat="33.7485" lon="77.65232">
        <ele>4863.4</ele>
        <time>2015-09-06T02:14:05Z</time>
      </trkpt>
      <trkpt lat="33.74849" lon="77.65232">
        <ele>4863.2</ele>
        <time>2015-09-06T02:14:06Z</time>
      </trkpt>
      <trkpt lat="33.74847" lon="77.65232">
        <ele>4862.6</ele>
        <time>2015-09-06T02:14:08Z</time>
      </trkpt>
      <trkpt lat="33.74846" lon="77.65232">
        <ele>4862.2</ele>
        <time>2015-09-06T02:14:09Z</time>
      </trkpt>
      <trkpt lat="33.74842" lon="77.65233">
        <ele>4861.8</ele>
        <time>2015-09-06T02:14:13Z</time>
      </trkpt>
      <trkpt lat="33.74841" lon="77.65237">
        <ele>4861.2</ele>
        <time>2015-09-06T02:14:17Z</time>
      </trkpt>
      <trkpt lat="33.74842" lon="77.65249">
        <ele>4860.2</ele>
        <time>2015-09-06T02:14:24Z</time>
      </trkpt>
      <trkpt lat="33.7484" lon="77.65251">
        <ele>4859.4</ele>
        <time>2015-09-06T02:14:27Z</time>
      </trkpt>
      <trkpt lat="33.74838" lon="77.65252">
        <ele>4859</ele>
        <time>2015-09-06T02:14:29Z</time>
      </trkpt>
      <trkpt lat="33.74836" lon="77.65256">
        <ele>4858.4</ele>
        <time>2015-09-06T02:14:35Z</time>
      </trkpt>
      <trkpt lat="33.74834" lon="77.65259">
        <ele>4858</ele>
        <time>2015-09-06T02:14:39Z</time>
      </trkpt>
      <trkpt lat="33.74834" lon="77.6526">
        <ele>4858</ele>
        <time>2015-09-06T02:14:40Z</time>
      </trkpt>
      <trkpt lat="33.74833" lon="77.65261">
        <ele>4857.8</ele>
        <time>2015-09-06T02:14:41Z</time>
      </trkpt>
      <trkpt lat="33.74832" lon="77.65264">
        <ele>4857.4</ele>
        <time>2015-09-06T02:14:43Z</time>
      </trkpt>
      <trkpt lat="33.74831" lon="77.65267">
        <ele>4856.8</ele>
        <time>2015-09-06T02:14:47Z</time>
      </trkpt>
      <trkpt lat="33.74829" lon="77.65274">
        <ele>4855.6</ele>
        <time>2015-09-06T02:14:54Z</time>
      </trkpt>
      <trkpt lat="33.74829" lon="77.6528">
        <ele>4854.8</ele>
        <time>2015-09-06T02:14:59Z</time>
      </trkpt>
      <trkpt lat="33.74829" lon="77.65282">
        <ele>4854.6</ele>
        <time>2015-09-06T02:15:01Z</time>
      </trkpt>
      <trkpt lat="33.7483" lon="77.65285">
        <ele>4854.4</ele>
        <time>2015-09-06T02:15:03Z</time>
      </trkpt>
      <trkpt lat="33.74831" lon="77.65287">
        <ele>4854</ele>
        <time>2015-09-06T02:15:06Z</time>
      </trkpt>
      <trkpt lat="33.74831" lon="77.65293">
        <ele>4853.4</ele>
        <time>2015-09-06T02:15:13Z</time>
      </trkpt>
      <trkpt lat="33.74832" lon="77.65299">
        <ele>4852.8</ele>
        <time>2015-09-06T02:15:18Z</time>
      </trkpt>
      <trkpt lat="33.74832" lon="77.65301">
        <ele>4852.4</ele>
        <time>2015-09-06T02:15:20Z</time>
      </trkpt>
      <trkpt lat="33.74833" lon="77.65312">
        <ele>4851.4</ele>
        <time>2015-09-06T02:15:30Z</time>
      </trkpt>
      <trkpt lat="33.74835" lon="77.65318">
        <ele>4850.6</ele>
        <time>2015-09-06T02:15:36Z</time>
      </trkpt>
      <trkpt lat="33.74835" lon="77.6532">
        <ele>4850.2</ele>
        <time>2015-09-06T02:15:38Z</time>
      </trkpt>
      <trkpt lat="33.74836" lon="77.65321">
        <ele>4850.2</ele>
        <time>2015-09-06T02:15:39Z</time>
      </trkpt>
      <trkpt lat="33.74838" lon="77.65324">
        <ele>4850</ele>
        <time>2015-09-06T02:15:41Z</time>
      </trkpt>
      <trkpt lat="33.74839" lon="77.65323">
        <ele>4849.6</ele>
        <time>2015-09-06T02:15:43Z</time>
      </trkpt>
      <trkpt lat="33.7484" lon="77.65326">
        <ele>4849.2</ele>
        <time>2015-09-06T02:15:48Z</time>
      </trkpt>
      <trkpt lat="33.74836" lon="77.65334">
        <ele>4848.2</ele>
        <time>2015-09-06T02:15:56Z</time>
      </trkpt>
      <trkpt lat="33.74834" lon="77.65343">
        <ele>4847.2</ele>
        <time>2015-09-06T02:16:06Z</time>
      </trkpt>
      <trkpt lat="33.74834" lon="77.65345">
        <ele>4847</ele>
        <time>2015-09-06T02:16:07Z</time>
      </trkpt>
      <trkpt lat="33.74836" lon="77.65347">
        <ele>4846.8</ele>
        <time>2015-09-06T02:16:09Z</time>
      </trkpt>
      <trkpt lat="33.74833" lon="77.65355">
        <ele>4846</ele>
        <time>2015-09-06T02:16:15Z</time>
      </trkpt>
      <trkpt lat="33.74829" lon="77.65367">
        <ele>4845</ele>
        <time>2015-09-06T02:16:25Z</time>
      </trkpt>
      <trkpt lat="33.74828" lon="77.65371">
        <ele>4843.8</ele>
        <time>2015-09-06T02:16:32Z</time>
      </trkpt>
      <trkpt lat="33.74827" lon="77.65375">
        <ele>4843.4</ele>
        <time>2015-09-06T02:16:35Z</time>
      </trkpt>
      <trkpt lat="33.74826" lon="77.65381">
        <ele>4842.8</ele>
        <time>2015-09-06T02:16:43Z</time>
      </trkpt>
      <trkpt lat="33.74822" lon="77.65384">
        <ele>4841.6</ele>
        <time>2015-09-06T02:17:11Z</time>
      </trkpt>
      <trkpt lat="33.74822" lon="77.65382">
        <ele>4841</ele>
        <time>2015-09-06T02:17:16Z</time>
      </trkpt>
      <trkpt lat="33.74818" lon="77.65385">
        <ele>4840.8</ele>
        <time>2015-09-06T02:17:21Z</time>
      </trkpt>
      <trkpt lat="33.7482" lon="77.65391">
        <ele>4840.6</ele>
        <time>2015-09-06T02:17:32Z</time>
      </trkpt>
      <trkpt lat="33.74818" lon="77.65393">
        <ele>4839.6</ele>
        <time>2015-09-06T02:17:59Z</time>
      </trkpt>
      <trkpt lat="33.7482" lon="77.65398">
        <ele>4838.6</ele>
        <time>2015-09-06T02:18:32Z</time>
      </trkpt>
      <trkpt lat="33.74821" lon="77.65399">
        <ele>4838.6</ele>
        <time>2015-09-06T02:18:35Z</time>
      </trkpt>
      <trkpt lat="33.74821" lon="77.65398">
        <ele>4838.6</ele>
        <time>2015-09-06T02:18:36Z</time>
      </trkpt>
      <trkpt lat="33.74821" lon="77.65397">
        <ele>4838.4</ele>
        <time>2015-09-06T02:18:38Z</time>
      </trkpt>
      <trkpt lat="33.74815" lon="77.65397">
        <ele>4837.4</ele>
        <time>2015-09-06T02:19:12Z</time>
      </trkpt>
      <trkpt lat="33.74813" lon="77.65399">
        <ele>4836.8</ele>
        <time>2015-09-06T02:19:14Z</time>
      </trkpt>
      <trkpt lat="33.74812" lon="77.654">
        <ele>4836.4</ele>
        <time>2015-09-06T02:19:16Z</time>
      </trkpt>
      <trkpt lat="33.74805" lon="77.65406">
        <ele>4835.2</ele>
        <time>2015-09-06T02:19:31Z</time>
      </trkpt>
      <trkpt lat="33.74803" lon="77.65416">
        <ele>4834.2</ele>
        <time>2015-09-06T02:19:39Z</time>
      </trkpt>
      <trkpt lat="33.74802" lon="77.65424">
        <ele>4833.2</ele>
        <time>2015-09-06T02:19:45Z</time>
      </trkpt>
      <trkpt lat="33.74799" lon="77.65441">
        <ele>4832.2</ele>
        <time>2015-09-06T02:19:58Z</time>
      </trkpt>
      <trkpt lat="33.74799" lon="77.65444">
        <ele>4832</ele>
        <time>2015-09-06T02:20:00Z</time>
      </trkpt>
      <trkpt lat="33.74798" lon="77.65447">
        <ele>4831.8</ele>
        <time>2015-09-06T02:20:03Z</time>
      </trkpt>
      <trkpt lat="33.74796" lon="77.65455">
        <ele>4831.2</ele>
        <time>2015-09-06T02:20:09Z</time>
      </trkpt>
      <trkpt lat="33.74789" lon="77.65475">
        <ele>4830.4</ele>
        <time>2015-09-06T02:20:25Z</time>
      </trkpt>
      <trkpt lat="33.7479" lon="77.65478">
        <ele>4830.2</ele>
        <time>2015-09-06T02:20:28Z</time>
      </trkpt>
      <trkpt lat="33.7479" lon="77.65479">
        <ele>4830</ele>
        <time>2015-09-06T02:20:29Z</time>
      </trkpt>
      <trkpt lat="33.7479" lon="77.65498">
        <ele>4829</ele>
        <time>2015-09-06T02:20:41Z</time>
      </trkpt>
      <trkpt lat="33.74788" lon="77.65499">
        <ele>4828.6</ele>
        <time>2015-09-06T02:20:43Z</time>
      </trkpt>
      <trkpt lat="33.74785" lon="77.655">
        <ele>4828</ele>
        <time>2015-09-06T02:20:47Z</time>
      </trkpt>
      <trkpt lat="33.74783" lon="77.65503">
        <ele>4827.8</ele>
        <time>2015-09-06T02:20:51Z</time>
      </trkpt>
      <trkpt lat="33.74781" lon="77.65521">
        <ele>4826.6</ele>
        <time>2015-09-06T02:21:04Z</time>
      </trkpt>
      <trkpt lat="33.74779" lon="77.65526">
        <ele>4825.8</ele>
        <time>2015-09-06T02:21:10Z</time>
      </trkpt>
      <trkpt lat="33.74777" lon="77.65529">
        <ele>4825.6</ele>
        <time>2015-09-06T02:21:13Z</time>
      </trkpt>
      <trkpt lat="33.74774" lon="77.65539">
        <ele>4824.6</ele>
        <time>2015-09-06T02:21:23Z</time>
      </trkpt>
      <trkpt lat="33.74772" lon="77.65545">
        <ele>4824.2</ele>
        <time>2015-09-06T02:21:27Z</time>
      </trkpt>
      <trkpt lat="33.74769" lon="77.65552">
        <ele>4823.4</ele>
        <time>2015-09-06T02:21:33Z</time>
      </trkpt>
      <trkpt lat="33.74765" lon="77.65573">
        <ele>4823.2</ele>
        <time>2015-09-06T02:21:55Z</time>
      </trkpt>
      <trkpt lat="33.74764" lon="77.65587">
        <ele>4823</ele>
        <time>2015-09-06T02:22:06Z</time>
      </trkpt>
      <trkpt lat="33.74766" lon="77.65588">
        <ele>4822.8</ele>
        <time>2015-09-06T02:22:08Z</time>
      </trkpt>
      <trkpt lat="33.74766" lon="77.65594">
        <ele>4822.4</ele>
        <time>2015-09-06T02:22:17Z</time>
      </trkpt>
      <trkpt lat="33.74763" lon="77.65598">
        <ele>4822.6</ele>
        <time>2015-09-06T02:22:29Z</time>
      </trkpt>
      <trkpt lat="33.74767" lon="77.65598">
        <ele>4822.2</ele>
        <time>2015-09-06T02:22:34Z</time>
      </trkpt>
      <trkpt lat="33.74769" lon="77.65601">
        <ele>4822</ele>
        <time>2015-09-06T02:22:37Z</time>
      </trkpt>
      <trkpt lat="33.74763" lon="77.65616">
        <ele>4821.4</ele>
        <time>2015-09-06T02:22:53Z</time>
      </trkpt>
      <trkpt lat="33.74762" lon="77.65629">
        <ele>4820.8</ele>
        <time>2015-09-06T02:23:04Z</time>
      </trkpt>
      <trkpt lat="33.74759" lon="77.6563">
        <ele>4820.4</ele>
        <time>2015-09-06T02:23:06Z</time>
      </trkpt>
      <trkpt lat="33.74752" lon="77.65649">
        <ele>4819.2</ele>
        <time>2015-09-06T02:23:21Z</time>
      </trkpt>
      <trkpt lat="33.74743" lon="77.65666">
        <ele>4818.6</ele>
        <time>2015-09-06T02:23:37Z</time>
      </trkpt>
      <trkpt lat="33.74734" lon="77.65683">
        <ele>4818.4</ele>
        <time>2015-09-06T02:24:01Z</time>
      </trkpt>
      <trkpt lat="33.74725" lon="77.65697">
        <ele>4818.6</ele>
        <time>2015-09-06T02:24:18Z</time>
      </trkpt>
      <trkpt lat="33.74722" lon="77.65701">
        <ele>4818.2</ele>
        <time>2015-09-06T02:24:42Z</time>
      </trkpt>
      <trkpt lat="33.74719" lon="77.65708">
        <ele>4818.6</ele>
        <time>2015-09-06T02:24:51Z</time>
      </trkpt>
      <trkpt lat="33.74717" lon="77.65713">
        <ele>4819.2</ele>
        <time>2015-09-06T02:25:01Z</time>
      </trkpt>
      <trkpt lat="33.74709" lon="77.65719">
        <ele>4820.4</ele>
        <time>2015-09-06T02:25:15Z</time>
      </trkpt>
      <trkpt lat="33.74707" lon="77.65722">
        <ele>4820.4</ele>
        <time>2015-09-06T02:25:19Z</time>
      </trkpt>
      <trkpt lat="33.74706" lon="77.65725">
        <ele>4820.6</ele>
        <time>2015-09-06T02:25:22Z</time>
      </trkpt>
      <trkpt lat="33.74702" lon="77.6574">
        <ele>4821.4</ele>
        <time>2015-09-06T02:25:40Z</time>
      </trkpt>
      <trkpt lat="33.74696" lon="77.65746">
        <ele>4822.4</ele>
        <time>2015-09-06T02:25:59Z</time>
      </trkpt>
      <trkpt lat="33.74691" lon="77.6575">
        <ele>4823.4</ele>
        <time>2015-09-06T02:26:11Z</time>
      </trkpt>
      <trkpt lat="33.74693" lon="77.65759">
        <ele>4824.6</ele>
        <time>2015-09-06T02:26:25Z</time>
      </trkpt>
      <trkpt lat="33.74691" lon="77.65767">
        <ele>4824.6</ele>
        <time>2015-09-06T02:26:38Z</time>
      </trkpt>
      <trkpt lat="33.74687" lon="77.65772">
        <ele>4825.4</ele>
        <time>2015-09-06T02:26:45Z</time>
      </trkpt>
      <trkpt lat="33.74686" lon="77.65774">
        <ele>4825.6</ele>
        <time>2015-09-06T02:26:48Z</time>
      </trkpt>
      <trkpt lat="33.7468" lon="77.65781">
        <ele>4826.6</ele>
        <time>2015-09-06T02:27:05Z</time>
      </trkpt>
      <trkpt lat="33.74678" lon="77.65785">
        <ele>4827.6</ele>
        <time>2015-09-06T02:27:20Z</time>
      </trkpt>
      <trkpt lat="33.74673" lon="77.658">
        <ele>4828.6</ele>
        <time>2015-09-06T02:27:51Z</time>
      </trkpt>
      <trkpt lat="33.74671" lon="77.65805">
        <ele>4828.6</ele>
        <time>2015-09-06T02:27:56Z</time>
      </trkpt>
      <trkpt lat="33.74669" lon="77.65807">
        <ele>4828.6</ele>
        <time>2015-09-06T02:28:00Z</time>
      </trkpt>
      <trkpt lat="33.74669" lon="77.65809">
        <ele>4828.8</ele>
        <time>2015-09-06T02:28:03Z</time>
      </trkpt>
      <trkpt lat="33.74668" lon="77.65812">
        <ele>4829.8</ele>
        <time>2015-09-06T02:28:23Z</time>
      </trkpt>
      <trkpt lat="33.74666" lon="77.65816">
        <ele>4830.8</ele>
        <time>2015-09-06T02:28:38Z</time>
      </trkpt>
      <trkpt lat="33.74664" lon="77.65829">
        <ele>4831.8</ele>
        <time>2015-09-06T02:28:54Z</time>
      </trkpt>
      <trkpt lat="33.74662" lon="77.65843">
        <ele>4832.8</ele>
        <time>2015-09-06T02:29:15Z</time>
      </trkpt>
      <trkpt lat="33.74662" lon="77.65843">
        <ele>4832.8</ele>
        <time>2015-09-06T02:29:16Z</time>
      </trkpt>
      <trkpt lat="33.74657" lon="77.6585">
        <ele>4834</ele>
        <time>2015-09-06T02:29:36Z</time>
      </trkpt>
      <trkpt lat="33.74655" lon="77.65853">
        <ele>4835</ele>
        <time>2015-09-06T02:29:53Z</time>
      </trkpt>
      <trkpt lat="33.74651" lon="77.65859">
        <ele>4836</ele>
        <time>2015-09-06T02:30:09Z</time>
      </trkpt>
      <trkpt lat="33.74649" lon="77.65859">
        <ele>4836.2</ele>
        <time>2015-09-06T02:30:11Z</time>
      </trkpt>
      <trkpt lat="33.74645" lon="77.65862">
        <ele>4836.6</ele>
        <time>2015-09-06T02:30:21Z</time>
      </trkpt>
      <trkpt lat="33.74644" lon="77.65866">
        <ele>4837</ele>
        <time>2015-09-06T02:30:27Z</time>
      </trkpt>
      <trkpt lat="33.74638" lon="77.6587">
        <ele>4838.2</ele>
        <time>2015-09-06T02:30:47Z</time>
      </trkpt>
      <trkpt lat="33.74633" lon="77.65875">
        <ele>4839.2</ele>
        <time>2015-09-06T02:31:10Z</time>
      </trkpt>
      <trkpt lat="33.74631" lon="77.65881">
        <ele>4840.2</ele>
        <time>2015-09-06T02:31:23Z</time>
      </trkpt>
      <trkpt lat="33.7463" lon="77.65883">
        <ele>4841.2</ele>
        <time>2015-09-06T02:31:37Z</time>
      </trkpt>
      <trkpt lat="33.74622" lon="77.65884">
        <ele>4842.4</ele>
        <time>2015-09-06T02:31:57Z</time>
      </trkpt>
      <trkpt lat="33.74622" lon="77.65887">
        <ele>4843.6</ele>
        <time>2015-09-06T02:32:10Z</time>
      </trkpt>
      <trkpt lat="33.74618" lon="77.65897">
        <ele>4844.6</ele>
        <time>2015-09-06T02:32:32Z</time>
      </trkpt>
      <trkpt lat="33.74615" lon="77.65902">
        <ele>4845.6</ele>
        <time>2015-09-06T02:32:52Z</time>
      </trkpt>
      <trkpt lat="33.74614" lon="77.65908">
        <ele>4846.8</ele>
        <time>2015-09-06T02:33:08Z</time>
      </trkpt>
      <trkpt lat="33.74609" lon="77.65918">
        <ele>4847.8</ele>
        <time>2015-09-06T02:33:34Z</time>
      </trkpt>
      <trkpt lat="33.74609" lon="77.65921">
        <ele>4848.8</ele>
        <time>2015-09-06T02:33:48Z</time>
      </trkpt>
      <trkpt lat="33.74606" lon="77.65922">
        <ele>4850</ele>
        <time>2015-09-06T02:34:01Z</time>
      </trkpt>
      <trkpt lat="33.74604" lon="77.65926">
        <ele>4851</ele>
        <time>2015-09-06T02:34:13Z</time>
      </trkpt>
      <trkpt lat="33.74599" lon="77.65926">
        <ele>4852</ele>
        <time>2015-09-06T02:34:26Z</time>
      </trkpt>
      <trkpt lat="33.74597" lon="77.65926">
        <ele>4853</ele>
        <time>2015-09-06T02:34:36Z</time>
      </trkpt>
      <trkpt lat="33.74596" lon="77.65932">
        <ele>4854</ele>
        <time>2015-09-06T02:34:51Z</time>
      </trkpt>
      <trkpt lat="33.74591" lon="77.65937">
        <ele>4855</ele>
        <time>2015-09-06T02:35:09Z</time>
      </trkpt>
      <trkpt lat="33.74592" lon="77.65943">
        <ele>4856.2</ele>
        <time>2015-09-06T02:35:26Z</time>
      </trkpt>
      <trkpt lat="33.7459" lon="77.65947">
        <ele>4856.8</ele>
        <time>2015-09-06T02:35:38Z</time>
      </trkpt>
      <trkpt lat="33.74591" lon="77.65949">
        <ele>4857.2</ele>
        <time>2015-09-06T02:35:47Z</time>
      </trkpt>
      <trkpt lat="33.74592" lon="77.65959">
        <ele>4858.2</ele>
        <time>2015-09-06T02:36:07Z</time>
      </trkpt>
      <trkpt lat="33.74589" lon="77.65964">
        <ele>4859.2</ele>
        <time>2015-09-06T02:36:28Z</time>
      </trkpt>
      <trkpt lat="33.74586" lon="77.65964">
        <ele>4860.2</ele>
        <time>2015-09-06T02:36:43Z</time>
      </trkpt>
      <trkpt lat="33.74591" lon="77.65968">
        <ele>4861.2</ele>
        <time>2015-09-06T02:36:53Z</time>
      </trkpt>
      <trkpt lat="33.74589" lon="77.65973">
        <ele>4862.2</ele>
        <time>2015-09-06T02:37:19Z</time>
      </trkpt>
      <trkpt lat="33.74597" lon="77.65983">
        <ele>4863.2</ele>
        <time>2015-09-06T02:37:40Z</time>
      </trkpt>
      <trkpt lat="33.74603" lon="77.6599">
        <ele>4864.2</ele>
        <time>2015-09-06T02:38:02Z</time>
      </trkpt>
      <trkpt lat="33.74599" lon="77.65994">
        <ele>4865.4</ele>
        <time>2015-09-06T02:38:13Z</time>
      </trkpt>
      <trkpt lat="33.74598" lon="77.65997">
        <ele>4866.4</ele>
        <time>2015-09-06T02:38:28Z</time>
      </trkpt>
      <trkpt lat="33.74597" lon="77.65999">
        <ele>4867.4</ele>
        <time>2015-09-06T02:38:41Z</time>
      </trkpt>
      <trkpt lat="33.74602" lon="77.66006">
        <ele>4868.6</ele>
        <time>2015-09-06T02:39:01Z</time>
      </trkpt>
      <trkpt lat="33.74607" lon="77.66009">
        <ele>4869.4</ele>
        <time>2015-09-06T02:39:16Z</time>
      </trkpt>
      <trkpt lat="33.74607" lon="77.66009">
        <ele>4869.6</ele>
        <time>2015-09-06T02:39:18Z</time>
      </trkpt>
      <trkpt lat="33.746" lon="77.66011">
        <ele>4870.6</ele>
        <time>2015-09-06T02:39:36Z</time>
      </trkpt>
      <trkpt lat="33.74603" lon="77.66016">
        <ele>4871.6</ele>
        <time>2015-09-06T02:39:55Z</time>
      </trkpt>
      <trkpt lat="33.74601" lon="77.66022">
        <ele>4872.6</ele>
        <time>2015-09-06T02:40:12Z</time>
      </trkpt>
      <trkpt lat="33.74597" lon="77.66024">
        <ele>4873.8</ele>
        <time>2015-09-06T02:40:24Z</time>
      </trkpt>
      <trkpt lat="33.74596" lon="77.66031">
        <ele>4874.8</ele>
        <time>2015-09-06T02:40:35Z</time>
      </trkpt>
      <trkpt lat="33.74597" lon="77.66039">
        <ele>4875.8</ele>
        <time>2015-09-06T02:40:54Z</time>
      </trkpt>
      <trkpt lat="33.74592" lon="77.66042">
        <ele>4877</ele>
        <time>2015-09-06T02:41:05Z</time>
      </trkpt>
      <trkpt lat="33.74593" lon="77.66051">
        <ele>4878</ele>
        <time>2015-09-06T02:41:30Z</time>
      </trkpt>
      <trkpt lat="33.74593" lon="77.66058">
        <ele>4879.2</ele>
        <time>2015-09-06T02:42:05Z</time>
      </trkpt>
      <trkpt lat="33.74593" lon="77.66061">
        <ele>4880.2</ele>
        <time>2015-09-06T02:42:17Z</time>
      </trkpt>
      <trkpt lat="33.74594" lon="77.66071">
        <ele>4881.4</ele>
        <time>2015-09-06T02:42:35Z</time>
      </trkpt>
      <trkpt lat="33.74593" lon="77.66075">
        <ele>4882.4</ele>
        <time>2015-09-06T02:42:47Z</time>
      </trkpt>
      <trkpt lat="33.74596" lon="77.66082">
        <ele>4883.6</ele>
        <time>2015-09-06T02:43:05Z</time>
      </trkpt>
      <trkpt lat="33.74592" lon="77.66089">
        <ele>4884.6</ele>
        <time>2015-09-06T02:43:28Z</time>
      </trkpt>
      <trkpt lat="33.74593" lon="77.66093">
        <ele>4885.6</ele>
        <time>2015-09-06T02:43:40Z</time>
      </trkpt>
      <trkpt lat="33.74591" lon="77.661">
        <ele>4886.6</ele>
        <time>2015-09-06T02:43:58Z</time>
      </trkpt>
      <trkpt lat="33.74589" lon="77.66105">
        <ele>4887.8</ele>
        <time>2015-09-06T02:44:13Z</time>
      </trkpt>
      <trkpt lat="33.7459" lon="77.66112">
        <ele>4888.8</ele>
        <time>2015-09-06T02:44:27Z</time>
      </trkpt>
      <trkpt lat="33.74593" lon="77.66116">
        <ele>4890</ele>
        <time>2015-09-06T02:44:47Z</time>
      </trkpt>
      <trkpt lat="33.74592" lon="77.66122">
        <ele>4891</ele>
        <time>2015-09-06T02:44:58Z</time>
      </trkpt>
      <trkpt lat="33.74593" lon="77.66129">
        <ele>4891.4</ele>
        <time>2015-09-06T02:45:11Z</time>
      </trkpt>
      <trkpt lat="33.74591" lon="77.66132">
        <ele>4892</ele>
        <time>2015-09-06T02:45:18Z</time>
      </trkpt>
      <trkpt lat="33.74587" lon="77.66135">
        <ele>4893</ele>
        <time>2015-09-06T02:45:29Z</time>
      </trkpt>
      <trkpt lat="33.74587" lon="77.66142">
        <ele>4894</ele>
        <time>2015-09-06T02:45:44Z</time>
      </trkpt>
      <trkpt lat="33.74587" lon="77.66149">
        <ele>4895.2</ele>
        <time>2015-09-06T02:45:58Z</time>
      </trkpt>
      <trkpt lat="33.74583" lon="77.6616">
        <ele>4896.2</ele>
        <time>2015-09-06T02:46:19Z</time>
      </trkpt>
      <trkpt lat="33.74582" lon="77.66167">
        <ele>4897.2</ele>
        <time>2015-09-06T02:46:36Z</time>
      </trkpt>
      <trkpt lat="33.74581" lon="77.66171">
        <ele>4898.2</ele>
        <time>2015-09-06T02:46:46Z</time>
      </trkpt>
      <trkpt lat="33.74582" lon="77.66176">
        <ele>4899.4</ele>
        <time>2015-09-06T02:46:58Z</time>
      </trkpt>
      <trkpt lat="33.74573" lon="77.66179">
        <ele>4900.6</ele>
        <time>2015-09-06T02:47:19Z</time>
      </trkpt>
      <trkpt lat="33.74583" lon="77.66184">
        <ele>4901.6</ele>
        <time>2015-09-06T02:47:57Z</time>
      </trkpt>
      <trkpt lat="33.74585" lon="77.6619">
        <ele>4902.8</ele>
        <time>2015-09-06T02:48:09Z</time>
      </trkpt>
      <trkpt lat="33.74589" lon="77.66196">
        <ele>4902.2</ele>
        <time>2015-09-06T02:49:18Z</time>
      </trkpt>
      <trkpt lat="33.74597" lon="77.66188">
        <ele>4902</ele>
        <time>2015-09-06T02:49:33Z</time>
      </trkpt>
      <trkpt lat="33.74595" lon="77.66188">
        <ele>4901.8</ele>
        <time>2015-09-06T02:49:35Z</time>
      </trkpt>
      <trkpt lat="33.74586" lon="77.66187">
        <ele>4902</ele>
        <time>2015-09-06T02:49:39Z</time>
      </trkpt>
      <trkpt lat="33.74583" lon="77.66186">
        <ele>4901.6</ele>
        <time>2015-09-06T02:49:42Z</time>
      </trkpt>
      <trkpt lat="33.74581" lon="77.66186">
        <ele>4901.2</ele>
        <time>2015-09-06T02:49:45Z</time>
      </trkpt>
      <trkpt lat="33.7458" lon="77.66184">
        <ele>4901</ele>
        <time>2015-09-06T02:49:47Z</time>
      </trkpt>
      <trkpt lat="33.74575" lon="77.66182">
        <ele>4900.6</ele>
        <time>2015-09-06T02:49:53Z</time>
      </trkpt>
      <trkpt lat="33.7457" lon="77.66183">
        <ele>4899.6</ele>
        <time>2015-09-06T02:50:15Z</time>
      </trkpt>
      <trkpt lat="33.74569" lon="77.66182">
        <ele>4898.4</ele>
        <time>2015-09-06T02:51:02Z</time>
      </trkpt>
      <trkpt lat="33.74568" lon="77.66185">
        <ele>4897.4</ele>
        <time>2015-09-06T02:51:12Z</time>
      </trkpt>
      <trkpt lat="33.74563" lon="77.66184">
        <ele>4896.2</ele>
        <time>2015-09-06T02:51:21Z</time>
      </trkpt>
      <trkpt lat="33.74557" lon="77.66187">
        <ele>4895.2</ele>
        <time>2015-09-06T02:51:32Z</time>
      </trkpt>
      <trkpt lat="33.74552" lon="77.6619">
        <ele>4894.4</ele>
        <time>2015-09-06T02:51:41Z</time>
      </trkpt>
      <trkpt lat="33.74551" lon="77.66191">
        <ele>4894.2</ele>
        <time>2015-09-06T02:51:43Z</time>
      </trkpt>
      <trkpt lat="33.74549" lon="77.6619">
        <ele>4893</ele>
        <time>2015-09-06T02:51:50Z</time>
      </trkpt>
      <trkpt lat="33.74542" lon="77.66191">
        <ele>4891.8</ele>
        <time>2015-09-06T02:51:59Z</time>
      </trkpt>
      <trkpt lat="33.74536" lon="77.66194">
        <ele>4890.8</ele>
        <time>2015-09-06T02:52:07Z</time>
      </trkpt>
      <trkpt lat="33.74532" lon="77.66192">
        <ele>4889.6</ele>
        <time>2015-09-06T02:52:14Z</time>
      </trkpt>
      <trkpt lat="33.74528" lon="77.66191">
        <ele>4888.6</ele>
        <time>2015-09-06T02:52:22Z</time>
      </trkpt>
      <trkpt lat="33.74518" lon="77.66195">
        <ele>4887.4</ele>
        <time>2015-09-06T02:52:37Z</time>
      </trkpt>
      <trkpt lat="33.74516" lon="77.66195">
        <ele>4886.2</ele>
        <time>2015-09-06T02:52:42Z</time>
      </trkpt>
      <trkpt lat="33.74508" lon="77.66193">
        <ele>4885.2</ele>
        <time>2015-09-06T02:52:54Z</time>
      </trkpt>
      <trkpt lat="33.74505" lon="77.66193">
        <ele>4884</ele>
        <time>2015-09-06T02:53:01Z</time>
      </trkpt>
      <trkpt lat="33.74501" lon="77.66199">
        <ele>4882.8</ele>
        <time>2015-09-06T02:53:15Z</time>
      </trkpt>
      <trkpt lat="33.74499" lon="77.66195">
        <ele>4881.8</ele>
        <time>2015-09-06T02:53:20Z</time>
      </trkpt>
      <trkpt lat="33.74496" lon="77.66196">
        <ele>4880.6</ele>
        <time>2015-09-06T02:53:24Z</time>
      </trkpt>
      <trkpt lat="33.74492" lon="77.66198">
        <ele>4879.6</ele>
        <time>2015-09-06T02:53:30Z</time>
      </trkpt>
      <trkpt lat="33.74489" lon="77.66197">
        <ele>4878.4</ele>
        <time>2015-09-06T02:53:36Z</time>
      </trkpt>
      <trkpt lat="33.74485" lon="77.66196">
        <ele>4877.4</ele>
        <time>2015-09-06T02:53:44Z</time>
      </trkpt>
      <trkpt lat="33.7448" lon="77.66191">
        <ele>4876.2</ele>
        <time>2015-09-06T02:53:51Z</time>
      </trkpt>
      <trkpt lat="33.74477" lon="77.66189">
        <ele>4875.2</ele>
        <time>2015-09-06T02:53:56Z</time>
      </trkpt>
      <trkpt lat="33.74473" lon="77.66189">
        <ele>4874</ele>
        <time>2015-09-06T02:54:03Z</time>
      </trkpt>
      <trkpt lat="33.74469" lon="77.66188">
        <ele>4873</ele>
        <time>2015-09-06T02:54:08Z</time>
      </trkpt>
      <trkpt lat="33.74465" lon="77.66191">
        <ele>4872.2</ele>
        <time>2015-09-06T02:54:13Z</time>
      </trkpt>
      <trkpt lat="33.74463" lon="77.66195">
        <ele>4872</ele>
        <time>2015-09-06T02:54:16Z</time>
      </trkpt>
      <trkpt lat="33.74462" lon="77.66199">
        <ele>4871.8</ele>
        <time>2015-09-06T02:54:18Z</time>
      </trkpt>
      <trkpt lat="33.74459" lon="77.662">
        <ele>4870.6</ele>
        <time>2015-09-06T02:54:24Z</time>
      </trkpt>
      <trkpt lat="33.74456" lon="77.66199">
        <ele>4869.6</ele>
        <time>2015-09-06T02:54:28Z</time>
      </trkpt>
      <trkpt lat="33.74453" lon="77.662">
        <ele>4868.6</ele>
        <time>2015-09-06T02:54:33Z</time>
      </trkpt>
      <trkpt lat="33.74443" lon="77.66213">
        <ele>4867.4</ele>
        <time>2015-09-06T02:54:51Z</time>
      </trkpt>
      <trkpt lat="33.74439" lon="77.66221">
        <ele>4866.4</ele>
        <time>2015-09-06T02:55:01Z</time>
      </trkpt>
      <trkpt lat="33.74434" lon="77.66226">
        <ele>4865.2</ele>
        <time>2015-09-06T02:55:09Z</time>
      </trkpt>
      <trkpt lat="33.7443" lon="77.66229">
        <ele>4864</ele>
        <time>2015-09-06T02:55:17Z</time>
      </trkpt>
      <trkpt lat="33.74428" lon="77.66232">
        <ele>4864</ele>
        <time>2015-09-06T02:55:21Z</time>
      </trkpt>
      <trkpt lat="33.74418" lon="77.66245">
        <ele>4863</ele>
        <time>2015-09-06T02:55:39Z</time>
      </trkpt>
      <trkpt lat="33.74412" lon="77.66251">
        <ele>4861.8</ele>
        <time>2015-09-06T02:55:48Z</time>
      </trkpt>
      <trkpt lat="33.74406" lon="77.66254">
        <ele>4861.4</ele>
        <time>2015-09-06T02:55:56Z</time>
      </trkpt>
      <trkpt lat="33.74402" lon="77.66258">
        <ele>4860.8</ele>
        <time>2015-09-06T02:56:02Z</time>
      </trkpt>
      <trkpt lat="33.74398" lon="77.66265">
        <ele>4859.6</ele>
        <time>2015-09-06T02:56:13Z</time>
      </trkpt>
      <trkpt lat="33.74383" lon="77.66278">
        <ele>4858.6</ele>
        <time>2015-09-06T02:56:39Z</time>
      </trkpt>
      <trkpt lat="33.74379" lon="77.66287">
        <ele>4857.6</ele>
        <time>2015-09-06T02:56:50Z</time>
      </trkpt>
      <trkpt lat="33.74375" lon="77.66297">
        <ele>4856.6</ele>
        <time>2015-09-06T02:57:00Z</time>
      </trkpt>
      <trkpt lat="33.74374" lon="77.66297">
        <ele>4856.6</ele>
        <time>2015-09-06T02:57:01Z</time>
      </trkpt>
      <trkpt lat="33.74364" lon="77.66315">
        <ele>4856.2</ele>
        <time>2015-09-06T02:57:24Z</time>
      </trkpt>
      <trkpt lat="33.74359" lon="77.66321">
        <ele>4855.6</ele>
        <time>2015-09-06T02:57:35Z</time>
      </trkpt>
      <trkpt lat="33.74358" lon="77.66325">
        <ele>4854.4</ele>
        <time>2015-09-06T02:57:39Z</time>
      </trkpt>
      <trkpt lat="33.74356" lon="77.66332">
        <ele>4853.2</ele>
        <time>2015-09-06T02:57:47Z</time>
      </trkpt>
      <trkpt lat="33.74351" lon="77.66341">
        <ele>4852.2</ele>
        <time>2015-09-06T02:57:57Z</time>
      </trkpt>
      <trkpt lat="33.74349" lon="77.6635">
        <ele>4851</ele>
        <time>2015-09-06T02:58:06Z</time>
      </trkpt>
      <trkpt lat="33.74347" lon="77.66358">
        <ele>4850.8</ele>
        <time>2015-09-06T02:58:12Z</time>
      </trkpt>
      <trkpt lat="33.74345" lon="77.66362">
        <ele>4850.6</ele>
        <time>2015-09-06T02:58:17Z</time>
      </trkpt>
      <trkpt lat="33.74342" lon="77.66374">
        <ele>4850</ele>
        <time>2015-09-06T02:58:28Z</time>
      </trkpt>
      <trkpt lat="33.74342" lon="77.66378">
        <ele>4849.4</ele>
        <time>2015-09-06T02:58:33Z</time>
      </trkpt>
      <trkpt lat="33.7434" lon="77.66382">
        <ele>4849</ele>
        <time>2015-09-06T02:58:36Z</time>
      </trkpt>
      <trkpt lat="33.74339" lon="77.66383">
        <ele>4849.2</ele>
        <time>2015-09-06T02:58:39Z</time>
      </trkpt>
      <trkpt lat="33.74338" lon="77.66389">
        <ele>4849.4</ele>
        <time>2015-09-06T02:58:44Z</time>
      </trkpt>
      <trkpt lat="33.74339" lon="77.66395">
        <ele>4849</ele>
        <time>2015-09-06T02:58:53Z</time>
      </trkpt>
      <trkpt lat="33.7434" lon="77.66417">
        <ele>4849.4</ele>
        <time>2015-09-06T02:59:17Z</time>
      </trkpt>
      <trkpt lat="33.74335" lon="77.66437">
        <ele>4848.6</ele>
        <time>2015-09-06T02:59:43Z</time>
      </trkpt>
      <trkpt lat="33.74335" lon="77.66439">
        <ele>4848.2</ele>
        <time>2015-09-06T02:59:45Z</time>
      </trkpt>
      <trkpt lat="33.74335" lon="77.6644">
        <ele>4847.8</ele>
        <time>2015-09-06T02:59:46Z</time>
      </trkpt>
      <trkpt lat="33.74335" lon="77.66445">
        <ele>4847.4</ele>
        <time>2015-09-06T02:59:51Z</time>
      </trkpt>
      <trkpt lat="33.74334" lon="77.66449">
        <ele>4847.4</ele>
        <time>2015-09-06T02:59:55Z</time>
      </trkpt>
      <trkpt lat="33.74335" lon="77.66471">
        <ele>4848.4</ele>
        <time>2015-09-06T03:00:22Z</time>
      </trkpt>
      <trkpt lat="33.7434" lon="77.66491">
        <ele>4848.4</ele>
        <time>2015-09-06T03:00:45Z</time>
      </trkpt>
      <trkpt lat="33.7434" lon="77.66508">
        <ele>4849</ele>
        <time>2015-09-06T03:01:08Z</time>
      </trkpt>
      <trkpt lat="33.74343" lon="77.66517">
        <ele>4849.8</ele>
        <time>2015-09-06T03:01:22Z</time>
      </trkpt>
      <trkpt lat="33.74342" lon="77.66519">
        <ele>4850</ele>
        <time>2015-09-06T03:01:27Z</time>
      </trkpt>
      <trkpt lat="33.74345" lon="77.66537">
        <ele>4851</ele>
        <time>2015-09-06T03:01:52Z</time>
      </trkpt>
      <trkpt lat="33.74349" lon="77.66543">
        <ele>4852</ele>
        <time>2015-09-06T03:02:05Z</time>
      </trkpt>
      <trkpt lat="33.74348" lon="77.66551">
        <ele>4853</ele>
        <time>2015-09-06T03:02:22Z</time>
      </trkpt>
      <trkpt lat="33.7435" lon="77.66554">
        <ele>4854.2</ele>
        <time>2015-09-06T03:02:28Z</time>
      </trkpt>
      <trkpt lat="33.74345" lon="77.66564">
        <ele>4855.2</ele>
        <time>2015-09-06T03:02:44Z</time>
      </trkpt>
      <trkpt lat="33.74348" lon="77.66578">
        <ele>4854.2</ele>
        <time>2015-09-06T03:03:04Z</time>
      </trkpt>
      <trkpt lat="33.74353" lon="77.66594">
        <ele>4854.6</ele>
        <time>2015-09-06T03:03:24Z</time>
      </trkpt>
      <trkpt lat="33.74355" lon="77.66611">
        <ele>4855.2</ele>
        <time>2015-09-06T03:03:48Z</time>
      </trkpt>
      <trkpt lat="33.74361" lon="77.66626">
        <ele>4856.2</ele>
        <time>2015-09-06T03:04:17Z</time>
      </trkpt>
      <trkpt lat="33.74362" lon="77.66627">
        <ele>4856.4</ele>
        <time>2015-09-06T03:04:18Z</time>
      </trkpt>
      <trkpt lat="33.7436" lon="77.66637">
        <ele>4857.4</ele>
        <time>2015-09-06T03:04:39Z</time>
      </trkpt>
      <trkpt lat="33.74359" lon="77.66652">
        <ele>4856.4</ele>
        <time>2015-09-06T03:04:56Z</time>
      </trkpt>
      <trkpt lat="33.74357" lon="77.66655">
        <ele>4856.2</ele>
        <time>2015-09-06T03:05:00Z</time>
      </trkpt>
      <trkpt lat="33.74355" lon="77.66677">
        <ele>4856.6</ele>
        <time>2015-09-06T03:05:24Z</time>
      </trkpt>
      <trkpt lat="33.74356" lon="77.66693">
        <ele>4857.4</ele>
        <time>2015-09-06T03:05:45Z</time>
      </trkpt>
      <trkpt lat="33.74355" lon="77.66705">
        <ele>4858.4</ele>
        <time>2015-09-06T03:06:05Z</time>
      </trkpt>
      <trkpt lat="33.74356" lon="77.66714">
        <ele>4859.4</ele>
        <time>2015-09-06T03:06:18Z</time>
      </trkpt>
      <trkpt lat="33.74355" lon="77.66729">
        <ele>4860.4</ele>
        <time>2015-09-06T03:06:50Z</time>
      </trkpt>
      <trkpt lat="33.74347" lon="77.66747">
        <ele>4861</ele>
        <time>2015-09-06T03:07:15Z</time>
      </trkpt>
      <trkpt lat="33.74346" lon="77.66751">
        <ele>4861.6</ele>
        <time>2015-09-06T03:07:28Z</time>
      </trkpt>
      <trkpt lat="33.74344" lon="77.66758">
        <ele>4862.6</ele>
        <time>2015-09-06T03:07:46Z</time>
      </trkpt>
      <trkpt lat="33.74343" lon="77.6676">
        <ele>4863.6</ele>
        <time>2015-09-06T03:07:57Z</time>
      </trkpt>
      <trkpt lat="33.74343" lon="77.66766">
        <ele>4864.8</ele>
        <time>2015-09-06T03:08:06Z</time>
      </trkpt>
      <trkpt lat="33.74337" lon="77.66778">
        <ele>4865.8</ele>
        <time>2015-09-06T03:08:34Z</time>
      </trkpt>
      <trkpt lat="33.74334" lon="77.66794">
        <ele>4866.8</ele>
        <time>2015-09-06T03:09:01Z</time>
      </trkpt>
      <trkpt lat="33.74331" lon="77.66803">
        <ele>4867.8</ele>
        <time>2015-09-06T03:09:32Z</time>
      </trkpt>
      <trkpt lat="33.74328" lon="77.66821">
        <ele>4868.8</ele>
        <time>2015-09-06T03:10:05Z</time>
      </trkpt>
      <trkpt lat="33.74325" lon="77.66824">
        <ele>4868.8</ele>
        <time>2015-09-06T03:10:11Z</time>
      </trkpt>
      <trkpt lat="33.74324" lon="77.66829">
        <ele>4870</ele>
        <time>2015-09-06T03:10:22Z</time>
      </trkpt>
      <trkpt lat="33.74323" lon="77.66837">
        <ele>4871</ele>
        <time>2015-09-06T03:10:29Z</time>
      </trkpt>
      <trkpt lat="33.74324" lon="77.66843">
        <ele>4871.4</ele>
        <time>2015-09-06T03:10:34Z</time>
      </trkpt>
      <trkpt lat="33.74325" lon="77.66853">
        <ele>4872</ele>
        <time>2015-09-06T03:10:59Z</time>
      </trkpt>
      <trkpt lat="33.74323" lon="77.66858">
        <ele>4873</ele>
        <time>2015-09-06T03:11:13Z</time>
      </trkpt>
      <trkpt lat="33.7432" lon="77.66866">
        <ele>4874</ele>
        <time>2015-09-06T03:11:30Z</time>
      </trkpt>
      <trkpt lat="33.74321" lon="77.66885">
        <ele>4874.4</ele>
        <time>2015-09-06T03:11:53Z</time>
      </trkpt>
      <trkpt lat="33.74322" lon="77.66886">
        <ele>4874.2</ele>
        <time>2015-09-06T03:12:16Z</time>
      </trkpt>
      <trkpt lat="33.74319" lon="77.66886">
        <ele>4873.8</ele>
        <time>2015-09-06T03:12:19Z</time>
      </trkpt>
      <trkpt lat="33.74314" lon="77.66886">
        <ele>4873</ele>
        <time>2015-09-06T03:12:35Z</time>
      </trkpt>
      <trkpt lat="33.74304" lon="77.66885">
        <ele>4873</ele>
        <time>2015-09-06T03:12:50Z</time>
      </trkpt>
      <trkpt lat="33.74292" lon="77.66891">
        <ele>4873.2</ele>
        <time>2015-09-06T03:13:02Z</time>
      </trkpt>
      <trkpt lat="33.74287" lon="77.66892">
        <ele>4873.2</ele>
        <time>2015-09-06T03:13:09Z</time>
      </trkpt>
      <trkpt lat="33.74285" lon="77.66892">
        <ele>4873.2</ele>
        <time>2015-09-06T03:13:11Z</time>
      </trkpt>
      <trkpt lat="33.74276" lon="77.66894">
        <ele>4872.6</ele>
        <time>2015-09-06T03:13:22Z</time>
      </trkpt>
      <trkpt lat="33.74269" lon="77.66898">
        <ele>4872.2</ele>
        <time>2015-09-06T03:13:32Z</time>
      </trkpt>
      <trkpt lat="33.74267" lon="77.66898">
        <ele>4872.2</ele>
        <time>2015-09-06T03:13:35Z</time>
      </trkpt>
      <trkpt lat="33.74258" lon="77.669">
        <ele>4871.8</ele>
        <time>2015-09-06T03:13:50Z</time>
      </trkpt>
      <trkpt lat="33.74244" lon="77.66916">
        <ele>4871.2</ele>
        <time>2015-09-06T03:14:11Z</time>
      </trkpt>
      <trkpt lat="33.74239" lon="77.66919">
        <ele>4870.8</ele>
        <time>2015-09-06T03:14:22Z</time>
      </trkpt>
      <trkpt lat="33.74232" lon="77.66923">
        <ele>4871.8</ele>
        <time>2015-09-06T03:14:36Z</time>
      </trkpt>
      <trkpt lat="33.74225" lon="77.66929">
        <ele>4871.6</ele>
        <time>2015-09-06T03:14:47Z</time>
      </trkpt>
      <trkpt lat="33.74221" lon="77.66934">
        <ele>4871.6</ele>
        <time>2015-09-06T03:14:54Z</time>
      </trkpt>
      <trkpt lat="33.74206" lon="77.66941">
        <ele>4871.6</ele>
        <time>2015-09-06T03:15:20Z</time>
      </trkpt>
      <trkpt lat="33.74197" lon="77.66948">
        <ele>4872.4</ele>
        <time>2015-09-06T03:15:35Z</time>
      </trkpt>
      <trkpt lat="33.74193" lon="77.66947">
        <ele>4873</ele>
        <time>2015-09-06T03:15:43Z</time>
      </trkpt>
      <trkpt lat="33.74181" lon="77.66955">
        <ele>4874</ele>
        <time>2015-09-06T03:16:03Z</time>
      </trkpt>
      <trkpt lat="33.74179" lon="77.66962">
        <ele>4873.6</ele>
        <time>2015-09-06T03:16:08Z</time>
      </trkpt>
      <trkpt lat="33.74178" lon="77.66966">
        <ele>4873.4</ele>
        <time>2015-09-06T03:16:11Z</time>
      </trkpt>
      <trkpt lat="33.74171" lon="77.66976">
        <ele>4875</ele>
        <time>2015-09-06T03:16:27Z</time>
      </trkpt>
      <trkpt lat="33.74169" lon="77.66979">
        <ele>4876</ele>
        <time>2015-09-06T03:16:35Z</time>
      </trkpt>
      <trkpt lat="33.74158" lon="77.66986">
        <ele>4875</ele>
        <time>2015-09-06T03:17:01Z</time>
      </trkpt>
      <trkpt lat="33.7415" lon="77.66988">
        <ele>4873.8</ele>
        <time>2015-09-06T03:17:22Z</time>
      </trkpt>
      <trkpt lat="33.74149" lon="77.6699">
        <ele>4872.6</ele>
        <time>2015-09-06T03:17:27Z</time>
      </trkpt>
      <trkpt lat="33.74145" lon="77.66998">
        <ele>4871.6</ele>
        <time>2015-09-06T03:17:39Z</time>
      </trkpt>
      <trkpt lat="33.74141" lon="77.66999">
        <ele>4870.6</ele>
        <time>2015-09-06T03:17:47Z</time>
      </trkpt>
      <trkpt lat="33.74132" lon="77.66997">
        <ele>4871.2</ele>
        <time>2015-09-06T03:18:03Z</time>
      </trkpt>
      <trkpt lat="33.74129" lon="77.67001">
        <ele>4871.6</ele>
        <time>2015-09-06T03:18:06Z</time>
      </trkpt>
      <trkpt lat="33.74127" lon="77.67004">
        <ele>4871.6</ele>
        <time>2015-09-06T03:18:08Z</time>
      </trkpt>
      <trkpt lat="33.74118" lon="77.67013">
        <ele>4871.4</ele>
        <time>2015-09-06T03:18:21Z</time>
      </trkpt>
      <trkpt lat="33.74106" lon="77.67027">
        <ele>4871.2</ele>
        <time>2015-09-06T03:18:52Z</time>
      </trkpt>
      <trkpt lat="33.74094" lon="77.67044">
        <ele>4871.4</ele>
        <time>2015-09-06T03:19:20Z</time>
      </trkpt>
      <trkpt lat="33.74091" lon="77.67052">
        <ele>4871</ele>
        <time>2015-09-06T03:19:25Z</time>
      </trkpt>
      <trkpt lat="33.74083" lon="77.67062">
        <ele>4872.8</ele>
        <time>2015-09-06T03:19:46Z</time>
      </trkpt>
      <trkpt lat="33.74081" lon="77.67067">
        <ele>4873.6</ele>
        <time>2015-09-06T03:19:52Z</time>
      </trkpt>
      <trkpt lat="33.74075" lon="77.67073">
        <ele>4871.8</ele>
        <time>2015-09-06T03:20:03Z</time>
      </trkpt>
      <trkpt lat="33.74066" lon="77.67087">
        <ele>4871.6</ele>
        <time>2015-09-06T03:20:23Z</time>
      </trkpt>
      <trkpt lat="33.74066" lon="77.67092">
        <ele>4870.6</ele>
        <time>2015-09-06T03:20:27Z</time>
      </trkpt>
      <trkpt lat="33.74061" lon="77.67099">
        <ele>4870</ele>
        <time>2015-09-06T03:20:37Z</time>
      </trkpt>
      <trkpt lat="33.74058" lon="77.67098">
        <ele>4871.6</ele>
        <time>2015-09-06T03:20:48Z</time>
      </trkpt>
      <trkpt lat="33.74053" lon="77.67106">
        <ele>4870.6</ele>
        <time>2015-09-06T03:21:04Z</time>
      </trkpt>
      <trkpt lat="33.74052" lon="77.67107">
        <ele>4870.6</ele>
        <time>2015-09-06T03:21:05Z</time>
      </trkpt>
      <trkpt lat="33.74051" lon="77.67116">
        <ele>4870.4</ele>
        <time>2015-09-06T03:21:09Z</time>
      </trkpt>
      <trkpt lat="33.7405" lon="77.67119">
        <ele>4870.2</ele>
        <time>2015-09-06T03:21:11Z</time>
      </trkpt>
      <trkpt lat="33.74045" lon="77.67132">
        <ele>4870.8</ele>
        <time>2015-09-06T03:21:28Z</time>
      </trkpt>
      <trkpt lat="33.74036" lon="77.67145">
        <ele>4871.6</ele>
        <time>2015-09-06T03:21:54Z</time>
      </trkpt>
      <trkpt lat="33.74031" lon="77.6716">
        <ele>4872.8</ele>
        <time>2015-09-06T03:22:08Z</time>
      </trkpt>
      <trkpt lat="33.7403" lon="77.67164">
        <ele>4873.8</ele>
        <time>2015-09-06T03:22:14Z</time>
      </trkpt>
      <trkpt lat="33.74029" lon="77.67178">
        <ele>4874</ele>
        <time>2015-09-06T03:22:33Z</time>
      </trkpt>
      <trkpt lat="33.74027" lon="77.67181">
        <ele>4875</ele>
        <time>2015-09-06T03:22:44Z</time>
      </trkpt>
      <trkpt lat="33.74028" lon="77.67188">
        <ele>4875.2</ele>
        <time>2015-09-06T03:22:51Z</time>
      </trkpt>
      <trkpt lat="33.74027" lon="77.67191">
        <ele>4876</ele>
        <time>2015-09-06T03:22:56Z</time>
      </trkpt>
      <trkpt lat="33.74027" lon="77.67195">
        <ele>4876.2</ele>
        <time>2015-09-06T03:22:57Z</time>
      </trkpt>
      <trkpt lat="33.74026" lon="77.67213">
        <ele>4876.6</ele>
        <time>2015-09-06T03:23:21Z</time>
      </trkpt>
      <trkpt lat="33.74026" lon="77.67218">
        <ele>4876.2</ele>
        <time>2015-09-06T03:23:26Z</time>
      </trkpt>
      <trkpt lat="33.74027" lon="77.67225">
        <ele>4877</ele>
        <time>2015-09-06T03:23:36Z</time>
      </trkpt>
      <trkpt lat="33.74026" lon="77.67236">
        <ele>4877.4</ele>
        <time>2015-09-06T03:23:47Z</time>
      </trkpt>
      <trkpt lat="33.74026" lon="77.67239">
        <ele>4877.4</ele>
        <time>2015-09-06T03:23:51Z</time>
      </trkpt>
      <trkpt lat="33.74022" lon="77.67259">
        <ele>4877.8</ele>
        <time>2015-09-06T03:24:12Z</time>
      </trkpt>
      <trkpt lat="33.74021" lon="77.67282">
        <ele>4876.8</ele>
        <time>2015-09-06T03:24:39Z</time>
      </trkpt>
      <trkpt lat="33.7402" lon="77.67286">
        <ele>4876.8</ele>
        <time>2015-09-06T03:24:42Z</time>
      </trkpt>
      <trkpt lat="33.74021" lon="77.67287">
        <ele>4876.6</ele>
        <time>2015-09-06T03:24:44Z</time>
      </trkpt>
      <trkpt lat="33.74024" lon="77.67295">
        <ele>4875.8</ele>
        <time>2015-09-06T03:24:57Z</time>
      </trkpt>
      <trkpt lat="33.74024" lon="77.6731">
        <ele>4877</ele>
        <time>2015-09-06T03:25:18Z</time>
      </trkpt>
      <trkpt lat="33.74026" lon="77.67321">
        <ele>4876.6</ele>
        <time>2015-09-06T03:25:30Z</time>
      </trkpt>
      <trkpt lat="33.7402" lon="77.67336">
        <ele>4877.8</ele>
        <time>2015-09-06T03:25:46Z</time>
      </trkpt>
      <trkpt lat="33.74019" lon="77.67336">
        <ele>4878</ele>
        <time>2015-09-06T03:25:48Z</time>
      </trkpt>
      <trkpt lat="33.74021" lon="77.67351">
        <ele>4879</ele>
        <time>2015-09-06T03:26:05Z</time>
      </trkpt>
      <trkpt lat="33.7402" lon="77.6736">
        <ele>4880</ele>
        <time>2015-09-06T03:26:18Z</time>
      </trkpt>
      <trkpt lat="33.7402" lon="77.67362">
        <ele>4880.4</ele>
        <time>2015-09-06T03:26:19Z</time>
      </trkpt>
      <trkpt lat="33.74022" lon="77.67365">
        <ele>4880.6</ele>
        <time>2015-09-06T03:26:21Z</time>
      </trkpt>
      <trkpt lat="33.74024" lon="77.67369">
        <ele>4880.2</ele>
        <time>2015-09-06T03:26:26Z</time>
      </trkpt>
      <trkpt lat="33.74024" lon="77.67372">
        <ele>4880.2</ele>
        <time>2015-09-06T03:26:28Z</time>
      </trkpt>
      <trkpt lat="33.74021" lon="77.67373">
        <ele>4880.6</ele>
        <time>2015-09-06T03:26:30Z</time>
      </trkpt>
      <trkpt lat="33.74014" lon="77.67377">
        <ele>4878.8</ele>
        <time>2015-09-06T03:26:35Z</time>
      </trkpt>
      <trkpt lat="33.74013" lon="77.67377">
        <ele>4878.2</ele>
        <time>2015-09-06T03:26:37Z</time>
      </trkpt>
      <trkpt lat="33.74007" lon="77.67385">
        <ele>4878.4</ele>
        <time>2015-09-06T03:27:04Z</time>
      </trkpt>
      <trkpt lat="33.74006" lon="77.67378">
        <ele>4878.8</ele>
        <time>2015-09-06T03:28:55Z</time>
      </trkpt>
      <trkpt lat="33.73999" lon="77.67385">
        <ele>4877.6</ele>
        <time>2015-09-06T03:29:17Z</time>
      </trkpt>
      <trkpt lat="33.73994" lon="77.67387">
        <ele>4877</ele>
        <time>2015-09-06T03:29:23Z</time>
      </trkpt>
      <trkpt lat="33.7399" lon="77.67389">
        <ele>4876.6</ele>
        <time>2015-09-06T03:29:28Z</time>
      </trkpt>
      <trkpt lat="33.73987" lon="77.67389">
        <ele>4876.4</ele>
        <time>2015-09-06T03:29:31Z</time>
      </trkpt>
      <trkpt lat="33.73986" lon="77.67392">
        <ele>4876.4</ele>
        <time>2015-09-06T03:29:33Z</time>
      </trkpt>
      <trkpt lat="33.73985" lon="77.67393">
        <ele>4876.6</ele>
        <time>2015-09-06T03:29:35Z</time>
      </trkpt>
      <trkpt lat="33.73976" lon="77.67394">
        <ele>4876.2</ele>
        <time>2015-09-06T03:29:48Z</time>
      </trkpt>
      <trkpt lat="33.73974" lon="77.67394">
        <ele>4876.2</ele>
        <time>2015-09-06T03:29:50Z</time>
      </trkpt>
      <trkpt lat="33.73969" lon="77.67396">
        <ele>4876</ele>
        <time>2015-09-06T03:29:57Z</time>
      </trkpt>
      <trkpt lat="33.73966" lon="77.67395">
        <ele>4875.8</ele>
        <time>2015-09-06T03:30:00Z</time>
      </trkpt>
      <trkpt lat="33.73962" lon="77.67397">
        <ele>4875.4</ele>
        <time>2015-09-06T03:30:04Z</time>
      </trkpt>
      <trkpt lat="33.73948" lon="77.67395">
        <ele>4875</ele>
        <time>2015-09-06T03:30:20Z</time>
      </trkpt>
      <trkpt lat="33.73947" lon="77.67394">
        <ele>4875</ele>
        <time>2015-09-06T03:30:22Z</time>
      </trkpt>
      <trkpt lat="33.73946" lon="77.67392">
        <ele>4876.4</ele>
        <time>2015-09-06T03:30:27Z</time>
      </trkpt>
      <trkpt lat="33.73938" lon="77.67393">
        <ele>4875.6</ele>
        <time>2015-09-06T03:30:41Z</time>
      </trkpt>
      <trkpt lat="33.7393" lon="77.6739">
        <ele>4875.4</ele>
        <time>2015-09-06T03:30:54Z</time>
      </trkpt>
      <trkpt lat="33.73912" lon="77.67381">
        <ele>4876.2</ele>
        <time>2015-09-06T03:31:25Z</time>
      </trkpt>
      <trkpt lat="33.73911" lon="77.67379">
        <ele>4876</ele>
        <time>2015-09-06T03:31:28Z</time>
      </trkpt>
      <trkpt lat="33.73907" lon="77.6736">
        <ele>4874.4</ele>
        <time>2015-09-06T03:31:56Z</time>
      </trkpt>
      <trkpt lat="33.73895" lon="77.67345">
        <ele>4874.2</ele>
        <time>2015-09-06T03:32:19Z</time>
      </trkpt>
      <trkpt lat="33.73885" lon="77.67342">
        <ele>4875</ele>
        <time>2015-09-06T03:32:31Z</time>
      </trkpt>
      <trkpt lat="33.73883" lon="77.67341">
        <ele>4875</ele>
        <time>2015-09-06T03:32:33Z</time>
      </trkpt>
      <trkpt lat="33.73881" lon="77.6734">
        <ele>4875.2</ele>
        <time>2015-09-06T03:32:36Z</time>
      </trkpt>
      <trkpt lat="33.7388" lon="77.67339">
        <ele>4875.4</ele>
        <time>2015-09-06T03:32:37Z</time>
      </trkpt>
      <trkpt lat="33.73877" lon="77.67331">
        <ele>4875.6</ele>
        <time>2015-09-06T03:33:27Z</time>
      </trkpt>
      <trkpt lat="33.7387" lon="77.67321">
        <ele>4876.4</ele>
        <time>2015-09-06T03:33:50Z</time>
      </trkpt>
      <trkpt lat="33.73864" lon="77.67313">
        <ele>4876</ele>
        <time>2015-09-06T03:34:07Z</time>
      </trkpt>
      <trkpt lat="33.73864" lon="77.67308">
        <ele>4875.4</ele>
        <time>2015-09-06T03:34:12Z</time>
      </trkpt>
      <trkpt lat="33.73857" lon="77.67311">
        <ele>4874.4</ele>
        <time>2015-09-06T03:34:23Z</time>
      </trkpt>
      <trkpt lat="33.73851" lon="77.67316">
        <ele>4873.2</ele>
        <time>2015-09-06T03:34:31Z</time>
      </trkpt>
      <trkpt lat="33.73842" lon="77.67308">
        <ele>4874.4</ele>
        <time>2015-09-06T03:34:52Z</time>
      </trkpt>
      <trkpt lat="33.73834" lon="77.67303">
        <ele>4874.4</ele>
        <time>2015-09-06T03:35:08Z</time>
      </trkpt>
      <trkpt lat="33.73818" lon="77.67292">
        <ele>4874.4</ele>
        <time>2015-09-06T03:35:37Z</time>
      </trkpt>
      <trkpt lat="33.73818" lon="77.67286">
        <ele>4873.4</ele>
        <time>2015-09-06T03:36:00Z</time>
      </trkpt>
      <trkpt lat="33.73814" lon="77.67283">
        <ele>4873</ele>
        <time>2015-09-06T03:36:14Z</time>
      </trkpt>
      <trkpt lat="33.73812" lon="77.67281">
        <ele>4872.2</ele>
        <time>2015-09-06T03:36:20Z</time>
      </trkpt>
      <trkpt lat="33.73795" lon="77.67274">
        <ele>4871.8</ele>
        <time>2015-09-06T03:36:55Z</time>
      </trkpt>
      <trkpt lat="33.73789" lon="77.67273">
        <ele>4871.2</ele>
        <time>2015-09-06T03:37:06Z</time>
      </trkpt>
      <trkpt lat="33.73775" lon="77.6726">
        <ele>4871.2</ele>
        <time>2015-09-06T03:37:35Z</time>
      </trkpt>
      <trkpt lat="33.7377" lon="77.67254">
        <ele>4870.2</ele>
        <time>2015-09-06T03:37:42Z</time>
      </trkpt>
      <trkpt lat="33.73753" lon="77.67245">
        <ele>4870.6</ele>
        <time>2015-09-06T03:38:12Z</time>
      </trkpt>
      <trkpt lat="33.73748" lon="77.67241">
        <ele>4871.2</ele>
        <time>2015-09-06T03:38:20Z</time>
      </trkpt>
      <trkpt lat="33.73739" lon="77.67235">
        <ele>4870</ele>
        <time>2015-09-06T03:38:38Z</time>
      </trkpt>
      <trkpt lat="33.73734" lon="77.67227">
        <ele>4869</ele>
        <time>2015-09-06T03:38:48Z</time>
      </trkpt>
      <trkpt lat="33.73731" lon="77.67222">
        <ele>4868</ele>
        <time>2015-09-06T03:38:55Z</time>
      </trkpt>
      <trkpt lat="33.7373" lon="77.67221">
        <ele>4867.8</ele>
        <time>2015-09-06T03:38:57Z</time>
      </trkpt>
      <trkpt lat="33.73724" lon="77.67215">
        <ele>4866.8</ele>
        <time>2015-09-06T03:39:09Z</time>
      </trkpt>
      <trkpt lat="33.73722" lon="77.67209">
        <ele>4865.8</ele>
        <time>2015-09-06T03:39:20Z</time>
      </trkpt>
      <trkpt lat="33.73719" lon="77.67199">
        <ele>4864.6</ele>
        <time>2015-09-06T03:39:29Z</time>
      </trkpt>
      <trkpt lat="33.73714" lon="77.67196">
        <ele>4863.6</ele>
        <time>2015-09-06T03:39:35Z</time>
      </trkpt>
      <trkpt lat="33.73707" lon="77.67193">
        <ele>4862.6</ele>
        <time>2015-09-06T03:39:42Z</time>
      </trkpt>
      <trkpt lat="33.73706" lon="77.67193">
        <ele>4862.4</ele>
        <time>2015-09-06T03:39:43Z</time>
      </trkpt>
      <trkpt lat="33.73706" lon="77.67194">
        <ele>4861.4</ele>
        <time>2015-09-06T03:39:55Z</time>
      </trkpt>
      <trkpt lat="33.73702" lon="77.67189">
        <ele>4860.4</ele>
        <time>2015-09-06T03:40:03Z</time>
      </trkpt>
      <trkpt lat="33.73698" lon="77.67187">
        <ele>4859</ele>
        <time>2015-09-06T03:40:08Z</time>
      </trkpt>
      <trkpt lat="33.73697" lon="77.67182">
        <ele>4858.4</ele>
        <time>2015-09-06T03:40:11Z</time>
      </trkpt>
      <trkpt lat="33.73698" lon="77.6718">
        <ele>4858</ele>
        <time>2015-09-06T03:40:13Z</time>
      </trkpt>
      <trkpt lat="33.73694" lon="77.67176">
        <ele>4857</ele>
        <time>2015-09-06T03:40:20Z</time>
      </trkpt>
      <trkpt lat="33.73692" lon="77.67174">
        <ele>4856.8</ele>
        <time>2015-09-06T03:40:22Z</time>
      </trkpt>
      <trkpt lat="33.73687" lon="77.67172">
        <ele>4855.6</ele>
        <time>2015-09-06T03:40:27Z</time>
      </trkpt>
      <trkpt lat="33.73682" lon="77.67171">
        <ele>4854.6</ele>
        <time>2015-09-06T03:40:34Z</time>
      </trkpt>
      <trkpt lat="33.73684" lon="77.67168">
        <ele>4854.2</ele>
        <time>2015-09-06T03:40:37Z</time>
      </trkpt>
      <trkpt lat="33.73682" lon="77.67163">
        <ele>4853.4</ele>
        <time>2015-09-06T03:40:47Z</time>
      </trkpt>
      <trkpt lat="33.73676" lon="77.67158">
        <ele>4852.4</ele>
        <time>2015-09-06T03:40:55Z</time>
      </trkpt>
      <trkpt lat="33.73671" lon="77.67157">
        <ele>4851.8</ele>
        <time>2015-09-06T03:41:02Z</time>
      </trkpt>
      <trkpt lat="33.7367" lon="77.67157">
        <ele>4851.4</ele>
        <time>2015-09-06T03:41:04Z</time>
      </trkpt>
      <trkpt lat="33.73668" lon="77.67153">
        <ele>4850.2</ele>
        <time>2015-09-06T03:41:10Z</time>
      </trkpt>
      <trkpt lat="33.73668" lon="77.67149">
        <ele>4849.2</ele>
        <time>2015-09-06T03:41:17Z</time>
      </trkpt>
      <trkpt lat="33.73665" lon="77.67146">
        <ele>4848.2</ele>
        <time>2015-09-06T03:41:24Z</time>
      </trkpt>
      <trkpt lat="33.73658" lon="77.67144">
        <ele>4847</ele>
        <time>2015-09-06T03:41:32Z</time>
      </trkpt>
      <trkpt lat="33.73655" lon="77.67141">
        <ele>4846</ele>
        <time>2015-09-06T03:41:37Z</time>
      </trkpt>
      <trkpt lat="33.73652" lon="77.67138">
        <ele>4844.8</ele>
        <time>2015-09-06T03:41:42Z</time>
      </trkpt>
      <trkpt lat="33.73652" lon="77.67137">
        <ele>4844.6</ele>
        <time>2015-09-06T03:41:43Z</time>
      </trkpt>
      <trkpt lat="33.7365" lon="77.67136">
        <ele>4843.8</ele>
        <time>2015-09-06T03:41:47Z</time>
      </trkpt>
      <trkpt lat="33.73648" lon="77.6713">
        <ele>4842.6</ele>
        <time>2015-09-06T03:41:57Z</time>
      </trkpt>
      <trkpt lat="33.73646" lon="77.67126">
        <ele>4841.6</ele>
        <time>2015-09-06T03:42:03Z</time>
      </trkpt>
      <trkpt lat="33.73641" lon="77.67122">
        <ele>4840.4</ele>
        <time>2015-09-06T03:42:12Z</time>
      </trkpt>
      <trkpt lat="33.73644" lon="77.67116">
        <ele>4839.4</ele>
        <time>2015-09-06T03:42:19Z</time>
      </trkpt>
      <trkpt lat="33.73637" lon="77.67114">
        <ele>4838.2</ele>
        <time>2015-09-06T03:42:27Z</time>
      </trkpt>
      <trkpt lat="33.73633" lon="77.67113">
        <ele>4837.4</ele>
        <time>2015-09-06T03:42:31Z</time>
      </trkpt>
      <trkpt lat="33.73632" lon="77.67113">
        <ele>4837.2</ele>
        <time>2015-09-06T03:42:32Z</time>
      </trkpt>
      <trkpt lat="33.73629" lon="77.67111">
        <ele>4836.2</ele>
        <time>2015-09-06T03:42:39Z</time>
      </trkpt>
      <trkpt lat="33.73625" lon="77.67108">
        <ele>4835</ele>
        <time>2015-09-06T03:42:49Z</time>
      </trkpt>
      <trkpt lat="33.73626" lon="77.67104">
        <ele>4834</ele>
        <time>2015-09-06T03:42:54Z</time>
      </trkpt>
      <trkpt lat="33.73626" lon="77.67102">
        <ele>4832.8</ele>
        <time>2015-09-06T03:42:59Z</time>
      </trkpt>
      <trkpt lat="33.73624" lon="77.67098">
        <ele>4831.8</ele>
        <time>2015-09-06T03:43:03Z</time>
      </trkpt>
      <trkpt lat="33.73622" lon="77.67098">
        <ele>4830.8</ele>
        <time>2015-09-06T03:43:06Z</time>
      </trkpt>
      <trkpt lat="33.7362" lon="77.67099">
        <ele>4830.6</ele>
        <time>2015-09-06T03:43:07Z</time>
      </trkpt>
      <trkpt lat="33.73614" lon="77.67097">
        <ele>4829.6</ele>
        <time>2015-09-06T03:43:14Z</time>
      </trkpt>
      <trkpt lat="33.73613" lon="77.67096">
        <ele>4829.4</ele>
        <time>2015-09-06T03:43:16Z</time>
      </trkpt>
      <trkpt lat="33.73611" lon="77.67092">
        <ele>4828.6</ele>
        <time>2015-09-06T03:43:21Z</time>
      </trkpt>
      <trkpt lat="33.73608" lon="77.67088">
        <ele>4827.6</ele>
        <time>2015-09-06T03:43:26Z</time>
      </trkpt>
      <trkpt lat="33.73607" lon="77.67087">
        <ele>4827.4</ele>
        <time>2015-09-06T03:43:28Z</time>
      </trkpt>
      <trkpt lat="33.73603" lon="77.67082">
        <ele>4826.8</ele>
        <time>2015-09-06T03:43:34Z</time>
      </trkpt>
      <trkpt lat="33.73602" lon="77.6708">
        <ele>4826.8</ele>
        <time>2015-09-06T03:43:36Z</time>
      </trkpt>
      <trkpt lat="33.73601" lon="77.67079">
        <ele>4826.8</ele>
        <time>2015-09-06T03:43:38Z</time>
      </trkpt>
      <trkpt lat="33.73596" lon="77.67076">
        <ele>4826.4</ele>
        <time>2015-09-06T03:43:43Z</time>
      </trkpt>
      <trkpt lat="33.73592" lon="77.67076">
        <ele>4825.4</ele>
        <time>2015-09-06T03:43:49Z</time>
      </trkpt>
      <trkpt lat="33.73587" lon="77.67076">
        <ele>4824.2</ele>
        <time>2015-09-06T03:43:55Z</time>
      </trkpt>
      <trkpt lat="33.73585" lon="77.67076">
        <ele>4823.2</ele>
        <time>2015-09-06T03:43:59Z</time>
      </trkpt>
      <trkpt lat="33.73582" lon="77.67072">
        <ele>4822</ele>
        <time>2015-09-06T03:44:13Z</time>
      </trkpt>
      <trkpt lat="33.73577" lon="77.67071">
        <ele>4820.8</ele>
        <time>2015-09-06T03:44:19Z</time>
      </trkpt>
      <trkpt lat="33.73575" lon="77.67069">
        <ele>4819.8</ele>
        <time>2015-09-06T03:44:23Z</time>
      </trkpt>
      <trkpt lat="33.73573" lon="77.67068">
        <ele>4818.8</ele>
        <time>2015-09-06T03:44:27Z</time>
      </trkpt>
      <trkpt lat="33.73569" lon="77.67065">
        <ele>4818.2</ele>
        <time>2015-09-06T03:44:31Z</time>
      </trkpt>
      <trkpt lat="33.73569" lon="77.67062">
        <ele>4818</ele>
        <time>2015-09-06T03:44:34Z</time>
      </trkpt>
      <trkpt lat="33.73567" lon="77.67061">
        <ele>4817.8</ele>
        <time>2015-09-06T03:44:36Z</time>
      </trkpt>
      <trkpt lat="33.73564" lon="77.67058">
        <ele>4817.2</ele>
        <time>2015-09-06T03:44:40Z</time>
      </trkpt>
      <trkpt lat="33.73557" lon="77.67055">
        <ele>4816.8</ele>
        <time>2015-09-06T03:44:48Z</time>
      </trkpt>
      <trkpt lat="33.73557" lon="77.67055">
        <ele>4816.4</ele>
        <time>2015-09-06T03:44:49Z</time>
      </trkpt>
      <trkpt lat="33.73551" lon="77.67056">
        <ele>4815.6</ele>
        <time>2015-09-06T03:44:56Z</time>
      </trkpt>
      <trkpt lat="33.73546" lon="77.67049">
        <ele>4814.6</ele>
        <time>2015-09-06T03:45:05Z</time>
      </trkpt>
      <trkpt lat="33.73545" lon="77.67048">
        <ele>4814.6</ele>
        <time>2015-09-06T03:45:06Z</time>
      </trkpt>
      <trkpt lat="33.73544" lon="77.67046">
        <ele>4814.4</ele>
        <time>2015-09-06T03:45:08Z</time>
      </trkpt>
      <trkpt lat="33.73537" lon="77.67047">
        <ele>4813.4</ele>
        <time>2015-09-06T03:45:15Z</time>
      </trkpt>
      <trkpt lat="33.73533" lon="77.67045">
        <ele>4812.4</ele>
        <time>2015-09-06T03:45:20Z</time>
      </trkpt>
      <trkpt lat="33.73531" lon="77.67046">
        <ele>4812.2</ele>
        <time>2015-09-06T03:45:21Z</time>
      </trkpt>
      <trkpt lat="33.73527" lon="77.67044">
        <ele>4811.2</ele>
        <time>2015-09-06T03:45:26Z</time>
      </trkpt>
      <trkpt lat="33.73523" lon="77.67043">
        <ele>4810.6</ele>
        <time>2015-09-06T03:45:30Z</time>
      </trkpt>
      <trkpt lat="33.73519" lon="77.67046">
        <ele>4810.2</ele>
        <time>2015-09-06T03:45:37Z</time>
      </trkpt>
      <trkpt lat="33.73517" lon="77.67046">
        <ele>4810</ele>
        <time>2015-09-06T03:45:39Z</time>
      </trkpt>
      <trkpt lat="33.73514" lon="77.67043">
        <ele>4809</ele>
        <time>2015-09-06T03:45:44Z</time>
      </trkpt>
      <trkpt lat="33.73513" lon="77.67043">
        <ele>4808.6</ele>
        <time>2015-09-06T03:45:45Z</time>
      </trkpt>
      <trkpt lat="33.73511" lon="77.67042">
        <ele>4808.2</ele>
        <time>2015-09-06T03:45:48Z</time>
      </trkpt>
      <trkpt lat="33.7351" lon="77.67041">
        <ele>4808</ele>
        <time>2015-09-06T03:45:50Z</time>
      </trkpt>
      <trkpt lat="33.73509" lon="77.6704">
        <ele>4807.6</ele>
        <time>2015-09-06T03:45:52Z</time>
      </trkpt>
      <trkpt lat="33.73503" lon="77.67036">
        <ele>4807</ele>
        <time>2015-09-06T03:46:04Z</time>
      </trkpt>
      <trkpt lat="33.73502" lon="77.67033">
        <ele>4806</ele>
        <time>2015-09-06T03:46:32Z</time>
      </trkpt>
      <trkpt lat="33.73491" lon="77.67022">
        <ele>4804.6</ele>
        <time>2015-09-06T03:46:48Z</time>
      </trkpt>
      <trkpt lat="33.73487" lon="77.67017">
        <ele>4803.6</ele>
        <time>2015-09-06T03:46:57Z</time>
      </trkpt>
      <trkpt lat="33.73484" lon="77.67012">
        <ele>4802.6</ele>
        <time>2015-09-06T03:47:04Z</time>
      </trkpt>
      <trkpt lat="33.73483" lon="77.67011">
        <ele>4802.2</ele>
        <time>2015-09-06T03:47:05Z</time>
      </trkpt>
      <trkpt lat="33.73482" lon="77.6701">
        <ele>4801.8</ele>
        <time>2015-09-06T03:47:07Z</time>
      </trkpt>
      <trkpt lat="33.7348" lon="77.67009">
        <ele>4801.4</ele>
        <time>2015-09-06T03:47:09Z</time>
      </trkpt>
      <trkpt lat="33.73477" lon="77.67004">
        <ele>4800.4</ele>
        <time>2015-09-06T03:47:16Z</time>
      </trkpt>
      <trkpt lat="33.73473" lon="77.67001">
        <ele>4799.2</ele>
        <time>2015-09-06T03:47:24Z</time>
      </trkpt>
      <trkpt lat="33.73469" lon="77.66998">
        <ele>4798</ele>
        <time>2015-09-06T03:47:29Z</time>
      </trkpt>
      <trkpt lat="33.73466" lon="77.66996">
        <ele>4796.8</ele>
        <time>2015-09-06T03:47:35Z</time>
      </trkpt>
      <trkpt lat="33.73461" lon="77.66997">
        <ele>4795.4</ele>
        <time>2015-09-06T03:47:40Z</time>
      </trkpt>
      <trkpt lat="33.73456" lon="77.66998">
        <ele>4794.2</ele>
        <time>2015-09-06T03:47:43Z</time>
      </trkpt>
      <trkpt lat="33.73451" lon="77.67">
        <ele>4793</ele>
        <time>2015-09-06T03:47:47Z</time>
      </trkpt>
      <trkpt lat="33.73436" lon="77.66997">
        <ele>4793</ele>
        <time>2015-09-06T03:48:14Z</time>
      </trkpt>
      <trkpt lat="33.73431" lon="77.66998">
        <ele>4793.4</ele>
        <time>2015-09-06T03:48:20Z</time>
      </trkpt>
      <trkpt lat="33.73427" lon="77.66996">
        <ele>4793.6</ele>
        <time>2015-09-06T03:48:25Z</time>
      </trkpt>
      <trkpt lat="33.73427" lon="77.66995">
        <ele>4794</ele>
        <time>2015-09-06T03:48:28Z</time>
      </trkpt>
      <trkpt lat="33.73426" lon="77.6699">
        <ele>4795.2</ele>
        <time>2015-09-06T03:48:40Z</time>
      </trkpt>
      <trkpt lat="33.73428" lon="77.66989">
        <ele>4795.2</ele>
        <time>2015-09-06T03:49:57Z</time>
      </trkpt>
      <trkpt lat="33.73426" lon="77.66992">
        <ele>4795</ele>
        <time>2015-09-06T03:49:59Z</time>
      </trkpt>
      <trkpt lat="33.73423" lon="77.66991">
        <ele>4794.4</ele>
        <time>2015-09-06T03:50:02Z</time>
      </trkpt>
      <trkpt lat="33.73422" lon="77.66991">
        <ele>4794</ele>
        <time>2015-09-06T03:50:04Z</time>
      </trkpt>
      <trkpt lat="33.73414" lon="77.66989">
        <ele>4792.8</ele>
        <time>2015-09-06T03:50:15Z</time>
      </trkpt>
      <trkpt lat="33.7341" lon="77.66989">
        <ele>4791.8</ele>
        <time>2015-09-06T03:50:23Z</time>
      </trkpt>
      <trkpt lat="33.73398" lon="77.66987">
        <ele>4790.8</ele>
        <time>2015-09-06T03:50:40Z</time>
      </trkpt>
      <trkpt lat="33.73395" lon="77.66987">
        <ele>4790</ele>
        <time>2015-09-06T03:50:47Z</time>
      </trkpt>
      <trkpt lat="33.73392" lon="77.66992">
        <ele>4789.8</ele>
        <time>2015-09-06T03:51:07Z</time>
      </trkpt>
      <trkpt lat="33.73391" lon="77.66991">
        <ele>4789.4</ele>
        <time>2015-09-06T03:51:09Z</time>
      </trkpt>
      <trkpt lat="33.7339" lon="77.66991">
        <ele>4788.6</ele>
        <time>2015-09-06T03:51:31Z</time>
      </trkpt>
      <trkpt lat="33.73387" lon="77.66988">
        <ele>4788.2</ele>
        <time>2015-09-06T03:52:00Z</time>
      </trkpt>
      <trkpt lat="33.73386" lon="77.66987">
        <ele>4787.6</ele>
        <time>2015-09-06T03:52:04Z</time>
      </trkpt>
      <trkpt lat="33.73381" lon="77.66984">
        <ele>4786.6</ele>
        <time>2015-09-06T03:52:12Z</time>
      </trkpt>
      <trkpt lat="33.73379" lon="77.66983">
        <ele>4786.4</ele>
        <time>2015-09-06T03:52:13Z</time>
      </trkpt>
      <trkpt lat="33.73378" lon="77.66982">
        <ele>4786</ele>
        <time>2015-09-06T03:52:15Z</time>
      </trkpt>
      <trkpt lat="33.73376" lon="77.6698">
        <ele>4785.4</ele>
        <time>2015-09-06T03:52:19Z</time>
      </trkpt>
      <trkpt lat="33.73371" lon="77.66982">
        <ele>4784.4</ele>
        <time>2015-09-06T03:52:24Z</time>
      </trkpt>
      <trkpt lat="33.7337" lon="77.66982">
        <ele>4784.2</ele>
        <time>2015-09-06T03:52:25Z</time>
      </trkpt>
      <trkpt lat="33.73367" lon="77.66989">
        <ele>4783.4</ele>
        <time>2015-09-06T03:52:31Z</time>
      </trkpt>
      <trkpt lat="33.73367" lon="77.6699">
        <ele>4783.2</ele>
        <time>2015-09-06T03:52:32Z</time>
      </trkpt>
      <trkpt lat="33.73364" lon="77.66992">
        <ele>4782.6</ele>
        <time>2015-09-06T03:52:36Z</time>
      </trkpt>
      <trkpt lat="33.73363" lon="77.66994">
        <ele>4782.4</ele>
        <time>2015-09-06T03:52:38Z</time>
      </trkpt>
      <trkpt lat="33.73362" lon="77.66992">
        <ele>4782</ele>
        <time>2015-09-06T03:52:40Z</time>
      </trkpt>
      <trkpt lat="33.73361" lon="77.66992">
        <ele>4782</ele>
        <time>2015-09-06T03:52:41Z</time>
      </trkpt>
      <trkpt lat="33.73357" lon="77.66995">
        <ele>4781.6</ele>
        <time>2015-09-06T03:52:54Z</time>
      </trkpt>
      <trkpt lat="33.73353" lon="77.66998">
        <ele>4781</ele>
        <time>2015-09-06T03:52:59Z</time>
      </trkpt>
      <trkpt lat="33.73349" lon="77.67004">
        <ele>4780</ele>
        <time>2015-09-06T03:53:25Z</time>
      </trkpt>
      <trkpt lat="33.73346" lon="77.67005">
        <ele>4779</ele>
        <time>2015-09-06T03:53:40Z</time>
      </trkpt>
      <trkpt lat="33.73342" lon="77.67005">
        <ele>4778.4</ele>
        <time>2015-09-06T03:53:46Z</time>
      </trkpt>
      <trkpt lat="33.73333" lon="77.6702">
        <ele>4777.8</ele>
        <time>2015-09-06T03:54:10Z</time>
      </trkpt>
      <trkpt lat="33.73329" lon="77.67022">
        <ele>4776.6</ele>
        <time>2015-09-06T03:54:18Z</time>
      </trkpt>
      <trkpt lat="33.73323" lon="77.67022">
        <ele>4775.4</ele>
        <time>2015-09-06T03:54:26Z</time>
      </trkpt>
      <trkpt lat="33.7332" lon="77.67023">
        <ele>4774.8</ele>
        <time>2015-09-06T03:54:29Z</time>
      </trkpt>
      <trkpt lat="33.73319" lon="77.67022">
        <ele>4774.6</ele>
        <time>2015-09-06T03:54:31Z</time>
      </trkpt>
      <trkpt lat="33.73318" lon="77.67021">
        <ele>4774.8</ele>
        <time>2015-09-06T03:54:34Z</time>
      </trkpt>
      <trkpt lat="33.73316" lon="77.6702">
        <ele>4775</ele>
        <time>2015-09-06T03:54:37Z</time>
      </trkpt>
      <trkpt lat="33.73312" lon="77.67022">
        <ele>4775</ele>
        <time>2015-09-06T03:54:44Z</time>
      </trkpt>
      <trkpt lat="33.73312" lon="77.67021">
        <ele>4774.8</ele>
        <time>2015-09-06T03:54:46Z</time>
      </trkpt>
      <trkpt lat="33.7331" lon="77.6702">
        <ele>4774.8</ele>
        <time>2015-09-06T03:54:48Z</time>
      </trkpt>
      <trkpt lat="33.73309" lon="77.67021">
        <ele>4774.8</ele>
        <time>2015-09-06T03:54:50Z</time>
      </trkpt>
      <trkpt lat="33.73297" lon="77.67035">
        <ele>4775.8</ele>
        <time>2015-09-06T03:55:18Z</time>
      </trkpt>
      <trkpt lat="33.73282" lon="77.67039">
        <ele>4776</ele>
        <time>2015-09-06T03:55:48Z</time>
      </trkpt>
      <trkpt lat="33.73274" lon="77.67058">
        <ele>4775.2</ele>
        <time>2015-09-06T03:56:13Z</time>
      </trkpt>
      <trkpt lat="33.73264" lon="77.67071">
        <ele>4776.4</ele>
        <time>2015-09-06T03:56:47Z</time>
      </trkpt>
      <trkpt lat="33.73266" lon="77.67083">
        <ele>4777.4</ele>
        <time>2015-09-06T03:57:18Z</time>
      </trkpt>
      <trkpt lat="33.73265" lon="77.67083">
        <ele>4778.4</ele>
        <time>2015-09-06T03:57:24Z</time>
      </trkpt>
      <trkpt lat="33.73266" lon="77.67083">
        <ele>4778.4</ele>
        <time>2015-09-06T03:58:01Z</time>
      </trkpt>
      <trkpt lat="33.73263" lon="77.67089">
        <ele>4779</ele>
        <time>2015-09-06T03:58:09Z</time>
      </trkpt>
      <trkpt lat="33.73261" lon="77.67092">
        <ele>4779.4</ele>
        <time>2015-09-06T03:58:19Z</time>
      </trkpt>
      <trkpt lat="33.73256" lon="77.67097">
        <ele>4780.6</ele>
        <time>2015-09-06T03:59:08Z</time>
      </trkpt>
      <trkpt lat="33.73253" lon="77.67101">
        <ele>4781.6</ele>
        <time>2015-09-06T03:59:16Z</time>
      </trkpt>
      <trkpt lat="33.73253" lon="77.67102">
        <ele>4781.8</ele>
        <time>2015-09-06T03:59:17Z</time>
      </trkpt>
      <trkpt lat="33.73253" lon="77.67108">
        <ele>4782.8</ele>
        <time>2015-09-06T03:59:34Z</time>
      </trkpt>
      <trkpt lat="33.73251" lon="77.67114">
        <ele>4783.8</ele>
        <time>2015-09-06T03:59:41Z</time>
      </trkpt>
      <trkpt lat="33.7325" lon="77.6712">
        <ele>4784.8</ele>
        <time>2015-09-06T03:59:53Z</time>
      </trkpt>
      <trkpt lat="33.73246" lon="77.67119">
        <ele>4785.8</ele>
        <time>2015-09-06T04:00:08Z</time>
      </trkpt>
      <trkpt lat="33.73245" lon="77.67124">
        <ele>4786.4</ele>
        <time>2015-09-06T04:00:15Z</time>
      </trkpt>
      <trkpt lat="33.73244" lon="77.67124">
        <ele>4786.8</ele>
        <time>2015-09-06T04:00:19Z</time>
      </trkpt>
      <trkpt lat="33.73239" lon="77.6713">
        <ele>4787.4</ele>
        <time>2015-09-06T04:00:32Z</time>
      </trkpt>
      <trkpt lat="33.73238" lon="77.67137">
        <ele>4787.8</ele>
        <time>2015-09-06T04:00:39Z</time>
      </trkpt>
      <trkpt lat="33.73237" lon="77.67137">
        <ele>4788</ele>
        <time>2015-09-06T04:00:40Z</time>
      </trkpt>
      <trkpt lat="33.73236" lon="77.67155">
        <ele>4788.2</ele>
        <time>2015-09-06T04:01:20Z</time>
      </trkpt>
      <trkpt lat="33.73232" lon="77.67156">
        <ele>4789</ele>
        <time>2015-09-06T04:01:29Z</time>
      </trkpt>
      <trkpt lat="33.73228" lon="77.67162">
        <ele>4790</ele>
        <time>2015-09-06T04:01:41Z</time>
      </trkpt>
      <trkpt lat="33.73223" lon="77.67166">
        <ele>4791.2</ele>
        <time>2015-09-06T04:01:54Z</time>
      </trkpt>
      <trkpt lat="33.73219" lon="77.67171">
        <ele>4792.2</ele>
        <time>2015-09-06T04:02:05Z</time>
      </trkpt>
      <trkpt lat="33.73212" lon="77.67183">
        <ele>4793.2</ele>
        <time>2015-09-06T04:02:24Z</time>
      </trkpt>
      <trkpt lat="33.73203" lon="77.67194">
        <ele>4794</ele>
        <time>2015-09-06T04:02:45Z</time>
      </trkpt>
      <trkpt lat="33.73202" lon="77.67195">
        <ele>4794.2</ele>
        <time>2015-09-06T04:02:47Z</time>
      </trkpt>
      <trkpt lat="33.73201" lon="77.67196">
        <ele>4794.2</ele>
        <time>2015-09-06T04:02:50Z</time>
      </trkpt>
      <trkpt lat="33.73192" lon="77.67197">
        <ele>4795.2</ele>
        <time>2015-09-06T04:03:07Z</time>
      </trkpt>
      <trkpt lat="33.73186" lon="77.67205">
        <ele>4796.2</ele>
        <time>2015-09-06T04:03:21Z</time>
      </trkpt>
      <trkpt lat="33.73179" lon="77.67212">
        <ele>4797.4</ele>
        <time>2015-09-06T04:03:37Z</time>
      </trkpt>
      <trkpt lat="33.73177" lon="77.67216">
        <ele>4797.8</ele>
        <time>2015-09-06T04:03:42Z</time>
      </trkpt>
      <trkpt lat="33.73176" lon="77.67219">
        <ele>4797.8</ele>
        <time>2015-09-06T04:03:45Z</time>
      </trkpt>
      <trkpt lat="33.73175" lon="77.6722">
        <ele>4797.8</ele>
        <time>2015-09-06T04:03:47Z</time>
      </trkpt>
      <trkpt lat="33.73169" lon="77.67224">
        <ele>4798.6</ele>
        <time>2015-09-06T04:03:58Z</time>
      </trkpt>
      <trkpt lat="33.73167" lon="77.67224">
        <ele>4798.8</ele>
        <time>2015-09-06T04:04:07Z</time>
      </trkpt>
      <trkpt lat="33.73168" lon="77.67224">
        <ele>4798.8</ele>
        <time>2015-09-06T04:04:59Z</time>
      </trkpt>
      <trkpt lat="33.73167" lon="77.67227">
        <ele>4799.6</ele>
        <time>2015-09-06T04:05:48Z</time>
      </trkpt>
      <trkpt lat="33.73161" lon="77.67233">
        <ele>4800.6</ele>
        <time>2015-09-06T04:06:01Z</time>
      </trkpt>
      <trkpt lat="33.73156" lon="77.67238">
        <ele>4801.8</ele>
        <time>2015-09-06T04:06:11Z</time>
      </trkpt>
      <trkpt lat="33.73154" lon="77.67251">
        <ele>4802.8</ele>
        <time>2015-09-06T04:06:35Z</time>
      </trkpt>
      <trkpt lat="33.73151" lon="77.67255">
        <ele>4803.8</ele>
        <time>2015-09-06T04:06:50Z</time>
      </trkpt>
      <trkpt lat="33.73145" lon="77.67264">
        <ele>4805</ele>
        <time>2015-09-06T04:07:09Z</time>
      </trkpt>
      <trkpt lat="33.73139" lon="77.67269">
        <ele>4806</ele>
        <time>2015-09-06T04:07:21Z</time>
      </trkpt>
      <trkpt lat="33.73136" lon="77.67278">
        <ele>4806.2</ele>
        <time>2015-09-06T04:07:31Z</time>
      </trkpt>
      <trkpt lat="33.73135" lon="77.67281">
        <ele>4807</ele>
        <time>2015-09-06T04:07:38Z</time>
      </trkpt>
      <trkpt lat="33.73135" lon="77.67285">
        <ele>4807.2</ele>
        <time>2015-09-06T04:07:47Z</time>
      </trkpt>
      <trkpt lat="33.73127" lon="77.67286">
        <ele>4807.4</ele>
        <time>2015-09-06T04:08:04Z</time>
      </trkpt>
      <trkpt lat="33.7312" lon="77.673">
        <ele>4808</ele>
        <time>2015-09-06T04:08:29Z</time>
      </trkpt>
      <trkpt lat="33.73112" lon="77.67314">
        <ele>4808.6</ele>
        <time>2015-09-06T04:08:55Z</time>
      </trkpt>
      <trkpt lat="33.73109" lon="77.67316">
        <ele>4809</ele>
        <time>2015-09-06T04:08:59Z</time>
      </trkpt>
      <trkpt lat="33.73102" lon="77.67322">
        <ele>4809.6</ele>
        <time>2015-09-06T04:09:15Z</time>
      </trkpt>
      <trkpt lat="33.73095" lon="77.6733">
        <ele>4810</ele>
        <time>2015-09-06T04:09:28Z</time>
      </trkpt>
      <trkpt lat="33.73092" lon="77.67339">
        <ele>4811</ele>
        <time>2015-09-06T04:09:43Z</time>
      </trkpt>
      <trkpt lat="33.73084" lon="77.67359">
        <ele>4811.4</ele>
        <time>2015-09-06T04:10:08Z</time>
      </trkpt>
      <trkpt lat="33.73083" lon="77.67359">
        <ele>4811.4</ele>
        <time>2015-09-06T04:10:09Z</time>
      </trkpt>
      <trkpt lat="33.7308" lon="77.67362">
        <ele>4812.2</ele>
        <time>2015-09-06T04:10:16Z</time>
      </trkpt>
      <trkpt lat="33.73077" lon="77.67364">
        <ele>4813.4</ele>
        <time>2015-09-06T04:10:28Z</time>
      </trkpt>
      <trkpt lat="33.73069" lon="77.67368">
        <ele>4814.4</ele>
        <time>2015-09-06T04:10:46Z</time>
      </trkpt>
      <trkpt lat="33.73064" lon="77.67369">
        <ele>4815.4</ele>
        <time>2015-09-06T04:10:56Z</time>
      </trkpt>
      <trkpt lat="33.73058" lon="77.67377">
        <ele>4816.4</ele>
        <time>2015-09-06T04:11:17Z</time>
      </trkpt>
      <trkpt lat="33.7306" lon="77.67375">
        <ele>4816.4</ele>
        <time>2015-09-06T04:11:28Z</time>
      </trkpt>
      <trkpt lat="33.73052" lon="77.67379">
        <ele>4816.6</ele>
        <time>2015-09-06T04:11:39Z</time>
      </trkpt>
      <trkpt lat="33.73042" lon="77.67391">
        <ele>4817.4</ele>
        <time>2015-09-06T04:12:00Z</time>
      </trkpt>
      <trkpt lat="33.73036" lon="77.67399">
        <ele>4818.6</ele>
        <time>2015-09-06T04:12:14Z</time>
      </trkpt>
      <trkpt lat="33.73032" lon="77.67401">
        <ele>4819.8</ele>
        <time>2015-09-06T04:12:27Z</time>
      </trkpt>
      <trkpt lat="33.73029" lon="77.67407">
        <ele>4820.8</ele>
        <time>2015-09-06T04:12:39Z</time>
      </trkpt>
      <trkpt lat="33.73026" lon="77.67413">
        <ele>4821.8</ele>
        <time>2015-09-06T04:12:54Z</time>
      </trkpt>
      <trkpt lat="33.73024" lon="77.67421">
        <ele>4822.8</ele>
        <time>2015-09-06T04:13:12Z</time>
      </trkpt>
      <trkpt lat="33.73024" lon="77.67428">
        <ele>4822.8</ele>
        <time>2015-09-06T04:13:18Z</time>
      </trkpt>
      <trkpt lat="33.73024" lon="77.6743">
        <ele>4822.8</ele>
        <time>2015-09-06T04:13:20Z</time>
      </trkpt>
      <trkpt lat="33.73021" lon="77.67434">
        <ele>4823.8</ele>
        <time>2015-09-06T04:13:27Z</time>
      </trkpt>
      <trkpt lat="33.73019" lon="77.67436">
        <ele>4824.8</ele>
        <time>2015-09-06T04:13:44Z</time>
      </trkpt>
      <trkpt lat="33.73015" lon="77.67444">
        <ele>4826</ele>
        <time>2015-09-06T04:13:58Z</time>
      </trkpt>
      <trkpt lat="33.73011" lon="77.67445">
        <ele>4827</ele>
        <time>2015-09-06T04:14:08Z</time>
      </trkpt>
      <trkpt lat="33.73008" lon="77.67444">
        <ele>4828</ele>
        <time>2015-09-06T04:14:22Z</time>
      </trkpt>
      <trkpt lat="33.73006" lon="77.67448">
        <ele>4828.8</ele>
        <time>2015-09-06T04:14:28Z</time>
      </trkpt>
      <trkpt lat="33.73004" lon="77.67454">
        <ele>4829.2</ele>
        <time>2015-09-06T04:14:35Z</time>
      </trkpt>
      <trkpt lat="33.73002" lon="77.67457">
        <ele>4829.6</ele>
        <time>2015-09-06T04:14:39Z</time>
      </trkpt>
      <trkpt lat="33.72999" lon="77.67462">
        <ele>4830.4</ele>
        <time>2015-09-06T04:14:47Z</time>
      </trkpt>
      <trkpt lat="33.72997" lon="77.67465">
        <ele>4831.4</ele>
        <time>2015-09-06T04:14:57Z</time>
      </trkpt>
      <trkpt lat="33.72994" lon="77.67461">
        <ele>4832.4</ele>
        <time>2015-09-06T04:15:06Z</time>
      </trkpt>
      <trkpt lat="33.7299" lon="77.67458">
        <ele>4833.4</ele>
        <time>2015-09-06T04:15:14Z</time>
      </trkpt>
      <trkpt lat="33.72987" lon="77.6746">
        <ele>4834.6</ele>
        <time>2015-09-06T04:15:23Z</time>
      </trkpt>
      <trkpt lat="33.72984" lon="77.6746">
        <ele>4835.6</ele>
        <time>2015-09-06T04:15:30Z</time>
      </trkpt>
      <trkpt lat="33.72979" lon="77.67464">
        <ele>4836.8</ele>
        <time>2015-09-06T04:15:41Z</time>
      </trkpt>
      <trkpt lat="33.72975" lon="77.67466">
        <ele>4837.8</ele>
        <time>2015-09-06T04:15:52Z</time>
      </trkpt>
      <trkpt lat="33.72973" lon="77.67471">
        <ele>4838.8</ele>
        <time>2015-09-06T04:16:01Z</time>
      </trkpt>
      <trkpt lat="33.72973" lon="77.67473">
        <ele>4838.8</ele>
        <time>2015-09-06T04:16:02Z</time>
      </trkpt>
      <trkpt lat="33.72972" lon="77.67476">
        <ele>4838.8</ele>
        <time>2015-09-06T04:16:07Z</time>
      </trkpt>
      <trkpt lat="33.72969" lon="77.67485">
        <ele>4839.6</ele>
        <time>2015-09-06T04:16:20Z</time>
      </trkpt>
      <trkpt lat="33.72969" lon="77.67486">
        <ele>4839.8</ele>
        <time>2015-09-06T04:16:22Z</time>
      </trkpt>
      <trkpt lat="33.72966" lon="77.67486">
        <ele>4841</ele>
        <time>2015-09-06T04:16:30Z</time>
      </trkpt>
      <trkpt lat="33.72963" lon="77.67486">
        <ele>4842</ele>
        <time>2015-09-06T04:16:41Z</time>
      </trkpt>
      <trkpt lat="33.7296" lon="77.67485">
        <ele>4843</ele>
        <time>2015-09-06T04:16:48Z</time>
      </trkpt>
      <trkpt lat="33.72958" lon="77.67483">
        <ele>4844.2</ele>
        <time>2015-09-06T04:16:58Z</time>
      </trkpt>
      <trkpt lat="33.72955" lon="77.6748">
        <ele>4845.2</ele>
        <time>2015-09-06T04:17:09Z</time>
      </trkpt>
      <trkpt lat="33.72952" lon="77.67479">
        <ele>4846.2</ele>
        <time>2015-09-06T04:17:16Z</time>
      </trkpt>
      <trkpt lat="33.72946" lon="77.67479">
        <ele>4847.2</ele>
        <time>2015-09-06T04:17:25Z</time>
      </trkpt>
      <trkpt lat="33.72942" lon="77.67478">
        <ele>4848.2</ele>
        <time>2015-09-06T04:17:34Z</time>
      </trkpt>
      <trkpt lat="33.72941" lon="77.67482">
        <ele>4849.2</ele>
        <time>2015-09-06T04:17:43Z</time>
      </trkpt>
      <trkpt lat="33.72934" lon="77.6749">
        <ele>4850.4</ele>
        <time>2015-09-06T04:18:03Z</time>
      </trkpt>
      <trkpt lat="33.7293" lon="77.67492">
        <ele>4851.4</ele>
        <time>2015-09-06T04:18:12Z</time>
      </trkpt>
      <trkpt lat="33.72926" lon="77.67499">
        <ele>4852.6</ele>
        <time>2015-09-06T04:18:26Z</time>
      </trkpt>
      <trkpt lat="33.72923" lon="77.67507">
        <ele>4853.6</ele>
        <time>2015-09-06T04:18:40Z</time>
      </trkpt>
      <trkpt lat="33.7292" lon="77.67515">
        <ele>4854.8</ele>
        <time>2015-09-06T04:18:52Z</time>
      </trkpt>
      <trkpt lat="33.72915" lon="77.67516">
        <ele>4855.8</ele>
        <time>2015-09-06T04:19:03Z</time>
      </trkpt>
      <trkpt lat="33.7291" lon="77.67523">
        <ele>4857</ele>
        <time>2015-09-06T04:19:18Z</time>
      </trkpt>
      <trkpt lat="33.72908" lon="77.67524">
        <ele>4857.4</ele>
        <time>2015-09-06T04:19:23Z</time>
      </trkpt>
      <trkpt lat="33.72908" lon="77.67526">
        <ele>4858</ele>
        <time>2015-09-06T04:19:32Z</time>
      </trkpt>
      <trkpt lat="33.72908" lon="77.67527">
        <ele>4858</ele>
        <time>2015-09-06T04:19:38Z</time>
      </trkpt>
      <trkpt lat="33.72899" lon="77.67542">
        <ele>4858.8</ele>
        <time>2015-09-06T04:20:00Z</time>
      </trkpt>
      <trkpt lat="33.72897" lon="77.67543">
        <ele>4858.6</ele>
        <time>2015-09-06T04:20:04Z</time>
      </trkpt>
      <trkpt lat="33.72896" lon="77.67545">
        <ele>4859.2</ele>
        <time>2015-09-06T04:20:08Z</time>
      </trkpt>
      <trkpt lat="33.72893" lon="77.67551">
        <ele>4860.2</ele>
        <time>2015-09-06T04:20:19Z</time>
      </trkpt>
      <trkpt lat="33.72891" lon="77.67555">
        <ele>4861.2</ele>
        <time>2015-09-06T04:20:27Z</time>
      </trkpt>
      <trkpt lat="33.7289" lon="77.67555">
        <ele>4861.2</ele>
        <time>2015-09-06T04:20:28Z</time>
      </trkpt>
      <trkpt lat="33.72887" lon="77.67559">
        <ele>4862.2</ele>
        <time>2015-09-06T04:20:39Z</time>
      </trkpt>
      <trkpt lat="33.72882" lon="77.67563">
        <ele>4863.4</ele>
        <time>2015-09-06T04:21:00Z</time>
      </trkpt>
      <trkpt lat="33.72878" lon="77.67569">
        <ele>4864.4</ele>
        <time>2015-09-06T04:21:10Z</time>
      </trkpt>
      <trkpt lat="33.72872" lon="77.67581">
        <ele>4865.4</ele>
        <time>2015-09-06T04:21:26Z</time>
      </trkpt>
      <trkpt lat="33.72868" lon="77.67585">
        <ele>4866.4</ele>
        <time>2015-09-06T04:21:40Z</time>
      </trkpt>
      <trkpt lat="33.72869" lon="77.67581">
        <ele>4867.4</ele>
        <time>2015-09-06T04:21:52Z</time>
      </trkpt>
      <trkpt lat="33.72866" lon="77.67591">
        <ele>4868.4</ele>
        <time>2015-09-06T04:22:03Z</time>
      </trkpt>
      <trkpt lat="33.72861" lon="77.67596">
        <ele>4869.4</ele>
        <time>2015-09-06T04:22:13Z</time>
      </trkpt>
      <trkpt lat="33.72854" lon="77.67606">
        <ele>4870.6</ele>
        <time>2015-09-06T04:22:33Z</time>
      </trkpt>
      <trkpt lat="33.72852" lon="77.67611">
        <ele>4871.6</ele>
        <time>2015-09-06T04:22:44Z</time>
      </trkpt>
      <trkpt lat="33.72848" lon="77.67612">
        <ele>4872.8</ele>
        <time>2015-09-06T04:22:51Z</time>
      </trkpt>
      <trkpt lat="33.72845" lon="77.67611">
        <ele>4873.8</ele>
        <time>2015-09-06T04:23:04Z</time>
      </trkpt>
      <trkpt lat="33.72844" lon="77.67609">
        <ele>4874.8</ele>
        <time>2015-09-06T04:23:10Z</time>
      </trkpt>
      <trkpt lat="33.72841" lon="77.67601">
        <ele>4875.8</ele>
        <time>2015-09-06T04:23:28Z</time>
      </trkpt>
      <trkpt lat="33.72838" lon="77.67599">
        <ele>4876.8</ele>
        <time>2015-09-06T04:23:40Z</time>
      </trkpt>
      <trkpt lat="33.72833" lon="77.67596">
        <ele>4877.8</ele>
        <time>2015-09-06T04:23:56Z</time>
      </trkpt>
      <trkpt lat="33.72832" lon="77.67594">
        <ele>4879</ele>
        <time>2015-09-06T04:24:05Z</time>
      </trkpt>
      <trkpt lat="33.72831" lon="77.67594">
        <ele>4880</ele>
        <time>2015-09-06T04:24:10Z</time>
      </trkpt>
      <trkpt lat="33.72818" lon="77.67607">
        <ele>4880.8</ele>
        <time>2015-09-06T04:24:37Z</time>
      </trkpt>
      <trkpt lat="33.72819" lon="77.67612">
        <ele>4881</ele>
        <time>2015-09-06T04:24:45Z</time>
      </trkpt>
      <trkpt lat="33.72822" lon="77.67621">
        <ele>4881.2</ele>
        <time>2015-09-06T04:24:53Z</time>
      </trkpt>
      <trkpt lat="33.72822" lon="77.67624">
        <ele>4881.2</ele>
        <time>2015-09-06T04:24:56Z</time>
      </trkpt>
      <trkpt lat="33.72822" lon="77.67626">
        <ele>4881.2</ele>
        <time>2015-09-06T04:25:00Z</time>
      </trkpt>
      <trkpt lat="33.7282" lon="77.67627">
        <ele>4882</ele>
        <time>2015-09-06T04:25:11Z</time>
      </trkpt>
      <trkpt lat="33.72814" lon="77.67629">
        <ele>4883.2</ele>
        <time>2015-09-06T04:25:29Z</time>
      </trkpt>
      <trkpt lat="33.72818" lon="77.67638">
        <ele>4884.2</ele>
        <time>2015-09-06T04:25:42Z</time>
      </trkpt>
      <trkpt lat="33.72819" lon="77.67643">
        <ele>4885.2</ele>
        <time>2015-09-06T04:25:50Z</time>
      </trkpt>
      <trkpt lat="33.72818" lon="77.67648">
        <ele>4886.4</ele>
        <time>2015-09-06T04:26:00Z</time>
      </trkpt>
      <trkpt lat="33.72816" lon="77.67653">
        <ele>4887.4</ele>
        <time>2015-09-06T04:26:09Z</time>
      </trkpt>
      <trkpt lat="33.72818" lon="77.6766">
        <ele>4887.8</ele>
        <time>2015-09-06T04:26:14Z</time>
      </trkpt>
      <trkpt lat="33.72817" lon="77.67665">
        <ele>4888.6</ele>
        <time>2015-09-06T04:26:22Z</time>
      </trkpt>
      <trkpt lat="33.72814" lon="77.67667">
        <ele>4889.6</ele>
        <time>2015-09-06T04:26:30Z</time>
      </trkpt>
      <trkpt lat="33.7281" lon="77.67682">
        <ele>4890.8</ele>
        <time>2015-09-06T04:26:58Z</time>
      </trkpt>
      <trkpt lat="33.72801" lon="77.67686">
        <ele>4891.8</ele>
        <time>2015-09-06T04:27:11Z</time>
      </trkpt>
      <trkpt lat="33.72802" lon="77.67693">
        <ele>4892.8</ele>
        <time>2015-09-06T04:27:24Z</time>
      </trkpt>
      <trkpt lat="33.72801" lon="77.67699">
        <ele>4894</ele>
        <time>2015-09-06T04:27:36Z</time>
      </trkpt>
      <trkpt lat="33.72804" lon="77.67701">
        <ele>4895</ele>
        <time>2015-09-06T04:27:44Z</time>
      </trkpt>
      <trkpt lat="33.72807" lon="77.67702">
        <ele>4896</ele>
        <time>2015-09-06T04:27:53Z</time>
      </trkpt>
      <trkpt lat="33.72808" lon="77.67708">
        <ele>4897</ele>
        <time>2015-09-06T04:28:03Z</time>
      </trkpt>
      <trkpt lat="33.72809" lon="77.67715">
        <ele>4898.2</ele>
        <time>2015-09-06T04:28:13Z</time>
      </trkpt>
      <trkpt lat="33.7281" lon="77.67716">
        <ele>4899.8</ele>
        <time>2015-09-06T04:28:15Z</time>
      </trkpt>
      <trkpt lat="33.72812" lon="77.67721">
        <ele>4898.6</ele>
        <time>2015-09-06T04:28:25Z</time>
      </trkpt>
      <trkpt lat="33.72811" lon="77.67722">
        <ele>4898.2</ele>
        <time>2015-09-06T04:28:28Z</time>
      </trkpt>
      <trkpt lat="33.72811" lon="77.67728">
        <ele>4899.8</ele>
        <time>2015-09-06T04:28:46Z</time>
      </trkpt>
      <trkpt lat="33.72813" lon="77.67733">
        <ele>4900.8</ele>
        <time>2015-09-06T04:28:53Z</time>
      </trkpt>
      <trkpt lat="33.7281" lon="77.67738">
        <ele>4901</ele>
        <time>2015-09-06T04:29:03Z</time>
      </trkpt>
      <trkpt lat="33.72807" lon="77.67743">
        <ele>4902</ele>
        <time>2015-09-06T04:29:20Z</time>
      </trkpt>
      <trkpt lat="33.72811" lon="77.67748">
        <ele>4902.4</ele>
        <time>2015-09-06T04:29:26Z</time>
      </trkpt>
      <trkpt lat="33.72814" lon="77.67756">
        <ele>4903</ele>
        <time>2015-09-06T04:29:38Z</time>
      </trkpt>
      <trkpt lat="33.72814" lon="77.67758">
        <ele>4903.2</ele>
        <time>2015-09-06T04:29:40Z</time>
      </trkpt>
      <trkpt lat="33.72814" lon="77.67765">
        <ele>4904</ele>
        <time>2015-09-06T04:29:53Z</time>
      </trkpt>
      <trkpt lat="33.72814" lon="77.67774">
        <ele>4905</ele>
        <time>2015-09-06T04:30:05Z</time>
      </trkpt>
      <trkpt lat="33.72814" lon="77.67774">
        <ele>4905.2</ele>
        <time>2015-09-06T04:30:06Z</time>
      </trkpt>
      <trkpt lat="33.72808" lon="77.67779">
        <ele>4906.2</ele>
        <time>2015-09-06T04:30:17Z</time>
      </trkpt>
      <trkpt lat="33.72809" lon="77.67788">
        <ele>4907.2</ele>
        <time>2015-09-06T04:30:33Z</time>
      </trkpt>
      <trkpt lat="33.72813" lon="77.67797">
        <ele>4907.6</ele>
        <time>2015-09-06T04:30:45Z</time>
      </trkpt>
      <trkpt lat="33.72813" lon="77.67798">
        <ele>4908.4</ele>
        <time>2015-09-06T04:30:51Z</time>
      </trkpt>
      <trkpt lat="33.72813" lon="77.67802">
        <ele>4909.4</ele>
        <time>2015-09-06T04:30:57Z</time>
      </trkpt>
      <trkpt lat="33.72813" lon="77.67808">
        <ele>4910.6</ele>
        <time>2015-09-06T04:31:09Z</time>
      </trkpt>
      <trkpt lat="33.72816" lon="77.67811">
        <ele>4911.8</ele>
        <time>2015-09-06T04:31:16Z</time>
      </trkpt>
      <trkpt lat="33.72811" lon="77.67815">
        <ele>4912.8</ele>
        <time>2015-09-06T04:31:28Z</time>
      </trkpt>
      <trkpt lat="33.72812" lon="77.67818">
        <ele>4913.8</ele>
        <time>2015-09-06T04:31:36Z</time>
      </trkpt>
      <trkpt lat="33.72816" lon="77.67826">
        <ele>4914.8</ele>
        <time>2015-09-06T04:31:52Z</time>
      </trkpt>
      <trkpt lat="33.7282" lon="77.67831">
        <ele>4915.4</ele>
        <time>2015-09-06T04:31:59Z</time>
      </trkpt>
      <trkpt lat="33.72827" lon="77.67835">
        <ele>4915.8</ele>
        <time>2015-09-06T04:32:11Z</time>
      </trkpt>
      <trkpt lat="33.7283" lon="77.67838">
        <ele>4916.2</ele>
        <time>2015-09-06T04:32:15Z</time>
      </trkpt>
      <trkpt lat="33.72833" lon="77.67842">
        <ele>4916.8</ele>
        <time>2015-09-06T04:32:20Z</time>
      </trkpt>
      <trkpt lat="33.72834" lon="77.67844">
        <ele>4917</ele>
        <time>2015-09-06T04:32:22Z</time>
      </trkpt>
      <trkpt lat="33.72837" lon="77.67845">
        <ele>4917.4</ele>
        <time>2015-09-06T04:32:27Z</time>
      </trkpt>
      <trkpt lat="33.72836" lon="77.67844">
        <ele>4917.6</ele>
        <time>2015-09-06T04:32:29Z</time>
      </trkpt>
      <trkpt lat="33.72835" lon="77.67845">
        <ele>4918</ele>
        <time>2015-09-06T04:32:32Z</time>
      </trkpt>
      <trkpt lat="33.7283" lon="77.67845">
        <ele>4919</ele>
        <time>2015-09-06T04:32:40Z</time>
      </trkpt>
      <trkpt lat="33.72836" lon="77.67849">
        <ele>4919.4</ele>
        <time>2015-09-06T04:32:44Z</time>
      </trkpt>
      <trkpt lat="33.72838" lon="77.67851">
        <ele>4920.2</ele>
        <time>2015-09-06T04:32:49Z</time>
      </trkpt>
      <trkpt lat="33.72838" lon="77.67849">
        <ele>4921</ele>
        <time>2015-09-06T04:32:56Z</time>
      </trkpt>
      <trkpt lat="33.72838" lon="77.67849">
        <ele>4921.2</ele>
        <time>2015-09-06T04:32:58Z</time>
      </trkpt>
      <trkpt lat="33.72841" lon="77.67854">
        <ele>4922.2</ele>
        <time>2015-09-06T04:33:10Z</time>
      </trkpt>
      <trkpt lat="33.72845" lon="77.67859">
        <ele>4923.2</ele>
        <time>2015-09-06T04:33:21Z</time>
      </trkpt>
      <trkpt lat="33.72853" lon="77.67872">
        <ele>4924</ele>
        <time>2015-09-06T04:33:45Z</time>
      </trkpt>
      <trkpt lat="33.72854" lon="77.67876">
        <ele>4924.2</ele>
        <time>2015-09-06T04:33:51Z</time>
      </trkpt>
      <trkpt lat="33.72856" lon="77.67882">
        <ele>4925.4</ele>
        <time>2015-09-06T04:34:00Z</time>
      </trkpt>
      <trkpt lat="33.72852" lon="77.67896">
        <ele>4926.4</ele>
        <time>2015-09-06T04:34:25Z</time>
      </trkpt>
      <trkpt lat="33.7285" lon="77.67902">
        <ele>4927.4</ele>
        <time>2015-09-06T04:34:39Z</time>
      </trkpt>
      <trkpt lat="33.72849" lon="77.67908">
        <ele>4928.6</ele>
        <time>2015-09-06T04:34:50Z</time>
      </trkpt>
      <trkpt lat="33.72848" lon="77.67913">
        <ele>4929.6</ele>
        <time>2015-09-06T04:34:56Z</time>
      </trkpt>
      <trkpt lat="33.72845" lon="77.67918">
        <ele>4929.4</ele>
        <time>2015-09-06T04:35:11Z</time>
      </trkpt>
      <trkpt lat="33.72844" lon="77.6792">
        <ele>4930.6</ele>
        <time>2015-09-06T04:35:15Z</time>
      </trkpt>
      <trkpt lat="33.72841" lon="77.67924">
        <ele>4931.6</ele>
        <time>2015-09-06T04:35:26Z</time>
      </trkpt>
      <trkpt lat="33.72839" lon="77.67925">
        <ele>4932.8</ele>
        <time>2015-09-06T04:35:31Z</time>
      </trkpt>
      <trkpt lat="33.72837" lon="77.67931">
        <ele>4933.8</ele>
        <time>2015-09-06T04:35:46Z</time>
      </trkpt>
      <trkpt lat="33.72837" lon="77.67938">
        <ele>4934.8</ele>
        <time>2015-09-06T04:35:54Z</time>
      </trkpt>
      <trkpt lat="33.72831" lon="77.67948">
        <ele>4935.8</ele>
        <time>2015-09-06T04:36:13Z</time>
      </trkpt>
      <trkpt lat="33.7283" lon="77.6795">
        <ele>4937</ele>
        <time>2015-09-06T04:36:17Z</time>
      </trkpt>
      <trkpt lat="33.7283" lon="77.67952">
        <ele>4938</ele>
        <time>2015-09-06T04:36:21Z</time>
      </trkpt>
      <trkpt lat="33.72829" lon="77.67953">
        <ele>4939.2</ele>
        <time>2015-09-06T04:36:24Z</time>
      </trkpt>
      <trkpt lat="33.72823" lon="77.67969">
        <ele>4940.4</ele>
        <time>2015-09-06T04:36:54Z</time>
      </trkpt>
      <trkpt lat="33.72822" lon="77.6799">
        <ele>4941.4</ele>
        <time>2015-09-06T04:37:23Z</time>
      </trkpt>
      <trkpt lat="33.72817" lon="77.6799">
        <ele>4942</ele>
        <time>2015-09-06T04:37:30Z</time>
      </trkpt>
      <trkpt lat="33.72816" lon="77.67991">
        <ele>4942.4</ele>
        <time>2015-09-06T04:37:35Z</time>
      </trkpt>
      <trkpt lat="33.72806" lon="77.68">
        <ele>4943.6</ele>
        <time>2015-09-06T04:37:54Z</time>
      </trkpt>
      <trkpt lat="33.72801" lon="77.68001">
        <ele>4944.6</ele>
        <time>2015-09-06T04:38:02Z</time>
      </trkpt>
      <trkpt lat="33.72793" lon="77.68008">
        <ele>4945.6</ele>
        <time>2015-09-06T04:38:18Z</time>
      </trkpt>
      <trkpt lat="33.72787" lon="77.68011">
        <ele>4946</ele>
        <time>2015-09-06T04:38:28Z</time>
      </trkpt>
      <trkpt lat="33.72778" lon="77.68016">
        <ele>4946.6</ele>
        <time>2015-09-06T04:38:38Z</time>
      </trkpt>
      <trkpt lat="33.72775" lon="77.68017">
        <ele>4946.8</ele>
        <time>2015-09-06T04:38:41Z</time>
      </trkpt>
      <trkpt lat="33.72774" lon="77.68016">
        <ele>4946.8</ele>
        <time>2015-09-06T04:38:43Z</time>
      </trkpt>
      <trkpt lat="33.72772" lon="77.68014">
        <ele>4947.8</ele>
        <time>2015-09-06T04:38:48Z</time>
      </trkpt>
      <trkpt lat="33.72768" lon="77.68014">
        <ele>4946.8</ele>
        <time>2015-09-06T04:38:56Z</time>
      </trkpt>
      <trkpt lat="33.72769" lon="77.68016">
        <ele>4948</ele>
        <time>2015-09-06T04:39:21Z</time>
      </trkpt>
      <trkpt lat="33.72769" lon="77.68018">
        <ele>4948</ele>
        <time>2015-09-06T04:39:36Z</time>
      </trkpt>
      <trkpt lat="33.7277" lon="77.68017">
        <ele>4948</ele>
        <time>2015-09-06T04:39:39Z</time>
      </trkpt>
      <trkpt lat="33.72765" lon="77.68021">
        <ele>4946.8</ele>
        <time>2015-09-06T04:39:51Z</time>
      </trkpt>
      <trkpt lat="33.72763" lon="77.68018">
        <ele>4947.8</ele>
        <time>2015-09-06T04:39:59Z</time>
      </trkpt>
      <trkpt lat="33.72763" lon="77.6802">
        <ele>4947.8</ele>
        <time>2015-09-06T04:40:19Z</time>
      </trkpt>
      <trkpt lat="33.72766" lon="77.68019">
        <ele>4948.2</ele>
        <time>2015-09-06T04:40:53Z</time>
      </trkpt>
      <trkpt lat="33.72763" lon="77.68021">
        <ele>4949</ele>
        <time>2015-09-06T04:41:18Z</time>
      </trkpt>
      <trkpt lat="33.72765" lon="77.68017">
        <ele>4950.2</ele>
        <time>2015-09-06T04:41:46Z</time>
      </trkpt>
      <trkpt lat="33.72767" lon="77.6802">
        <ele>4949.8</ele>
        <time>2015-09-06T04:42:47Z</time>
      </trkpt>
      <trkpt lat="33.72767" lon="77.6802">
        <ele>4949.2</ele>
        <time>2015-09-06T04:42:52Z</time>
      </trkpt>
      <trkpt lat="33.72767" lon="77.68018">
        <ele>4949</ele>
        <time>2015-09-06T04:43:08Z</time>
      </trkpt>
      <trkpt lat="33.72764" lon="77.68021">
        <ele>4950.2</ele>
        <time>2015-09-06T04:43:31Z</time>
      </trkpt>
      <trkpt lat="33.72766" lon="77.68023">
        <ele>4951.2</ele>
        <time>2015-09-06T04:43:49Z</time>
      </trkpt>
      <trkpt lat="33.72764" lon="77.6802">
        <ele>4950.2</ele>
        <time>2015-09-06T04:44:07Z</time>
      </trkpt>
      <trkpt lat="33.72761" lon="77.68019">
        <ele>4949</ele>
        <time>2015-09-06T04:44:31Z</time>
      </trkpt>
      <trkpt lat="33.72761" lon="77.6802">
        <ele>4949.2</ele>
        <time>2015-09-06T04:44:32Z</time>
      </trkpt>
      <trkpt lat="33.72762" lon="77.68022">
        <ele>4950</ele>
        <time>2015-09-06T04:44:34Z</time>
      </trkpt>
      <trkpt lat="33.72763" lon="77.68023">
        <ele>4950.2</ele>
        <time>2015-09-06T04:44:35Z</time>
      </trkpt>
      <trkpt lat="33.72766" lon="77.68024">
        <ele>4950.4</ele>
        <time>2015-09-06T04:44:38Z</time>
      </trkpt>
      <trkpt lat="33.72764" lon="77.68024">
        <ele>4950.4</ele>
        <time>2015-09-06T04:44:40Z</time>
      </trkpt>
      <trkpt lat="33.72763" lon="77.68018">
        <ele>4949</ele>
        <time>2015-09-06T04:44:54Z</time>
      </trkpt>
      <trkpt lat="33.7276" lon="77.68017">
        <ele>4950</ele>
        <time>2015-09-06T04:45:10Z</time>
      </trkpt>
      <trkpt lat="33.72761" lon="77.68013">
        <ele>4951</ele>
        <time>2015-09-06T04:45:43Z</time>
      </trkpt>
      <trkpt lat="33.72762" lon="77.68015">
        <ele>4951.2</ele>
        <time>2015-09-06T04:45:47Z</time>
      </trkpt>
      <trkpt lat="33.72763" lon="77.68017">
        <ele>4950</ele>
        <time>2015-09-06T04:45:56Z</time>
      </trkpt>
      <trkpt lat="33.72761" lon="77.68023">
        <ele>4951.2</ele>
        <time>2015-09-06T04:46:45Z</time>
      </trkpt>
      <trkpt lat="33.72765" lon="77.68015">
        <ele>4951.6</ele>
        <time>2015-09-06T04:47:04Z</time>
      </trkpt>
      <trkpt lat="33.72767" lon="77.68015">
        <ele>4950.2</ele>
        <time>2015-09-06T04:48:01Z</time>
      </trkpt>
      <trkpt lat="33.72767" lon="77.68019">
        <ele>4950</ele>
        <time>2015-09-06T04:48:03Z</time>
      </trkpt>
      <trkpt lat="33.72765" lon="77.68021">
        <ele>4949.4</ele>
        <time>2015-09-06T04:48:06Z</time>
      </trkpt>
      <trkpt lat="33.72764" lon="77.68022">
        <ele>4949.2</ele>
        <time>2015-09-06T04:48:08Z</time>
      </trkpt>
      <trkpt lat="33.72762" lon="77.68023">
        <ele>4949.2</ele>
        <time>2015-09-06T04:48:10Z</time>
      </trkpt>
      <trkpt lat="33.72761" lon="77.68022">
        <ele>4949</ele>
        <time>2015-09-06T04:48:12Z</time>
      </trkpt>
      <trkpt lat="33.72761" lon="77.68021">
        <ele>4949</ele>
        <time>2015-09-06T04:48:13Z</time>
      </trkpt>
      <trkpt lat="33.72749" lon="77.6803">
        <ele>4948.8</ele>
        <time>2015-09-06T04:48:49Z</time>
      </trkpt>
      <trkpt lat="33.72741" lon="77.68039">
        <ele>4948.6</ele>
        <time>2015-09-06T04:49:03Z</time>
      </trkpt>
      <trkpt lat="33.7273" lon="77.68054">
        <ele>4948</ele>
        <time>2015-09-06T04:49:19Z</time>
      </trkpt>
      <trkpt lat="33.72729" lon="77.68055">
        <ele>4947.8</ele>
        <time>2015-09-06T04:49:21Z</time>
      </trkpt>
      <trkpt lat="33.72721" lon="77.68066">
        <ele>4947</ele>
        <time>2015-09-06T04:49:45Z</time>
      </trkpt>
      <trkpt lat="33.72719" lon="77.68067">
        <ele>4947</ele>
        <time>2015-09-06T04:49:46Z</time>
      </trkpt>
      <trkpt lat="33.72708" lon="77.68083">
        <ele>4947.2</ele>
        <time>2015-09-06T04:50:04Z</time>
      </trkpt>
      <trkpt lat="33.72704" lon="77.68091">
        <ele>4945.8</ele>
        <time>2015-09-06T04:50:12Z</time>
      </trkpt>
      <trkpt lat="33.72699" lon="77.68097">
        <ele>4944.6</ele>
        <time>2015-09-06T04:50:18Z</time>
      </trkpt>
      <trkpt lat="33.72692" lon="77.68103">
        <ele>4943.6</ele>
        <time>2015-09-06T04:50:29Z</time>
      </trkpt>
      <trkpt lat="33.72682" lon="77.68113">
        <ele>4942.2</ele>
        <time>2015-09-06T04:50:40Z</time>
      </trkpt>
      <trkpt lat="33.72677" lon="77.68114">
        <ele>4941</ele>
        <time>2015-09-06T04:50:44Z</time>
      </trkpt>
      <trkpt lat="33.72663" lon="77.68129">
        <ele>4940.8</ele>
        <time>2015-09-06T04:50:55Z</time>
      </trkpt>
      <trkpt lat="33.72659" lon="77.68136">
        <ele>4940.6</ele>
        <time>2015-09-06T04:51:00Z</time>
      </trkpt>
      <trkpt lat="33.72656" lon="77.68141">
        <ele>4940</ele>
        <time>2015-09-06T04:51:04Z</time>
      </trkpt>
      <trkpt lat="33.72653" lon="77.68145">
        <ele>4939</ele>
        <time>2015-09-06T04:51:09Z</time>
      </trkpt>
      <trkpt lat="33.72648" lon="77.68149">
        <ele>4937.8</ele>
        <time>2015-09-06T04:51:14Z</time>
      </trkpt>
      <trkpt lat="33.72642" lon="77.68153">
        <ele>4936.8</ele>
        <time>2015-09-06T04:51:19Z</time>
      </trkpt>
      <trkpt lat="33.72641" lon="77.68154">
        <ele>4936.4</ele>
        <time>2015-09-06T04:51:21Z</time>
      </trkpt>
      <trkpt lat="33.72638" lon="77.68159">
        <ele>4935.8</ele>
        <time>2015-09-06T04:51:26Z</time>
      </trkpt>
      <trkpt lat="33.72635" lon="77.68165">
        <ele>4934.6</ele>
        <time>2015-09-06T04:51:31Z</time>
      </trkpt>
      <trkpt lat="33.72631" lon="77.68171">
        <ele>4933.6</ele>
        <time>2015-09-06T04:51:36Z</time>
      </trkpt>
      <trkpt lat="33.72625" lon="77.68179">
        <ele>4932.6</ele>
        <time>2015-09-06T04:51:41Z</time>
      </trkpt>
      <trkpt lat="33.72622" lon="77.68182">
        <ele>4931.2</ele>
        <time>2015-09-06T04:51:45Z</time>
      </trkpt>
      <trkpt lat="33.7262" lon="77.68183">
        <ele>4930.4</ele>
        <time>2015-09-06T04:51:47Z</time>
      </trkpt>
      <trkpt lat="33.72619" lon="77.68183">
        <ele>4930.2</ele>
        <time>2015-09-06T04:51:48Z</time>
      </trkpt>
      <trkpt lat="33.72612" lon="77.68184">
        <ele>4929</ele>
        <time>2015-09-06T04:51:56Z</time>
      </trkpt>
      <trkpt lat="33.72611" lon="77.68184">
        <ele>4928.8</ele>
        <time>2015-09-06T04:51:58Z</time>
      </trkpt>
      <trkpt lat="33.72609" lon="77.68186">
        <ele>4928.8</ele>
        <time>2015-09-06T04:52:01Z</time>
      </trkpt>
      <trkpt lat="33.72606" lon="77.68188">
        <ele>4928.6</ele>
        <time>2015-09-06T04:52:04Z</time>
      </trkpt>
      <trkpt lat="33.72605" lon="77.6819">
        <ele>4928.4</ele>
        <time>2015-09-06T04:52:06Z</time>
      </trkpt>
      <trkpt lat="33.72602" lon="77.68193">
        <ele>4928</ele>
        <time>2015-09-06T04:52:09Z</time>
      </trkpt>
      <trkpt lat="33.72596" lon="77.68196">
        <ele>4927.4</ele>
        <time>2015-09-06T04:52:14Z</time>
      </trkpt>
      <trkpt lat="33.72595" lon="77.68199">
        <ele>4927</ele>
        <time>2015-09-06T04:52:18Z</time>
      </trkpt>
      <trkpt lat="33.72594" lon="77.682">
        <ele>4926.8</ele>
        <time>2015-09-06T04:52:19Z</time>
      </trkpt>
      <trkpt lat="33.72588" lon="77.68204">
        <ele>4925.8</ele>
        <time>2015-09-06T04:52:26Z</time>
      </trkpt>
      <trkpt lat="33.72582" lon="77.68206">
        <ele>4924.8</ele>
        <time>2015-09-06T04:52:31Z</time>
      </trkpt>
      <trkpt lat="33.72581" lon="77.68206">
        <ele>4924.6</ele>
        <time>2015-09-06T04:52:33Z</time>
      </trkpt>
      <trkpt lat="33.72578" lon="77.68208">
        <ele>4924.4</ele>
        <time>2015-09-06T04:52:37Z</time>
      </trkpt>
      <trkpt lat="33.72575" lon="77.68211">
        <ele>4923.8</ele>
        <time>2015-09-06T04:52:41Z</time>
      </trkpt>
      <trkpt lat="33.72574" lon="77.68212">
        <ele>4923.4</ele>
        <time>2015-09-06T04:52:42Z</time>
      </trkpt>
      <trkpt lat="33.7257" lon="77.68219">
        <ele>4922.4</ele>
        <time>2015-09-06T04:52:46Z</time>
      </trkpt>
      <trkpt lat="33.72563" lon="77.68228">
        <ele>4921.4</ele>
        <time>2015-09-06T04:52:53Z</time>
      </trkpt>
      <trkpt lat="33.7256" lon="77.68233">
        <ele>4921</ele>
        <time>2015-09-06T04:52:58Z</time>
      </trkpt>
      <trkpt lat="33.72559" lon="77.68235">
        <ele>4920.4</ele>
        <time>2015-09-06T04:53:00Z</time>
      </trkpt>
      <trkpt lat="33.72556" lon="77.68235">
        <ele>4919.2</ele>
        <time>2015-09-06T04:53:02Z</time>
      </trkpt>
      <trkpt lat="33.72554" lon="77.68235">
        <ele>4918</ele>
        <time>2015-09-06T04:53:04Z</time>
      </trkpt>
      <trkpt lat="33.72549" lon="77.68242">
        <ele>4917.4</ele>
        <time>2015-09-06T04:53:09Z</time>
      </trkpt>
      <trkpt lat="33.72545" lon="77.68249">
        <ele>4917</ele>
        <time>2015-09-06T04:53:16Z</time>
      </trkpt>
      <trkpt lat="33.72542" lon="77.68251">
        <ele>4915.8</ele>
        <time>2015-09-06T04:53:18Z</time>
      </trkpt>
      <trkpt lat="33.72537" lon="77.68255">
        <ele>4915</ele>
        <time>2015-09-06T04:53:24Z</time>
      </trkpt>
      <trkpt lat="33.72535" lon="77.6826">
        <ele>4914.8</ele>
        <time>2015-09-06T04:53:29Z</time>
      </trkpt>
      <trkpt lat="33.72529" lon="77.68268">
        <ele>4913.6</ele>
        <time>2015-09-06T04:53:36Z</time>
      </trkpt>
      <trkpt lat="33.72523" lon="77.68276">
        <ele>4912.8</ele>
        <time>2015-09-06T04:53:42Z</time>
      </trkpt>
      <trkpt lat="33.72522" lon="77.68276">
        <ele>4912.6</ele>
        <time>2015-09-06T04:53:43Z</time>
      </trkpt>
      <trkpt lat="33.72519" lon="77.68277">
        <ele>4912.4</ele>
        <time>2015-09-06T04:53:45Z</time>
      </trkpt>
      <trkpt lat="33.72515" lon="77.68281">
        <ele>4911.6</ele>
        <time>2015-09-06T04:53:52Z</time>
      </trkpt>
      <trkpt lat="33.72511" lon="77.68285">
        <ele>4910.4</ele>
        <time>2015-09-06T04:53:56Z</time>
      </trkpt>
      <trkpt lat="33.72507" lon="77.68289">
        <ele>4909.2</ele>
        <time>2015-09-06T04:54:00Z</time>
      </trkpt>
      <trkpt lat="33.72504" lon="77.68294">
        <ele>4908.2</ele>
        <time>2015-09-06T04:54:05Z</time>
      </trkpt>
      <trkpt lat="33.72494" lon="77.68304">
        <ele>4907.2</ele>
        <time>2015-09-06T04:54:14Z</time>
      </trkpt>
      <trkpt lat="33.72492" lon="77.68304">
        <ele>4906.4</ele>
        <time>2015-09-06T04:54:17Z</time>
      </trkpt>
      <trkpt lat="33.72491" lon="77.68304">
        <ele>4906</ele>
        <time>2015-09-06T04:54:18Z</time>
      </trkpt>
      <trkpt lat="33.7249" lon="77.68304">
        <ele>4905.8</ele>
        <time>2015-09-06T04:54:19Z</time>
      </trkpt>
      <trkpt lat="33.72485" lon="77.68308">
        <ele>4904.8</ele>
        <time>2015-09-06T04:54:23Z</time>
      </trkpt>
      <trkpt lat="33.72481" lon="77.68312">
        <ele>4903.6</ele>
        <time>2015-09-06T04:54:28Z</time>
      </trkpt>
      <trkpt lat="33.72473" lon="77.68322">
        <ele>4902.6</ele>
        <time>2015-09-06T04:54:38Z</time>
      </trkpt>
      <trkpt lat="33.72467" lon="77.68324">
        <ele>4901.6</ele>
        <time>2015-09-06T04:54:43Z</time>
      </trkpt>
      <trkpt lat="33.72461" lon="77.68327">
        <ele>4901.2</ele>
        <time>2015-09-06T04:54:48Z</time>
      </trkpt>
      <trkpt lat="33.72457" lon="77.68331">
        <ele>4900.6</ele>
        <time>2015-09-06T04:54:52Z</time>
      </trkpt>
      <trkpt lat="33.72452" lon="77.68333">
        <ele>4899.2</ele>
        <time>2015-09-06T04:54:56Z</time>
      </trkpt>
      <trkpt lat="33.72448" lon="77.68327">
        <ele>4898.2</ele>
        <time>2015-09-06T04:55:00Z</time>
      </trkpt>
      <trkpt lat="33.72445" lon="77.68325">
        <ele>4897</ele>
        <time>2015-09-06T04:55:03Z</time>
      </trkpt>
      <trkpt lat="33.72444" lon="77.68324">
        <ele>4896.4</ele>
        <time>2015-09-06T04:55:05Z</time>
      </trkpt>
      <trkpt lat="33.72441" lon="77.68326">
        <ele>4895.6</ele>
        <time>2015-09-06T04:55:07Z</time>
      </trkpt>
      <trkpt lat="33.72436" lon="77.6833">
        <ele>4895</ele>
        <time>2015-09-06T04:55:11Z</time>
      </trkpt>
      <trkpt lat="33.72427" lon="77.68337">
        <ele>4894.6</ele>
        <time>2015-09-06T04:55:22Z</time>
      </trkpt>
      <trkpt lat="33.72423" lon="77.68341">
        <ele>4894.2</ele>
        <time>2015-09-06T04:55:25Z</time>
      </trkpt>
      <trkpt lat="33.72421" lon="77.68344">
        <ele>4893.8</ele>
        <time>2015-09-06T04:55:28Z</time>
      </trkpt>
      <trkpt lat="33.7242" lon="77.68346">
        <ele>4893.6</ele>
        <time>2015-09-06T04:55:29Z</time>
      </trkpt>
      <trkpt lat="33.72416" lon="77.6835">
        <ele>4892.4</ele>
        <time>2015-09-06T04:55:35Z</time>
      </trkpt>
      <trkpt lat="33.72413" lon="77.68351">
        <ele>4891.2</ele>
        <time>2015-09-06T04:55:40Z</time>
      </trkpt>
      <trkpt lat="33.72402" lon="77.68358">
        <ele>4890</ele>
        <time>2015-09-06T04:55:51Z</time>
      </trkpt>
      <trkpt lat="33.72397" lon="77.68365">
        <ele>4888.8</ele>
        <time>2015-09-06T04:55:58Z</time>
      </trkpt>
      <trkpt lat="33.72393" lon="77.68369">
        <ele>4887.8</ele>
        <time>2015-09-06T04:56:03Z</time>
      </trkpt>
      <trkpt lat="33.72389" lon="77.68373">
        <ele>4886.6</ele>
        <time>2015-09-06T04:56:07Z</time>
      </trkpt>
      <trkpt lat="33.72381" lon="77.68386">
        <ele>4885.6</ele>
        <time>2015-09-06T04:56:19Z</time>
      </trkpt>
      <trkpt lat="33.72378" lon="77.6839">
        <ele>4884.4</ele>
        <time>2015-09-06T04:56:23Z</time>
      </trkpt>
      <trkpt lat="33.72375" lon="77.6839">
        <ele>4883.4</ele>
        <time>2015-09-06T04:56:27Z</time>
      </trkpt>
      <trkpt lat="33.72372" lon="77.68391">
        <ele>4882.2</ele>
        <time>2015-09-06T04:56:32Z</time>
      </trkpt>
      <trkpt lat="33.72367" lon="77.68394">
        <ele>4881.2</ele>
        <time>2015-09-06T04:56:37Z</time>
      </trkpt>
      <trkpt lat="33.72362" lon="77.684">
        <ele>4880</ele>
        <time>2015-09-06T04:56:42Z</time>
      </trkpt>
      <trkpt lat="33.7236" lon="77.68404">
        <ele>4878.8</ele>
        <time>2015-09-06T04:56:46Z</time>
      </trkpt>
      <trkpt lat="33.72349" lon="77.68416">
        <ele>4877.8</ele>
        <time>2015-09-06T04:56:57Z</time>
      </trkpt>
      <trkpt lat="33.72344" lon="77.6842">
        <ele>4876.8</ele>
        <time>2015-09-06T04:57:02Z</time>
      </trkpt>
      <trkpt lat="33.72337" lon="77.68426">
        <ele>4875.6</ele>
        <time>2015-09-06T04:57:09Z</time>
      </trkpt>
      <trkpt lat="33.72335" lon="77.68431">
        <ele>4874.6</ele>
        <time>2015-09-06T04:57:14Z</time>
      </trkpt>
      <trkpt lat="33.72331" lon="77.68435">
        <ele>4873.4</ele>
        <time>2015-09-06T04:57:19Z</time>
      </trkpt>
      <trkpt lat="33.72323" lon="77.68441">
        <ele>4872.4</ele>
        <time>2015-09-06T04:57:27Z</time>
      </trkpt>
      <trkpt lat="33.72322" lon="77.68442">
        <ele>4872.2</ele>
        <time>2015-09-06T04:57:28Z</time>
      </trkpt>
      <trkpt lat="33.72315" lon="77.68447">
        <ele>4871.4</ele>
        <time>2015-09-06T04:57:34Z</time>
      </trkpt>
      <trkpt lat="33.72314" lon="77.68448">
        <ele>4871.2</ele>
        <time>2015-09-06T04:57:35Z</time>
      </trkpt>
      <trkpt lat="33.72309" lon="77.68454">
        <ele>4870.2</ele>
        <time>2015-09-06T04:57:41Z</time>
      </trkpt>
      <trkpt lat="33.72307" lon="77.68454">
        <ele>4869.2</ele>
        <time>2015-09-06T04:57:45Z</time>
      </trkpt>
      <trkpt lat="33.72303" lon="77.68458">
        <ele>4868</ele>
        <time>2015-09-06T04:57:50Z</time>
      </trkpt>
      <trkpt lat="33.72298" lon="77.68462">
        <ele>4867</ele>
        <time>2015-09-06T04:57:55Z</time>
      </trkpt>
      <trkpt lat="33.72297" lon="77.68462">
        <ele>4867</ele>
        <time>2015-09-06T04:57:57Z</time>
      </trkpt>
      <trkpt lat="33.72296" lon="77.68466">
        <ele>4868.2</ele>
        <time>2015-09-06T04:58:01Z</time>
      </trkpt>
      <trkpt lat="33.72293" lon="77.68464">
        <ele>4867.2</ele>
        <time>2015-09-06T04:58:15Z</time>
      </trkpt>
      <trkpt lat="33.72295" lon="77.68471">
        <ele>4866.2</ele>
        <time>2015-09-06T04:58:26Z</time>
      </trkpt>
      <trkpt lat="33.72295" lon="77.68468">
        <ele>4865.2</ele>
        <time>2015-09-06T04:58:38Z</time>
      </trkpt>
      <trkpt lat="33.72296" lon="77.6846">
        <ele>4865.4</ele>
        <time>2015-09-06T04:59:16Z</time>
      </trkpt>
      <trkpt lat="33.72296" lon="77.68458">
        <ele>4865.2</ele>
        <time>2015-09-06T04:59:19Z</time>
      </trkpt>
      <trkpt lat="33.72289" lon="77.68462">
        <ele>4864.8</ele>
        <time>2015-09-06T05:00:07Z</time>
      </trkpt>
      <trkpt lat="33.72287" lon="77.68464">
        <ele>4864.2</ele>
        <time>2015-09-06T05:00:24Z</time>
      </trkpt>
      <trkpt lat="33.72285" lon="77.6847">
        <ele>4863</ele>
        <time>2015-09-06T05:00:30Z</time>
      </trkpt>
      <trkpt lat="33.72282" lon="77.68475">
        <ele>4862</ele>
        <time>2015-09-06T05:00:35Z</time>
      </trkpt>
      <trkpt lat="33.72278" lon="77.68479">
        <ele>4860.6</ele>
        <time>2015-09-06T05:00:41Z</time>
      </trkpt>
      <trkpt lat="33.72275" lon="77.68482">
        <ele>4859.6</ele>
        <time>2015-09-06T05:00:47Z</time>
      </trkpt>
      <trkpt lat="33.72273" lon="77.68487">
        <ele>4858.4</ele>
        <time>2015-09-06T05:00:52Z</time>
      </trkpt>
      <trkpt lat="33.72269" lon="77.68491">
        <ele>4857.4</ele>
        <time>2015-09-06T05:00:59Z</time>
      </trkpt>
      <trkpt lat="33.72264" lon="77.68497">
        <ele>4856.4</ele>
        <time>2015-09-06T05:01:06Z</time>
      </trkpt>
      <trkpt lat="33.72263" lon="77.68498">
        <ele>4856.2</ele>
        <time>2015-09-06T05:01:08Z</time>
      </trkpt>
      <trkpt lat="33.7226" lon="77.68503">
        <ele>4855.2</ele>
        <time>2015-09-06T05:01:14Z</time>
      </trkpt>
      <trkpt lat="33.72259" lon="77.68504">
        <ele>4855.2</ele>
        <time>2015-09-06T05:01:15Z</time>
      </trkpt>
      <trkpt lat="33.72258" lon="77.68506">
        <ele>4854.6</ele>
        <time>2015-09-06T05:01:18Z</time>
      </trkpt>
      <trkpt lat="33.72258" lon="77.68508">
        <ele>4854.2</ele>
        <time>2015-09-06T05:01:20Z</time>
      </trkpt>
      <trkpt lat="33.72257" lon="77.68511">
        <ele>4853.6</ele>
        <time>2015-09-06T05:01:23Z</time>
      </trkpt>
      <trkpt lat="33.72254" lon="77.68513">
        <ele>4853</ele>
        <time>2015-09-06T05:01:27Z</time>
      </trkpt>
      <trkpt lat="33.7225" lon="77.68515">
        <ele>4851.8</ele>
        <time>2015-09-06T05:01:33Z</time>
      </trkpt>
      <trkpt lat="33.72245" lon="77.6852">
        <ele>4850.6</ele>
        <time>2015-09-06T05:01:40Z</time>
      </trkpt>
      <trkpt lat="33.72243" lon="77.68523">
        <ele>4850</ele>
        <time>2015-09-06T05:01:44Z</time>
      </trkpt>
      <trkpt lat="33.72242" lon="77.68526">
        <ele>4849.6</ele>
        <time>2015-09-06T05:01:47Z</time>
      </trkpt>
      <trkpt lat="33.72238" lon="77.6853">
        <ele>4848.8</ele>
        <time>2015-09-06T05:01:52Z</time>
      </trkpt>
      <trkpt lat="33.72237" lon="77.68531">
        <ele>4848.4</ele>
        <time>2015-09-06T05:01:54Z</time>
      </trkpt>
      <trkpt lat="33.72232" lon="77.68533">
        <ele>4847.4</ele>
        <time>2015-09-06T05:02:00Z</time>
      </trkpt>
      <trkpt lat="33.72228" lon="77.68538">
        <ele>4846.2</ele>
        <time>2015-09-06T05:02:06Z</time>
      </trkpt>
      <trkpt lat="33.72227" lon="77.68543">
        <ele>4845</ele>
        <time>2015-09-06T05:02:13Z</time>
      </trkpt>
      <trkpt lat="33.72225" lon="77.68548">
        <ele>4844</ele>
        <time>2015-09-06T05:02:18Z</time>
      </trkpt>
      <trkpt lat="33.72221" lon="77.68552">
        <ele>4843</ele>
        <time>2015-09-06T05:02:24Z</time>
      </trkpt>
      <trkpt lat="33.72221" lon="77.68553">
        <ele>4842.8</ele>
        <time>2015-09-06T05:02:25Z</time>
      </trkpt>
      <trkpt lat="33.72219" lon="77.68553">
        <ele>4842.8</ele>
        <time>2015-09-06T05:02:27Z</time>
      </trkpt>
      <trkpt lat="33.72219" lon="77.68563">
        <ele>4841.8</ele>
        <time>2015-09-06T05:02:33Z</time>
      </trkpt>
      <trkpt lat="33.7222" lon="77.68565">
        <ele>4841.6</ele>
        <time>2015-09-06T05:02:35Z</time>
      </trkpt>
      <trkpt lat="33.72217" lon="77.68568">
        <ele>4841.2</ele>
        <time>2015-09-06T05:02:39Z</time>
      </trkpt>
      <trkpt lat="33.72216" lon="77.68572">
        <ele>4840.8</ele>
        <time>2015-09-06T05:02:45Z</time>
      </trkpt>
      <trkpt lat="33.7221" lon="77.68585">
        <ele>4839.8</ele>
        <time>2015-09-06T05:02:56Z</time>
      </trkpt>
      <trkpt lat="33.72206" lon="77.68591">
        <ele>4838.4</ele>
        <time>2015-09-06T05:03:02Z</time>
      </trkpt>
      <trkpt lat="33.72203" lon="77.68595">
        <ele>4837.4</ele>
        <time>2015-09-06T05:03:07Z</time>
      </trkpt>
      <trkpt lat="33.722" lon="77.68601">
        <ele>4836.4</ele>
        <time>2015-09-06T05:03:12Z</time>
      </trkpt>
      <trkpt lat="33.72197" lon="77.68603">
        <ele>4835.2</ele>
        <time>2015-09-06T05:03:17Z</time>
      </trkpt>
      <trkpt lat="33.72195" lon="77.68605">
        <ele>4834</ele>
        <time>2015-09-06T05:03:21Z</time>
      </trkpt>
      <trkpt lat="33.72191" lon="77.68609">
        <ele>4832.8</ele>
        <time>2015-09-06T05:03:26Z</time>
      </trkpt>
      <trkpt lat="33.72188" lon="77.68612">
        <ele>4831.6</ele>
        <time>2015-09-06T05:03:30Z</time>
      </trkpt>
      <trkpt lat="33.72182" lon="77.68619">
        <ele>4830.4</ele>
        <time>2015-09-06T05:03:37Z</time>
      </trkpt>
      <trkpt lat="33.72181" lon="77.68621">
        <ele>4829.2</ele>
        <time>2015-09-06T05:03:39Z</time>
      </trkpt>
      <trkpt lat="33.72179" lon="77.68624">
        <ele>4828</ele>
        <time>2015-09-06T05:03:42Z</time>
      </trkpt>
      <trkpt lat="33.72175" lon="77.6863">
        <ele>4827</ele>
        <time>2015-09-06T05:03:46Z</time>
      </trkpt>
      <trkpt lat="33.72175" lon="77.68632">
        <ele>4826.4</ele>
        <time>2015-09-06T05:03:48Z</time>
      </trkpt>
      <trkpt lat="33.72172" lon="77.68634">
        <ele>4825.8</ele>
        <time>2015-09-06T05:03:51Z</time>
      </trkpt>
      <trkpt lat="33.72172" lon="77.68632">
        <ele>4825.4</ele>
        <time>2015-09-06T05:03:53Z</time>
      </trkpt>
      <trkpt lat="33.72172" lon="77.68631">
        <ele>4824.6</ele>
        <time>2015-09-06T05:03:57Z</time>
      </trkpt>
      <trkpt lat="33.72175" lon="77.68622">
        <ele>4824</ele>
        <time>2015-09-06T05:04:13Z</time>
      </trkpt>
      <trkpt lat="33.72171" lon="77.68626">
        <ele>4824</ele>
        <time>2015-09-06T05:04:15Z</time>
      </trkpt>
      <trkpt lat="33.7217" lon="77.68625">
        <ele>4823.6</ele>
        <time>2015-09-06T05:04:18Z</time>
      </trkpt>
      <trkpt lat="33.72174" lon="77.68622">
        <ele>4823.2</ele>
        <time>2015-09-06T05:04:25Z</time>
      </trkpt>
      <trkpt lat="33.72163" lon="77.68627">
        <ele>4822.8</ele>
        <time>2015-09-06T05:04:29Z</time>
      </trkpt>
      <trkpt lat="33.7216" lon="77.6863">
        <ele>4822.6</ele>
        <time>2015-09-06T05:04:32Z</time>
      </trkpt>
      <trkpt lat="33.72157" lon="77.68634">
        <ele>4821.6</ele>
        <time>2015-09-06T05:04:39Z</time>
      </trkpt>
      <trkpt lat="33.72154" lon="77.6864">
        <ele>4820.6</ele>
        <time>2015-09-06T05:04:48Z</time>
      </trkpt>
      <trkpt lat="33.72153" lon="77.68647">
        <ele>4819.8</ele>
        <time>2015-09-06T05:04:54Z</time>
      </trkpt>
      <trkpt lat="33.72153" lon="77.68648">
        <ele>4819.4</ele>
        <time>2015-09-06T05:04:56Z</time>
      </trkpt>
      <trkpt lat="33.72152" lon="77.68651">
        <ele>4818.8</ele>
        <time>2015-09-06T05:04:59Z</time>
      </trkpt>
      <trkpt lat="33.72152" lon="77.68653">
        <ele>4818.4</ele>
        <time>2015-09-06T05:05:01Z</time>
      </trkpt>
      <trkpt lat="33.72152" lon="77.68654">
        <ele>4818.2</ele>
        <time>2015-09-06T05:05:02Z</time>
      </trkpt>
      <trkpt lat="33.7215" lon="77.68656">
        <ele>4817.2</ele>
        <time>2015-09-06T05:05:08Z</time>
      </trkpt>
      <trkpt lat="33.72148" lon="77.68661">
        <ele>4816.2</ele>
        <time>2015-09-06T05:05:13Z</time>
      </trkpt>
      <trkpt lat="33.72146" lon="77.68665">
        <ele>4815</ele>
        <time>2015-09-06T05:05:17Z</time>
      </trkpt>
      <trkpt lat="33.72143" lon="77.68673">
        <ele>4814</ele>
        <time>2015-09-06T05:05:27Z</time>
      </trkpt>
      <trkpt lat="33.72143" lon="77.68679">
        <ele>4812.8</ele>
        <time>2015-09-06T05:05:32Z</time>
      </trkpt>
      <trkpt lat="33.72141" lon="77.68682">
        <ele>4811.8</ele>
        <time>2015-09-06T05:05:35Z</time>
      </trkpt>
      <trkpt lat="33.7214" lon="77.68684">
        <ele>4811.2</ele>
        <time>2015-09-06T05:05:37Z</time>
      </trkpt>
      <trkpt lat="33.72141" lon="77.68685">
        <ele>4810.8</ele>
        <time>2015-09-06T05:05:42Z</time>
      </trkpt>
      <trkpt lat="33.72135" lon="77.68676">
        <ele>4809.8</ele>
        <time>2015-09-06T05:06:13Z</time>
      </trkpt>
      <trkpt lat="33.7214" lon="77.68684">
        <ele>4810</ele>
        <time>2015-09-06T05:06:43Z</time>
      </trkpt>
      <trkpt lat="33.72139" lon="77.68686">
        <ele>4810</ele>
        <time>2015-09-06T05:06:45Z</time>
      </trkpt>
      <trkpt lat="33.72136" lon="77.68693">
        <ele>4809</ele>
        <time>2015-09-06T05:06:51Z</time>
      </trkpt>
      <trkpt lat="33.72135" lon="77.68694">
        <ele>4808.6</ele>
        <time>2015-09-06T05:06:53Z</time>
      </trkpt>
      <trkpt lat="33.72132" lon="77.68694">
        <ele>4807.6</ele>
        <time>2015-09-06T05:07:00Z</time>
      </trkpt>
      <trkpt lat="33.7213" lon="77.68695">
        <ele>4806.6</ele>
        <time>2015-09-06T05:07:03Z</time>
      </trkpt>
      <trkpt lat="33.72128" lon="77.68699">
        <ele>4806.4</ele>
        <time>2015-09-06T05:07:06Z</time>
      </trkpt>
      <trkpt lat="33.72128" lon="77.68699">
        <ele>4806.4</ele>
        <time>2015-09-06T05:07:07Z</time>
      </trkpt>
      <trkpt lat="33.72127" lon="77.68699">
        <ele>4805.8</ele>
        <time>2015-09-06T05:07:09Z</time>
      </trkpt>
      <trkpt lat="33.72126" lon="77.687">
        <ele>4805.4</ele>
        <time>2015-09-06T05:07:10Z</time>
      </trkpt>
      <trkpt lat="33.72124" lon="77.68701">
        <ele>4804.4</ele>
        <time>2015-09-06T05:07:15Z</time>
      </trkpt>
      <trkpt lat="33.72123" lon="77.68707">
        <ele>4804.4</ele>
        <time>2015-09-06T05:07:19Z</time>
      </trkpt>
      <trkpt lat="33.72123" lon="77.68714">
        <ele>4803.6</ele>
        <time>2015-09-06T05:07:24Z</time>
      </trkpt>
      <trkpt lat="33.72123" lon="77.68714">
        <ele>4803.2</ele>
        <time>2015-09-06T05:07:25Z</time>
      </trkpt>
      <trkpt lat="33.72119" lon="77.68717">
        <ele>4802</ele>
        <time>2015-09-06T05:07:29Z</time>
      </trkpt>
      <trkpt lat="33.72117" lon="77.68718">
        <ele>4801.4</ele>
        <time>2015-09-06T05:07:31Z</time>
      </trkpt>
      <trkpt lat="33.72115" lon="77.68719">
        <ele>4800.8</ele>
        <time>2015-09-06T05:07:32Z</time>
      </trkpt>
      <trkpt lat="33.72114" lon="77.68721">
        <ele>4800.4</ele>
        <time>2015-09-06T05:07:34Z</time>
      </trkpt>
      <trkpt lat="33.72112" lon="77.68717">
        <ele>4800</ele>
        <time>2015-09-06T05:07:38Z</time>
      </trkpt>
      <trkpt lat="33.72111" lon="77.68718">
        <ele>4799.8</ele>
        <time>2015-09-06T05:07:39Z</time>
      </trkpt>
      <trkpt lat="33.72109" lon="77.68718">
        <ele>4799.4</ele>
        <time>2015-09-06T05:07:41Z</time>
      </trkpt>
      <trkpt lat="33.72106" lon="77.68719">
        <ele>4799.2</ele>
        <time>2015-09-06T05:07:45Z</time>
      </trkpt>
      <trkpt lat="33.72101" lon="77.68729">
        <ele>4799</ele>
        <time>2015-09-06T05:07:56Z</time>
      </trkpt>
      <trkpt lat="33.72101" lon="77.6873">
        <ele>4798.6</ele>
        <time>2015-09-06T05:07:59Z</time>
      </trkpt>
      <trkpt lat="33.72096" lon="77.68732">
        <ele>4798.4</ele>
        <time>2015-09-06T05:08:35Z</time>
      </trkpt>
      <trkpt lat="33.72092" lon="77.6874">
        <ele>4797.6</ele>
        <time>2015-09-06T05:08:42Z</time>
      </trkpt>
      <trkpt lat="33.72089" lon="77.68746">
        <ele>4796.6</ele>
        <time>2015-09-06T05:08:46Z</time>
      </trkpt>
      <trkpt lat="33.72087" lon="77.68748">
        <ele>4795.4</ele>
        <time>2015-09-06T05:08:49Z</time>
      </trkpt>
      <trkpt lat="33.72086" lon="77.68752">
        <ele>4794.4</ele>
        <time>2015-09-06T05:08:53Z</time>
      </trkpt>
      <trkpt lat="33.72082" lon="77.68757">
        <ele>4794</ele>
        <time>2015-09-06T05:09:00Z</time>
      </trkpt>
      <trkpt lat="33.7208" lon="77.68758">
        <ele>4793.4</ele>
        <time>2015-09-06T05:09:02Z</time>
      </trkpt>
      <trkpt lat="33.72079" lon="77.6876">
        <ele>4793</ele>
        <time>2015-09-06T05:09:03Z</time>
      </trkpt>
      <trkpt lat="33.72075" lon="77.68764">
        <ele>4792</ele>
        <time>2015-09-06T05:09:08Z</time>
      </trkpt>
      <trkpt lat="33.72073" lon="77.68768">
        <ele>4791</ele>
        <time>2015-09-06T05:09:12Z</time>
      </trkpt>
      <trkpt lat="33.72071" lon="77.6877">
        <ele>4790.2</ele>
        <time>2015-09-06T05:09:15Z</time>
      </trkpt>
      <trkpt lat="33.7207" lon="77.68771">
        <ele>4790</ele>
        <time>2015-09-06T05:09:16Z</time>
      </trkpt>
      <trkpt lat="33.72068" lon="77.68776">
        <ele>4789</ele>
        <time>2015-09-06T05:09:21Z</time>
      </trkpt>
      <trkpt lat="33.72066" lon="77.68782">
        <ele>4787.8</ele>
        <time>2015-09-06T05:09:25Z</time>
      </trkpt>
      <trkpt lat="33.72062" lon="77.68788">
        <ele>4786.6</ele>
        <time>2015-09-06T05:09:29Z</time>
      </trkpt>
      <trkpt lat="33.72062" lon="77.68787">
        <ele>4786.4</ele>
        <time>2015-09-06T05:09:30Z</time>
      </trkpt>
      <trkpt lat="33.72062" lon="77.68789">
        <ele>4786</ele>
        <time>2015-09-06T05:09:32Z</time>
      </trkpt>
      <trkpt lat="33.7206" lon="77.68794">
        <ele>4785.6</ele>
        <time>2015-09-06T05:09:36Z</time>
      </trkpt>
      <trkpt lat="33.72059" lon="77.68795">
        <ele>4785.2</ele>
        <time>2015-09-06T05:09:38Z</time>
      </trkpt>
      <trkpt lat="33.72058" lon="77.68797">
        <ele>4784.6</ele>
        <time>2015-09-06T05:09:40Z</time>
      </trkpt>
      <trkpt lat="33.72055" lon="77.68802">
        <ele>4783.6</ele>
        <time>2015-09-06T05:09:45Z</time>
      </trkpt>
      <trkpt lat="33.72051" lon="77.68814">
        <ele>4782.6</ele>
        <time>2015-09-06T05:09:53Z</time>
      </trkpt>
      <trkpt lat="33.72045" lon="77.68823">
        <ele>4781.4</ele>
        <time>2015-09-06T05:09:59Z</time>
      </trkpt>
      <trkpt lat="33.72045" lon="77.68824">
        <ele>4781.2</ele>
        <time>2015-09-06T05:10:00Z</time>
      </trkpt>
      <trkpt lat="33.72041" lon="77.68824">
        <ele>4780.2</ele>
        <time>2015-09-06T05:10:05Z</time>
      </trkpt>
      <trkpt lat="33.72038" lon="77.68819">
        <ele>4779.4</ele>
        <time>2015-09-06T05:10:08Z</time>
      </trkpt>
      <trkpt lat="33.72037" lon="77.68818">
        <ele>4779.2</ele>
        <time>2015-09-06T05:10:09Z</time>
      </trkpt>
      <trkpt lat="33.72036" lon="77.68817">
        <ele>4779</ele>
        <time>2015-09-06T05:10:10Z</time>
      </trkpt>
      <trkpt lat="33.72034" lon="77.68816">
        <ele>4778.2</ele>
        <time>2015-09-06T05:10:12Z</time>
      </trkpt>
      <trkpt lat="33.72022" lon="77.68816">
        <ele>4777</ele>
        <time>2015-09-06T05:10:20Z</time>
      </trkpt>
      <trkpt lat="33.7202" lon="77.68815">
        <ele>4775.8</ele>
        <time>2015-09-06T05:10:23Z</time>
      </trkpt>
      <trkpt lat="33.72011" lon="77.68816">
        <ele>4774.8</ele>
        <time>2015-09-06T05:10:35Z</time>
      </trkpt>
      <trkpt lat="33.7201" lon="77.68816">
        <ele>4773.6</ele>
        <time>2015-09-06T05:10:38Z</time>
      </trkpt>
      <trkpt lat="33.72007" lon="77.68815">
        <ele>4772.4</ele>
        <time>2015-09-06T05:10:41Z</time>
      </trkpt>
      <trkpt lat="33.72004" lon="77.68815">
        <ele>4771.8</ele>
        <time>2015-09-06T05:10:44Z</time>
      </trkpt>
      <trkpt lat="33.72001" lon="77.68818">
        <ele>4771.4</ele>
        <time>2015-09-06T05:10:47Z</time>
      </trkpt>
      <trkpt lat="33.71999" lon="77.68819">
        <ele>4771.2</ele>
        <time>2015-09-06T05:10:48Z</time>
      </trkpt>
      <trkpt lat="33.71997" lon="77.6882">
        <ele>4770</ele>
        <time>2015-09-06T05:10:50Z</time>
      </trkpt>
      <trkpt lat="33.71993" lon="77.68822">
        <ele>4768.8</ele>
        <time>2015-09-06T05:10:53Z</time>
      </trkpt>
      <trkpt lat="33.7199" lon="77.68825">
        <ele>4767.6</ele>
        <time>2015-09-06T05:10:57Z</time>
      </trkpt>
      <trkpt lat="33.71986" lon="77.68825">
        <ele>4766.6</ele>
        <time>2015-09-06T05:11:01Z</time>
      </trkpt>
      <trkpt lat="33.71984" lon="77.68824">
        <ele>4766</ele>
        <time>2015-09-06T05:11:03Z</time>
      </trkpt>
      <trkpt lat="33.71975" lon="77.68835">
        <ele>4766</ele>
        <time>2015-09-06T05:11:13Z</time>
      </trkpt>
      <trkpt lat="33.7197" lon="77.68833">
        <ele>4765.8</ele>
        <time>2015-09-06T05:11:17Z</time>
      </trkpt>
      <trkpt lat="33.71967" lon="77.68833">
        <ele>4765.6</ele>
        <time>2015-09-06T05:11:19Z</time>
      </trkpt>
      <trkpt lat="33.71959" lon="77.68838">
        <ele>4764.6</ele>
        <time>2015-09-06T05:11:27Z</time>
      </trkpt>
      <trkpt lat="33.71956" lon="77.6884">
        <ele>4763.4</ele>
        <time>2015-09-06T05:11:30Z</time>
      </trkpt>
      <trkpt lat="33.71949" lon="77.68843">
        <ele>4762.2</ele>
        <time>2015-09-06T05:11:36Z</time>
      </trkpt>
      <trkpt lat="33.71945" lon="77.68844">
        <ele>4761</ele>
        <time>2015-09-06T05:11:39Z</time>
      </trkpt>
      <trkpt lat="33.71942" lon="77.68844">
        <ele>4760.6</ele>
        <time>2015-09-06T05:11:42Z</time>
      </trkpt>
      <trkpt lat="33.71936" lon="77.68847">
        <ele>4760</ele>
        <time>2015-09-06T05:11:49Z</time>
      </trkpt>
      <trkpt lat="33.71935" lon="77.6885">
        <ele>4759.4</ele>
        <time>2015-09-06T05:11:51Z</time>
      </trkpt>
      <trkpt lat="33.71933" lon="77.68851">
        <ele>4758.8</ele>
        <time>2015-09-06T05:11:54Z</time>
      </trkpt>
      <trkpt lat="33.71928" lon="77.68852">
        <ele>4758.2</ele>
        <time>2015-09-06T05:11:59Z</time>
      </trkpt>
      <trkpt lat="33.71927" lon="77.68854">
        <ele>4758</ele>
        <time>2015-09-06T05:12:01Z</time>
      </trkpt>
      <trkpt lat="33.71926" lon="77.68854">
        <ele>4757.8</ele>
        <time>2015-09-06T05:12:02Z</time>
      </trkpt>
      <trkpt lat="33.71919" lon="77.68851">
        <ele>4756.6</ele>
        <time>2015-09-06T05:12:08Z</time>
      </trkpt>
      <trkpt lat="33.71915" lon="77.6885">
        <ele>4755.8</ele>
        <time>2015-09-06T05:12:13Z</time>
      </trkpt>
      <trkpt lat="33.71908" lon="77.68851">
        <ele>4755.4</ele>
        <time>2015-09-06T05:12:19Z</time>
      </trkpt>
      <trkpt lat="33.71903" lon="77.68855">
        <ele>4754.4</ele>
        <time>2015-09-06T05:12:24Z</time>
      </trkpt>
      <trkpt lat="33.71901" lon="77.68858">
        <ele>4753.2</ele>
        <time>2015-09-06T05:12:29Z</time>
      </trkpt>
      <trkpt lat="33.71896" lon="77.68862">
        <ele>4752.2</ele>
        <time>2015-09-06T05:12:36Z</time>
      </trkpt>
      <trkpt lat="33.71891" lon="77.68864">
        <ele>4751.2</ele>
        <time>2015-09-06T05:12:43Z</time>
      </trkpt>
      <trkpt lat="33.71884" lon="77.68866">
        <ele>4751.2</ele>
        <time>2015-09-06T05:12:52Z</time>
      </trkpt>
      <trkpt lat="33.7188" lon="77.68866">
        <ele>4750</ele>
        <time>2015-09-06T05:12:56Z</time>
      </trkpt>
      <trkpt lat="33.71876" lon="77.68863">
        <ele>4749</ele>
        <time>2015-09-06T05:13:01Z</time>
      </trkpt>
      <trkpt lat="33.71875" lon="77.68864">
        <ele>4749</ele>
        <time>2015-09-06T05:13:03Z</time>
      </trkpt>
      <trkpt lat="33.71871" lon="77.68868">
        <ele>4748.6</ele>
        <time>2015-09-06T05:13:08Z</time>
      </trkpt>
      <trkpt lat="33.71868" lon="77.6887">
        <ele>4747.6</ele>
        <time>2015-09-06T05:13:11Z</time>
      </trkpt>
      <trkpt lat="33.71862" lon="77.68876">
        <ele>4746.6</ele>
        <time>2015-09-06T05:13:19Z</time>
      </trkpt>
      <trkpt lat="33.71855" lon="77.6888">
        <ele>4745.6</ele>
        <time>2015-09-06T05:13:28Z</time>
      </trkpt>
      <trkpt lat="33.71845" lon="77.68885">
        <ele>4744.4</ele>
        <time>2015-09-06T05:13:36Z</time>
      </trkpt>
      <trkpt lat="33.71841" lon="77.68889">
        <ele>4743.4</ele>
        <time>2015-09-06T05:13:40Z</time>
      </trkpt>
      <trkpt lat="33.71832" lon="77.68893">
        <ele>4742.4</ele>
        <time>2015-09-06T05:13:48Z</time>
      </trkpt>
      <trkpt lat="33.71829" lon="77.68896">
        <ele>4741.2</ele>
        <time>2015-09-06T05:13:52Z</time>
      </trkpt>
      <trkpt lat="33.71821" lon="77.68911">
        <ele>4740</ele>
        <time>2015-09-06T05:14:04Z</time>
      </trkpt>
      <trkpt lat="33.71819" lon="77.68918">
        <ele>4739.4</ele>
        <time>2015-09-06T05:14:08Z</time>
      </trkpt>
      <trkpt lat="33.71818" lon="77.68922">
        <ele>4739</ele>
        <time>2015-09-06T05:14:10Z</time>
      </trkpt>
      <trkpt lat="33.71808" lon="77.68926">
        <ele>4739</ele>
        <time>2015-09-06T05:14:19Z</time>
      </trkpt>
      <trkpt lat="33.71805" lon="77.68917">
        <ele>4737.8</ele>
        <time>2015-09-06T05:14:24Z</time>
      </trkpt>
      <trkpt lat="33.71805" lon="77.68917">
        <ele>4736.8</ele>
        <time>2015-09-06T05:14:27Z</time>
      </trkpt>
      <trkpt lat="33.71803" lon="77.68919">
        <ele>4735.6</ele>
        <time>2015-09-06T05:14:32Z</time>
      </trkpt>
      <trkpt lat="33.71801" lon="77.6892">
        <ele>4734.6</ele>
        <time>2015-09-06T05:14:36Z</time>
      </trkpt>
      <trkpt lat="33.71794" lon="77.68918">
        <ele>4734.6</ele>
        <time>2015-09-06T05:14:44Z</time>
      </trkpt>
      <trkpt lat="33.71791" lon="77.68923">
        <ele>4735.8</ele>
        <time>2015-09-06T05:14:51Z</time>
      </trkpt>
      <trkpt lat="33.71791" lon="77.68924">
        <ele>4737</ele>
        <time>2015-09-06T05:14:53Z</time>
      </trkpt>
      <trkpt lat="33.71791" lon="77.6893">
        <ele>4735.8</ele>
        <time>2015-09-06T05:15:09Z</time>
      </trkpt>
      <trkpt lat="33.71791" lon="77.68932">
        <ele>4735.2</ele>
        <time>2015-09-06T05:15:11Z</time>
      </trkpt>
      <trkpt lat="33.71791" lon="77.68935">
        <ele>4734.6</ele>
        <time>2015-09-06T05:15:13Z</time>
      </trkpt>
      <trkpt lat="33.71791" lon="77.6894">
        <ele>4733.6</ele>
        <time>2015-09-06T05:15:17Z</time>
      </trkpt>
      <trkpt lat="33.71791" lon="77.68941">
        <ele>4733.4</ele>
        <time>2015-09-06T05:15:18Z</time>
      </trkpt>
      <trkpt lat="33.71789" lon="77.68943">
        <ele>4732.6</ele>
        <time>2015-09-06T05:15:21Z</time>
      </trkpt>
      <trkpt lat="33.71783" lon="77.68945">
        <ele>4731.6</ele>
        <time>2015-09-06T05:15:25Z</time>
      </trkpt>
      <trkpt lat="33.71781" lon="77.68947">
        <ele>4731.2</ele>
        <time>2015-09-06T05:15:27Z</time>
      </trkpt>
      <trkpt lat="33.71778" lon="77.6895">
        <ele>4730.6</ele>
        <time>2015-09-06T05:15:30Z</time>
      </trkpt>
      <trkpt lat="33.71777" lon="77.68951">
        <ele>4730.4</ele>
        <time>2015-09-06T05:15:32Z</time>
      </trkpt>
      <trkpt lat="33.71775" lon="77.68954">
        <ele>4730.2</ele>
        <time>2015-09-06T05:15:34Z</time>
      </trkpt>
      <trkpt lat="33.71771" lon="77.68957">
        <ele>4729.2</ele>
        <time>2015-09-06T05:15:38Z</time>
      </trkpt>
      <trkpt lat="33.71764" lon="77.68969">
        <ele>4728.2</ele>
        <time>2015-09-06T05:15:50Z</time>
      </trkpt>
      <trkpt lat="33.71762" lon="77.68971">
        <ele>4727</ele>
        <time>2015-09-06T05:15:53Z</time>
      </trkpt>
      <trkpt lat="33.71762" lon="77.68972">
        <ele>4726.8</ele>
        <time>2015-09-06T05:15:54Z</time>
      </trkpt>
      <trkpt lat="33.71761" lon="77.68974">
        <ele>4726.4</ele>
        <time>2015-09-06T05:15:56Z</time>
      </trkpt>
      <trkpt lat="33.71761" lon="77.68977">
        <ele>4726</ele>
        <time>2015-09-06T05:15:58Z</time>
      </trkpt>
      <trkpt lat="33.7176" lon="77.6898">
        <ele>4725.4</ele>
        <time>2015-09-06T05:16:01Z</time>
      </trkpt>
      <trkpt lat="33.7176" lon="77.68981">
        <ele>4724.8</ele>
        <time>2015-09-06T05:16:02Z</time>
      </trkpt>
      <trkpt lat="33.71759" lon="77.68981">
        <ele>4724.2</ele>
        <time>2015-09-06T05:16:03Z</time>
      </trkpt>
      <trkpt lat="33.71759" lon="77.68981">
        <ele>4723.8</ele>
        <time>2015-09-06T05:16:04Z</time>
      </trkpt>
      <trkpt lat="33.71755" lon="77.68975">
        <ele>4722.8</ele>
        <time>2015-09-06T05:16:07Z</time>
      </trkpt>
      <trkpt lat="33.71753" lon="77.68972">
        <ele>4721.6</ele>
        <time>2015-09-06T05:16:10Z</time>
      </trkpt>
      <trkpt lat="33.71748" lon="77.68974">
        <ele>4721.6</ele>
        <time>2015-09-06T05:16:15Z</time>
      </trkpt>
      <trkpt lat="33.71746" lon="77.68983">
        <ele>4720.6</ele>
        <time>2015-09-06T05:16:31Z</time>
      </trkpt>
      <trkpt lat="33.71743" lon="77.68985">
        <ele>4720.6</ele>
        <time>2015-09-06T05:16:35Z</time>
      </trkpt>
      <trkpt lat="33.71739" lon="77.68987">
        <ele>4720</ele>
        <time>2015-09-06T05:16:40Z</time>
      </trkpt>
      <trkpt lat="33.71739" lon="77.68983">
        <ele>4719.8</ele>
        <time>2015-09-06T05:16:50Z</time>
      </trkpt>
      <trkpt lat="33.71741" lon="77.68985">
        <ele>4719.6</ele>
        <time>2015-09-06T05:16:55Z</time>
      </trkpt>
      <trkpt lat="33.71743" lon="77.68988">
        <ele>4719.6</ele>
        <time>2015-09-06T05:16:59Z</time>
      </trkpt>
      <trkpt lat="33.71739" lon="77.68987">
        <ele>4718.4</ele>
        <time>2015-09-06T05:17:41Z</time>
      </trkpt>
      <trkpt lat="33.71737" lon="77.68993">
        <ele>4718</ele>
        <time>2015-09-06T05:18:42Z</time>
      </trkpt>
      <trkpt lat="33.7174" lon="77.68988">
        <ele>4717.4</ele>
        <time>2015-09-06T05:19:04Z</time>
      </trkpt>
      <trkpt lat="33.7174" lon="77.68987">
        <ele>4717.4</ele>
        <time>2015-09-06T05:19:05Z</time>
      </trkpt>
      <trkpt lat="33.71738" lon="77.68986">
        <ele>4717.8</ele>
        <time>2015-09-06T05:20:12Z</time>
      </trkpt>
      <trkpt lat="33.71734" lon="77.68982">
        <ele>4716.2</ele>
        <time>2015-09-06T05:20:19Z</time>
      </trkpt>
      <trkpt lat="33.71734" lon="77.68981">
        <ele>4717.2</ele>
        <time>2015-09-06T05:20:25Z</time>
      </trkpt>
      <trkpt lat="33.71741" lon="77.68987">
        <ele>4717.2</ele>
        <time>2015-09-06T05:20:55Z</time>
      </trkpt>
      <trkpt lat="33.7174" lon="77.68987">
        <ele>4716.2</ele>
        <time>2015-09-06T05:21:12Z</time>
      </trkpt>
      <trkpt lat="33.71734" lon="77.68985">
        <ele>4716</ele>
        <time>2015-09-06T05:22:18Z</time>
      </trkpt>
      <trkpt lat="33.71731" lon="77.6898">
        <ele>4716.6</ele>
        <time>2015-09-06T05:22:23Z</time>
      </trkpt>
      <trkpt lat="33.71734" lon="77.68981">
        <ele>4715.2</ele>
        <time>2015-09-06T05:22:56Z</time>
      </trkpt>
      <trkpt lat="33.71745" lon="77.68988">
        <ele>4714.8</ele>
        <time>2015-09-06T05:23:38Z</time>
      </trkpt>
      <trkpt lat="33.71743" lon="77.68987">
        <ele>4714.2</ele>
        <time>2015-09-06T05:23:45Z</time>
      </trkpt>
      <trkpt lat="33.71742" lon="77.68987">
        <ele>4715.2</ele>
        <time>2015-09-06T05:24:07Z</time>
      </trkpt>
      <trkpt lat="33.71739" lon="77.68988">
        <ele>4714.8</ele>
        <time>2015-09-06T05:24:14Z</time>
      </trkpt>
      <trkpt lat="33.71742" lon="77.68989">
        <ele>4715</ele>
        <time>2015-09-06T05:24:24Z</time>
      </trkpt>
      <trkpt lat="33.71739" lon="77.68986">
        <ele>4715.2</ele>
        <time>2015-09-06T05:24:34Z</time>
      </trkpt>
      <trkpt lat="33.71739" lon="77.68983">
        <ele>4714.2</ele>
        <time>2015-09-06T05:24:47Z</time>
      </trkpt>
      <trkpt lat="33.71744" lon="77.68984">
        <ele>4713.2</ele>
        <time>2015-09-06T05:25:51Z</time>
      </trkpt>
      <trkpt lat="33.71744" lon="77.68984">
        <ele>4713.2</ele>
        <time>2015-09-06T05:25:53Z</time>
      </trkpt>
      <trkpt lat="33.7174" lon="77.6899">
        <ele>4713.6</ele>
        <time>2015-09-06T05:26:34Z</time>
      </trkpt>
      <trkpt lat="33.71738" lon="77.68991">
        <ele>4713.6</ele>
        <time>2015-09-06T05:26:36Z</time>
      </trkpt>
      <trkpt lat="33.71738" lon="77.68989">
        <ele>4713</ele>
        <time>2015-09-06T05:26:48Z</time>
      </trkpt>
      <trkpt lat="33.71736" lon="77.68988">
        <ele>4712.8</ele>
        <time>2015-09-06T05:27:08Z</time>
      </trkpt>
      <trkpt lat="33.71738" lon="77.68985">
        <ele>4712.2</ele>
        <time>2015-09-06T05:27:12Z</time>
      </trkpt>
      <trkpt lat="33.71732" lon="77.68979">
        <ele>4711.8</ele>
        <time>2015-09-06T05:27:26Z</time>
      </trkpt>
      <trkpt lat="33.71729" lon="77.68979">
        <ele>4711.2</ele>
        <time>2015-09-06T05:27:31Z</time>
      </trkpt>
      <trkpt lat="33.71726" lon="77.6898">
        <ele>4710.8</ele>
        <time>2015-09-06T05:27:34Z</time>
      </trkpt>
      <trkpt lat="33.71723" lon="77.68982">
        <ele>4710.8</ele>
        <time>2015-09-06T05:27:38Z</time>
      </trkpt>
      <trkpt lat="33.71722" lon="77.68982">
        <ele>4710.8</ele>
        <time>2015-09-06T05:27:39Z</time>
      </trkpt>
      <trkpt lat="33.7172" lon="77.68984">
        <ele>4710.6</ele>
        <time>2015-09-06T05:27:41Z</time>
      </trkpt>
      <trkpt lat="33.71718" lon="77.68986">
        <ele>4710.4</ele>
        <time>2015-09-06T05:27:43Z</time>
      </trkpt>
      <trkpt lat="33.71715" lon="77.68988">
        <ele>4710</ele>
        <time>2015-09-06T05:27:46Z</time>
      </trkpt>
      <trkpt lat="33.71711" lon="77.68989">
        <ele>4709.2</ele>
        <time>2015-09-06T05:27:50Z</time>
      </trkpt>
      <trkpt lat="33.7171" lon="77.68991">
        <ele>4709.2</ele>
        <time>2015-09-06T05:27:53Z</time>
      </trkpt>
      <trkpt lat="33.71706" lon="77.68997">
        <ele>4708.8</ele>
        <time>2015-09-06T05:28:00Z</time>
      </trkpt>
      <trkpt lat="33.71704" lon="77.69">
        <ele>4707.8</ele>
        <time>2015-09-06T05:28:04Z</time>
      </trkpt>
      <trkpt lat="33.71698" lon="77.69002">
        <ele>4706.8</ele>
        <time>2015-09-06T05:28:12Z</time>
      </trkpt>
      <trkpt lat="33.71694" lon="77.69007">
        <ele>4705.6</ele>
        <time>2015-09-06T05:28:20Z</time>
      </trkpt>
      <trkpt lat="33.71691" lon="77.69011">
        <ele>4705.6</ele>
        <time>2015-09-06T05:28:24Z</time>
      </trkpt>
      <trkpt lat="33.71689" lon="77.69012">
        <ele>4705.4</ele>
        <time>2015-09-06T05:28:26Z</time>
      </trkpt>
      <trkpt lat="33.71685" lon="77.69013">
        <ele>4704.6</ele>
        <time>2015-09-06T05:28:30Z</time>
      </trkpt>
      <trkpt lat="33.71678" lon="77.69015">
        <ele>4703.4</ele>
        <time>2015-09-06T05:28:38Z</time>
      </trkpt>
      <trkpt lat="33.7167" lon="77.69015">
        <ele>4702.6</ele>
        <time>2015-09-06T05:28:46Z</time>
      </trkpt>
      <trkpt lat="33.71668" lon="77.69015">
        <ele>4702.2</ele>
        <time>2015-09-06T05:28:47Z</time>
      </trkpt>
      <trkpt lat="33.71659" lon="77.69014">
        <ele>4701.2</ele>
        <time>2015-09-06T05:28:56Z</time>
      </trkpt>
      <trkpt lat="33.71651" lon="77.69014">
        <ele>4700</ele>
        <time>2015-09-06T05:29:04Z</time>
      </trkpt>
      <trkpt lat="33.71644" lon="77.69015">
        <ele>4699</ele>
        <time>2015-09-06T05:29:10Z</time>
      </trkpt>
      <trkpt lat="33.71636" lon="77.69018">
        <ele>4698</ele>
        <time>2015-09-06T05:29:18Z</time>
      </trkpt>
      <trkpt lat="33.71632" lon="77.69019">
        <ele>4696.8</ele>
        <time>2015-09-06T05:29:24Z</time>
      </trkpt>
      <trkpt lat="33.71626" lon="77.69018">
        <ele>4696.4</ele>
        <time>2015-09-06T05:29:30Z</time>
      </trkpt>
      <trkpt lat="33.7162" lon="77.69016">
        <ele>4695.8</ele>
        <time>2015-09-06T05:29:36Z</time>
      </trkpt>
      <trkpt lat="33.71617" lon="77.69016">
        <ele>4694.6</ele>
        <time>2015-09-06T05:29:40Z</time>
      </trkpt>
      <trkpt lat="33.71608" lon="77.69016">
        <ele>4693.6</ele>
        <time>2015-09-06T05:29:48Z</time>
      </trkpt>
      <trkpt lat="33.71598" lon="77.69014">
        <ele>4692.4</ele>
        <time>2015-09-06T05:30:00Z</time>
      </trkpt>
      <trkpt lat="33.71592" lon="77.69015">
        <ele>4691.4</ele>
        <time>2015-09-06T05:30:05Z</time>
      </trkpt>
      <trkpt lat="33.7159" lon="77.69019">
        <ele>4690.8</ele>
        <time>2015-09-06T05:30:08Z</time>
      </trkpt>
      <trkpt lat="33.71589" lon="77.69023">
        <ele>4690.4</ele>
        <time>2015-09-06T05:30:11Z</time>
      </trkpt>
      <trkpt lat="33.71587" lon="77.69025">
        <ele>4690.4</ele>
        <time>2015-09-06T05:30:14Z</time>
      </trkpt>
      <trkpt lat="33.71587" lon="77.6902">
        <ele>4690.6</ele>
        <time>2015-09-06T05:30:18Z</time>
      </trkpt>
      <trkpt lat="33.71585" lon="77.69016">
        <ele>4690.8</ele>
        <time>2015-09-06T05:30:21Z</time>
      </trkpt>
      <trkpt lat="33.71588" lon="77.69019">
        <ele>4690.8</ele>
        <time>2015-09-06T05:30:31Z</time>
      </trkpt>
      <trkpt lat="33.71586" lon="77.69024">
        <ele>4690</ele>
        <time>2015-09-06T05:30:34Z</time>
      </trkpt>
      <trkpt lat="33.71583" lon="77.69027">
        <ele>4689.2</ele>
        <time>2015-09-06T05:30:37Z</time>
      </trkpt>
      <trkpt lat="33.7158" lon="77.69031">
        <ele>4688.2</ele>
        <time>2015-09-06T05:30:41Z</time>
      </trkpt>
      <trkpt lat="33.71578" lon="77.69033">
        <ele>4688.2</ele>
        <time>2015-09-06T05:30:43Z</time>
      </trkpt>
      <trkpt lat="33.71574" lon="77.69042">
        <ele>4687</ele>
        <time>2015-09-06T05:30:49Z</time>
      </trkpt>
      <trkpt lat="33.71568" lon="77.69043">
        <ele>4685.8</ele>
        <time>2015-09-06T05:30:54Z</time>
      </trkpt>
      <trkpt lat="33.71563" lon="77.69042">
        <ele>4684.8</ele>
        <time>2015-09-06T05:31:01Z</time>
      </trkpt>
      <trkpt lat="33.71546" lon="77.69046">
        <ele>4683.6</ele>
        <time>2015-09-06T05:31:15Z</time>
      </trkpt>
      <trkpt lat="33.7154" lon="77.69049">
        <ele>4683.2</ele>
        <time>2015-09-06T05:31:20Z</time>
      </trkpt>
      <trkpt lat="33.71538" lon="77.69049">
        <ele>4682.8</ele>
        <time>2015-09-06T05:31:22Z</time>
      </trkpt>
      <trkpt lat="33.71535" lon="77.69052">
        <ele>4682.6</ele>
        <time>2015-09-06T05:31:25Z</time>
      </trkpt>
      <trkpt lat="33.71526" lon="77.69053">
        <ele>4681.6</ele>
        <time>2015-09-06T05:31:33Z</time>
      </trkpt>
      <trkpt lat="33.7152" lon="77.69053">
        <ele>4680.4</ele>
        <time>2015-09-06T05:31:40Z</time>
      </trkpt>
      <trkpt lat="33.71518" lon="77.69053">
        <ele>4680</ele>
        <time>2015-09-06T05:31:43Z</time>
      </trkpt>
      <trkpt lat="33.71515" lon="77.69052">
        <ele>4679.4</ele>
        <time>2015-09-06T05:31:46Z</time>
      </trkpt>
      <trkpt lat="33.71508" lon="77.69056">
        <ele>4678.4</ele>
        <time>2015-09-06T05:31:53Z</time>
      </trkpt>
      <trkpt lat="33.71504" lon="77.69059">
        <ele>4677.8</ele>
        <time>2015-09-06T05:31:57Z</time>
      </trkpt>
      <trkpt lat="33.71499" lon="77.6906">
        <ele>4677.2</ele>
        <time>2015-09-06T05:32:02Z</time>
      </trkpt>
      <trkpt lat="33.71495" lon="77.69062">
        <ele>4676.6</ele>
        <time>2015-09-06T05:32:05Z</time>
      </trkpt>
      <trkpt lat="33.71494" lon="77.69063">
        <ele>4676.2</ele>
        <time>2015-09-06T05:32:06Z</time>
      </trkpt>
      <trkpt lat="33.71488" lon="77.69067">
        <ele>4675.2</ele>
        <time>2015-09-06T05:32:11Z</time>
      </trkpt>
      <trkpt lat="33.71481" lon="77.69069">
        <ele>4674.2</ele>
        <time>2015-09-06T05:32:18Z</time>
      </trkpt>
      <trkpt lat="33.71473" lon="77.69073">
        <ele>4673</ele>
        <time>2015-09-06T05:32:25Z</time>
      </trkpt>
      <trkpt lat="33.71468" lon="77.69076">
        <ele>4672</ele>
        <time>2015-09-06T05:32:30Z</time>
      </trkpt>
      <trkpt lat="33.71464" lon="77.69078">
        <ele>4671.4</ele>
        <time>2015-09-06T05:32:35Z</time>
      </trkpt>
      <trkpt lat="33.7146" lon="77.6908">
        <ele>4670.8</ele>
        <time>2015-09-06T05:32:40Z</time>
      </trkpt>
      <trkpt lat="33.71456" lon="77.69081">
        <ele>4669.6</ele>
        <time>2015-09-06T05:32:47Z</time>
      </trkpt>
      <trkpt lat="33.71451" lon="77.69084">
        <ele>4668.4</ele>
        <time>2015-09-06T05:32:53Z</time>
      </trkpt>
      <trkpt lat="33.71447" lon="77.69091">
        <ele>4668</ele>
        <time>2015-09-06T05:32:57Z</time>
      </trkpt>
      <trkpt lat="33.71444" lon="77.69096">
        <ele>4667.4</ele>
        <time>2015-09-06T05:33:00Z</time>
      </trkpt>
      <trkpt lat="33.71438" lon="77.69109">
        <ele>4666.4</ele>
        <time>2015-09-06T05:33:07Z</time>
      </trkpt>
      <trkpt lat="33.71435" lon="77.69111">
        <ele>4665.6</ele>
        <time>2015-09-06T05:33:10Z</time>
      </trkpt>
      <trkpt lat="33.71433" lon="77.69112">
        <ele>4665.4</ele>
        <time>2015-09-06T05:33:12Z</time>
      </trkpt>
      <trkpt lat="33.71423" lon="77.69114">
        <ele>4664.4</ele>
        <time>2015-09-06T05:33:20Z</time>
      </trkpt>
      <trkpt lat="33.71418" lon="77.69111">
        <ele>4663.4</ele>
        <time>2015-09-06T05:33:26Z</time>
      </trkpt>
      <trkpt lat="33.71417" lon="77.69111">
        <ele>4663.2</ele>
        <time>2015-09-06T05:33:27Z</time>
      </trkpt>
      <trkpt lat="33.71414" lon="77.6911">
        <ele>4662.6</ele>
        <time>2015-09-06T05:33:30Z</time>
      </trkpt>
      <trkpt lat="33.71412" lon="77.6911">
        <ele>4662</ele>
        <time>2015-09-06T05:33:32Z</time>
      </trkpt>
      <trkpt lat="33.71402" lon="77.69118">
        <ele>4661</ele>
        <time>2015-09-06T05:33:40Z</time>
      </trkpt>
      <trkpt lat="33.71394" lon="77.69119">
        <ele>4660</ele>
        <time>2015-09-06T05:33:47Z</time>
      </trkpt>
      <trkpt lat="33.71385" lon="77.69119">
        <ele>4658.8</ele>
        <time>2015-09-06T05:33:55Z</time>
      </trkpt>
      <trkpt lat="33.71367" lon="77.69127">
        <ele>4657.8</ele>
        <time>2015-09-06T05:34:11Z</time>
      </trkpt>
      <trkpt lat="33.71366" lon="77.69127">
        <ele>4657.8</ele>
        <time>2015-09-06T05:34:12Z</time>
      </trkpt>
      <trkpt lat="33.71354" lon="77.69132">
        <ele>4656.6</ele>
        <time>2015-09-06T05:34:23Z</time>
      </trkpt>
      <trkpt lat="33.71345" lon="77.69138">
        <ele>4656</ele>
        <time>2015-09-06T05:34:32Z</time>
      </trkpt>
      <trkpt lat="33.71342" lon="77.69138">
        <ele>4655.6</ele>
        <time>2015-09-06T05:34:34Z</time>
      </trkpt>
      <trkpt lat="33.71341" lon="77.69138">
        <ele>4655.4</ele>
        <time>2015-09-06T05:34:35Z</time>
      </trkpt>
      <trkpt lat="33.71334" lon="77.6914">
        <ele>4654.6</ele>
        <time>2015-09-06T05:34:41Z</time>
      </trkpt>
      <trkpt lat="33.71332" lon="77.69141">
        <ele>4654.2</ele>
        <time>2015-09-06T05:34:43Z</time>
      </trkpt>
      <trkpt lat="33.7133" lon="77.69142">
        <ele>4654</ele>
        <time>2015-09-06T05:34:45Z</time>
      </trkpt>
      <trkpt lat="33.71327" lon="77.69143">
        <ele>4653.6</ele>
        <time>2015-09-06T05:34:48Z</time>
      </trkpt>
      <trkpt lat="33.71326" lon="77.69143">
        <ele>4653.6</ele>
        <time>2015-09-06T05:34:49Z</time>
      </trkpt>
      <trkpt lat="33.71325" lon="77.69143">
        <ele>4653.4</ele>
        <time>2015-09-06T05:34:50Z</time>
      </trkpt>
      <trkpt lat="33.71323" lon="77.69145">
        <ele>4652.8</ele>
        <time>2015-09-06T05:34:53Z</time>
      </trkpt>
      <trkpt lat="33.71321" lon="77.69145">
        <ele>4652.4</ele>
        <time>2015-09-06T05:34:55Z</time>
      </trkpt>
      <trkpt lat="33.71307" lon="77.69148">
        <ele>4652</ele>
        <time>2015-09-06T05:35:07Z</time>
      </trkpt>
      <trkpt lat="33.71304" lon="77.69148">
        <ele>4651.6</ele>
        <time>2015-09-06T05:35:10Z</time>
      </trkpt>
      <trkpt lat="33.71302" lon="77.69149">
        <ele>4651.2</ele>
        <time>2015-09-06T05:35:11Z</time>
      </trkpt>
      <trkpt lat="33.71301" lon="77.6915">
        <ele>4651</ele>
        <time>2015-09-06T05:35:12Z</time>
      </trkpt>
      <trkpt lat="33.71292" lon="77.69152">
        <ele>4650.4</ele>
        <time>2015-09-06T05:35:18Z</time>
      </trkpt>
      <trkpt lat="33.71291" lon="77.69152">
        <ele>4650.2</ele>
        <time>2015-09-06T05:35:19Z</time>
      </trkpt>
      <trkpt lat="33.71274" lon="77.69162">
        <ele>4649.8</ele>
        <time>2015-09-06T05:35:32Z</time>
      </trkpt>
      <trkpt lat="33.71271" lon="77.69164">
        <ele>4649.2</ele>
        <time>2015-09-06T05:35:38Z</time>
      </trkpt>
      <trkpt lat="33.71267" lon="77.69165">
        <ele>4648</ele>
        <time>2015-09-06T05:35:43Z</time>
      </trkpt>
      <trkpt lat="33.71266" lon="77.69164">
        <ele>4646.8</ele>
        <time>2015-09-06T05:35:46Z</time>
      </trkpt>
      <trkpt lat="33.71264" lon="77.69166">
        <ele>4646.2</ele>
        <time>2015-09-06T05:35:52Z</time>
      </trkpt>
      <trkpt lat="33.71261" lon="77.69166">
        <ele>4645.8</ele>
        <time>2015-09-06T05:35:55Z</time>
      </trkpt>
      <trkpt lat="33.71258" lon="77.69168">
        <ele>4645</ele>
        <time>2015-09-06T05:35:58Z</time>
      </trkpt>
      <trkpt lat="33.71256" lon="77.69168">
        <ele>4644.6</ele>
        <time>2015-09-06T05:35:59Z</time>
      </trkpt>
      <trkpt lat="33.71254" lon="77.69169">
        <ele>4643.4</ele>
        <time>2015-09-06T05:36:01Z</time>
      </trkpt>
      <trkpt lat="33.71249" lon="77.6917">
        <ele>4642.4</ele>
        <time>2015-09-06T05:36:07Z</time>
      </trkpt>
      <trkpt lat="33.71245" lon="77.69167">
        <ele>4641.2</ele>
        <time>2015-09-06T05:36:12Z</time>
      </trkpt>
      <trkpt lat="33.71245" lon="77.69167">
        <ele>4640.6</ele>
        <time>2015-09-06T05:36:13Z</time>
      </trkpt>
      <trkpt lat="33.71243" lon="77.69167">
        <ele>4640</ele>
        <time>2015-09-06T05:36:15Z</time>
      </trkpt>
      <trkpt lat="33.71241" lon="77.69167">
        <ele>4639.8</ele>
        <time>2015-09-06T05:36:17Z</time>
      </trkpt>
      <trkpt lat="33.71234" lon="77.69167">
        <ele>4639</ele>
        <time>2015-09-06T05:36:25Z</time>
      </trkpt>
      <trkpt lat="33.71227" lon="77.69172">
        <ele>4637.8</ele>
        <time>2015-09-06T05:36:32Z</time>
      </trkpt>
      <trkpt lat="33.71224" lon="77.69172">
        <ele>4637.2</ele>
        <time>2015-09-06T05:36:36Z</time>
      </trkpt>
      <trkpt lat="33.71222" lon="77.69172">
        <ele>4636.8</ele>
        <time>2015-09-06T05:36:37Z</time>
      </trkpt>
      <trkpt lat="33.71219" lon="77.69172">
        <ele>4635.6</ele>
        <time>2015-09-06T05:36:41Z</time>
      </trkpt>
      <trkpt lat="33.71217" lon="77.69173">
        <ele>4634.4</ele>
        <time>2015-09-06T05:36:44Z</time>
      </trkpt>
      <trkpt lat="33.71213" lon="77.69175">
        <ele>4633.4</ele>
        <time>2015-09-06T05:36:49Z</time>
      </trkpt>
      <trkpt lat="33.71207" lon="77.69179">
        <ele>4632.2</ele>
        <time>2015-09-06T05:36:55Z</time>
      </trkpt>
      <trkpt lat="33.71205" lon="77.69182">
        <ele>4631.6</ele>
        <time>2015-09-06T05:36:58Z</time>
      </trkpt>
      <trkpt lat="33.71203" lon="77.6918">
        <ele>4631</ele>
        <time>2015-09-06T05:37:00Z</time>
      </trkpt>
      <trkpt lat="33.71201" lon="77.69178">
        <ele>4629.4</ele>
        <time>2015-09-06T05:37:02Z</time>
      </trkpt>
      <trkpt lat="33.71199" lon="77.69175">
        <ele>4628.2</ele>
        <time>2015-09-06T05:37:05Z</time>
      </trkpt>
      <trkpt lat="33.71195" lon="77.69173">
        <ele>4627</ele>
        <time>2015-09-06T05:37:09Z</time>
      </trkpt>
      <trkpt lat="33.71194" lon="77.69173">
        <ele>4626.8</ele>
        <time>2015-09-06T05:37:10Z</time>
      </trkpt>
      <trkpt lat="33.71185" lon="77.69174">
        <ele>4626</ele>
        <time>2015-09-06T05:37:17Z</time>
      </trkpt>
      <trkpt lat="33.71176" lon="77.69173">
        <ele>4624.8</ele>
        <time>2015-09-06T05:37:26Z</time>
      </trkpt>
      <trkpt lat="33.7117" lon="77.69173">
        <ele>4623.8</ele>
        <time>2015-09-06T05:37:34Z</time>
      </trkpt>
      <trkpt lat="33.71166" lon="77.69172">
        <ele>4623.4</ele>
        <time>2015-09-06T05:37:37Z</time>
      </trkpt>
      <trkpt lat="33.7116" lon="77.69171">
        <ele>4622.4</ele>
        <time>2015-09-06T05:37:42Z</time>
      </trkpt>
      <trkpt lat="33.71158" lon="77.69171">
        <ele>4622</ele>
        <time>2015-09-06T05:37:44Z</time>
      </trkpt>
      <trkpt lat="33.7115" lon="77.69172">
        <ele>4621.2</ele>
        <time>2015-09-06T05:37:50Z</time>
      </trkpt>
      <trkpt lat="33.71131" lon="77.69169">
        <ele>4620.2</ele>
        <time>2015-09-06T05:38:05Z</time>
      </trkpt>
      <trkpt lat="33.7113" lon="77.69169">
        <ele>4620</ele>
        <time>2015-09-06T05:38:06Z</time>
      </trkpt>
      <trkpt lat="33.71129" lon="77.69169">
        <ele>4619.8</ele>
        <time>2015-09-06T05:38:07Z</time>
      </trkpt>
      <trkpt lat="33.71122" lon="77.69168">
        <ele>4619</ele>
        <time>2015-09-06T05:38:14Z</time>
      </trkpt>
      <trkpt lat="33.71119" lon="77.69169">
        <ele>4618.6</ele>
        <time>2015-09-06T05:38:16Z</time>
      </trkpt>
      <trkpt lat="33.71119" lon="77.69169">
        <ele>4618.6</ele>
        <time>2015-09-06T05:38:17Z</time>
      </trkpt>
      <trkpt lat="33.71116" lon="77.6917">
        <ele>4618.2</ele>
        <time>2015-09-06T05:38:20Z</time>
      </trkpt>
      <trkpt lat="33.71112" lon="77.69168">
        <ele>4618</ele>
        <time>2015-09-06T05:38:23Z</time>
      </trkpt>
      <trkpt lat="33.71106" lon="77.69167">
        <ele>4616.8</ele>
        <time>2015-09-06T05:38:28Z</time>
      </trkpt>
      <trkpt lat="33.71094" lon="77.69164">
        <ele>4615.6</ele>
        <time>2015-09-06T05:38:38Z</time>
      </trkpt>
      <trkpt lat="33.7109" lon="77.69162">
        <ele>4614.6</ele>
        <time>2015-09-06T05:38:44Z</time>
      </trkpt>
      <trkpt lat="33.71084" lon="77.69164">
        <ele>4613.6</ele>
        <time>2015-09-06T05:38:50Z</time>
      </trkpt>
      <trkpt lat="33.71079" lon="77.69162">
        <ele>4612.4</ele>
        <time>2015-09-06T05:38:59Z</time>
      </trkpt>
      <trkpt lat="33.71078" lon="77.69162">
        <ele>4612</ele>
        <time>2015-09-06T05:39:01Z</time>
      </trkpt>
      <trkpt lat="33.71075" lon="77.69161">
        <ele>4611.2</ele>
        <time>2015-09-06T05:39:05Z</time>
      </trkpt>
      <trkpt lat="33.7107" lon="77.69163">
        <ele>4610.4</ele>
        <time>2015-09-06T05:39:10Z</time>
      </trkpt>
      <trkpt lat="33.71068" lon="77.69164">
        <ele>4610.2</ele>
        <time>2015-09-06T05:39:12Z</time>
      </trkpt>
      <trkpt lat="33.71058" lon="77.69179">
        <ele>4609</ele>
        <time>2015-09-06T05:39:24Z</time>
      </trkpt>
      <trkpt lat="33.71056" lon="77.69179">
        <ele>4607.2</ele>
        <time>2015-09-06T05:39:26Z</time>
      </trkpt>
      <trkpt lat="33.71054" lon="77.69179">
        <ele>4606</ele>
        <time>2015-09-06T05:39:28Z</time>
      </trkpt>
      <trkpt lat="33.71045" lon="77.69179">
        <ele>4606.2</ele>
        <time>2015-09-06T05:39:37Z</time>
      </trkpt>
      <trkpt lat="33.71038" lon="77.69187">
        <ele>4605</ele>
        <time>2015-09-06T05:39:43Z</time>
      </trkpt>
      <trkpt lat="33.71031" lon="77.69192">
        <ele>4603.8</ele>
        <time>2015-09-06T05:39:54Z</time>
      </trkpt>
      <trkpt lat="33.7103" lon="77.69193">
        <ele>4603.8</ele>
        <time>2015-09-06T05:39:55Z</time>
      </trkpt>
      <trkpt lat="33.71028" lon="77.69193">
        <ele>4603.6</ele>
        <time>2015-09-06T05:39:57Z</time>
      </trkpt>
      <trkpt lat="33.71027" lon="77.69193">
        <ele>4603.2</ele>
        <time>2015-09-06T05:39:59Z</time>
      </trkpt>
      <trkpt lat="33.71024" lon="77.69195">
        <ele>4602.8</ele>
        <time>2015-09-06T05:40:02Z</time>
      </trkpt>
      <trkpt lat="33.7102" lon="77.69194">
        <ele>4601.2</ele>
        <time>2015-09-06T05:40:08Z</time>
      </trkpt>
      <trkpt lat="33.71019" lon="77.69194">
        <ele>4600.2</ele>
        <time>2015-09-06T05:40:09Z</time>
      </trkpt>
      <trkpt lat="33.71018" lon="77.69194">
        <ele>4599</ele>
        <time>2015-09-06T05:40:11Z</time>
      </trkpt>
      <trkpt lat="33.71015" lon="77.69193">
        <ele>4598.6</ele>
        <time>2015-09-06T05:40:14Z</time>
      </trkpt>
      <trkpt lat="33.71012" lon="77.69191">
        <ele>4597.8</ele>
        <time>2015-09-06T05:40:18Z</time>
      </trkpt>
      <trkpt lat="33.71011" lon="77.6919">
        <ele>4596.8</ele>
        <time>2015-09-06T05:40:20Z</time>
      </trkpt>
      <trkpt lat="33.7101" lon="77.6919">
        <ele>4596.4</ele>
        <time>2015-09-06T05:40:21Z</time>
      </trkpt>
      <trkpt lat="33.71008" lon="77.69198">
        <ele>4597</ele>
        <time>2015-09-06T05:40:29Z</time>
      </trkpt>
      <trkpt lat="33.71006" lon="77.69201">
        <ele>4596.8</ele>
        <time>2015-09-06T05:40:32Z</time>
      </trkpt>
      <trkpt lat="33.71004" lon="77.69211">
        <ele>4596</ele>
        <time>2015-09-06T05:40:37Z</time>
      </trkpt>
      <trkpt lat="33.71002" lon="77.69212">
        <ele>4595.8</ele>
        <time>2015-09-06T05:40:39Z</time>
      </trkpt>
      <trkpt lat="33.71002" lon="77.69211">
        <ele>4595.6</ele>
        <time>2015-09-06T05:40:40Z</time>
      </trkpt>
      <trkpt lat="33.70996" lon="77.69218">
        <ele>4594.8</ele>
        <time>2015-09-06T05:40:47Z</time>
      </trkpt>
      <trkpt lat="33.70991" lon="77.6922">
        <ele>4593.6</ele>
        <time>2015-09-06T05:40:52Z</time>
      </trkpt>
      <trkpt lat="33.70987" lon="77.6922">
        <ele>4592.2</ele>
        <time>2015-09-06T05:40:55Z</time>
      </trkpt>
      <trkpt lat="33.70982" lon="77.69218">
        <ele>4591</ele>
        <time>2015-09-06T05:41:00Z</time>
      </trkpt>
      <trkpt lat="33.70981" lon="77.69215">
        <ele>4590.8</ele>
        <time>2015-09-06T05:41:01Z</time>
      </trkpt>
      <trkpt lat="33.70976" lon="77.69215">
        <ele>4590.2</ele>
        <time>2015-09-06T05:41:06Z</time>
      </trkpt>
      <trkpt lat="33.70975" lon="77.69217">
        <ele>4590</ele>
        <time>2015-09-06T05:41:09Z</time>
      </trkpt>
      <trkpt lat="33.70971" lon="77.69214">
        <ele>4589</ele>
        <time>2015-09-06T05:41:14Z</time>
      </trkpt>
      <trkpt lat="33.70965" lon="77.69212">
        <ele>4588</ele>
        <time>2015-09-06T05:41:22Z</time>
      </trkpt>
      <trkpt lat="33.7095" lon="77.69213">
        <ele>4586.8</ele>
        <time>2015-09-06T05:41:39Z</time>
      </trkpt>
      <trkpt lat="33.70949" lon="77.69213">
        <ele>4586.6</ele>
        <time>2015-09-06T05:41:40Z</time>
      </trkpt>
      <trkpt lat="33.70942" lon="77.69212">
        <ele>4585.8</ele>
        <time>2015-09-06T05:41:46Z</time>
      </trkpt>
      <trkpt lat="33.70939" lon="77.69215">
        <ele>4585.6</ele>
        <time>2015-09-06T05:41:48Z</time>
      </trkpt>
      <trkpt lat="33.70935" lon="77.69216">
        <ele>4584.4</ele>
        <time>2015-09-06T05:41:52Z</time>
      </trkpt>
      <trkpt lat="33.70928" lon="77.69216">
        <ele>4583.4</ele>
        <time>2015-09-06T05:42:00Z</time>
      </trkpt>
      <trkpt lat="33.70922" lon="77.69217">
        <ele>4582.2</ele>
        <time>2015-09-06T05:42:07Z</time>
      </trkpt>
      <trkpt lat="33.70919" lon="77.69219">
        <ele>4581.2</ele>
        <time>2015-09-06T05:42:10Z</time>
      </trkpt>
      <trkpt lat="33.70918" lon="77.69219">
        <ele>4580.8</ele>
        <time>2015-09-06T05:42:12Z</time>
      </trkpt>
      <trkpt lat="33.70914" lon="77.6922">
        <ele>4580.6</ele>
        <time>2015-09-06T05:42:19Z</time>
      </trkpt>
      <trkpt lat="33.70911" lon="77.69219">
        <ele>4580</ele>
        <time>2015-09-06T05:42:21Z</time>
      </trkpt>
      <trkpt lat="33.70903" lon="77.6922">
        <ele>4579.4</ele>
        <time>2015-09-06T05:42:26Z</time>
      </trkpt>
      <trkpt lat="33.70902" lon="77.6922">
        <ele>4579.2</ele>
        <time>2015-09-06T05:42:28Z</time>
      </trkpt>
      <trkpt lat="33.70901" lon="77.6922">
        <ele>4579</ele>
        <time>2015-09-06T05:42:29Z</time>
      </trkpt>
      <trkpt lat="33.70897" lon="77.69219">
        <ele>4580</ele>
        <time>2015-09-06T05:42:36Z</time>
      </trkpt>
      <trkpt lat="33.70887" lon="77.69215">
        <ele>4579</ele>
        <time>2015-09-06T05:42:45Z</time>
      </trkpt>
      <trkpt lat="33.7088" lon="77.69218">
        <ele>4578</ele>
        <time>2015-09-06T05:42:49Z</time>
      </trkpt>
      <trkpt lat="33.70872" lon="77.69217">
        <ele>4577.6</ele>
        <time>2015-09-06T05:42:57Z</time>
      </trkpt>
      <trkpt lat="33.7087" lon="77.69219">
        <ele>4576.8</ele>
        <time>2015-09-06T05:43:00Z</time>
      </trkpt>
      <trkpt lat="33.70867" lon="77.69221">
        <ele>4575.6</ele>
        <time>2015-09-06T05:43:04Z</time>
      </trkpt>
      <trkpt lat="33.70863" lon="77.69219">
        <ele>4575</ele>
        <time>2015-09-06T05:43:07Z</time>
      </trkpt>
      <trkpt lat="33.7086" lon="77.69219">
        <ele>4574.6</ele>
        <time>2015-09-06T05:43:09Z</time>
      </trkpt>
      <trkpt lat="33.70846" lon="77.69219">
        <ele>4573.6</ele>
        <time>2015-09-06T05:43:22Z</time>
      </trkpt>
      <trkpt lat="33.70845" lon="77.69221">
        <ele>4573.4</ele>
        <time>2015-09-06T05:43:23Z</time>
      </trkpt>
      <trkpt lat="33.70841" lon="77.69229">
        <ele>4572.6</ele>
        <time>2015-09-06T05:43:28Z</time>
      </trkpt>
      <trkpt lat="33.70833" lon="77.69229">
        <ele>4572.4</ele>
        <time>2015-09-06T05:43:35Z</time>
      </trkpt>
      <trkpt lat="33.70828" lon="77.69228">
        <ele>4571.4</ele>
        <time>2015-09-06T05:43:41Z</time>
      </trkpt>
      <trkpt lat="33.70828" lon="77.69228">
        <ele>4570.8</ele>
        <time>2015-09-06T05:43:42Z</time>
      </trkpt>
      <trkpt lat="33.70828" lon="77.69224">
        <ele>4569.8</ele>
        <time>2015-09-06T05:43:46Z</time>
      </trkpt>
      <trkpt lat="33.70823" lon="77.69225">
        <ele>4568.6</ele>
        <time>2015-09-06T05:43:50Z</time>
      </trkpt>
      <trkpt lat="33.70821" lon="77.69222">
        <ele>4568</ele>
        <time>2015-09-06T05:43:52Z</time>
      </trkpt>
      <trkpt lat="33.70812" lon="77.69217">
        <ele>4567.4</ele>
        <time>2015-09-06T05:43:56Z</time>
      </trkpt>
      <trkpt lat="33.70809" lon="77.69216">
        <ele>4566</ele>
        <time>2015-09-06T05:44:01Z</time>
      </trkpt>
      <trkpt lat="33.70802" lon="77.6921">
        <ele>4565</ele>
        <time>2015-09-06T05:44:15Z</time>
      </trkpt>
      <trkpt lat="33.708" lon="77.69214">
        <ele>4564.6</ele>
        <time>2015-09-06T05:44:21Z</time>
      </trkpt>
      <trkpt lat="33.70794" lon="77.6921">
        <ele>4564</ele>
        <time>2015-09-06T05:44:29Z</time>
      </trkpt>
      <trkpt lat="33.70791" lon="77.69207">
        <ele>4563</ele>
        <time>2015-09-06T05:44:34Z</time>
      </trkpt>
      <trkpt lat="33.70775" lon="77.69197">
        <ele>4562.2</ele>
        <time>2015-09-06T05:44:47Z</time>
      </trkpt>
      <trkpt lat="33.70773" lon="77.69197">
        <ele>4562</ele>
        <time>2015-09-06T05:44:48Z</time>
      </trkpt>
      <trkpt lat="33.70767" lon="77.69197">
        <ele>4560.8</ele>
        <time>2015-09-06T05:44:52Z</time>
      </trkpt>
      <trkpt lat="33.70762" lon="77.69201">
        <ele>4559.8</ele>
        <time>2015-09-06T05:44:57Z</time>
      </trkpt>
      <trkpt lat="33.70759" lon="77.69201">
        <ele>4558.6</ele>
        <time>2015-09-06T05:45:02Z</time>
      </trkpt>
      <trkpt lat="33.70754" lon="77.69205">
        <ele>4557.4</ele>
        <time>2015-09-06T05:45:07Z</time>
      </trkpt>
      <trkpt lat="33.70751" lon="77.69205">
        <ele>4556.4</ele>
        <time>2015-09-06T05:45:11Z</time>
      </trkpt>
      <trkpt lat="33.70743" lon="77.69206">
        <ele>4556.2</ele>
        <time>2015-09-06T05:45:20Z</time>
      </trkpt>
      <trkpt lat="33.70739" lon="77.69204">
        <ele>4555.2</ele>
        <time>2015-09-06T05:45:24Z</time>
      </trkpt>
      <trkpt lat="33.70731" lon="77.692">
        <ele>4554.2</ele>
        <time>2015-09-06T05:45:32Z</time>
      </trkpt>
      <trkpt lat="33.70721" lon="77.69197">
        <ele>4553</ele>
        <time>2015-09-06T05:45:41Z</time>
      </trkpt>
      <trkpt lat="33.70707" lon="77.69205">
        <ele>4552</ele>
        <time>2015-09-06T05:45:53Z</time>
      </trkpt>
      <trkpt lat="33.70702" lon="77.6921">
        <ele>4551</ele>
        <time>2015-09-06T05:45:57Z</time>
      </trkpt>
      <trkpt lat="33.70698" lon="77.69217">
        <ele>4549.8</ele>
        <time>2015-09-06T05:46:03Z</time>
      </trkpt>
      <trkpt lat="33.70697" lon="77.69218">
        <ele>4549.2</ele>
        <time>2015-09-06T05:46:05Z</time>
      </trkpt>
      <trkpt lat="33.70696" lon="77.6922">
        <ele>4548.8</ele>
        <time>2015-09-06T05:46:06Z</time>
      </trkpt>
      <trkpt lat="33.70691" lon="77.69221">
        <ele>4547.6</ele>
        <time>2015-09-06T05:46:12Z</time>
      </trkpt>
      <trkpt lat="33.70686" lon="77.69222">
        <ele>4547.2</ele>
        <time>2015-09-06T05:46:17Z</time>
      </trkpt>
      <trkpt lat="33.70683" lon="77.69224">
        <ele>4546.6</ele>
        <time>2015-09-06T05:46:21Z</time>
      </trkpt>
      <trkpt lat="33.70672" lon="77.69231">
        <ele>4545.6</ele>
        <time>2015-09-06T05:46:32Z</time>
      </trkpt>
      <trkpt lat="33.70669" lon="77.69231">
        <ele>4545.4</ele>
        <time>2015-09-06T05:46:35Z</time>
      </trkpt>
      <trkpt lat="33.70668" lon="77.69231">
        <ele>4545.4</ele>
        <time>2015-09-06T05:46:37Z</time>
      </trkpt>
      <trkpt lat="33.70665" lon="77.6923">
        <ele>4545.2</ele>
        <time>2015-09-06T05:46:40Z</time>
      </trkpt>
      <trkpt lat="33.70662" lon="77.69231">
        <ele>4544.8</ele>
        <time>2015-09-06T05:46:45Z</time>
      </trkpt>
      <trkpt lat="33.70658" lon="77.69233">
        <ele>4544.8</ele>
        <time>2015-09-06T05:46:49Z</time>
      </trkpt>
      <trkpt lat="33.70655" lon="77.69232">
        <ele>4544.8</ele>
        <time>2015-09-06T05:46:54Z</time>
      </trkpt>
      <trkpt lat="33.70649" lon="77.69242">
        <ele>4544.6</ele>
        <time>2015-09-06T05:46:59Z</time>
      </trkpt>
      <trkpt lat="33.70645" lon="77.69248">
        <ele>4544.2</ele>
        <time>2015-09-06T05:47:03Z</time>
      </trkpt>
      <trkpt lat="33.70641" lon="77.69254">
        <ele>4543.4</ele>
        <time>2015-09-06T05:47:07Z</time>
      </trkpt>
      <trkpt lat="33.70639" lon="77.69254">
        <ele>4543</ele>
        <time>2015-09-06T05:47:09Z</time>
      </trkpt>
      <trkpt lat="33.70631" lon="77.69258">
        <ele>4543.2</ele>
        <time>2015-09-06T05:47:16Z</time>
      </trkpt>
      <trkpt lat="33.70624" lon="77.69276">
        <ele>4542.2</ele>
        <time>2015-09-06T05:47:33Z</time>
      </trkpt>
      <trkpt lat="33.70621" lon="77.69275">
        <ele>4541.2</ele>
        <time>2015-09-06T05:47:36Z</time>
      </trkpt>
      <trkpt lat="33.70613" lon="77.69274">
        <ele>4540.8</ele>
        <time>2015-09-06T05:47:43Z</time>
      </trkpt>
      <trkpt lat="33.70602" lon="77.69279">
        <ele>4541</ele>
        <time>2015-09-06T05:47:53Z</time>
      </trkpt>
      <trkpt lat="33.70599" lon="77.69279">
        <ele>4540.2</ele>
        <time>2015-09-06T05:47:57Z</time>
      </trkpt>
      <trkpt lat="33.70598" lon="77.6928">
        <ele>4540</ele>
        <time>2015-09-06T05:47:58Z</time>
      </trkpt>
      <trkpt lat="33.70595" lon="77.69283">
        <ele>4539.4</ele>
        <time>2015-09-06T05:48:02Z</time>
      </trkpt>
      <trkpt lat="33.70592" lon="77.69285">
        <ele>4539</ele>
        <time>2015-09-06T05:48:05Z</time>
      </trkpt>
      <trkpt lat="33.70591" lon="77.69286">
        <ele>4538.8</ele>
        <time>2015-09-06T05:48:06Z</time>
      </trkpt>
      <trkpt lat="33.70581" lon="77.69294">
        <ele>4537.8</ele>
        <time>2015-09-06T05:48:13Z</time>
      </trkpt>
      <trkpt lat="33.70581" lon="77.69292">
        <ele>4537.4</ele>
        <time>2015-09-06T05:48:14Z</time>
      </trkpt>
      <trkpt lat="33.70579" lon="77.69291">
        <ele>4536.6</ele>
        <time>2015-09-06T05:48:16Z</time>
      </trkpt>
      <trkpt lat="33.70575" lon="77.69294">
        <ele>4536</ele>
        <time>2015-09-06T05:48:19Z</time>
      </trkpt>
      <trkpt lat="33.70569" lon="77.693">
        <ele>4535.6</ele>
        <time>2015-09-06T05:48:24Z</time>
      </trkpt>
      <trkpt lat="33.7056" lon="77.69301">
        <ele>4534.4</ele>
        <time>2015-09-06T05:48:34Z</time>
      </trkpt>
      <trkpt lat="33.70556" lon="77.69302">
        <ele>4533.4</ele>
        <time>2015-09-06T05:48:40Z</time>
      </trkpt>
      <trkpt lat="33.70551" lon="77.69303">
        <ele>4532.2</ele>
        <time>2015-09-06T05:48:46Z</time>
      </trkpt>
      <trkpt lat="33.70548" lon="77.69303">
        <ele>4531.8</ele>
        <time>2015-09-06T05:48:50Z</time>
      </trkpt>
      <trkpt lat="33.70543" lon="77.69305">
        <ele>4531.6</ele>
        <time>2015-09-06T05:48:55Z</time>
      </trkpt>
      <trkpt lat="33.70541" lon="77.69306">
        <ele>4531.2</ele>
        <time>2015-09-06T05:48:58Z</time>
      </trkpt>
      <trkpt lat="33.7054" lon="77.69306">
        <ele>4531.2</ele>
        <time>2015-09-06T05:48:59Z</time>
      </trkpt>
      <trkpt lat="33.70538" lon="77.69306">
        <ele>4531</ele>
        <time>2015-09-06T05:49:01Z</time>
      </trkpt>
      <trkpt lat="33.70533" lon="77.6931">
        <ele>4530.2</ele>
        <time>2015-09-06T05:49:07Z</time>
      </trkpt>
      <trkpt lat="33.70529" lon="77.69313">
        <ele>4529.4</ele>
        <time>2015-09-06T05:49:11Z</time>
      </trkpt>
      <trkpt lat="33.70527" lon="77.69317">
        <ele>4529</ele>
        <time>2015-09-06T05:49:13Z</time>
      </trkpt>
      <trkpt lat="33.70518" lon="77.69321">
        <ele>4527.8</ele>
        <time>2015-09-06T05:49:22Z</time>
      </trkpt>
      <trkpt lat="33.70518" lon="77.69322">
        <ele>4527.6</ele>
        <time>2015-09-06T05:49:23Z</time>
      </trkpt>
      <trkpt lat="33.70513" lon="77.69323">
        <ele>4526.8</ele>
        <time>2015-09-06T05:49:27Z</time>
      </trkpt>
      <trkpt lat="33.70512" lon="77.69324">
        <ele>4526.6</ele>
        <time>2015-09-06T05:49:28Z</time>
      </trkpt>
      <trkpt lat="33.70505" lon="77.69327">
        <ele>4525.6</ele>
        <time>2015-09-06T05:49:36Z</time>
      </trkpt>
      <trkpt lat="33.70503" lon="77.6933">
        <ele>4525</ele>
        <time>2015-09-06T05:49:40Z</time>
      </trkpt>
      <trkpt lat="33.705" lon="77.69334">
        <ele>4524.6</ele>
        <time>2015-09-06T05:49:44Z</time>
      </trkpt>
      <trkpt lat="33.70494" lon="77.69344">
        <ele>4523.6</ele>
        <time>2015-09-06T05:49:54Z</time>
      </trkpt>
      <trkpt lat="33.70493" lon="77.69345">
        <ele>4523.2</ele>
        <time>2015-09-06T05:49:56Z</time>
      </trkpt>
      <trkpt lat="33.70489" lon="77.69347">
        <ele>4522.4</ele>
        <time>2015-09-06T05:50:00Z</time>
      </trkpt>
      <trkpt lat="33.70483" lon="77.6935">
        <ele>4521.4</ele>
        <time>2015-09-06T05:50:07Z</time>
      </trkpt>
      <trkpt lat="33.7048" lon="77.69356">
        <ele>4520.2</ele>
        <time>2015-09-06T05:50:14Z</time>
      </trkpt>
      <trkpt lat="33.70478" lon="77.69358">
        <ele>4519.4</ele>
        <time>2015-09-06T05:50:17Z</time>
      </trkpt>
      <trkpt lat="33.70476" lon="77.6936">
        <ele>4519</ele>
        <time>2015-09-06T05:50:19Z</time>
      </trkpt>
      <trkpt lat="33.70474" lon="77.69364">
        <ele>4518.4</ele>
        <time>2015-09-06T05:50:22Z</time>
      </trkpt>
      <trkpt lat="33.70472" lon="77.69367">
        <ele>4518</ele>
        <time>2015-09-06T05:50:25Z</time>
      </trkpt>
      <trkpt lat="33.70469" lon="77.6937">
        <ele>4517.4</ele>
        <time>2015-09-06T05:50:30Z</time>
      </trkpt>
      <trkpt lat="33.70465" lon="77.69372">
        <ele>4516.8</ele>
        <time>2015-09-06T05:50:34Z</time>
      </trkpt>
      <trkpt lat="33.70456" lon="77.69378">
        <ele>4515.8</ele>
        <time>2015-09-06T05:50:42Z</time>
      </trkpt>
      <trkpt lat="33.70443" lon="77.69387">
        <ele>4515</ele>
        <time>2015-09-06T05:50:57Z</time>
      </trkpt>
      <trkpt lat="33.70435" lon="77.6939">
        <ele>4514.6</ele>
        <time>2015-09-06T05:51:05Z</time>
      </trkpt>
      <trkpt lat="33.70428" lon="77.69402">
        <ele>4513.6</ele>
        <time>2015-09-06T05:51:16Z</time>
      </trkpt>
      <trkpt lat="33.70425" lon="77.69409">
        <ele>4513.4</ele>
        <time>2015-09-06T05:51:21Z</time>
      </trkpt>
      <trkpt lat="33.70423" lon="77.69411">
        <ele>4512.6</ele>
        <time>2015-09-06T05:51:25Z</time>
      </trkpt>
      <trkpt lat="33.70418" lon="77.69419">
        <ele>4511.8</ele>
        <time>2015-09-06T05:51:32Z</time>
      </trkpt>
      <trkpt lat="33.70417" lon="77.6942">
        <ele>4511.6</ele>
        <time>2015-09-06T05:51:34Z</time>
      </trkpt>
      <trkpt lat="33.704" lon="77.69431">
        <ele>4511</ele>
        <time>2015-09-06T05:51:52Z</time>
      </trkpt>
      <trkpt lat="33.70396" lon="77.69432">
        <ele>4510.6</ele>
        <time>2015-09-06T05:51:55Z</time>
      </trkpt>
      <trkpt lat="33.70391" lon="77.69435">
        <ele>4510.8</ele>
        <time>2015-09-06T05:51:59Z</time>
      </trkpt>
      <trkpt lat="33.70388" lon="77.69435">
        <ele>4510.4</ele>
        <time>2015-09-06T05:52:02Z</time>
      </trkpt>
      <trkpt lat="33.70384" lon="77.69437">
        <ele>4509.4</ele>
        <time>2015-09-06T05:52:08Z</time>
      </trkpt>
      <trkpt lat="33.70378" lon="77.69436">
        <ele>4508.4</ele>
        <time>2015-09-06T05:52:16Z</time>
      </trkpt>
      <trkpt lat="33.70374" lon="77.69436">
        <ele>4507.4</ele>
        <time>2015-09-06T05:52:21Z</time>
      </trkpt>
      <trkpt lat="33.70373" lon="77.69436">
        <ele>4507.2</ele>
        <time>2015-09-06T05:52:22Z</time>
      </trkpt>
      <trkpt lat="33.7037" lon="77.69436">
        <ele>4507</ele>
        <time>2015-09-06T05:52:24Z</time>
      </trkpt>
      <trkpt lat="33.70368" lon="77.69437">
        <ele>4507</ele>
        <time>2015-09-06T05:52:26Z</time>
      </trkpt>
      <trkpt lat="33.70365" lon="77.69433">
        <ele>4506</ele>
        <time>2015-09-06T05:52:31Z</time>
      </trkpt>
      <trkpt lat="33.70362" lon="77.6944">
        <ele>4506.4</ele>
        <time>2015-09-06T05:52:37Z</time>
      </trkpt>
      <trkpt lat="33.7036" lon="77.69438">
        <ele>4505</ele>
        <time>2015-09-06T05:52:44Z</time>
      </trkpt>
      <trkpt lat="33.70357" lon="77.69437">
        <ele>4504.4</ele>
        <time>2015-09-06T05:52:47Z</time>
      </trkpt>
      <trkpt lat="33.70355" lon="77.69442">
        <ele>4504.4</ele>
        <time>2015-09-06T05:52:55Z</time>
      </trkpt>
      <trkpt lat="33.70354" lon="77.69442">
        <ele>4503.8</ele>
        <time>2015-09-06T05:52:58Z</time>
      </trkpt>
      <trkpt lat="33.70352" lon="77.69442">
        <ele>4504</ele>
        <time>2015-09-06T05:53:03Z</time>
      </trkpt>
      <trkpt lat="33.70345" lon="77.69437">
        <ele>4503.4</ele>
        <time>2015-09-06T05:53:17Z</time>
      </trkpt>
      <trkpt lat="33.70343" lon="77.69436">
        <ele>4504.8</ele>
        <time>2015-09-06T05:53:30Z</time>
      </trkpt>
      <trkpt lat="33.70351" lon="77.6944">
        <ele>4504.2</ele>
        <time>2015-09-06T05:53:55Z</time>
      </trkpt>
      <trkpt lat="33.70353" lon="77.69439">
        <ele>4504.4</ele>
        <time>2015-09-06T05:54:16Z</time>
      </trkpt>
      <trkpt lat="33.70354" lon="77.69442">
        <ele>4504.2</ele>
        <time>2015-09-06T05:54:21Z</time>
      </trkpt>
      <trkpt lat="33.7035" lon="77.69444">
        <ele>4503.6</ele>
        <time>2015-09-06T05:54:26Z</time>
      </trkpt>
      <trkpt lat="33.70348" lon="77.69447">
        <ele>4502.4</ele>
        <time>2015-09-06T05:54:29Z</time>
      </trkpt>
      <trkpt lat="33.70344" lon="77.69451">
        <ele>4501</ele>
        <time>2015-09-06T05:54:37Z</time>
      </trkpt>
      <trkpt lat="33.70341" lon="77.69456">
        <ele>4500</ele>
        <time>2015-09-06T05:54:43Z</time>
      </trkpt>
      <trkpt lat="33.70335" lon="77.69459">
        <ele>4499</ele>
        <time>2015-09-06T05:54:50Z</time>
      </trkpt>
      <trkpt lat="33.70334" lon="77.69459">
        <ele>4498.8</ele>
        <time>2015-09-06T05:54:51Z</time>
      </trkpt>
      <trkpt lat="33.70327" lon="77.69464">
        <ele>4497.8</ele>
        <time>2015-09-06T05:55:01Z</time>
      </trkpt>
      <trkpt lat="33.70325" lon="77.69466">
        <ele>4497.8</ele>
        <time>2015-09-06T05:55:03Z</time>
      </trkpt>
      <trkpt lat="33.70323" lon="77.69467">
        <ele>4497.4</ele>
        <time>2015-09-06T05:55:05Z</time>
      </trkpt>
      <trkpt lat="33.70322" lon="77.69469">
        <ele>4497</ele>
        <time>2015-09-06T05:55:07Z</time>
      </trkpt>
      <trkpt lat="33.70321" lon="77.6947">
        <ele>4496.8</ele>
        <time>2015-09-06T05:55:08Z</time>
      </trkpt>
      <trkpt lat="33.70315" lon="77.6948">
        <ele>4495.8</ele>
        <time>2015-09-06T05:55:16Z</time>
      </trkpt>
      <trkpt lat="33.70308" lon="77.69487">
        <ele>4494.6</ele>
        <time>2015-09-06T05:55:24Z</time>
      </trkpt>
      <trkpt lat="33.70301" lon="77.6949">
        <ele>4494</ele>
        <time>2015-09-06T05:55:32Z</time>
      </trkpt>
      <trkpt lat="33.70296" lon="77.69492">
        <ele>4493.8</ele>
        <time>2015-09-06T05:55:36Z</time>
      </trkpt>
      <trkpt lat="33.70295" lon="77.69495">
        <ele>4493.6</ele>
        <time>2015-09-06T05:55:38Z</time>
      </trkpt>
      <trkpt lat="33.70288" lon="77.695">
        <ele>4492.6</ele>
        <time>2015-09-06T05:55:46Z</time>
      </trkpt>
      <trkpt lat="33.70279" lon="77.69505">
        <ele>4491.4</ele>
        <time>2015-09-06T05:55:55Z</time>
      </trkpt>
      <trkpt lat="33.70272" lon="77.69507">
        <ele>4490.6</ele>
        <time>2015-09-06T05:56:01Z</time>
      </trkpt>
      <trkpt lat="33.70271" lon="77.69507">
        <ele>4490.2</ele>
        <time>2015-09-06T05:56:03Z</time>
      </trkpt>
      <trkpt lat="33.70269" lon="77.69507">
        <ele>4489.6</ele>
        <time>2015-09-06T05:56:06Z</time>
      </trkpt>
      <trkpt lat="33.70267" lon="77.69511">
        <ele>4489.2</ele>
        <time>2015-09-06T05:56:08Z</time>
      </trkpt>
      <trkpt lat="33.70266" lon="77.69512">
        <ele>4489</ele>
        <time>2015-09-06T05:56:09Z</time>
      </trkpt>
      <trkpt lat="33.70256" lon="77.69516">
        <ele>4488</ele>
        <time>2015-09-06T05:56:21Z</time>
      </trkpt>
      <trkpt lat="33.70252" lon="77.69516">
        <ele>4487.8</ele>
        <time>2015-09-06T05:56:24Z</time>
      </trkpt>
      <trkpt lat="33.70248" lon="77.69518">
        <ele>4487.6</ele>
        <time>2015-09-06T05:56:28Z</time>
      </trkpt>
      <trkpt lat="33.70241" lon="77.69524">
        <ele>4487.2</ele>
        <time>2015-09-06T05:56:34Z</time>
      </trkpt>
      <trkpt lat="33.7024" lon="77.69527">
        <ele>4487</ele>
        <time>2015-09-06T05:56:36Z</time>
      </trkpt>
      <trkpt lat="33.70239" lon="77.69528">
        <ele>4486.8</ele>
        <time>2015-09-06T05:56:38Z</time>
      </trkpt>
      <trkpt lat="33.70236" lon="77.6953">
        <ele>4486</ele>
        <time>2015-09-06T05:56:41Z</time>
      </trkpt>
      <trkpt lat="33.70227" lon="77.6954">
        <ele>4485</ele>
        <time>2015-09-06T05:56:52Z</time>
      </trkpt>
      <trkpt lat="33.70226" lon="77.69541">
        <ele>4484.8</ele>
        <time>2015-09-06T05:56:53Z</time>
      </trkpt>
      <trkpt lat="33.70224" lon="77.69548">
        <ele>4484</ele>
        <time>2015-09-06T05:56:58Z</time>
      </trkpt>
      <trkpt lat="33.70223" lon="77.6955">
        <ele>4483.8</ele>
        <time>2015-09-06T05:56:59Z</time>
      </trkpt>
      <trkpt lat="33.70219" lon="77.69557">
        <ele>4483.4</ele>
        <time>2015-09-06T05:57:04Z</time>
      </trkpt>
      <trkpt lat="33.70216" lon="77.69569">
        <ele>4482.8</ele>
        <time>2015-09-06T05:57:13Z</time>
      </trkpt>
      <trkpt lat="33.70215" lon="77.69574">
        <ele>4482.6</ele>
        <time>2015-09-06T05:57:19Z</time>
      </trkpt>
      <trkpt lat="33.70215" lon="77.69577">
        <ele>4481.8</ele>
        <time>2015-09-06T05:57:24Z</time>
      </trkpt>
      <trkpt lat="33.70215" lon="77.69582">
        <ele>4480.6</ele>
        <time>2015-09-06T05:57:32Z</time>
      </trkpt>
      <trkpt lat="33.70213" lon="77.69593">
        <ele>4479.8</ele>
        <time>2015-09-06T05:57:40Z</time>
      </trkpt>
      <trkpt lat="33.70212" lon="77.69597">
        <ele>4480</ele>
        <time>2015-09-06T05:57:42Z</time>
      </trkpt>
      <trkpt lat="33.70211" lon="77.69605">
        <ele>4479.6</ele>
        <time>2015-09-06T05:57:49Z</time>
      </trkpt>
      <trkpt lat="33.70209" lon="77.69611">
        <ele>4479.8</ele>
        <time>2015-09-06T05:57:54Z</time>
      </trkpt>
      <trkpt lat="33.70207" lon="77.69616">
        <ele>4480.2</ele>
        <time>2015-09-06T05:57:59Z</time>
      </trkpt>
      <trkpt lat="33.70207" lon="77.69618">
        <ele>4480.2</ele>
        <time>2015-09-06T05:58:01Z</time>
      </trkpt>
      <trkpt lat="33.70204" lon="77.69625">
        <ele>4480.6</ele>
        <time>2015-09-06T05:58:09Z</time>
      </trkpt>
      <trkpt lat="33.70199" lon="77.69637">
        <ele>4479.6</ele>
        <time>2015-09-06T05:58:29Z</time>
      </trkpt>
      <trkpt lat="33.70201" lon="77.69637">
        <ele>4479.4</ele>
        <time>2015-09-06T05:58:40Z</time>
      </trkpt>
      <trkpt lat="33.70197" lon="77.69643">
        <ele>4478.6</ele>
        <time>2015-09-06T05:59:03Z</time>
      </trkpt>
      <trkpt lat="33.70196" lon="77.69644">
        <ele>4478.4</ele>
        <time>2015-09-06T05:59:04Z</time>
      </trkpt>
      <trkpt lat="33.70191" lon="77.69648">
        <ele>4477.2</ele>
        <time>2015-09-06T05:59:09Z</time>
      </trkpt>
      <trkpt lat="33.70188" lon="77.69656">
        <ele>4476.2</ele>
        <time>2015-09-06T05:59:19Z</time>
      </trkpt>
      <trkpt lat="33.70185" lon="77.69667">
        <ele>4475.2</ele>
        <time>2015-09-06T05:59:32Z</time>
      </trkpt>
      <trkpt lat="33.70182" lon="77.69672">
        <ele>4474.2</ele>
        <time>2015-09-06T05:59:40Z</time>
      </trkpt>
      <trkpt lat="33.70177" lon="77.69674">
        <ele>4473.2</ele>
        <time>2015-09-06T05:59:55Z</time>
      </trkpt>
      <trkpt lat="33.70174" lon="77.69669">
        <ele>4473.2</ele>
        <time>2015-09-06T05:59:59Z</time>
      </trkpt>
      <trkpt lat="33.70178" lon="77.69678">
        <ele>4473.4</ele>
        <time>2015-09-06T06:00:06Z</time>
      </trkpt>
      <trkpt lat="33.70178" lon="77.69682">
        <ele>4473</ele>
        <time>2015-09-06T06:00:09Z</time>
      </trkpt>
      <trkpt lat="33.70175" lon="77.69684">
        <ele>4472</ele>
        <time>2015-09-06T06:00:12Z</time>
      </trkpt>
      <trkpt lat="33.70172" lon="77.69683">
        <ele>4471.8</ele>
        <time>2015-09-06T06:00:15Z</time>
      </trkpt>
      <trkpt lat="33.70168" lon="77.6969">
        <ele>4471</ele>
        <time>2015-09-06T06:00:21Z</time>
      </trkpt>
      <trkpt lat="33.70164" lon="77.69694">
        <ele>4469.8</ele>
        <time>2015-09-06T06:00:29Z</time>
      </trkpt>
      <trkpt lat="33.7016" lon="77.69698">
        <ele>4468.6</ele>
        <time>2015-09-06T06:00:35Z</time>
      </trkpt>
      <trkpt lat="33.70157" lon="77.69704">
        <ele>4467.6</ele>
        <time>2015-09-06T06:00:39Z</time>
      </trkpt>
      <trkpt lat="33.70153" lon="77.69711">
        <ele>4466.4</ele>
        <time>2015-09-06T06:00:46Z</time>
      </trkpt>
      <trkpt lat="33.7015" lon="77.69714">
        <ele>4465.6</ele>
        <time>2015-09-06T06:00:50Z</time>
      </trkpt>
      <trkpt lat="33.70149" lon="77.69715">
        <ele>4465.2</ele>
        <time>2015-09-06T06:00:51Z</time>
      </trkpt>
      <trkpt lat="33.70143" lon="77.69724">
        <ele>4464.2</ele>
        <time>2015-09-06T06:01:02Z</time>
      </trkpt>
      <trkpt lat="33.70141" lon="77.69726">
        <ele>4463</ele>
        <time>2015-09-06T06:01:06Z</time>
      </trkpt>
      <trkpt lat="33.7014" lon="77.69728">
        <ele>4461.8</ele>
        <time>2015-09-06T06:01:10Z</time>
      </trkpt>
      <trkpt lat="33.70137" lon="77.69733">
        <ele>4460.8</ele>
        <time>2015-09-06T06:01:14Z</time>
      </trkpt>
      <trkpt lat="33.70134" lon="77.69739">
        <ele>4459.6</ele>
        <time>2015-09-06T06:01:19Z</time>
      </trkpt>
      <trkpt lat="33.70133" lon="77.6974">
        <ele>4459.2</ele>
        <time>2015-09-06T06:01:21Z</time>
      </trkpt>
      <trkpt lat="33.70131" lon="77.69744">
        <ele>4458.4</ele>
        <time>2015-09-06T06:01:25Z</time>
      </trkpt>
      <trkpt lat="33.7013" lon="77.69746">
        <ele>4458</ele>
        <time>2015-09-06T06:01:27Z</time>
      </trkpt>
      <trkpt lat="33.70128" lon="77.69749">
        <ele>4457.4</ele>
        <time>2015-09-06T06:01:30Z</time>
      </trkpt>
      <trkpt lat="33.70126" lon="77.69758">
        <ele>4456.4</ele>
        <time>2015-09-06T06:01:40Z</time>
      </trkpt>
      <trkpt lat="33.70125" lon="77.69763">
        <ele>4455.2</ele>
        <time>2015-09-06T06:01:46Z</time>
      </trkpt>
      <trkpt lat="33.70125" lon="77.69764">
        <ele>4455</ele>
        <time>2015-09-06T06:01:47Z</time>
      </trkpt>
      <trkpt lat="33.70124" lon="77.69768">
        <ele>4454.2</ele>
        <time>2015-09-06T06:01:50Z</time>
      </trkpt>
      <trkpt lat="33.70123" lon="77.69773">
        <ele>4453</ele>
        <time>2015-09-06T06:01:54Z</time>
      </trkpt>
      <trkpt lat="33.70123" lon="77.69779">
        <ele>4451.8</ele>
        <time>2015-09-06T06:01:59Z</time>
      </trkpt>
      <trkpt lat="33.70121" lon="77.69781">
        <ele>4451.4</ele>
        <time>2015-09-06T06:02:01Z</time>
      </trkpt>
      <trkpt lat="33.70119" lon="77.69784">
        <ele>4450.8</ele>
        <time>2015-09-06T06:02:05Z</time>
      </trkpt>
      <trkpt lat="33.70113" lon="77.69787">
        <ele>4449.6</ele>
        <time>2015-09-06T06:02:13Z</time>
      </trkpt>
      <trkpt lat="33.70111" lon="77.6979">
        <ele>4448.4</ele>
        <time>2015-09-06T06:02:17Z</time>
      </trkpt>
      <trkpt lat="33.70106" lon="77.698">
        <ele>4447.6</ele>
        <time>2015-09-06T06:02:28Z</time>
      </trkpt>
      <trkpt lat="33.70106" lon="77.69801">
        <ele>4447.4</ele>
        <time>2015-09-06T06:02:30Z</time>
      </trkpt>
      <trkpt lat="33.70104" lon="77.69812">
        <ele>4446.2</ele>
        <time>2015-09-06T06:02:45Z</time>
      </trkpt>
      <trkpt lat="33.70104" lon="77.69813">
        <ele>4446.2</ele>
        <time>2015-09-06T06:02:46Z</time>
      </trkpt>
      <trkpt lat="33.70103" lon="77.69814">
        <ele>4446</ele>
        <time>2015-09-06T06:02:48Z</time>
      </trkpt>
      <trkpt lat="33.70104" lon="77.69818">
        <ele>4445</ele>
        <time>2015-09-06T06:02:55Z</time>
      </trkpt>
      <trkpt lat="33.70103" lon="77.69824">
        <ele>4444.2</ele>
        <time>2015-09-06T06:03:00Z</time>
      </trkpt>
      <trkpt lat="33.70103" lon="77.69825">
        <ele>4444</ele>
        <time>2015-09-06T06:03:01Z</time>
      </trkpt>
      <trkpt lat="33.70102" lon="77.69834">
        <ele>4443</ele>
        <time>2015-09-06T06:03:08Z</time>
      </trkpt>
      <trkpt lat="33.70099" lon="77.6984">
        <ele>4441.8</ele>
        <time>2015-09-06T06:03:15Z</time>
      </trkpt>
      <trkpt lat="33.70097" lon="77.69842">
        <ele>4441.2</ele>
        <time>2015-09-06T06:03:18Z</time>
      </trkpt>
      <trkpt lat="33.70094" lon="77.69843">
        <ele>4440.8</ele>
        <time>2015-09-06T06:03:21Z</time>
      </trkpt>
      <trkpt lat="33.7009" lon="77.69851">
        <ele>4439.8</ele>
        <time>2015-09-06T06:03:27Z</time>
      </trkpt>
      <trkpt lat="33.7009" lon="77.69863">
        <ele>4438.8</ele>
        <time>2015-09-06T06:03:36Z</time>
      </trkpt>
      <trkpt lat="33.70091" lon="77.69869">
        <ele>4438</ele>
        <time>2015-09-06T06:03:41Z</time>
      </trkpt>
      <trkpt lat="33.70091" lon="77.69877">
        <ele>4437.6</ele>
        <time>2015-09-06T06:03:48Z</time>
      </trkpt>
      <trkpt lat="33.70091" lon="77.69881">
        <ele>4437</ele>
        <time>2015-09-06T06:03:52Z</time>
      </trkpt>
      <trkpt lat="33.70091" lon="77.69883">
        <ele>4436.8</ele>
        <time>2015-09-06T06:03:54Z</time>
      </trkpt>
      <trkpt lat="33.70092" lon="77.69885">
        <ele>4436.6</ele>
        <time>2015-09-06T06:03:56Z</time>
      </trkpt>
      <trkpt lat="33.70092" lon="77.69887">
        <ele>4436.4</ele>
        <time>2015-09-06T06:03:57Z</time>
      </trkpt>
      <trkpt lat="33.70092" lon="77.69886">
        <ele>4435.6</ele>
        <time>2015-09-06T06:04:01Z</time>
      </trkpt>
      <trkpt lat="33.70094" lon="77.69893">
        <ele>4434.6</ele>
        <time>2015-09-06T06:04:17Z</time>
      </trkpt>
      <trkpt lat="33.70091" lon="77.69899">
        <ele>4434</ele>
        <time>2015-09-06T06:04:31Z</time>
      </trkpt>
      <trkpt lat="33.70094" lon="77.69901">
        <ele>4433.6</ele>
        <time>2015-09-06T06:04:33Z</time>
      </trkpt>
      <trkpt lat="33.70093" lon="77.69903">
        <ele>4433.4</ele>
        <time>2015-09-06T06:04:35Z</time>
      </trkpt>
      <trkpt lat="33.70089" lon="77.69908">
        <ele>4432.4</ele>
        <time>2015-09-06T06:04:40Z</time>
      </trkpt>
      <trkpt lat="33.70085" lon="77.69912">
        <ele>4431.2</ele>
        <time>2015-09-06T06:04:46Z</time>
      </trkpt>
      <trkpt lat="33.70082" lon="77.69921">
        <ele>4430.2</ele>
        <time>2015-09-06T06:04:53Z</time>
      </trkpt>
      <trkpt lat="33.70081" lon="77.69928">
        <ele>4429</ele>
        <time>2015-09-06T06:05:00Z</time>
      </trkpt>
      <trkpt lat="33.7008" lon="77.69934">
        <ele>4428</ele>
        <time>2015-09-06T06:05:05Z</time>
      </trkpt>
      <trkpt lat="33.70078" lon="77.69939">
        <ele>4427.4</ele>
        <time>2015-09-06T06:05:09Z</time>
      </trkpt>
      <trkpt lat="33.70076" lon="77.69942">
        <ele>4426.8</ele>
        <time>2015-09-06T06:05:13Z</time>
      </trkpt>
      <trkpt lat="33.70072" lon="77.69943">
        <ele>4426</ele>
        <time>2015-09-06T06:05:17Z</time>
      </trkpt>
      <trkpt lat="33.70071" lon="77.69944">
        <ele>4425.6</ele>
        <time>2015-09-06T06:05:18Z</time>
      </trkpt>
      <trkpt lat="33.70071" lon="77.69944">
        <ele>4425.4</ele>
        <time>2015-09-06T06:05:19Z</time>
      </trkpt>
      <trkpt lat="33.70069" lon="77.6995">
        <ele>4425</ele>
        <time>2015-09-06T06:05:24Z</time>
      </trkpt>
      <trkpt lat="33.7007" lon="77.69952">
        <ele>4424.6</ele>
        <time>2015-09-06T06:05:26Z</time>
      </trkpt>
      <trkpt lat="33.70073" lon="77.69955">
        <ele>4423.6</ele>
        <time>2015-09-06T06:05:35Z</time>
      </trkpt>
      <trkpt lat="33.70072" lon="77.69957">
        <ele>4422.6</ele>
        <time>2015-09-06T06:05:40Z</time>
      </trkpt>
      <trkpt lat="33.70067" lon="77.69966">
        <ele>4421.4</ele>
        <time>2015-09-06T06:05:52Z</time>
      </trkpt>
      <trkpt lat="33.70063" lon="77.69963">
        <ele>4420.6</ele>
        <time>2015-09-06T06:06:00Z</time>
      </trkpt>
      <trkpt lat="33.70061" lon="77.69963">
        <ele>4420.2</ele>
        <time>2015-09-06T06:06:02Z</time>
      </trkpt>
      <trkpt lat="33.70058" lon="77.69964">
        <ele>4419.4</ele>
        <time>2015-09-06T06:06:06Z</time>
      </trkpt>
      <trkpt lat="33.70056" lon="77.69966">
        <ele>4419</ele>
        <time>2015-09-06T06:06:08Z</time>
      </trkpt>
      <trkpt lat="33.70056" lon="77.69971">
        <ele>4418</ele>
        <time>2015-09-06T06:06:15Z</time>
      </trkpt>
      <trkpt lat="33.70056" lon="77.69971">
        <ele>4417.8</ele>
        <time>2015-09-06T06:06:16Z</time>
      </trkpt>
      <trkpt lat="33.70056" lon="77.69972">
        <ele>4417</ele>
        <time>2015-09-06T06:06:22Z</time>
      </trkpt>
      <trkpt lat="33.70046" lon="77.69984">
        <ele>4416.8</ele>
        <time>2015-09-06T06:06:52Z</time>
      </trkpt>
      <trkpt lat="33.70048" lon="77.69992">
        <ele>4417.2</ele>
        <time>2015-09-06T06:07:03Z</time>
      </trkpt>
      <trkpt lat="33.70043" lon="77.70001">
        <ele>4416.8</ele>
        <time>2015-09-06T06:07:17Z</time>
      </trkpt>
      <trkpt lat="33.70044" lon="77.70001">
        <ele>4417</ele>
        <time>2015-09-06T06:07:19Z</time>
      </trkpt>
      <trkpt lat="33.70042" lon="77.7">
        <ele>4416</ele>
        <time>2015-09-06T06:07:40Z</time>
      </trkpt>
      <trkpt lat="33.70041" lon="77.70002">
        <ele>4416.4</ele>
        <time>2015-09-06T06:08:00Z</time>
      </trkpt>
      <trkpt lat="33.70041" lon="77.70004">
        <ele>4416.4</ele>
        <time>2015-09-06T06:08:03Z</time>
      </trkpt>
      <trkpt lat="33.70045" lon="77.70007">
        <ele>4416.2</ele>
        <time>2015-09-06T06:08:07Z</time>
      </trkpt>
      <trkpt lat="33.7004" lon="77.70002">
        <ele>4415.4</ele>
        <time>2015-09-06T06:08:30Z</time>
      </trkpt>
      <trkpt lat="33.70042" lon="77.7">
        <ele>4414.8</ele>
        <time>2015-09-06T06:08:38Z</time>
      </trkpt>
      <trkpt lat="33.7004" lon="77.70003">
        <ele>4413.6</ele>
        <time>2015-09-06T06:08:43Z</time>
      </trkpt>
      <trkpt lat="33.70041" lon="77.70003">
        <ele>4413.4</ele>
        <time>2015-09-06T06:08:44Z</time>
      </trkpt>
      <trkpt lat="33.70039" lon="77.70003">
        <ele>4413.2</ele>
        <time>2015-09-06T06:08:48Z</time>
      </trkpt>
      <trkpt lat="33.70037" lon="77.7">
        <ele>4414</ele>
        <time>2015-09-06T06:10:00Z</time>
      </trkpt>
      <trkpt lat="33.70035" lon="77.70003">
        <ele>4413.2</ele>
        <time>2015-09-06T06:10:40Z</time>
      </trkpt>
      <trkpt lat="33.70038" lon="77.70001">
        <ele>4412.4</ele>
        <time>2015-09-06T06:11:19Z</time>
      </trkpt>
      <trkpt lat="33.70038" lon="77.70001">
        <ele>4412.2</ele>
        <time>2015-09-06T06:11:20Z</time>
      </trkpt>
      <trkpt lat="33.7004" lon="77.7">
        <ele>4412.4</ele>
        <time>2015-09-06T06:11:57Z</time>
      </trkpt>
      <trkpt lat="33.70044" lon="77.69998">
        <ele>4412.8</ele>
        <time>2015-09-06T06:12:30Z</time>
      </trkpt>
      <trkpt lat="33.70041" lon="77.70001">
        <ele>4412.8</ele>
        <time>2015-09-06T06:12:32Z</time>
      </trkpt>
      <trkpt lat="33.7004" lon="77.70001">
        <ele>4412.8</ele>
        <time>2015-09-06T06:12:33Z</time>
      </trkpt>
      <trkpt lat="33.70039" lon="77.70001">
        <ele>4412.8</ele>
        <time>2015-09-06T06:12:35Z</time>
      </trkpt>
      <trkpt lat="33.70038" lon="77.7">
        <ele>4412</ele>
        <time>2015-09-06T06:13:05Z</time>
      </trkpt>
      <trkpt lat="33.70043" lon="77.70004">
        <ele>4412.6</ele>
        <time>2015-09-06T06:13:50Z</time>
      </trkpt>
      <trkpt lat="33.70045" lon="77.70002">
        <ele>4412.6</ele>
        <time>2015-09-06T06:13:59Z</time>
      </trkpt>
      <trkpt lat="33.70044" lon="77.70002">
        <ele>4412.6</ele>
        <time>2015-09-06T06:14:39Z</time>
      </trkpt>
      <trkpt lat="33.70043" lon="77.70002">
        <ele>4412.8</ele>
        <time>2015-09-06T06:14:41Z</time>
      </trkpt>
      <trkpt lat="33.70037" lon="77.70002">
        <ele>4412.8</ele>
        <time>2015-09-06T06:15:50Z</time>
      </trkpt>
      <trkpt lat="33.70034" lon="77.70002">
        <ele>4413.4</ele>
        <time>2015-09-06T06:16:08Z</time>
      </trkpt>
      <trkpt lat="33.70038" lon="77.69999">
        <ele>4413.6</ele>
        <time>2015-09-06T06:17:02Z</time>
      </trkpt>
      <trkpt lat="33.70042" lon="77.70001">
        <ele>4414</ele>
        <time>2015-09-06T06:17:56Z</time>
      </trkpt>
      <trkpt lat="33.70041" lon="77.70002">
        <ele>4414.4</ele>
        <time>2015-09-06T06:18:40Z</time>
      </trkpt>
      <trkpt lat="33.70041" lon="77.69996">
        <ele>4414.2</ele>
        <time>2015-09-06T06:19:07Z</time>
      </trkpt>
      <trkpt lat="33.70038" lon="77.70003">
        <ele>4414.4</ele>
        <time>2015-09-06T06:19:41Z</time>
      </trkpt>
      <trkpt lat="33.70041" lon="77.70002">
        <ele>4413.4</ele>
        <time>2015-09-06T06:20:45Z</time>
      </trkpt>
      <trkpt lat="33.70039" lon="77.69999">
        <ele>4412.4</ele>
        <time>2015-09-06T06:21:02Z</time>
      </trkpt>
      <trkpt lat="33.70042" lon="77.70001">
        <ele>4413.2</ele>
        <time>2015-09-06T06:22:03Z</time>
      </trkpt>
      <trkpt lat="33.7004" lon="77.69999">
        <ele>4413.4</ele>
        <time>2015-09-06T06:22:29Z</time>
      </trkpt>
      <trkpt lat="33.70037" lon="77.69999">
        <ele>4414.6</ele>
        <time>2015-09-06T06:22:58Z</time>
      </trkpt>
      <trkpt lat="33.70036" lon="77.69999">
        <ele>4414.8</ele>
        <time>2015-09-06T06:22:59Z</time>
      </trkpt>
      <trkpt lat="33.70035" lon="77.70001">
        <ele>4415.2</ele>
        <time>2015-09-06T06:23:02Z</time>
      </trkpt>
      <trkpt lat="33.70036" lon="77.70002">
        <ele>4413.6</ele>
        <time>2015-09-06T06:23:19Z</time>
      </trkpt>
      <trkpt lat="33.70044" lon="77.69996">
        <ele>4412.6</ele>
        <time>2015-09-06T06:24:18Z</time>
      </trkpt>
      <trkpt lat="33.70042" lon="77.69998">
        <ele>4413.6</ele>
        <time>2015-09-06T06:25:13Z</time>
      </trkpt>
      <trkpt lat="33.70043" lon="77.69998">
        <ele>4412.6</ele>
        <time>2015-09-06T06:25:24Z</time>
      </trkpt>
      <trkpt lat="33.70043" lon="77.69998">
        <ele>4412.2</ele>
        <time>2015-09-06T06:25:35Z</time>
      </trkpt>
      <trkpt lat="33.70043" lon="77.69999">
        <ele>4411.6</ele>
        <time>2015-09-06T06:25:38Z</time>
      </trkpt>
      <trkpt lat="33.70043" lon="77.7">
        <ele>4410.4</ele>
        <time>2015-09-06T06:26:11Z</time>
      </trkpt>
      <trkpt lat="33.70042" lon="77.69997">
        <ele>4411.6</ele>
        <time>2015-09-06T06:26:26Z</time>
      </trkpt>
      <trkpt lat="33.70041" lon="77.7">
        <ele>4411.4</ele>
        <time>2015-09-06T06:26:35Z</time>
      </trkpt>
      <trkpt lat="33.70039" lon="77.70001">
        <ele>4410.8</ele>
        <time>2015-09-06T06:26:53Z</time>
      </trkpt>
      <trkpt lat="33.70045" lon="77.69998">
        <ele>4411.8</ele>
        <time>2015-09-06T06:29:24Z</time>
      </trkpt>
      <trkpt lat="33.70045" lon="77.70003">
        <ele>4411.2</ele>
        <time>2015-09-06T06:30:30Z</time>
      </trkpt>
      <trkpt lat="33.70052" lon="77.70002">
        <ele>4410.8</ele>
        <time>2015-09-06T06:31:27Z</time>
      </trkpt>
      <trkpt lat="33.70054" lon="77.7">
        <ele>4410.6</ele>
        <time>2015-09-06T06:32:04Z</time>
      </trkpt>
      <trkpt lat="33.70058" lon="77.70001">
        <ele>4409.8</ele>
        <time>2015-09-06T06:32:57Z</time>
      </trkpt>
      <trkpt lat="33.70059" lon="77.70001">
        <ele>4409.6</ele>
        <time>2015-09-06T06:33:22Z</time>
      </trkpt>
      <trkpt lat="33.7005" lon="77.69997">
        <ele>4408.8</ele>
        <time>2015-09-06T06:34:20Z</time>
      </trkpt>
      <trkpt lat="33.70058" lon="77.69997">
        <ele>4408.4</ele>
        <time>2015-09-06T06:34:30Z</time>
      </trkpt>
      <trkpt lat="33.70061" lon="77.69998">
        <ele>4408.2</ele>
        <time>2015-09-06T06:34:35Z</time>
      </trkpt>
      <trkpt lat="33.70049" lon="77.69995">
        <ele>4408.2</ele>
        <time>2015-09-06T06:34:38Z</time>
      </trkpt>
      <trkpt lat="33.70052" lon="77.69996">
        <ele>4408</ele>
        <time>2015-09-06T06:35:03Z</time>
      </trkpt>
      <trkpt lat="33.70063" lon="77.69994">
        <ele>4407.4</ele>
        <time>2015-09-06T06:35:35Z</time>
      </trkpt>
      <trkpt lat="33.70066" lon="77.69993">
        <ele>4406.4</ele>
        <time>2015-09-06T06:36:02Z</time>
      </trkpt>
      <trkpt lat="33.70066" lon="77.69992">
        <ele>4405.4</ele>
        <time>2015-09-06T06:36:28Z</time>
      </trkpt>
      <trkpt lat="33.70041" lon="77.69999">
        <ele>4405.6</ele>
        <time>2015-09-06T06:39:27Z</time>
      </trkpt>
      <trkpt lat="33.70041" lon="77.69997">
        <ele>4406.2</ele>
        <time>2015-09-06T06:40:40Z</time>
      </trkpt>
      <trkpt lat="33.70041" lon="77.69998">
        <ele>4406</ele>
        <time>2015-09-06T06:41:52Z</time>
      </trkpt>
      <trkpt lat="33.7004" lon="77.69997">
        <ele>4404.4</ele>
        <time>2015-09-06T06:42:58Z</time>
      </trkpt>
      <trkpt lat="33.70041" lon="77.69998">
        <ele>4404.6</ele>
        <time>2015-09-06T06:43:16Z</time>
      </trkpt>
      <trkpt lat="33.70042" lon="77.69998">
        <ele>4405.4</ele>
        <time>2015-09-06T06:43:55Z</time>
      </trkpt>
      <trkpt lat="33.7004" lon="77.69997">
        <ele>4406.4</ele>
        <time>2015-09-06T06:44:27Z</time>
      </trkpt>
      <trkpt lat="33.7004" lon="77.69998">
        <ele>4407</ele>
        <time>2015-09-06T06:44:38Z</time>
      </trkpt>
      <trkpt lat="33.70043" lon="77.69999">
        <ele>4407.6</ele>
        <time>2015-09-06T06:46:21Z</time>
      </trkpt>
      <trkpt lat="33.70045" lon="77.69999">
        <ele>4408.6</ele>
        <time>2015-09-06T06:46:29Z</time>
      </trkpt>
      <trkpt lat="33.70042" lon="77.69998">
        <ele>4409.6</ele>
        <time>2015-09-06T06:47:11Z</time>
      </trkpt>
      <trkpt lat="33.70046" lon="77.69999">
        <ele>4409.6</ele>
        <time>2015-09-06T06:47:14Z</time>
      </trkpt>
      <trkpt lat="33.70048" lon="77.69999">
        <ele>4409.6</ele>
        <time>2015-09-06T06:47:16Z</time>
      </trkpt>
      <trkpt lat="33.70051" lon="77.69999">
        <ele>4409.4</ele>
        <time>2015-09-06T06:47:19Z</time>
      </trkpt>
      <trkpt lat="33.70045" lon="77.70003">
        <ele>4409.6</ele>
        <time>2015-09-06T06:47:37Z</time>
      </trkpt>
      <trkpt lat="33.70049" lon="77.69994">
        <ele>4410.8</ele>
        <time>2015-09-06T06:48:21Z</time>
      </trkpt>
      <trkpt lat="33.70046" lon="77.69996">
        <ele>4411.8</ele>
        <time>2015-09-06T06:49:08Z</time>
      </trkpt>
      <trkpt lat="33.70047" lon="77.69997">
        <ele>4412</ele>
        <time>2015-09-06T06:49:09Z</time>
      </trkpt>
      <trkpt lat="33.70047" lon="77.69994">
        <ele>4412.6</ele>
        <time>2015-09-06T06:49:17Z</time>
      </trkpt>
      <trkpt lat="33.70047" lon="77.69994">
        <ele>4412.8</ele>
        <time>2015-09-06T06:49:19Z</time>
      </trkpt>
      <trkpt lat="33.70043" lon="77.69998">
        <ele>4411.4</ele>
        <time>2015-09-06T06:49:24Z</time>
      </trkpt>
      <trkpt lat="33.70051" lon="77.70001">
        <ele>4411.8</ele>
        <time>2015-09-06T06:49:41Z</time>
      </trkpt>
      <trkpt lat="33.70058" lon="77.69995">
        <ele>4411</ele>
        <time>2015-09-06T06:49:45Z</time>
      </trkpt>
      <trkpt lat="33.70057" lon="77.69995">
        <ele>4410.8</ele>
        <time>2015-09-06T06:49:48Z</time>
      </trkpt>
      <trkpt lat="33.70055" lon="77.69995">
        <ele>4410.8</ele>
        <time>2015-09-06T06:49:50Z</time>
      </trkpt>
      <trkpt lat="33.70039" lon="77.70005">
        <ele>4410.8</ele>
        <time>2015-09-06T06:50:05Z</time>
      </trkpt>
      <trkpt lat="33.70037" lon="77.70007">
        <ele>4410.4</ele>
        <time>2015-09-06T06:50:08Z</time>
      </trkpt>
      <trkpt lat="33.70035" lon="77.7001">
        <ele>4410.2</ele>
        <time>2015-09-06T06:50:12Z</time>
      </trkpt>
      <trkpt lat="33.70034" lon="77.70013">
        <ele>4409.6</ele>
        <time>2015-09-06T06:50:15Z</time>
      </trkpt>
      <trkpt lat="33.70031" lon="77.70018">
        <ele>4408.6</ele>
        <time>2015-09-06T06:50:22Z</time>
      </trkpt>
      <trkpt lat="33.70032" lon="77.7002">
        <ele>4408</ele>
        <time>2015-09-06T06:50:24Z</time>
      </trkpt>
      <trkpt lat="33.70032" lon="77.70022">
        <ele>4407.8</ele>
        <time>2015-09-06T06:50:26Z</time>
      </trkpt>
      <trkpt lat="33.70031" lon="77.70024">
        <ele>4407.4</ele>
        <time>2015-09-06T06:50:28Z</time>
      </trkpt>
      <trkpt lat="33.70031" lon="77.70026">
        <ele>4407</ele>
        <time>2015-09-06T06:50:30Z</time>
      </trkpt>
      <trkpt lat="33.70029" lon="77.70028">
        <ele>4406.8</ele>
        <time>2015-09-06T06:50:32Z</time>
      </trkpt>
      <trkpt lat="33.70027" lon="77.7003">
        <ele>4406.4</ele>
        <time>2015-09-06T06:50:35Z</time>
      </trkpt>
      <trkpt lat="33.70019" lon="77.70034">
        <ele>4405.6</ele>
        <time>2015-09-06T06:50:43Z</time>
      </trkpt>
      <trkpt lat="33.70018" lon="77.70036">
        <ele>4405.2</ele>
        <time>2015-09-06T06:50:46Z</time>
      </trkpt>
      <trkpt lat="33.70018" lon="77.70038">
        <ele>4404</ele>
        <time>2015-09-06T06:50:53Z</time>
      </trkpt>
      <trkpt lat="33.70015" lon="77.70042">
        <ele>4404.4</ele>
        <time>2015-09-06T06:51:05Z</time>
      </trkpt>
      <trkpt lat="33.7001" lon="77.70043">
        <ele>4404.4</ele>
        <time>2015-09-06T06:51:07Z</time>
      </trkpt>
      <trkpt lat="33.70005" lon="77.70047">
        <ele>4404.2</ele>
        <time>2015-09-06T06:51:09Z</time>
      </trkpt>
      <trkpt lat="33.70002" lon="77.70052">
        <ele>4402.4</ele>
        <time>2015-09-06T06:51:13Z</time>
      </trkpt>
      <trkpt lat="33.70001" lon="77.70057">
        <ele>4401.6</ele>
        <time>2015-09-06T06:51:17Z</time>
      </trkpt>
      <trkpt lat="33.70003" lon="77.7006">
        <ele>4401.4</ele>
        <time>2015-09-06T06:51:19Z</time>
      </trkpt>
      <trkpt lat="33.70002" lon="77.70063">
        <ele>4401.2</ele>
        <time>2015-09-06T06:51:22Z</time>
      </trkpt>
      <trkpt lat="33.70004" lon="77.70067">
        <ele>4400.4</ele>
        <time>2015-09-06T06:51:26Z</time>
      </trkpt>
      <trkpt lat="33.70002" lon="77.70071">
        <ele>4399.8</ele>
        <time>2015-09-06T06:51:30Z</time>
      </trkpt>
      <trkpt lat="33.69996" lon="77.70075">
        <ele>4399.8</ele>
        <time>2015-09-06T06:51:33Z</time>
      </trkpt>
      <trkpt lat="33.69993" lon="77.70079">
        <ele>4399.2</ele>
        <time>2015-09-06T06:51:36Z</time>
      </trkpt>
      <trkpt lat="33.69993" lon="77.70079">
        <ele>4399</ele>
        <time>2015-09-06T06:51:37Z</time>
      </trkpt>
      <trkpt lat="33.69989" lon="77.70081">
        <ele>4398.6</ele>
        <time>2015-09-06T06:51:40Z</time>
      </trkpt>
      <trkpt lat="33.69982" lon="77.70085">
        <ele>4398.2</ele>
        <time>2015-09-06T06:51:50Z</time>
      </trkpt>
      <trkpt lat="33.69984" lon="77.70085">
        <ele>4398</ele>
        <time>2015-09-06T06:51:51Z</time>
      </trkpt>
      <trkpt lat="33.69984" lon="77.70094">
        <ele>4397</ele>
        <time>2015-09-06T06:52:04Z</time>
      </trkpt>
      <trkpt lat="33.69985" lon="77.701">
        <ele>4396.4</ele>
        <time>2015-09-06T06:52:08Z</time>
      </trkpt>
      <trkpt lat="33.6998" lon="77.70102">
        <ele>4395.8</ele>
        <time>2015-09-06T06:52:10Z</time>
      </trkpt>
      <trkpt lat="33.69976" lon="77.70106">
        <ele>4394.8</ele>
        <time>2015-09-06T06:52:14Z</time>
      </trkpt>
      <trkpt lat="33.69975" lon="77.70106">
        <ele>4394.6</ele>
        <time>2015-09-06T06:52:15Z</time>
      </trkpt>
      <trkpt lat="33.69964" lon="77.70115">
        <ele>4393.6</ele>
        <time>2015-09-06T06:52:22Z</time>
      </trkpt>
      <trkpt lat="33.69957" lon="77.70121">
        <ele>4392.4</ele>
        <time>2015-09-06T06:52:27Z</time>
      </trkpt>
      <trkpt lat="33.6995" lon="77.70132">
        <ele>4391.2</ele>
        <time>2015-09-06T06:52:38Z</time>
      </trkpt>
      <trkpt lat="33.69943" lon="77.7014">
        <ele>4390.2</ele>
        <time>2015-09-06T06:52:44Z</time>
      </trkpt>
      <trkpt lat="33.69942" lon="77.70141">
        <ele>4390.2</ele>
        <time>2015-09-06T06:52:45Z</time>
      </trkpt>
      <trkpt lat="33.69931" lon="77.70147">
        <ele>4388.8</ele>
        <time>2015-09-06T06:52:52Z</time>
      </trkpt>
      <trkpt lat="33.69928" lon="77.70149">
        <ele>4388.4</ele>
        <time>2015-09-06T06:52:54Z</time>
      </trkpt>
      <trkpt lat="33.69926" lon="77.70154">
        <ele>4388.8</ele>
        <time>2015-09-06T06:53:00Z</time>
      </trkpt>
      <trkpt lat="33.69926" lon="77.70172">
        <ele>4387.6</ele>
        <time>2015-09-06T06:53:15Z</time>
      </trkpt>
      <trkpt lat="33.69921" lon="77.70176">
        <ele>4387</ele>
        <time>2015-09-06T06:53:20Z</time>
      </trkpt>
      <trkpt lat="33.69921" lon="77.70176">
        <ele>4386.4</ele>
        <time>2015-09-06T06:53:22Z</time>
      </trkpt>
      <trkpt lat="33.69921" lon="77.70179">
        <ele>4385.4</ele>
        <time>2015-09-06T06:53:26Z</time>
      </trkpt>
      <trkpt lat="33.69919" lon="77.70181">
        <ele>4384.2</ele>
        <time>2015-09-06T06:53:32Z</time>
      </trkpt>
      <trkpt lat="33.69916" lon="77.70181">
        <ele>4383</ele>
        <time>2015-09-06T06:53:35Z</time>
      </trkpt>
      <trkpt lat="33.69913" lon="77.7018">
        <ele>4381.8</ele>
        <time>2015-09-06T06:53:39Z</time>
      </trkpt>
      <trkpt lat="33.69908" lon="77.7018">
        <ele>4380.8</ele>
        <time>2015-09-06T06:53:45Z</time>
      </trkpt>
      <trkpt lat="33.69905" lon="77.70179">
        <ele>4379.6</ele>
        <time>2015-09-06T06:53:50Z</time>
      </trkpt>
      <trkpt lat="33.69904" lon="77.70179">
        <ele>4379.6</ele>
        <time>2015-09-06T06:53:51Z</time>
      </trkpt>
      <trkpt lat="33.69899" lon="77.70183">
        <ele>4379</ele>
        <time>2015-09-06T06:53:55Z</time>
      </trkpt>
      <trkpt lat="33.69898" lon="77.70184">
        <ele>4378.8</ele>
        <time>2015-09-06T06:53:57Z</time>
      </trkpt>
      <trkpt lat="33.69896" lon="77.70184">
        <ele>4378.4</ele>
        <time>2015-09-06T06:53:59Z</time>
      </trkpt>
      <trkpt lat="33.69895" lon="77.70186">
        <ele>4377.8</ele>
        <time>2015-09-06T06:54:02Z</time>
      </trkpt>
      <trkpt lat="33.69894" lon="77.70189">
        <ele>4377.4</ele>
        <time>2015-09-06T06:54:06Z</time>
      </trkpt>
      <trkpt lat="33.69899" lon="77.70189">
        <ele>4376.2</ele>
        <time>2015-09-06T06:54:11Z</time>
      </trkpt>
      <trkpt lat="33.699" lon="77.7019">
        <ele>4375.8</ele>
        <time>2015-09-06T06:54:12Z</time>
      </trkpt>
      <trkpt lat="33.69891" lon="77.70196">
        <ele>4376.6</ele>
        <time>2015-09-06T06:54:24Z</time>
      </trkpt>
      <trkpt lat="33.69885" lon="77.70203">
        <ele>4376.2</ele>
        <time>2015-09-06T06:54:32Z</time>
      </trkpt>
      <trkpt lat="33.69883" lon="77.70205">
        <ele>4376.6</ele>
        <time>2015-09-06T06:54:35Z</time>
      </trkpt>
      <trkpt lat="33.69876" lon="77.70202">
        <ele>4376.4</ele>
        <time>2015-09-06T06:54:42Z</time>
      </trkpt>
      <trkpt lat="33.69866" lon="77.70196">
        <ele>4377</ele>
        <time>2015-09-06T06:54:52Z</time>
      </trkpt>
      <trkpt lat="33.69865" lon="77.70197">
        <ele>4377.2</ele>
        <time>2015-09-06T06:54:55Z</time>
      </trkpt>
      <trkpt lat="33.69873" lon="77.70202">
        <ele>4377</ele>
        <time>2015-09-06T06:54:58Z</time>
      </trkpt>
      <trkpt lat="33.69869" lon="77.70201">
        <ele>4377</ele>
        <time>2015-09-06T06:55:00Z</time>
      </trkpt>
      <trkpt lat="33.69865" lon="77.70198">
        <ele>4377</ele>
        <time>2015-09-06T06:55:02Z</time>
      </trkpt>
      <trkpt lat="33.69862" lon="77.70197">
        <ele>4377.2</ele>
        <time>2015-09-06T06:55:04Z</time>
      </trkpt>
      <trkpt lat="33.69859" lon="77.70193">
        <ele>4377.2</ele>
        <time>2015-09-06T06:55:09Z</time>
      </trkpt>
      <trkpt lat="33.6986" lon="77.70206">
        <ele>4377.4</ele>
        <time>2015-09-06T06:55:28Z</time>
      </trkpt>
      <trkpt lat="33.69843" lon="77.70215">
        <ele>4377.2</ele>
        <time>2015-09-06T06:55:46Z</time>
      </trkpt>
      <trkpt lat="33.69837" lon="77.70217">
        <ele>4376.8</ele>
        <time>2015-09-06T06:55:52Z</time>
      </trkpt>
      <trkpt lat="33.69836" lon="77.70219">
        <ele>4376.8</ele>
        <time>2015-09-06T06:55:54Z</time>
      </trkpt>
      <trkpt lat="33.69834" lon="77.7022">
        <ele>4376.6</ele>
        <time>2015-09-06T06:55:56Z</time>
      </trkpt>
      <trkpt lat="33.69823" lon="77.70238">
        <ele>4377.8</ele>
        <time>2015-09-06T06:56:08Z</time>
      </trkpt>
      <trkpt lat="33.69817" lon="77.7025">
        <ele>4376</ele>
        <time>2015-09-06T06:56:17Z</time>
      </trkpt>
      <trkpt lat="33.69812" lon="77.70258">
        <ele>4375</ele>
        <time>2015-09-06T06:56:24Z</time>
      </trkpt>
      <trkpt lat="33.6981" lon="77.70261">
        <ele>4374.8</ele>
        <time>2015-09-06T06:56:27Z</time>
      </trkpt>
      <trkpt lat="33.69806" lon="77.70266">
        <ele>4373.8</ele>
        <time>2015-09-06T06:56:32Z</time>
      </trkpt>
      <trkpt lat="33.69795" lon="77.70283">
        <ele>4372.8</ele>
        <time>2015-09-06T06:56:51Z</time>
      </trkpt>
      <trkpt lat="33.69797" lon="77.70284">
        <ele>4371.6</ele>
        <time>2015-09-06T06:56:59Z</time>
      </trkpt>
      <trkpt lat="33.69794" lon="77.70288">
        <ele>4370.6</ele>
        <time>2015-09-06T06:57:07Z</time>
      </trkpt>
      <trkpt lat="33.69793" lon="77.70291">
        <ele>4370.2</ele>
        <time>2015-09-06T06:57:11Z</time>
      </trkpt>
      <trkpt lat="33.69799" lon="77.70294">
        <ele>4369.6</ele>
        <time>2015-09-06T06:57:30Z</time>
      </trkpt>
      <trkpt lat="33.69797" lon="77.70296">
        <ele>4369.6</ele>
        <time>2015-09-06T06:57:32Z</time>
      </trkpt>
      <trkpt lat="33.69796" lon="77.70296">
        <ele>4369.4</ele>
        <time>2015-09-06T06:57:33Z</time>
      </trkpt>
      <trkpt lat="33.69795" lon="77.70298">
        <ele>4369.2</ele>
        <time>2015-09-06T06:57:35Z</time>
      </trkpt>
      <trkpt lat="33.69791" lon="77.70301">
        <ele>4368.2</ele>
        <time>2015-09-06T06:57:41Z</time>
      </trkpt>
      <trkpt lat="33.69789" lon="77.70301">
        <ele>4367.2</ele>
        <time>2015-09-06T06:57:48Z</time>
      </trkpt>
      <trkpt lat="33.69787" lon="77.70301">
        <ele>4366</ele>
        <time>2015-09-06T06:57:53Z</time>
      </trkpt>
      <trkpt lat="33.69786" lon="77.70299">
        <ele>4365</ele>
        <time>2015-09-06T06:58:03Z</time>
      </trkpt>
      <trkpt lat="33.69783" lon="77.70303">
        <ele>4363.8</ele>
        <time>2015-09-06T06:58:09Z</time>
      </trkpt>
      <trkpt lat="33.6978" lon="77.70306">
        <ele>4362.8</ele>
        <time>2015-09-06T06:58:17Z</time>
      </trkpt>
      <trkpt lat="33.69777" lon="77.70309">
        <ele>4362.8</ele>
        <time>2015-09-06T06:58:21Z</time>
      </trkpt>
      <trkpt lat="33.69774" lon="77.70312">
        <ele>4363.2</ele>
        <time>2015-09-06T06:58:24Z</time>
      </trkpt>
      <trkpt lat="33.69772" lon="77.70314">
        <ele>4363.2</ele>
        <time>2015-09-06T06:58:26Z</time>
      </trkpt>
      <trkpt lat="33.69767" lon="77.70318">
        <ele>4362.6</ele>
        <time>2015-09-06T06:58:34Z</time>
      </trkpt>
      <trkpt lat="33.69763" lon="77.70323">
        <ele>4362</ele>
        <time>2015-09-06T06:58:37Z</time>
      </trkpt>
      <trkpt lat="33.69761" lon="77.70325">
        <ele>4361.8</ele>
        <time>2015-09-06T06:58:39Z</time>
      </trkpt>
      <trkpt lat="33.69751" lon="77.70334">
        <ele>4360.6</ele>
        <time>2015-09-06T06:58:49Z</time>
      </trkpt>
      <trkpt lat="33.69745" lon="77.70336">
        <ele>4359.6</ele>
        <time>2015-09-06T06:58:56Z</time>
      </trkpt>
      <trkpt lat="33.69743" lon="77.70336">
        <ele>4358.4</ele>
        <time>2015-09-06T06:59:02Z</time>
      </trkpt>
      <trkpt lat="33.6974" lon="77.70335">
        <ele>4357.2</ele>
        <time>2015-09-06T06:59:06Z</time>
      </trkpt>
      <trkpt lat="33.69736" lon="77.70334">
        <ele>4356</ele>
        <time>2015-09-06T06:59:11Z</time>
      </trkpt>
      <trkpt lat="33.69732" lon="77.70334">
        <ele>4354.8</ele>
        <time>2015-09-06T06:59:14Z</time>
      </trkpt>
      <trkpt lat="33.69731" lon="77.70335">
        <ele>4354.4</ele>
        <time>2015-09-06T06:59:15Z</time>
      </trkpt>
      <trkpt lat="33.69727" lon="77.70337">
        <ele>4353.6</ele>
        <time>2015-09-06T06:59:18Z</time>
      </trkpt>
      <trkpt lat="33.69717" lon="77.70343">
        <ele>4352.6</ele>
        <time>2015-09-06T06:59:30Z</time>
      </trkpt>
      <trkpt lat="33.69716" lon="77.70344">
        <ele>4351</ele>
        <time>2015-09-06T06:59:32Z</time>
      </trkpt>
      <trkpt lat="33.69716" lon="77.70344">
        <ele>4350.4</ele>
        <time>2015-09-06T06:59:33Z</time>
      </trkpt>
      <trkpt lat="33.69715" lon="77.70345">
        <ele>4349.8</ele>
        <time>2015-09-06T06:59:34Z</time>
      </trkpt>
      <trkpt lat="33.69714" lon="77.70345">
        <ele>4349.6</ele>
        <time>2015-09-06T06:59:35Z</time>
      </trkpt>
      <trkpt lat="33.69712" lon="77.70346">
        <ele>4349.4</ele>
        <time>2015-09-06T06:59:37Z</time>
      </trkpt>
      <trkpt lat="33.69712" lon="77.70347">
        <ele>4349.4</ele>
        <time>2015-09-06T06:59:38Z</time>
      </trkpt>
      <trkpt lat="33.69709" lon="77.7035">
        <ele>4349.4</ele>
        <time>2015-09-06T06:59:41Z</time>
      </trkpt>
      <trkpt lat="33.69707" lon="77.70356">
        <ele>4348.4</ele>
        <time>2015-09-06T06:59:47Z</time>
      </trkpt>
      <trkpt lat="33.69706" lon="77.70356">
        <ele>4347.4</ele>
        <time>2015-09-06T06:59:49Z</time>
      </trkpt>
      <trkpt lat="33.69703" lon="77.70362">
        <ele>4346.8</ele>
        <time>2015-09-06T06:59:54Z</time>
      </trkpt>
      <trkpt lat="33.69702" lon="77.70366">
        <ele>4346.2</ele>
        <time>2015-09-06T06:59:57Z</time>
      </trkpt>
      <trkpt lat="33.69699" lon="77.7037">
        <ele>4345</ele>
        <time>2015-09-06T07:00:02Z</time>
      </trkpt>
      <trkpt lat="33.69698" lon="77.70373">
        <ele>4343.8</ele>
        <time>2015-09-06T07:00:06Z</time>
      </trkpt>
      <trkpt lat="33.69695" lon="77.70378">
        <ele>4343.6</ele>
        <time>2015-09-06T07:00:13Z</time>
      </trkpt>
      <trkpt lat="33.69694" lon="77.7038">
        <ele>4343</ele>
        <time>2015-09-06T07:00:15Z</time>
      </trkpt>
      <trkpt lat="33.69694" lon="77.70381">
        <ele>4342.6</ele>
        <time>2015-09-06T07:00:16Z</time>
      </trkpt>
      <trkpt lat="33.69696" lon="77.70386">
        <ele>4341.4</ele>
        <time>2015-09-06T07:00:21Z</time>
      </trkpt>
      <trkpt lat="33.69694" lon="77.70391">
        <ele>4340.2</ele>
        <time>2015-09-06T07:00:25Z</time>
      </trkpt>
      <trkpt lat="33.69693" lon="77.70393">
        <ele>4339.6</ele>
        <time>2015-09-06T07:00:27Z</time>
      </trkpt>
      <trkpt lat="33.69692" lon="77.70396">
        <ele>4339</ele>
        <time>2015-09-06T07:00:29Z</time>
      </trkpt>
      <trkpt lat="33.69692" lon="77.70399">
        <ele>4338.4</ele>
        <time>2015-09-06T07:00:32Z</time>
      </trkpt>
      <trkpt lat="33.69688" lon="77.70404">
        <ele>4337.4</ele>
        <time>2015-09-06T07:00:41Z</time>
      </trkpt>
      <trkpt lat="33.69685" lon="77.70405">
        <ele>4336.2</ele>
        <time>2015-09-06T07:00:44Z</time>
      </trkpt>
      <trkpt lat="33.69683" lon="77.70406">
        <ele>4336</ele>
        <time>2015-09-06T07:00:47Z</time>
      </trkpt>
      <trkpt lat="33.69678" lon="77.70409">
        <ele>4334.6</ele>
        <time>2015-09-06T07:00:54Z</time>
      </trkpt>
      <trkpt lat="33.69672" lon="77.70413">
        <ele>4333.6</ele>
        <time>2015-09-06T07:01:01Z</time>
      </trkpt>
      <trkpt lat="33.69671" lon="77.70413">
        <ele>4333.6</ele>
        <time>2015-09-06T07:01:02Z</time>
      </trkpt>
      <trkpt lat="33.69664" lon="77.7042">
        <ele>4332.4</ele>
        <time>2015-09-06T07:01:07Z</time>
      </trkpt>
      <trkpt lat="33.69659" lon="77.70426">
        <ele>4331.2</ele>
        <time>2015-09-06T07:01:13Z</time>
      </trkpt>
      <trkpt lat="33.69658" lon="77.70427">
        <ele>4330.8</ele>
        <time>2015-09-06T07:01:14Z</time>
      </trkpt>
      <trkpt lat="33.69655" lon="77.70428">
        <ele>4330.2</ele>
        <time>2015-09-06T07:01:19Z</time>
      </trkpt>
      <trkpt lat="33.69653" lon="77.70431">
        <ele>4328.8</ele>
        <time>2015-09-06T07:01:22Z</time>
      </trkpt>
      <trkpt lat="33.69653" lon="77.70432">
        <ele>4328</ele>
        <time>2015-09-06T07:01:23Z</time>
      </trkpt>
      <trkpt lat="33.69653" lon="77.70432">
        <ele>4327</ele>
        <time>2015-09-06T07:01:24Z</time>
      </trkpt>
      <trkpt lat="33.69653" lon="77.70433">
        <ele>4326</ele>
        <time>2015-09-06T07:01:26Z</time>
      </trkpt>
      <trkpt lat="33.69653" lon="77.70438">
        <ele>4325</ele>
        <time>2015-09-06T07:01:30Z</time>
      </trkpt>
      <trkpt lat="33.69649" lon="77.70452">
        <ele>4323.8</ele>
        <time>2015-09-06T07:01:51Z</time>
      </trkpt>
      <trkpt lat="33.69646" lon="77.70456">
        <ele>4323</ele>
        <time>2015-09-06T07:01:54Z</time>
      </trkpt>
      <trkpt lat="33.69645" lon="77.70457">
        <ele>4322.8</ele>
        <time>2015-09-06T07:01:55Z</time>
      </trkpt>
      <trkpt lat="33.6965" lon="77.70451">
        <ele>4322.2</ele>
        <time>2015-09-06T07:01:57Z</time>
      </trkpt>
      <trkpt lat="33.69651" lon="77.70448">
        <ele>4321.6</ele>
        <time>2015-09-06T07:01:59Z</time>
      </trkpt>
      <trkpt lat="33.69649" lon="77.70451">
        <ele>4320.4</ele>
        <time>2015-09-06T07:02:03Z</time>
      </trkpt>
      <trkpt lat="33.69645" lon="77.70454">
        <ele>4319.4</ele>
        <time>2015-09-06T07:02:08Z</time>
      </trkpt>
      <trkpt lat="33.69643" lon="77.70455">
        <ele>4318.6</ele>
        <time>2015-09-06T07:02:10Z</time>
      </trkpt>
      <trkpt lat="33.69642" lon="77.70455">
        <ele>4318.2</ele>
        <time>2015-09-06T07:02:11Z</time>
      </trkpt>
      <trkpt lat="33.69638" lon="77.70457">
        <ele>4317.2</ele>
        <time>2015-09-06T07:02:14Z</time>
      </trkpt>
      <trkpt lat="33.69632" lon="77.70457">
        <ele>4316.4</ele>
        <time>2015-09-06T07:02:19Z</time>
      </trkpt>
      <trkpt lat="33.69631" lon="77.70457">
        <ele>4316.2</ele>
        <time>2015-09-06T07:02:21Z</time>
      </trkpt>
      <trkpt lat="33.6963" lon="77.70457">
        <ele>4315</ele>
        <time>2015-09-06T07:02:26Z</time>
      </trkpt>
      <trkpt lat="33.69625" lon="77.70463">
        <ele>4315</ele>
        <time>2015-09-06T07:02:31Z</time>
      </trkpt>
      <trkpt lat="33.69623" lon="77.70472">
        <ele>4314</ele>
        <time>2015-09-06T07:02:45Z</time>
      </trkpt>
      <trkpt lat="33.6962" lon="77.70474">
        <ele>4312.8</ele>
        <time>2015-09-06T07:02:48Z</time>
      </trkpt>
      <trkpt lat="33.69618" lon="77.70475">
        <ele>4312.4</ele>
        <time>2015-09-06T07:02:51Z</time>
      </trkpt>
      <trkpt lat="33.69614" lon="77.70481">
        <ele>4311.8</ele>
        <time>2015-09-06T07:03:00Z</time>
      </trkpt>
      <trkpt lat="33.69614" lon="77.70483">
        <ele>4310.6</ele>
        <time>2015-09-06T07:03:05Z</time>
      </trkpt>
      <trkpt lat="33.69613" lon="77.70482">
        <ele>4309.4</ele>
        <time>2015-09-06T07:03:07Z</time>
      </trkpt>
      <trkpt lat="33.6961" lon="77.70484">
        <ele>4308.6</ele>
        <time>2015-09-06T07:03:13Z</time>
      </trkpt>
      <trkpt lat="33.69606" lon="77.70489">
        <ele>4308.4</ele>
        <time>2015-09-06T07:03:17Z</time>
      </trkpt>
      <trkpt lat="33.69602" lon="77.70496">
        <ele>4307.4</ele>
        <time>2015-09-06T07:03:24Z</time>
      </trkpt>
      <trkpt lat="33.69601" lon="77.70498">
        <ele>4307.2</ele>
        <time>2015-09-06T07:03:26Z</time>
      </trkpt>
      <trkpt lat="33.696" lon="77.70504">
        <ele>4306.2</ele>
        <time>2015-09-06T07:03:30Z</time>
      </trkpt>
      <trkpt lat="33.69598" lon="77.7051">
        <ele>4306</ele>
        <time>2015-09-06T07:03:34Z</time>
      </trkpt>
      <trkpt lat="33.69593" lon="77.70515">
        <ele>4305.2</ele>
        <time>2015-09-06T07:03:38Z</time>
      </trkpt>
      <trkpt lat="33.69585" lon="77.70521">
        <ele>4304</ele>
        <time>2015-09-06T07:03:45Z</time>
      </trkpt>
      <trkpt lat="33.69581" lon="77.70526">
        <ele>4303</ele>
        <time>2015-09-06T07:03:51Z</time>
      </trkpt>
      <trkpt lat="33.69572" lon="77.70538">
        <ele>4301.6</ele>
        <time>2015-09-06T07:04:01Z</time>
      </trkpt>
      <trkpt lat="33.69568" lon="77.70544">
        <ele>4300.6</ele>
        <time>2015-09-06T07:04:08Z</time>
      </trkpt>
      <trkpt lat="33.69563" lon="77.70547">
        <ele>4299.4</ele>
        <time>2015-09-06T07:04:12Z</time>
      </trkpt>
      <trkpt lat="33.69563" lon="77.70548">
        <ele>4298.4</ele>
        <time>2015-09-06T07:04:15Z</time>
      </trkpt>
      <trkpt lat="33.69562" lon="77.70549">
        <ele>4298</ele>
        <time>2015-09-06T07:04:16Z</time>
      </trkpt>
      <trkpt lat="33.6956" lon="77.70549">
        <ele>4297.2</ele>
        <time>2015-09-06T07:04:21Z</time>
      </trkpt>
      <trkpt lat="33.69553" lon="77.70552">
        <ele>4297</ele>
        <time>2015-09-06T07:04:31Z</time>
      </trkpt>
      <trkpt lat="33.69548" lon="77.70555">
        <ele>4296.6</ele>
        <time>2015-09-06T07:04:35Z</time>
      </trkpt>
      <trkpt lat="33.69543" lon="77.70554">
        <ele>4296.2</ele>
        <time>2015-09-06T07:04:39Z</time>
      </trkpt>
      <trkpt lat="33.69542" lon="77.70554">
        <ele>4296</ele>
        <time>2015-09-06T07:04:40Z</time>
      </trkpt>
      <trkpt lat="33.69537" lon="77.70556">
        <ele>4295</ele>
        <time>2015-09-06T07:04:45Z</time>
      </trkpt>
      <trkpt lat="33.69535" lon="77.70557">
        <ele>4294.6</ele>
        <time>2015-09-06T07:04:47Z</time>
      </trkpt>
      <trkpt lat="33.69534" lon="77.70559">
        <ele>4294.2</ele>
        <time>2015-09-06T07:04:49Z</time>
      </trkpt>
      <trkpt lat="33.69532" lon="77.70562">
        <ele>4294</ele>
        <time>2015-09-06T07:04:51Z</time>
      </trkpt>
      <trkpt lat="33.69529" lon="77.70562">
        <ele>4293.2</ele>
        <time>2015-09-06T07:04:55Z</time>
      </trkpt>
      <trkpt lat="33.69529" lon="77.70562">
        <ele>4292.8</ele>
        <time>2015-09-06T07:04:56Z</time>
      </trkpt>
      <trkpt lat="33.69528" lon="77.70563">
        <ele>4291.8</ele>
        <time>2015-09-06T07:05:02Z</time>
      </trkpt>
      <trkpt lat="33.69523" lon="77.70565">
        <ele>4290.8</ele>
        <time>2015-09-06T07:05:09Z</time>
      </trkpt>
      <trkpt lat="33.69518" lon="77.7057">
        <ele>4289.6</ele>
        <time>2015-09-06T07:05:17Z</time>
      </trkpt>
      <trkpt lat="33.69515" lon="77.70572">
        <ele>4288.6</ele>
        <time>2015-09-06T07:05:21Z</time>
      </trkpt>
      <trkpt lat="33.69513" lon="77.70577">
        <ele>4287.6</ele>
        <time>2015-09-06T07:05:39Z</time>
      </trkpt>
      <trkpt lat="33.69511" lon="77.70575">
        <ele>4286.6</ele>
        <time>2015-09-06T07:05:42Z</time>
      </trkpt>
      <trkpt lat="33.69501" lon="77.70578">
        <ele>4285.4</ele>
        <time>2015-09-06T07:06:03Z</time>
      </trkpt>
      <trkpt lat="33.69501" lon="77.70581">
        <ele>4284</ele>
        <time>2015-09-06T07:06:06Z</time>
      </trkpt>
      <trkpt lat="33.69499" lon="77.70583">
        <ele>4282.6</ele>
        <time>2015-09-06T07:06:09Z</time>
      </trkpt>
      <trkpt lat="33.69499" lon="77.70585">
        <ele>4282</ele>
        <time>2015-09-06T07:06:11Z</time>
      </trkpt>
      <trkpt lat="33.69499" lon="77.7059">
        <ele>4281.6</ele>
        <time>2015-09-06T07:06:15Z</time>
      </trkpt>
      <trkpt lat="33.69498" lon="77.70593">
        <ele>4281</ele>
        <time>2015-09-06T07:06:18Z</time>
      </trkpt>
      <trkpt lat="33.69496" lon="77.70595">
        <ele>4280.2</ele>
        <time>2015-09-06T07:06:21Z</time>
      </trkpt>
      <trkpt lat="33.69493" lon="77.70597">
        <ele>4279</ele>
        <time>2015-09-06T07:06:24Z</time>
      </trkpt>
      <trkpt lat="33.6949" lon="77.70595">
        <ele>4278.2</ele>
        <time>2015-09-06T07:06:27Z</time>
      </trkpt>
      <trkpt lat="33.69488" lon="77.70596">
        <ele>4278</ele>
        <time>2015-09-06T07:06:30Z</time>
      </trkpt>
      <trkpt lat="33.69485" lon="77.706">
        <ele>4277</ele>
        <time>2015-09-06T07:06:38Z</time>
      </trkpt>
      <trkpt lat="33.69482" lon="77.706">
        <ele>4275.8</ele>
        <time>2015-09-06T07:06:44Z</time>
      </trkpt>
      <trkpt lat="33.69478" lon="77.706">
        <ele>4275</ele>
        <time>2015-09-06T07:06:47Z</time>
      </trkpt>
      <trkpt lat="33.69476" lon="77.706">
        <ele>4274.6</ele>
        <time>2015-09-06T07:06:50Z</time>
      </trkpt>
      <trkpt lat="33.69472" lon="77.706">
        <ele>4273.2</ele>
        <time>2015-09-06T07:06:53Z</time>
      </trkpt>
      <trkpt lat="33.69469" lon="77.70602">
        <ele>4272</ele>
        <time>2015-09-06T07:06:56Z</time>
      </trkpt>
      <trkpt lat="33.69466" lon="77.70602">
        <ele>4270.8</ele>
        <time>2015-09-06T07:07:00Z</time>
      </trkpt>
      <trkpt lat="33.69462" lon="77.70603">
        <ele>4269.6</ele>
        <time>2015-09-06T07:07:04Z</time>
      </trkpt>
      <trkpt lat="33.69461" lon="77.70603">
        <ele>4269.4</ele>
        <time>2015-09-06T07:07:05Z</time>
      </trkpt>
      <trkpt lat="33.69459" lon="77.70603">
        <ele>4268.4</ele>
        <time>2015-09-06T07:07:08Z</time>
      </trkpt>
      <trkpt lat="33.69458" lon="77.70604">
        <ele>4268</ele>
        <time>2015-09-06T07:07:09Z</time>
      </trkpt>
      <trkpt lat="33.69458" lon="77.70605">
        <ele>4267.4</ele>
        <time>2015-09-06T07:07:11Z</time>
      </trkpt>
      <trkpt lat="33.69455" lon="77.70612">
        <ele>4266.2</ele>
        <time>2015-09-06T07:07:17Z</time>
      </trkpt>
      <trkpt lat="33.69453" lon="77.70615">
        <ele>4265.8</ele>
        <time>2015-09-06T07:07:20Z</time>
      </trkpt>
      <trkpt lat="33.69448" lon="77.70619">
        <ele>4265.2</ele>
        <time>2015-09-06T07:07:27Z</time>
      </trkpt>
      <trkpt lat="33.6944" lon="77.70621">
        <ele>4264.6</ele>
        <time>2015-09-06T07:07:40Z</time>
      </trkpt>
      <trkpt lat="33.69438" lon="77.70621">
        <ele>4264.4</ele>
        <time>2015-09-06T07:07:42Z</time>
      </trkpt>
      <trkpt lat="33.69436" lon="77.70622">
        <ele>4264.2</ele>
        <time>2015-09-06T07:07:44Z</time>
      </trkpt>
      <trkpt lat="33.69435" lon="77.70623">
        <ele>4264</ele>
        <time>2015-09-06T07:07:46Z</time>
      </trkpt>
      <trkpt lat="33.69435" lon="77.70641">
        <ele>4263.8</ele>
        <time>2015-09-06T07:07:51Z</time>
      </trkpt>
      <trkpt lat="33.69433" lon="77.70639">
        <ele>4263.8</ele>
        <time>2015-09-06T07:07:54Z</time>
      </trkpt>
      <trkpt lat="33.69427" lon="77.70634">
        <ele>4264.4</ele>
        <time>2015-09-06T07:08:02Z</time>
      </trkpt>
      <trkpt lat="33.69425" lon="77.70634">
        <ele>4265.4</ele>
        <time>2015-09-06T07:08:07Z</time>
      </trkpt>
      <trkpt lat="33.69419" lon="77.70636">
        <ele>4266</ele>
        <time>2015-09-06T07:08:17Z</time>
      </trkpt>
      <trkpt lat="33.69417" lon="77.70637">
        <ele>4266</ele>
        <time>2015-09-06T07:08:19Z</time>
      </trkpt>
      <trkpt lat="33.6941" lon="77.70638">
        <ele>4265.4</ele>
        <time>2015-09-06T07:08:27Z</time>
      </trkpt>
      <trkpt lat="33.69407" lon="77.70637">
        <ele>4265.2</ele>
        <time>2015-09-06T07:08:31Z</time>
      </trkpt>
      <trkpt lat="33.69402" lon="77.70639">
        <ele>4264.4</ele>
        <time>2015-09-06T07:08:37Z</time>
      </trkpt>
      <trkpt lat="33.69398" lon="77.70642">
        <ele>4263.2</ele>
        <time>2015-09-06T07:08:43Z</time>
      </trkpt>
      <trkpt lat="33.69395" lon="77.70642">
        <ele>4262.8</ele>
        <time>2015-09-06T07:08:46Z</time>
      </trkpt>
      <trkpt lat="33.69394" lon="77.70637">
        <ele>4262.4</ele>
        <time>2015-09-06T07:08:51Z</time>
      </trkpt>
      <trkpt lat="33.69397" lon="77.70629">
        <ele>4262</ele>
        <time>2015-09-06T07:08:54Z</time>
      </trkpt>
      <trkpt lat="33.69394" lon="77.70632">
        <ele>4261</ele>
        <time>2015-09-06T07:09:04Z</time>
      </trkpt>
      <trkpt lat="33.69389" lon="77.70635">
        <ele>4260</ele>
        <time>2015-09-06T07:09:10Z</time>
      </trkpt>
      <trkpt lat="33.69386" lon="77.70637">
        <ele>4259.4</ele>
        <time>2015-09-06T07:09:13Z</time>
      </trkpt>
      <trkpt lat="33.69384" lon="77.70638">
        <ele>4258.8</ele>
        <time>2015-09-06T07:09:16Z</time>
      </trkpt>
      <trkpt lat="33.6938" lon="77.70641">
        <ele>4257.8</ele>
        <time>2015-09-06T07:09:21Z</time>
      </trkpt>
      <trkpt lat="33.69377" lon="77.70639">
        <ele>4256.8</ele>
        <time>2015-09-06T07:09:25Z</time>
      </trkpt>
      <trkpt lat="33.69374" lon="77.7064">
        <ele>4255.6</ele>
        <time>2015-09-06T07:09:30Z</time>
      </trkpt>
      <trkpt lat="33.69371" lon="77.70641">
        <ele>4254.4</ele>
        <time>2015-09-06T07:09:36Z</time>
      </trkpt>
      <trkpt lat="33.69369" lon="77.70642">
        <ele>4253.2</ele>
        <time>2015-09-06T07:09:41Z</time>
      </trkpt>
      <trkpt lat="33.69366" lon="77.70644">
        <ele>4252.6</ele>
        <time>2015-09-06T07:09:44Z</time>
      </trkpt>
      <trkpt lat="33.69365" lon="77.70646">
        <ele>4252.2</ele>
        <time>2015-09-06T07:09:46Z</time>
      </trkpt>
      <trkpt lat="33.69362" lon="77.70648">
        <ele>4251.2</ele>
        <time>2015-09-06T07:09:50Z</time>
      </trkpt>
      <trkpt lat="33.69362" lon="77.7065">
        <ele>4251</ele>
        <time>2015-09-06T07:09:51Z</time>
      </trkpt>
      <trkpt lat="33.6936" lon="77.70651">
        <ele>4250.6</ele>
        <time>2015-09-06T07:09:53Z</time>
      </trkpt>
      <trkpt lat="33.69357" lon="77.70655">
        <ele>4249.8</ele>
        <time>2015-09-06T07:09:56Z</time>
      </trkpt>
      <trkpt lat="33.69358" lon="77.70657">
        <ele>4248.8</ele>
        <time>2015-09-06T07:10:01Z</time>
      </trkpt>
      <trkpt lat="33.69354" lon="77.70653">
        <ele>4247.6</ele>
        <time>2015-09-06T07:10:07Z</time>
      </trkpt>
      <trkpt lat="33.69353" lon="77.70649">
        <ele>4246.6</ele>
        <time>2015-09-06T07:10:15Z</time>
      </trkpt>
      <trkpt lat="33.69346" lon="77.70645">
        <ele>4246.2</ele>
        <time>2015-09-06T07:10:31Z</time>
      </trkpt>
      <trkpt lat="33.69348" lon="77.70652">
        <ele>4247.6</ele>
        <time>2015-09-06T07:10:43Z</time>
      </trkpt>
      <trkpt lat="33.69345" lon="77.70653">
        <ele>4248</ele>
        <time>2015-09-06T07:10:47Z</time>
      </trkpt>
      <trkpt lat="33.69341" lon="77.70655">
        <ele>4248.8</ele>
        <time>2015-09-06T07:10:52Z</time>
      </trkpt>
      <trkpt lat="33.69337" lon="77.70657">
        <ele>4249.6</ele>
        <time>2015-09-06T07:10:57Z</time>
      </trkpt>
      <trkpt lat="33.69336" lon="77.70658">
        <ele>4249.8</ele>
        <time>2015-09-06T07:10:59Z</time>
      </trkpt>
      <trkpt lat="33.69333" lon="77.7066">
        <ele>4250.2</ele>
        <time>2015-09-06T07:11:03Z</time>
      </trkpt>
      <trkpt lat="33.69327" lon="77.7066">
        <ele>4250.8</ele>
        <time>2015-09-06T07:11:09Z</time>
      </trkpt>
      <trkpt lat="33.69325" lon="77.70661">
        <ele>4250.8</ele>
        <time>2015-09-06T07:11:11Z</time>
      </trkpt>
      <trkpt lat="33.69321" lon="77.70664">
        <ele>4251</ele>
        <time>2015-09-06T07:11:15Z</time>
      </trkpt>
      <trkpt lat="33.69307" lon="77.70669">
        <ele>4250</ele>
        <time>2015-09-06T07:11:37Z</time>
      </trkpt>
      <trkpt lat="33.69303" lon="77.70673">
        <ele>4249.8</ele>
        <time>2015-09-06T07:11:39Z</time>
      </trkpt>
      <trkpt lat="33.69301" lon="77.70676">
        <ele>4249.8</ele>
        <time>2015-09-06T07:11:40Z</time>
      </trkpt>
      <trkpt lat="33.69299" lon="77.70676">
        <ele>4249.8</ele>
        <time>2015-09-06T07:11:42Z</time>
      </trkpt>
      <trkpt lat="33.69298" lon="77.70676">
        <ele>4249.8</ele>
        <time>2015-09-06T07:11:44Z</time>
      </trkpt>
      <trkpt lat="33.69294" lon="77.70679">
        <ele>4249.8</ele>
        <time>2015-09-06T07:11:49Z</time>
      </trkpt>
      <trkpt lat="33.6929" lon="77.70679">
        <ele>4248.8</ele>
        <time>2015-09-06T07:11:53Z</time>
      </trkpt>
      <trkpt lat="33.69287" lon="77.70679">
        <ele>4248</ele>
        <time>2015-09-06T07:11:57Z</time>
      </trkpt>
      <trkpt lat="33.69286" lon="77.70678">
        <ele>4247.8</ele>
        <time>2015-09-06T07:11:59Z</time>
      </trkpt>
      <trkpt lat="33.69285" lon="77.70677">
        <ele>4247.6</ele>
        <time>2015-09-06T07:12:00Z</time>
      </trkpt>
      <trkpt lat="33.69284" lon="77.70675">
        <ele>4247.6</ele>
        <time>2015-09-06T07:12:02Z</time>
      </trkpt>
      <trkpt lat="33.69281" lon="77.70677">
        <ele>4246.6</ele>
        <time>2015-09-06T07:12:07Z</time>
      </trkpt>
      <trkpt lat="33.69273" lon="77.70685">
        <ele>4245.6</ele>
        <time>2015-09-06T07:12:24Z</time>
      </trkpt>
      <trkpt lat="33.69272" lon="77.70683">
        <ele>4244.6</ele>
        <time>2015-09-06T07:12:32Z</time>
      </trkpt>
      <trkpt lat="33.69263" lon="77.70687">
        <ele>4243.4</ele>
        <time>2015-09-06T07:12:46Z</time>
      </trkpt>
      <trkpt lat="33.69257" lon="77.70693">
        <ele>4242.2</ele>
        <time>2015-09-06T07:12:53Z</time>
      </trkpt>
      <trkpt lat="33.69254" lon="77.70694">
        <ele>4241</ele>
        <time>2015-09-06T07:12:57Z</time>
      </trkpt>
      <trkpt lat="33.69251" lon="77.70695">
        <ele>4240</ele>
        <time>2015-09-06T07:13:01Z</time>
      </trkpt>
      <trkpt lat="33.69242" lon="77.70702">
        <ele>4239</ele>
        <time>2015-09-06T07:13:09Z</time>
      </trkpt>
      <trkpt lat="33.69238" lon="77.70706">
        <ele>4238.6</ele>
        <time>2015-09-06T07:13:13Z</time>
      </trkpt>
      <trkpt lat="33.69236" lon="77.70708">
        <ele>4238.4</ele>
        <time>2015-09-06T07:13:15Z</time>
      </trkpt>
      <trkpt lat="33.69233" lon="77.7071">
        <ele>4238</ele>
        <time>2015-09-06T07:13:19Z</time>
      </trkpt>
      <trkpt lat="33.69232" lon="77.7071">
        <ele>4237.8</ele>
        <time>2015-09-06T07:13:20Z</time>
      </trkpt>
      <trkpt lat="33.69232" lon="77.70713">
        <ele>4237.2</ele>
        <time>2015-09-06T07:13:24Z</time>
      </trkpt>
      <trkpt lat="33.6923" lon="77.70717">
        <ele>4236.6</ele>
        <time>2015-09-06T07:13:31Z</time>
      </trkpt>
      <trkpt lat="33.69228" lon="77.70717">
        <ele>4235.6</ele>
        <time>2015-09-06T07:13:39Z</time>
      </trkpt>
      <trkpt lat="33.69226" lon="77.70719">
        <ele>4234.6</ele>
        <time>2015-09-06T07:13:45Z</time>
      </trkpt>
      <trkpt lat="33.69225" lon="77.70723">
        <ele>4233.4</ele>
        <time>2015-09-06T07:13:50Z</time>
      </trkpt>
      <trkpt lat="33.69222" lon="77.70729">
        <ele>4232.2</ele>
        <time>2015-09-06T07:13:55Z</time>
      </trkpt>
      <trkpt lat="33.69219" lon="77.70733">
        <ele>4231.2</ele>
        <time>2015-09-06T07:13:59Z</time>
      </trkpt>
      <trkpt lat="33.69213" lon="77.70737">
        <ele>4231.4</ele>
        <time>2015-09-06T07:14:09Z</time>
      </trkpt>
      <trkpt lat="33.6921" lon="77.70737">
        <ele>4231</ele>
        <time>2015-09-06T07:14:11Z</time>
      </trkpt>
      <trkpt lat="33.69206" lon="77.70737">
        <ele>4230.2</ele>
        <time>2015-09-06T07:14:15Z</time>
      </trkpt>
      <trkpt lat="33.69205" lon="77.70737">
        <ele>4230</ele>
        <time>2015-09-06T07:14:16Z</time>
      </trkpt>
      <trkpt lat="33.69199" lon="77.7074">
        <ele>4229.6</ele>
        <time>2015-09-06T07:14:20Z</time>
      </trkpt>
      <trkpt lat="33.69193" lon="77.7074">
        <ele>4229.2</ele>
        <time>2015-09-06T07:14:28Z</time>
      </trkpt>
      <trkpt lat="33.69193" lon="77.70735">
        <ele>4229</ele>
        <time>2015-09-06T07:14:31Z</time>
      </trkpt>
      <trkpt lat="33.69192" lon="77.70731">
        <ele>4228.2</ele>
        <time>2015-09-06T07:14:35Z</time>
      </trkpt>
      <trkpt lat="33.69189" lon="77.7073">
        <ele>4228</ele>
        <time>2015-09-06T07:14:38Z</time>
      </trkpt>
      <trkpt lat="33.69189" lon="77.70729">
        <ele>4227.8</ele>
        <time>2015-09-06T07:14:39Z</time>
      </trkpt>
      <trkpt lat="33.69187" lon="77.70728">
        <ele>4226.8</ele>
        <time>2015-09-06T07:14:43Z</time>
      </trkpt>
      <trkpt lat="33.69185" lon="77.70727">
        <ele>4226</ele>
        <time>2015-09-06T07:14:47Z</time>
      </trkpt>
      <trkpt lat="33.69184" lon="77.70726">
        <ele>4225.8</ele>
        <time>2015-09-06T07:14:48Z</time>
      </trkpt>
      <trkpt lat="33.69181" lon="77.70725">
        <ele>4225</ele>
        <time>2015-09-06T07:14:52Z</time>
      </trkpt>
      <trkpt lat="33.6918" lon="77.70725">
        <ele>4224.6</ele>
        <time>2015-09-06T07:14:53Z</time>
      </trkpt>
      <trkpt lat="33.69178" lon="77.70725">
        <ele>4224.4</ele>
        <time>2015-09-06T07:14:54Z</time>
      </trkpt>
      <trkpt lat="33.69173" lon="77.70728">
        <ele>4223.6</ele>
        <time>2015-09-06T07:14:58Z</time>
      </trkpt>
      <trkpt lat="33.69168" lon="77.70731">
        <ele>4223</ele>
        <time>2015-09-06T07:15:02Z</time>
      </trkpt>
      <trkpt lat="33.69165" lon="77.70733">
        <ele>4222.6</ele>
        <time>2015-09-06T07:15:04Z</time>
      </trkpt>
      <trkpt lat="33.69162" lon="77.70734">
        <ele>4222.2</ele>
        <time>2015-09-06T07:15:06Z</time>
      </trkpt>
      <trkpt lat="33.69153" lon="77.70741">
        <ele>4221.4</ele>
        <time>2015-09-06T07:15:11Z</time>
      </trkpt>
      <trkpt lat="33.69152" lon="77.70741">
        <ele>4221.4</ele>
        <time>2015-09-06T07:15:12Z</time>
      </trkpt>
      <trkpt lat="33.69148" lon="77.70741">
        <ele>4220.8</ele>
        <time>2015-09-06T07:15:16Z</time>
      </trkpt>
      <trkpt lat="33.69145" lon="77.7074">
        <ele>4220.4</ele>
        <time>2015-09-06T07:15:19Z</time>
      </trkpt>
      <trkpt lat="33.69141" lon="77.70736">
        <ele>4219.8</ele>
        <time>2015-09-06T07:15:24Z</time>
      </trkpt>
      <trkpt lat="33.69139" lon="77.70734">
        <ele>4219.4</ele>
        <time>2015-09-06T07:15:28Z</time>
      </trkpt>
      <trkpt lat="33.69136" lon="77.70729">
        <ele>4218.4</ele>
        <time>2015-09-06T07:15:34Z</time>
      </trkpt>
      <trkpt lat="33.69135" lon="77.70724">
        <ele>4217.6</ele>
        <time>2015-09-06T07:15:37Z</time>
      </trkpt>
      <trkpt lat="33.69133" lon="77.70722">
        <ele>4217.2</ele>
        <time>2015-09-06T07:15:39Z</time>
      </trkpt>
      <trkpt lat="33.69131" lon="77.70719">
        <ele>4216.8</ele>
        <time>2015-09-06T07:15:42Z</time>
      </trkpt>
      <trkpt lat="33.69128" lon="77.70717">
        <ele>4216.2</ele>
        <time>2015-09-06T07:15:46Z</time>
      </trkpt>
      <trkpt lat="33.69115" lon="77.70715">
        <ele>4215.2</ele>
        <time>2015-09-06T07:15:58Z</time>
      </trkpt>
      <trkpt lat="33.69109" lon="77.70716">
        <ele>4214</ele>
        <time>2015-09-06T07:16:04Z</time>
      </trkpt>
      <trkpt lat="33.69107" lon="77.70718">
        <ele>4213.8</ele>
        <time>2015-09-06T07:16:05Z</time>
      </trkpt>
      <trkpt lat="33.69104" lon="77.70721">
        <ele>4213</ele>
        <time>2015-09-06T07:16:08Z</time>
      </trkpt>
      <trkpt lat="33.69103" lon="77.70722">
        <ele>4212.8</ele>
        <time>2015-09-06T07:16:09Z</time>
      </trkpt>
      <trkpt lat="33.691" lon="77.70723">
        <ele>4212.4</ele>
        <time>2015-09-06T07:16:11Z</time>
      </trkpt>
      <trkpt lat="33.69099" lon="77.70725">
        <ele>4212</ele>
        <time>2015-09-06T07:16:13Z</time>
      </trkpt>
      <trkpt lat="33.69099" lon="77.70728">
        <ele>4211.8</ele>
        <time>2015-09-06T07:16:15Z</time>
      </trkpt>
      <trkpt lat="33.69098" lon="77.7073">
        <ele>4211.8</ele>
        <time>2015-09-06T07:16:16Z</time>
      </trkpt>
      <trkpt lat="33.69092" lon="77.70741">
        <ele>4211.2</ele>
        <time>2015-09-06T07:16:31Z</time>
      </trkpt>
      <trkpt lat="33.6909" lon="77.70746">
        <ele>4211.4</ele>
        <time>2015-09-06T07:16:33Z</time>
      </trkpt>
      <trkpt lat="33.69096" lon="77.7073">
        <ele>4210.8</ele>
        <time>2015-09-06T07:16:40Z</time>
      </trkpt>
      <trkpt lat="33.69094" lon="77.70729">
        <ele>4209.8</ele>
        <time>2015-09-06T07:16:45Z</time>
      </trkpt>
      <trkpt lat="33.69091" lon="77.70727">
        <ele>4208.6</ele>
        <time>2015-09-06T07:16:51Z</time>
      </trkpt>
      <trkpt lat="33.69091" lon="77.70726">
        <ele>4207.4</ele>
        <time>2015-09-06T07:16:56Z</time>
      </trkpt>
      <trkpt lat="33.69091" lon="77.70724">
        <ele>4206.4</ele>
        <time>2015-09-06T07:17:01Z</time>
      </trkpt>
      <trkpt lat="33.69091" lon="77.70723">
        <ele>4205.8</ele>
        <time>2015-09-06T07:17:04Z</time>
      </trkpt>
      <trkpt lat="33.69091" lon="77.70721">
        <ele>4205.2</ele>
        <time>2015-09-06T07:17:07Z</time>
      </trkpt>
      <trkpt lat="33.69093" lon="77.7072">
        <ele>4204</ele>
        <time>2015-09-06T07:17:12Z</time>
      </trkpt>
      <trkpt lat="33.69095" lon="77.70727">
        <ele>4204.2</ele>
        <time>2015-09-06T07:17:30Z</time>
      </trkpt>
      <trkpt lat="33.69088" lon="77.70728">
        <ele>4203.8</ele>
        <time>2015-09-06T07:17:41Z</time>
      </trkpt>
      <trkpt lat="33.69084" lon="77.70728">
        <ele>4203.6</ele>
        <time>2015-09-06T07:17:44Z</time>
      </trkpt>
      <trkpt lat="33.69079" lon="77.70735">
        <ele>4203.2</ele>
        <time>2015-09-06T07:17:47Z</time>
      </trkpt>
      <trkpt lat="33.69078" lon="77.70736">
        <ele>4203</ele>
        <time>2015-09-06T07:17:48Z</time>
      </trkpt>
      <trkpt lat="33.69071" lon="77.70741">
        <ele>4202</ele>
        <time>2015-09-06T07:17:58Z</time>
      </trkpt>
      <trkpt lat="33.69065" lon="77.70745">
        <ele>4201.4</ele>
        <time>2015-09-06T07:18:06Z</time>
      </trkpt>
      <trkpt lat="33.69066" lon="77.70745">
        <ele>4201</ele>
        <time>2015-09-06T07:18:09Z</time>
      </trkpt>
      <trkpt lat="33.69064" lon="77.70745">
        <ele>4199.8</ele>
        <time>2015-09-06T07:18:22Z</time>
      </trkpt>
      <trkpt lat="33.69061" lon="77.70745">
        <ele>4198.8</ele>
        <time>2015-09-06T07:18:26Z</time>
      </trkpt>
      <trkpt lat="33.69058" lon="77.70748">
        <ele>4197.8</ele>
        <time>2015-09-06T07:18:31Z</time>
      </trkpt>
      <trkpt lat="33.69056" lon="77.70759">
        <ele>4196.6</ele>
        <time>2015-09-06T07:18:41Z</time>
      </trkpt>
      <trkpt lat="33.69052" lon="77.70758">
        <ele>4195.6</ele>
        <time>2015-09-06T07:18:52Z</time>
      </trkpt>
      <trkpt lat="33.69051" lon="77.70762">
        <ele>4195</ele>
        <time>2015-09-06T07:19:03Z</time>
      </trkpt>
      <trkpt lat="33.6905" lon="77.70761">
        <ele>4194.6</ele>
        <time>2015-09-06T07:19:06Z</time>
      </trkpt>
      <trkpt lat="33.69057" lon="77.70755">
        <ele>4194.4</ele>
        <time>2015-09-06T07:19:17Z</time>
      </trkpt>
      <trkpt lat="33.69053" lon="77.70758">
        <ele>4194</ele>
        <time>2015-09-06T07:19:32Z</time>
      </trkpt>
      <trkpt lat="33.6905" lon="77.70765">
        <ele>4194</ele>
        <time>2015-09-06T07:19:34Z</time>
      </trkpt>
      <trkpt lat="33.69047" lon="77.7077">
        <ele>4194.4</ele>
        <time>2015-09-06T07:19:37Z</time>
      </trkpt>
      <trkpt lat="33.69045" lon="77.70772">
        <ele>4194.4</ele>
        <time>2015-09-06T07:19:39Z</time>
      </trkpt>
      <trkpt lat="33.69041" lon="77.70782">
        <ele>4195</ele>
        <time>2015-09-06T07:19:47Z</time>
      </trkpt>
      <trkpt lat="33.69039" lon="77.70786">
        <ele>4195</ele>
        <time>2015-09-06T07:19:51Z</time>
      </trkpt>
      <trkpt lat="33.69039" lon="77.70788">
        <ele>4195.2</ele>
        <time>2015-09-06T07:19:59Z</time>
      </trkpt>
      <trkpt lat="33.69035" lon="77.70784">
        <ele>4195.2</ele>
        <time>2015-09-06T07:20:01Z</time>
      </trkpt>
      <trkpt lat="33.69036" lon="77.70773">
        <ele>4195.6</ele>
        <time>2015-09-06T07:20:06Z</time>
      </trkpt>
      <trkpt lat="33.69041" lon="77.70783">
        <ele>4195.8</ele>
        <time>2015-09-06T07:20:12Z</time>
      </trkpt>
      <trkpt lat="33.6904" lon="77.70779">
        <ele>4195.6</ele>
        <time>2015-09-06T07:20:50Z</time>
      </trkpt>
      <trkpt lat="33.69041" lon="77.70777">
        <ele>4195.6</ele>
        <time>2015-09-06T07:20:52Z</time>
      </trkpt>
      <trkpt lat="33.69045" lon="77.70768">
        <ele>4195.6</ele>
        <time>2015-09-06T07:21:02Z</time>
      </trkpt>
      <trkpt lat="33.69047" lon="77.70763">
        <ele>4195.6</ele>
        <time>2015-09-06T07:21:05Z</time>
      </trkpt>
      <trkpt lat="33.6904" lon="77.70766">
        <ele>4195.6</ele>
        <time>2015-09-06T07:21:42Z</time>
      </trkpt>
      <trkpt lat="33.69041" lon="77.70763">
        <ele>4195.4</ele>
        <time>2015-09-06T07:21:58Z</time>
      </trkpt>
      <trkpt lat="33.69039" lon="77.70765">
        <ele>4196.6</ele>
        <time>2015-09-06T07:22:25Z</time>
      </trkpt>
      <trkpt lat="33.69037" lon="77.70771">
        <ele>4196.4</ele>
        <time>2015-09-06T07:22:34Z</time>
      </trkpt>
      <trkpt lat="33.6903" lon="77.70786">
        <ele>4196.4</ele>
        <time>2015-09-06T07:22:44Z</time>
      </trkpt>
      <trkpt lat="33.69029" lon="77.7078">
        <ele>4197.6</ele>
        <time>2015-09-06T07:23:08Z</time>
      </trkpt>
      <trkpt lat="33.6904" lon="77.70758">
        <ele>4198</ele>
        <time>2015-09-06T07:23:24Z</time>
      </trkpt>
      <trkpt lat="33.6904" lon="77.70755">
        <ele>4198</ele>
        <time>2015-09-06T07:23:26Z</time>
      </trkpt>
      <trkpt lat="33.69042" lon="77.70747">
        <ele>4198</ele>
        <time>2015-09-06T07:23:29Z</time>
      </trkpt>
      <trkpt lat="33.69047" lon="77.70739">
        <ele>4198.2</ele>
        <time>2015-09-06T07:23:35Z</time>
      </trkpt>
      <trkpt lat="33.69049" lon="77.70746">
        <ele>4197.8</ele>
        <time>2015-09-06T07:23:56Z</time>
      </trkpt>
      <trkpt lat="33.69048" lon="77.70747">
        <ele>4197.6</ele>
        <time>2015-09-06T07:23:58Z</time>
      </trkpt>
      <trkpt lat="33.69048" lon="77.70758">
        <ele>4197</ele>
        <time>2015-09-06T07:24:08Z</time>
      </trkpt>
      <trkpt lat="33.69046" lon="77.70775">
        <ele>4196.8</ele>
        <time>2015-09-06T07:24:13Z</time>
      </trkpt>
      <trkpt lat="33.69036" lon="77.70786">
        <ele>4196.6</ele>
        <time>2015-09-06T07:24:37Z</time>
      </trkpt>
      <trkpt lat="33.69036" lon="77.70782">
        <ele>4196.4</ele>
        <time>2015-09-06T07:24:41Z</time>
      </trkpt>
      <trkpt lat="33.69043" lon="77.70762">
        <ele>4196.8</ele>
        <time>2015-09-06T07:24:48Z</time>
      </trkpt>
      <trkpt lat="33.69044" lon="77.70759">
        <ele>4196.8</ele>
        <time>2015-09-06T07:24:50Z</time>
      </trkpt>
      <trkpt lat="33.69044" lon="77.7076">
        <ele>4196.8</ele>
        <time>2015-09-06T07:25:02Z</time>
      </trkpt>
      <trkpt lat="33.69042" lon="77.70758">
        <ele>4196.8</ele>
        <time>2015-09-06T07:25:04Z</time>
      </trkpt>
      <trkpt lat="33.69038" lon="77.70762">
        <ele>4197</ele>
        <time>2015-09-06T07:25:07Z</time>
      </trkpt>
      <trkpt lat="33.69037" lon="77.7077">
        <ele>4196.8</ele>
        <time>2015-09-06T07:25:16Z</time>
      </trkpt>
      <trkpt lat="33.69038" lon="77.70769">
        <ele>4196.8</ele>
        <time>2015-09-06T07:25:18Z</time>
      </trkpt>
      <trkpt lat="33.69028" lon="77.70761">
        <ele>4197.4</ele>
        <time>2015-09-06T07:25:35Z</time>
      </trkpt>
      <trkpt lat="33.69036" lon="77.70761">
        <ele>4197</ele>
        <time>2015-09-06T07:25:43Z</time>
      </trkpt>
      <trkpt lat="33.6904" lon="77.70776">
        <ele>4196.2</ele>
        <time>2015-09-06T07:26:00Z</time>
      </trkpt>
      <trkpt lat="33.69035" lon="77.70783">
        <ele>4196</ele>
        <time>2015-09-06T07:26:34Z</time>
      </trkpt>
      <trkpt lat="33.69028" lon="77.7079">
        <ele>4195.4</ele>
        <time>2015-09-06T07:26:50Z</time>
      </trkpt>
      <trkpt lat="33.69023" lon="77.70791">
        <ele>4194.4</ele>
        <time>2015-09-06T07:26:57Z</time>
      </trkpt>
      <trkpt lat="33.69022" lon="77.70791">
        <ele>4194.4</ele>
        <time>2015-09-06T07:26:58Z</time>
      </trkpt>
      <trkpt lat="33.69015" lon="77.70804">
        <ele>4193.4</ele>
        <time>2015-09-06T07:27:31Z</time>
      </trkpt>
      <trkpt lat="33.69012" lon="77.70814">
        <ele>4192.4</ele>
        <time>2015-09-06T07:27:43Z</time>
      </trkpt>
      <trkpt lat="33.69011" lon="77.7082">
        <ele>4191.4</ele>
        <time>2015-09-06T07:27:48Z</time>
      </trkpt>
      <trkpt lat="33.69004" lon="77.7084">
        <ele>4190.8</ele>
        <time>2015-09-06T07:28:05Z</time>
      </trkpt>
      <trkpt lat="33.69001" lon="77.70845">
        <ele>4190.4</ele>
        <time>2015-09-06T07:28:08Z</time>
      </trkpt>
      <trkpt lat="33.69001" lon="77.70846">
        <ele>4190.2</ele>
        <time>2015-09-06T07:28:09Z</time>
      </trkpt>
      <trkpt lat="33.69001" lon="77.70847">
        <ele>4190.2</ele>
        <time>2015-09-06T07:28:11Z</time>
      </trkpt>
      <trkpt lat="33.69013" lon="77.7085">
        <ele>4190.2</ele>
        <time>2015-09-06T07:28:17Z</time>
      </trkpt>
      <trkpt lat="33.69015" lon="77.7085">
        <ele>4190.2</ele>
        <time>2015-09-06T07:28:19Z</time>
      </trkpt>
      <trkpt lat="33.69019" lon="77.70852">
        <ele>4190</ele>
        <time>2015-09-06T07:28:24Z</time>
      </trkpt>
      <trkpt lat="33.69023" lon="77.70855">
        <ele>4189.6</ele>
        <time>2015-09-06T07:28:33Z</time>
      </trkpt>
      <trkpt lat="33.69017" lon="77.70853">
        <ele>4189.4</ele>
        <time>2015-09-06T07:28:37Z</time>
      </trkpt>
      <trkpt lat="33.69013" lon="77.70855">
        <ele>4189.2</ele>
        <time>2015-09-06T07:28:41Z</time>
      </trkpt>
      <trkpt lat="33.69009" lon="77.70857">
        <ele>4189.2</ele>
        <time>2015-09-06T07:28:44Z</time>
      </trkpt>
      <trkpt lat="33.69" lon="77.70861">
        <ele>4188.2</ele>
        <time>2015-09-06T07:28:51Z</time>
      </trkpt>
      <trkpt lat="33.68995" lon="77.70868">
        <ele>4187</ele>
        <time>2015-09-06T07:29:02Z</time>
      </trkpt>
      <trkpt lat="33.68988" lon="77.70883">
        <ele>4186.2</ele>
        <time>2015-09-06T07:29:24Z</time>
      </trkpt>
      <trkpt lat="33.68986" lon="77.70884">
        <ele>4186</ele>
        <time>2015-09-06T07:29:26Z</time>
      </trkpt>
      <trkpt lat="33.68981" lon="77.70892">
        <ele>4185</ele>
        <time>2015-09-06T07:29:47Z</time>
      </trkpt>
      <trkpt lat="33.68974" lon="77.70907">
        <ele>4184</ele>
        <time>2015-09-06T07:30:04Z</time>
      </trkpt>
      <trkpt lat="33.68973" lon="77.70909">
        <ele>4183.6</ele>
        <time>2015-09-06T07:30:07Z</time>
      </trkpt>
      <trkpt lat="33.68971" lon="77.70913">
        <ele>4183.6</ele>
        <time>2015-09-06T07:30:11Z</time>
      </trkpt>
      <trkpt lat="33.68969" lon="77.70915">
        <ele>4183.6</ele>
        <time>2015-09-06T07:30:13Z</time>
      </trkpt>
      <trkpt lat="33.68956" lon="77.70928">
        <ele>4183</ele>
        <time>2015-09-06T07:30:38Z</time>
      </trkpt>
      <trkpt lat="33.68955" lon="77.70929">
        <ele>4183</ele>
        <time>2015-09-06T07:30:39Z</time>
      </trkpt>
      <trkpt lat="33.68952" lon="77.70932">
        <ele>4181.8</ele>
        <time>2015-09-06T07:30:47Z</time>
      </trkpt>
      <trkpt lat="33.68945" lon="77.70933">
        <ele>4180.8</ele>
        <time>2015-09-06T07:31:01Z</time>
      </trkpt>
      <trkpt lat="33.68942" lon="77.70939">
        <ele>4180.2</ele>
        <time>2015-09-06T07:31:07Z</time>
      </trkpt>
      <trkpt lat="33.6894" lon="77.70941">
        <ele>4180</ele>
        <time>2015-09-06T07:31:09Z</time>
      </trkpt>
      <trkpt lat="33.68939" lon="77.70942">
        <ele>4179.8</ele>
        <time>2015-09-06T07:31:11Z</time>
      </trkpt>
      <trkpt lat="33.68928" lon="77.70948">
        <ele>4178.6</ele>
        <time>2015-09-06T07:31:28Z</time>
      </trkpt>
      <trkpt lat="33.68923" lon="77.70952">
        <ele>4177.4</ele>
        <time>2015-09-06T07:31:35Z</time>
      </trkpt>
      <trkpt lat="33.68921" lon="77.70958">
        <ele>4176.8</ele>
        <time>2015-09-06T07:31:40Z</time>
      </trkpt>
      <trkpt lat="33.68913" lon="77.70963">
        <ele>4177</ele>
        <time>2015-09-06T07:31:46Z</time>
      </trkpt>
      <trkpt lat="33.6891" lon="77.70968">
        <ele>4177</ele>
        <time>2015-09-06T07:31:50Z</time>
      </trkpt>
      <trkpt lat="33.68906" lon="77.7097">
        <ele>4176.4</ele>
        <time>2015-09-06T07:32:00Z</time>
      </trkpt>
      <trkpt lat="33.68901" lon="77.70973">
        <ele>4175.4</ele>
        <time>2015-09-06T07:32:08Z</time>
      </trkpt>
      <trkpt lat="33.68889" lon="77.70986">
        <ele>4174.2</ele>
        <time>2015-09-06T07:32:32Z</time>
      </trkpt>
      <trkpt lat="33.68882" lon="77.70987">
        <ele>4173.4</ele>
        <time>2015-09-06T07:32:54Z</time>
      </trkpt>
      <trkpt lat="33.68879" lon="77.70988">
        <ele>4173.2</ele>
        <time>2015-09-06T07:32:58Z</time>
      </trkpt>
      <trkpt lat="33.68867" lon="77.70998">
        <ele>4173.8</ele>
        <time>2015-09-06T07:33:13Z</time>
      </trkpt>
      <trkpt lat="33.68862" lon="77.70999">
        <ele>4172.4</ele>
        <time>2015-09-06T07:33:24Z</time>
      </trkpt>
      <trkpt lat="33.6886" lon="77.70998">
        <ele>4172.2</ele>
        <time>2015-09-06T07:33:26Z</time>
      </trkpt>
      <trkpt lat="33.6886" lon="77.70998">
        <ele>4172</ele>
        <time>2015-09-06T07:33:28Z</time>
      </trkpt>
      <trkpt lat="33.68858" lon="77.71001">
        <ele>4172.2</ele>
        <time>2015-09-06T07:33:30Z</time>
      </trkpt>
      <trkpt lat="33.68853" lon="77.71005">
        <ele>4171.2</ele>
        <time>2015-09-06T07:33:41Z</time>
      </trkpt>
      <trkpt lat="33.68852" lon="77.71006">
        <ele>4171</ele>
        <time>2015-09-06T07:33:42Z</time>
      </trkpt>
      <trkpt lat="33.68848" lon="77.71007">
        <ele>4171</ele>
        <time>2015-09-06T07:33:45Z</time>
      </trkpt>
      <trkpt lat="33.68845" lon="77.7101">
        <ele>4170.6</ele>
        <time>2015-09-06T07:33:51Z</time>
      </trkpt>
      <trkpt lat="33.68843" lon="77.71012">
        <ele>4170.2</ele>
        <time>2015-09-06T07:33:55Z</time>
      </trkpt>
      <trkpt lat="33.68841" lon="77.71015">
        <ele>4169.6</ele>
        <time>2015-09-06T07:33:57Z</time>
      </trkpt>
      <trkpt lat="33.68839" lon="77.71017">
        <ele>4169</ele>
        <time>2015-09-06T07:34:02Z</time>
      </trkpt>
      <trkpt lat="33.68833" lon="77.71028">
        <ele>4167.8</ele>
        <time>2015-09-06T07:34:14Z</time>
      </trkpt>
      <trkpt lat="33.68831" lon="77.71034">
        <ele>4167.2</ele>
        <time>2015-09-06T07:34:20Z</time>
      </trkpt>
      <trkpt lat="33.6883" lon="77.71035">
        <ele>4167.2</ele>
        <time>2015-09-06T07:34:22Z</time>
      </trkpt>
      <trkpt lat="33.6882" lon="77.71041">
        <ele>4166.8</ele>
        <time>2015-09-06T07:34:36Z</time>
      </trkpt>
      <trkpt lat="33.68819" lon="77.71042">
        <ele>4166.8</ele>
        <time>2015-09-06T07:34:39Z</time>
      </trkpt>
      <trkpt lat="33.68817" lon="77.71042">
        <ele>4166.6</ele>
        <time>2015-09-06T07:34:41Z</time>
      </trkpt>
      <trkpt lat="33.68814" lon="77.7104">
        <ele>4166.6</ele>
        <time>2015-09-06T07:34:44Z</time>
      </trkpt>
      <trkpt lat="33.68813" lon="77.7104">
        <ele>4166.4</ele>
        <time>2015-09-06T07:34:46Z</time>
      </trkpt>
      <trkpt lat="33.68811" lon="77.71042">
        <ele>4166.4</ele>
        <time>2015-09-06T07:34:48Z</time>
      </trkpt>
      <trkpt lat="33.68809" lon="77.71044">
        <ele>4166.2</ele>
        <time>2015-09-06T07:34:50Z</time>
      </trkpt>
      <trkpt lat="33.68807" lon="77.71045">
        <ele>4165.8</ele>
        <time>2015-09-06T07:34:53Z</time>
      </trkpt>
      <trkpt lat="33.68802" lon="77.71054">
        <ele>4164.8</ele>
        <time>2015-09-06T07:35:04Z</time>
      </trkpt>
      <trkpt lat="33.68801" lon="77.71056">
        <ele>4164.8</ele>
        <time>2015-09-06T07:35:06Z</time>
      </trkpt>
      <trkpt lat="33.68795" lon="77.71068">
        <ele>4163.6</ele>
        <time>2015-09-06T07:35:24Z</time>
      </trkpt>
      <trkpt lat="33.68793" lon="77.71077">
        <ele>4162.6</ele>
        <time>2015-09-06T07:35:37Z</time>
      </trkpt>
      <trkpt lat="33.68784" lon="77.71087">
        <ele>4161.6</ele>
        <time>2015-09-06T07:35:54Z</time>
      </trkpt>
      <trkpt lat="33.68777" lon="77.71087">
        <ele>4160.6</ele>
        <time>2015-09-06T07:36:10Z</time>
      </trkpt>
      <trkpt lat="33.68769" lon="77.71102">
        <ele>4159.6</ele>
        <time>2015-09-06T07:36:30Z</time>
      </trkpt>
      <trkpt lat="33.68765" lon="77.71107">
        <ele>4158.6</ele>
        <time>2015-09-06T07:36:46Z</time>
      </trkpt>
      <trkpt lat="33.68769" lon="77.71111">
        <ele>4159.6</ele>
        <time>2015-09-06T07:37:02Z</time>
      </trkpt>
      <trkpt lat="33.68771" lon="77.71116">
        <ele>4158.6</ele>
        <time>2015-09-06T07:37:58Z</time>
      </trkpt>
      <trkpt lat="33.6877" lon="77.71124">
        <ele>4158.8</ele>
        <time>2015-09-06T07:38:54Z</time>
      </trkpt>
      <trkpt lat="33.6877" lon="77.71131">
        <ele>4157.8</ele>
        <time>2015-09-06T07:40:01Z</time>
      </trkpt>
      <trkpt lat="33.68766" lon="77.7114">
        <ele>4157.4</ele>
        <time>2015-09-06T07:40:15Z</time>
      </trkpt>
      <trkpt lat="33.68767" lon="77.71144">
        <ele>4156.6</ele>
        <time>2015-09-06T07:40:21Z</time>
      </trkpt>
      <trkpt lat="33.68767" lon="77.71147">
        <ele>4156.6</ele>
        <time>2015-09-06T07:40:24Z</time>
      </trkpt>
      <trkpt lat="33.68768" lon="77.7115">
        <ele>4156.4</ele>
        <time>2015-09-06T07:40:28Z</time>
      </trkpt>
      <trkpt lat="33.68765" lon="77.71158">
        <ele>4155.2</ele>
        <time>2015-09-06T07:40:37Z</time>
      </trkpt>
      <trkpt lat="33.68766" lon="77.71167">
        <ele>4154.2</ele>
        <time>2015-09-06T07:40:48Z</time>
      </trkpt>
      <trkpt lat="33.6877" lon="77.71189">
        <ele>4154.4</ele>
        <time>2015-09-06T07:41:19Z</time>
      </trkpt>
      <trkpt lat="33.6877" lon="77.71195">
        <ele>4153.2</ele>
        <time>2015-09-06T07:41:32Z</time>
      </trkpt>
      <trkpt lat="33.6877" lon="77.71197">
        <ele>4153</ele>
        <time>2015-09-06T07:41:34Z</time>
      </trkpt>
      <trkpt lat="33.68768" lon="77.71197">
        <ele>4153.2</ele>
        <time>2015-09-06T07:41:40Z</time>
      </trkpt>
      <trkpt lat="33.68767" lon="77.71199">
        <ele>4153</ele>
        <time>2015-09-06T07:41:43Z</time>
      </trkpt>
      <trkpt lat="33.68767" lon="77.71203">
        <ele>4152.8</ele>
        <time>2015-09-06T07:41:45Z</time>
      </trkpt>
      <trkpt lat="33.68771" lon="77.71211">
        <ele>4152.2</ele>
        <time>2015-09-06T07:41:57Z</time>
      </trkpt>
      <trkpt lat="33.6877" lon="77.71217">
        <ele>4151</ele>
        <time>2015-09-06T07:42:06Z</time>
      </trkpt>
      <trkpt lat="33.68765" lon="77.71221">
        <ele>4150</ele>
        <time>2015-09-06T07:42:16Z</time>
      </trkpt>
      <trkpt lat="33.6876" lon="77.71224">
        <ele>4149.8</ele>
        <time>2015-09-06T07:42:23Z</time>
      </trkpt>
      <trkpt lat="33.68759" lon="77.71232">
        <ele>4150.4</ele>
        <time>2015-09-06T07:42:29Z</time>
      </trkpt>
      <trkpt lat="33.68754" lon="77.71236">
        <ele>4149</ele>
        <time>2015-09-06T07:42:43Z</time>
      </trkpt>
      <trkpt lat="33.68751" lon="77.71237">
        <ele>4148.8</ele>
        <time>2015-09-06T07:42:45Z</time>
      </trkpt>
      <trkpt lat="33.68751" lon="77.71237">
        <ele>4148.6</ele>
        <time>2015-09-06T07:42:47Z</time>
      </trkpt>
      <trkpt lat="33.68752" lon="77.71243">
        <ele>4148.8</ele>
        <time>2015-09-06T07:42:53Z</time>
      </trkpt>
      <trkpt lat="33.68752" lon="77.7125">
        <ele>4149.2</ele>
        <time>2015-09-06T07:43:02Z</time>
      </trkpt>
      <trkpt lat="33.68751" lon="77.71253">
        <ele>4149</ele>
        <time>2015-09-06T07:43:04Z</time>
      </trkpt>
      <trkpt lat="33.68751" lon="77.71256">
        <ele>4148</ele>
        <time>2015-09-06T07:43:07Z</time>
      </trkpt>
      <trkpt lat="33.68751" lon="77.71257">
        <ele>4147.8</ele>
        <time>2015-09-06T07:43:08Z</time>
      </trkpt>
      <trkpt lat="33.68751" lon="77.71258">
        <ele>4147.6</ele>
        <time>2015-09-06T07:43:10Z</time>
      </trkpt>
      <trkpt lat="33.6875" lon="77.71263">
        <ele>4147</ele>
        <time>2015-09-06T07:43:17Z</time>
      </trkpt>
      <trkpt lat="33.68748" lon="77.71263">
        <ele>4146.8</ele>
        <time>2015-09-06T07:43:19Z</time>
      </trkpt>
      <trkpt lat="33.68742" lon="77.71263">
        <ele>4145.8</ele>
        <time>2015-09-06T07:43:30Z</time>
      </trkpt>
      <trkpt lat="33.68735" lon="77.71273">
        <ele>4145.2</ele>
        <time>2015-09-06T07:43:44Z</time>
      </trkpt>
      <trkpt lat="33.68735" lon="77.71277">
        <ele>4145</ele>
        <time>2015-09-06T07:43:48Z</time>
      </trkpt>
      <trkpt lat="33.68734" lon="77.7128">
        <ele>4144.8</ele>
        <time>2015-09-06T07:43:55Z</time>
      </trkpt>
      <trkpt lat="33.68732" lon="77.71282">
        <ele>4143.6</ele>
        <time>2015-09-06T07:44:01Z</time>
      </trkpt>
      <trkpt lat="33.68728" lon="77.71284">
        <ele>4142.6</ele>
        <time>2015-09-06T07:44:06Z</time>
      </trkpt>
      <trkpt lat="33.68728" lon="77.71285">
        <ele>4142.6</ele>
        <time>2015-09-06T07:44:07Z</time>
      </trkpt>
      <trkpt lat="33.68726" lon="77.71288">
        <ele>4142.4</ele>
        <time>2015-09-06T07:44:10Z</time>
      </trkpt>
      <trkpt lat="33.68727" lon="77.71289">
        <ele>4142</ele>
        <time>2015-09-06T07:44:12Z</time>
      </trkpt>
      <trkpt lat="33.68724" lon="77.71295">
        <ele>4142</ele>
        <time>2015-09-06T07:44:19Z</time>
      </trkpt>
      <trkpt lat="33.68721" lon="77.71295">
        <ele>4141.6</ele>
        <time>2015-09-06T07:44:24Z</time>
      </trkpt>
      <trkpt lat="33.68721" lon="77.71296">
        <ele>4141.4</ele>
        <time>2015-09-06T07:44:25Z</time>
      </trkpt>
      <trkpt lat="33.6872" lon="77.71304">
        <ele>4141</ele>
        <time>2015-09-06T07:44:31Z</time>
      </trkpt>
      <trkpt lat="33.6872" lon="77.71305">
        <ele>4140.8</ele>
        <time>2015-09-06T07:44:33Z</time>
      </trkpt>
      <trkpt lat="33.68718" lon="77.71305">
        <ele>4140.6</ele>
        <time>2015-09-06T07:44:36Z</time>
      </trkpt>
      <trkpt lat="33.68716" lon="77.71309">
        <ele>4139.6</ele>
        <time>2015-09-06T07:44:42Z</time>
      </trkpt>
      <trkpt lat="33.68712" lon="77.71313">
        <ele>4139</ele>
        <time>2015-09-06T07:44:48Z</time>
      </trkpt>
      <trkpt lat="33.68708" lon="77.71316">
        <ele>4138.4</ele>
        <time>2015-09-06T07:44:54Z</time>
      </trkpt>
      <trkpt lat="33.68702" lon="77.71315">
        <ele>4137.4</ele>
        <time>2015-09-06T07:45:03Z</time>
      </trkpt>
      <trkpt lat="33.687" lon="77.71315">
        <ele>4137.4</ele>
        <time>2015-09-06T07:45:13Z</time>
      </trkpt>
      <trkpt lat="33.68698" lon="77.71312">
        <ele>4138.6</ele>
        <time>2015-09-06T07:45:26Z</time>
      </trkpt>
      <trkpt lat="33.68688" lon="77.71319">
        <ele>4137.4</ele>
        <time>2015-09-06T07:46:02Z</time>
      </trkpt>
      <trkpt lat="33.68681" lon="77.71321">
        <ele>4136.8</ele>
        <time>2015-09-06T07:46:24Z</time>
      </trkpt>
      <trkpt lat="33.6868" lon="77.71324">
        <ele>4136.8</ele>
        <time>2015-09-06T07:46:28Z</time>
      </trkpt>
      <trkpt lat="33.68675" lon="77.71325">
        <ele>4136.4</ele>
        <time>2015-09-06T07:46:58Z</time>
      </trkpt>
      <trkpt lat="33.68674" lon="77.71323">
        <ele>4135.4</ele>
        <time>2015-09-06T07:47:07Z</time>
      </trkpt>
      <trkpt lat="33.68677" lon="77.71324">
        <ele>4135.4</ele>
        <time>2015-09-06T07:47:14Z</time>
      </trkpt>
      <trkpt lat="33.68679" lon="77.71325">
        <ele>4135.4</ele>
        <time>2015-09-06T07:47:16Z</time>
      </trkpt>
      <trkpt lat="33.6868" lon="77.71326">
        <ele>4135.6</ele>
        <time>2015-09-06T07:47:19Z</time>
      </trkpt>
      <trkpt lat="33.68673" lon="77.71324">
        <ele>4136</ele>
        <time>2015-09-06T07:48:25Z</time>
      </trkpt>
      <trkpt lat="33.68668" lon="77.71336">
        <ele>4135.2</ele>
        <time>2015-09-06T07:49:17Z</time>
      </trkpt>
      <trkpt lat="33.6867" lon="77.71345">
        <ele>4134.4</ele>
        <time>2015-09-06T07:49:26Z</time>
      </trkpt>
      <trkpt lat="33.6867" lon="77.71346">
        <ele>4134.4</ele>
        <time>2015-09-06T07:49:28Z</time>
      </trkpt>
      <trkpt lat="33.68659" lon="77.71355">
        <ele>4133.2</ele>
        <time>2015-09-06T07:49:52Z</time>
      </trkpt>
      <trkpt lat="33.68646" lon="77.71369">
        <ele>4133.2</ele>
        <time>2015-09-06T07:50:20Z</time>
      </trkpt>
      <trkpt lat="33.68641" lon="77.71372">
        <ele>4134.2</ele>
        <time>2015-09-06T07:50:28Z</time>
      </trkpt>
      <trkpt lat="33.68638" lon="77.71377">
        <ele>4135.4</ele>
        <time>2015-09-06T07:50:37Z</time>
      </trkpt>
      <trkpt lat="33.68633" lon="77.71388">
        <ele>4134.2</ele>
        <time>2015-09-06T07:51:00Z</time>
      </trkpt>
      <trkpt lat="33.68632" lon="77.7139">
        <ele>4133.8</ele>
        <time>2015-09-06T07:51:02Z</time>
      </trkpt>
      <trkpt lat="33.6863" lon="77.71398">
        <ele>4134</ele>
        <time>2015-09-06T07:51:16Z</time>
      </trkpt>
      <trkpt lat="33.68628" lon="77.71404">
        <ele>4133.2</ele>
        <time>2015-09-06T07:51:29Z</time>
      </trkpt>
      <trkpt lat="33.68629" lon="77.7141">
        <ele>4132</ele>
        <time>2015-09-06T07:51:42Z</time>
      </trkpt>
      <trkpt lat="33.68627" lon="77.7142">
        <ele>4131</ele>
        <time>2015-09-06T07:51:54Z</time>
      </trkpt>
      <trkpt lat="33.68622" lon="77.71428">
        <ele>4130</ele>
        <time>2015-09-06T07:52:05Z</time>
      </trkpt>
      <trkpt lat="33.68617" lon="77.71433">
        <ele>4129</ele>
        <time>2015-09-06T07:52:14Z</time>
      </trkpt>
      <trkpt lat="33.68613" lon="77.71436">
        <ele>4127.8</ele>
        <time>2015-09-06T07:52:22Z</time>
      </trkpt>
      <trkpt lat="33.68608" lon="77.71441">
        <ele>4126.8</ele>
        <time>2015-09-06T07:52:33Z</time>
      </trkpt>
      <trkpt lat="33.68605" lon="77.71447">
        <ele>4125.8</ele>
        <time>2015-09-06T07:52:46Z</time>
      </trkpt>
      <trkpt lat="33.68601" lon="77.7146">
        <ele>4124.8</ele>
        <time>2015-09-06T07:53:05Z</time>
      </trkpt>
      <trkpt lat="33.68596" lon="77.71473">
        <ele>4123.6</ele>
        <time>2015-09-06T07:53:25Z</time>
      </trkpt>
      <trkpt lat="33.68594" lon="77.71491">
        <ele>4122.6</ele>
        <time>2015-09-06T07:53:53Z</time>
      </trkpt>
      <trkpt lat="33.68589" lon="77.71505">
        <ele>4121.6</ele>
        <time>2015-09-06T07:54:13Z</time>
      </trkpt>
      <trkpt lat="33.68582" lon="77.71518">
        <ele>4121</ele>
        <time>2015-09-06T07:54:26Z</time>
      </trkpt>
      <trkpt lat="33.6858" lon="77.7152">
        <ele>4120.4</ele>
        <time>2015-09-06T07:54:28Z</time>
      </trkpt>
      <trkpt lat="33.68579" lon="77.71522">
        <ele>4120.4</ele>
        <time>2015-09-06T07:54:31Z</time>
      </trkpt>
      <trkpt lat="33.68575" lon="77.71533">
        <ele>4119.4</ele>
        <time>2015-09-06T07:54:48Z</time>
      </trkpt>
      <trkpt lat="33.68567" lon="77.71546">
        <ele>4118.4</ele>
        <time>2015-09-06T07:55:08Z</time>
      </trkpt>
      <trkpt lat="33.68567" lon="77.71555">
        <ele>4117.2</ele>
        <time>2015-09-06T07:55:22Z</time>
      </trkpt>
      <trkpt lat="33.68557" lon="77.71573">
        <ele>4117.4</ele>
        <time>2015-09-06T07:55:49Z</time>
      </trkpt>
      <trkpt lat="33.68554" lon="77.71579">
        <ele>4117.8</ele>
        <time>2015-09-06T07:55:56Z</time>
      </trkpt>
      <trkpt lat="33.68556" lon="77.71597">
        <ele>4116.2</ele>
        <time>2015-09-06T07:56:27Z</time>
      </trkpt>
      <trkpt lat="33.68551" lon="77.71603">
        <ele>4115.4</ele>
        <time>2015-09-06T07:56:39Z</time>
      </trkpt>
      <trkpt lat="33.68548" lon="77.71606">
        <ele>4115.2</ele>
        <time>2015-09-06T07:56:43Z</time>
      </trkpt>
      <trkpt lat="33.68547" lon="77.71607">
        <ele>4115</ele>
        <time>2015-09-06T07:56:45Z</time>
      </trkpt>
      <trkpt lat="33.68543" lon="77.71611">
        <ele>4114</ele>
        <time>2015-09-06T07:56:56Z</time>
      </trkpt>
      <trkpt lat="33.68542" lon="77.71613">
        <ele>4113.8</ele>
        <time>2015-09-06T07:56:58Z</time>
      </trkpt>
      <trkpt lat="33.68542" lon="77.71625">
        <ele>4113</ele>
        <time>2015-09-06T07:57:08Z</time>
      </trkpt>
      <trkpt lat="33.68538" lon="77.71639">
        <ele>4112</ele>
        <time>2015-09-06T07:57:29Z</time>
      </trkpt>
      <trkpt lat="33.6853" lon="77.7164">
        <ele>4111.4</ele>
        <time>2015-09-06T07:57:37Z</time>
      </trkpt>
      <trkpt lat="33.68526" lon="77.71643">
        <ele>4111</ele>
        <time>2015-09-06T07:57:42Z</time>
      </trkpt>
      <trkpt lat="33.6852" lon="77.71651">
        <ele>4110</ele>
        <time>2015-09-06T07:57:56Z</time>
      </trkpt>
      <trkpt lat="33.6852" lon="77.71652">
        <ele>4109.8</ele>
        <time>2015-09-06T07:57:57Z</time>
      </trkpt>
      <trkpt lat="33.6852" lon="77.71657">
        <ele>4109.6</ele>
        <time>2015-09-06T07:58:01Z</time>
      </trkpt>
      <trkpt lat="33.68512" lon="77.71658">
        <ele>4111</ele>
        <time>2015-09-06T07:58:17Z</time>
      </trkpt>
      <trkpt lat="33.68498" lon="77.7167">
        <ele>4111.4</ele>
        <time>2015-09-06T07:58:42Z</time>
      </trkpt>
      <trkpt lat="33.68497" lon="77.71672">
        <ele>4111.4</ele>
        <time>2015-09-06T07:58:43Z</time>
      </trkpt>
      <trkpt lat="33.68496" lon="77.7168">
        <ele>4110.8</ele>
        <time>2015-09-06T07:58:51Z</time>
      </trkpt>
      <trkpt lat="33.68494" lon="77.71693">
        <ele>4110</ele>
        <time>2015-09-06T07:59:22Z</time>
      </trkpt>
      <trkpt lat="33.6849" lon="77.71714">
        <ele>4109</ele>
        <time>2015-09-06T07:59:49Z</time>
      </trkpt>
      <trkpt lat="33.6849" lon="77.71715">
        <ele>4109</ele>
        <time>2015-09-06T07:59:50Z</time>
      </trkpt>
      <trkpt lat="33.6849" lon="77.71716">
        <ele>4108.8</ele>
        <time>2015-09-06T07:59:51Z</time>
      </trkpt>
      <trkpt lat="33.68489" lon="77.71717">
        <ele>4108.6</ele>
        <time>2015-09-06T07:59:53Z</time>
      </trkpt>
      <trkpt lat="33.68486" lon="77.71723">
        <ele>4107.8</ele>
        <time>2015-09-06T08:00:03Z</time>
      </trkpt>
      <trkpt lat="33.68489" lon="77.71732">
        <ele>4106.8</ele>
        <time>2015-09-06T08:00:17Z</time>
      </trkpt>
      <trkpt lat="33.68493" lon="77.71738">
        <ele>4106</ele>
        <time>2015-09-06T08:00:22Z</time>
      </trkpt>
      <trkpt lat="33.68493" lon="77.7174">
        <ele>4105.8</ele>
        <time>2015-09-06T08:00:23Z</time>
      </trkpt>
      <trkpt lat="33.6849" lon="77.71742">
        <ele>4105.4</ele>
        <time>2015-09-06T08:00:26Z</time>
      </trkpt>
      <trkpt lat="33.68482" lon="77.7175">
        <ele>4105</ele>
        <time>2015-09-06T08:00:37Z</time>
      </trkpt>
      <trkpt lat="33.68479" lon="77.71754">
        <ele>4105</ele>
        <time>2015-09-06T08:00:41Z</time>
      </trkpt>
      <trkpt lat="33.68477" lon="77.71758">
        <ele>4104.8</ele>
        <time>2015-09-06T08:00:47Z</time>
      </trkpt>
      <trkpt lat="33.68474" lon="77.71772">
        <ele>4103.6</ele>
        <time>2015-09-06T08:01:09Z</time>
      </trkpt>
      <trkpt lat="33.68473" lon="77.71778">
        <ele>4102.6</ele>
        <time>2015-09-06T08:01:18Z</time>
      </trkpt>
      <trkpt lat="33.68474" lon="77.71783">
        <ele>4101.6</ele>
        <time>2015-09-06T08:01:27Z</time>
      </trkpt>
      <trkpt lat="33.68473" lon="77.71787">
        <ele>4100.4</ele>
        <time>2015-09-06T08:01:35Z</time>
      </trkpt>
      <trkpt lat="33.68473" lon="77.71802">
        <ele>4099.4</ele>
        <time>2015-09-06T08:02:00Z</time>
      </trkpt>
      <trkpt lat="33.68472" lon="77.71816">
        <ele>4098.4</ele>
        <time>2015-09-06T08:02:21Z</time>
      </trkpt>
      <trkpt lat="33.68472" lon="77.71819">
        <ele>4098.4</ele>
        <time>2015-09-06T08:02:24Z</time>
      </trkpt>
      <trkpt lat="33.68468" lon="77.71828">
        <ele>4097.4</ele>
        <time>2015-09-06T08:02:38Z</time>
      </trkpt>
      <trkpt lat="33.68463" lon="77.71836">
        <ele>4096.2</ele>
        <time>2015-09-06T08:02:55Z</time>
      </trkpt>
      <trkpt lat="33.68459" lon="77.71842">
        <ele>4095.2</ele>
        <time>2015-09-06T08:03:05Z</time>
      </trkpt>
      <trkpt lat="33.68456" lon="77.71843">
        <ele>4095</ele>
        <time>2015-09-06T08:03:09Z</time>
      </trkpt>
      <trkpt lat="33.68451" lon="77.71843">
        <ele>4094.2</ele>
        <time>2015-09-06T08:03:15Z</time>
      </trkpt>
      <trkpt lat="33.68447" lon="77.71844">
        <ele>4093.6</ele>
        <time>2015-09-06T08:03:20Z</time>
      </trkpt>
      <trkpt lat="33.68445" lon="77.71846">
        <ele>4093.2</ele>
        <time>2015-09-06T08:03:23Z</time>
      </trkpt>
      <trkpt lat="33.68444" lon="77.71847">
        <ele>4093</ele>
        <time>2015-09-06T08:03:25Z</time>
      </trkpt>
      <trkpt lat="33.68442" lon="77.71847">
        <ele>4093</ele>
        <time>2015-09-06T08:03:27Z</time>
      </trkpt>
      <trkpt lat="33.68439" lon="77.71848">
        <ele>4092.8</ele>
        <time>2015-09-06T08:03:29Z</time>
      </trkpt>
      <trkpt lat="33.68438" lon="77.71853">
        <ele>4092</ele>
        <time>2015-09-06T08:03:34Z</time>
      </trkpt>
      <trkpt lat="33.68438" lon="77.71857">
        <ele>4091.6</ele>
        <time>2015-09-06T08:03:38Z</time>
      </trkpt>
      <trkpt lat="33.68438" lon="77.71862">
        <ele>4091</ele>
        <time>2015-09-06T08:03:45Z</time>
      </trkpt>
      <trkpt lat="33.68437" lon="77.7187">
        <ele>4090</ele>
        <time>2015-09-06T08:03:53Z</time>
      </trkpt>
      <trkpt lat="33.68438" lon="77.71874">
        <ele>4089.8</ele>
        <time>2015-09-06T08:03:56Z</time>
      </trkpt>
      <trkpt lat="33.68438" lon="77.71883">
        <ele>4089.4</ele>
        <time>2015-09-06T08:04:05Z</time>
      </trkpt>
      <trkpt lat="33.6843" lon="77.71885">
        <ele>4088.8</ele>
        <time>2015-09-06T08:04:11Z</time>
      </trkpt>
      <trkpt lat="33.68429" lon="77.71886">
        <ele>4088.8</ele>
        <time>2015-09-06T08:04:12Z</time>
      </trkpt>
      <trkpt lat="33.68427" lon="77.71888">
        <ele>4088.8</ele>
        <time>2015-09-06T08:04:14Z</time>
      </trkpt>
      <trkpt lat="33.68421" lon="77.71892">
        <ele>4088.4</ele>
        <time>2015-09-06T08:04:20Z</time>
      </trkpt>
      <trkpt lat="33.68418" lon="77.71894">
        <ele>4088.4</ele>
        <time>2015-09-06T08:04:24Z</time>
      </trkpt>
      <trkpt lat="33.68414" lon="77.71903">
        <ele>4088.8</ele>
        <time>2015-09-06T08:04:34Z</time>
      </trkpt>
      <trkpt lat="33.68414" lon="77.71908">
        <ele>4087.8</ele>
        <time>2015-09-06T08:04:38Z</time>
      </trkpt>
      <trkpt lat="33.68413" lon="77.71914">
        <ele>4087</ele>
        <time>2015-09-06T08:04:43Z</time>
      </trkpt>
      <trkpt lat="33.68413" lon="77.71918">
        <ele>4086.6</ele>
        <time>2015-09-06T08:04:46Z</time>
      </trkpt>
      <trkpt lat="33.68409" lon="77.71921">
        <ele>4087</ele>
        <time>2015-09-06T08:04:51Z</time>
      </trkpt>
      <trkpt lat="33.68406" lon="77.71922">
        <ele>4087.8</ele>
        <time>2015-09-06T08:04:54Z</time>
      </trkpt>
      <trkpt lat="33.68402" lon="77.71923">
        <ele>4088.6</ele>
        <time>2015-09-06T08:04:59Z</time>
      </trkpt>
      <trkpt lat="33.684" lon="77.71924">
        <ele>4088.8</ele>
        <time>2015-09-06T08:05:01Z</time>
      </trkpt>
      <trkpt lat="33.68397" lon="77.71926">
        <ele>4088.4</ele>
        <time>2015-09-06T08:05:06Z</time>
      </trkpt>
      <trkpt lat="33.68394" lon="77.71927">
        <ele>4088.4</ele>
        <time>2015-09-06T08:05:09Z</time>
      </trkpt>
      <trkpt lat="33.68393" lon="77.71927">
        <ele>4088.4</ele>
        <time>2015-09-06T08:05:11Z</time>
      </trkpt>
      <trkpt lat="33.68389" lon="77.7193">
        <ele>4087.8</ele>
        <time>2015-09-06T08:05:19Z</time>
      </trkpt>
      <trkpt lat="33.68388" lon="77.71932">
        <ele>4087.6</ele>
        <time>2015-09-06T08:05:20Z</time>
      </trkpt>
      <trkpt lat="33.68387" lon="77.71936">
        <ele>4087.4</ele>
        <time>2015-09-06T08:05:22Z</time>
      </trkpt>
      <trkpt lat="33.68387" lon="77.71938">
        <ele>4087</ele>
        <time>2015-09-06T08:05:24Z</time>
      </trkpt>
      <trkpt lat="33.68385" lon="77.71939">
        <ele>4086.8</ele>
        <time>2015-09-06T08:05:26Z</time>
      </trkpt>
      <trkpt lat="33.68384" lon="77.71939">
        <ele>4086.6</ele>
        <time>2015-09-06T08:05:27Z</time>
      </trkpt>
      <trkpt lat="33.68373" lon="77.71941">
        <ele>4085.8</ele>
        <time>2015-09-06T08:05:37Z</time>
      </trkpt>
      <trkpt lat="33.68366" lon="77.71944">
        <ele>4084.8</ele>
        <time>2015-09-06T08:05:51Z</time>
      </trkpt>
      <trkpt lat="33.6836" lon="77.71959">
        <ele>4083.6</ele>
        <time>2015-09-06T08:06:18Z</time>
      </trkpt>
      <trkpt lat="33.6836" lon="77.71975">
        <ele>4083</ele>
        <time>2015-09-06T08:07:07Z</time>
      </trkpt>
      <trkpt lat="33.6836" lon="77.71979">
        <ele>4084</ele>
        <time>2015-09-06T08:07:22Z</time>
      </trkpt>
      <trkpt lat="33.68358" lon="77.72">
        <ele>4083</ele>
        <time>2015-09-06T08:07:55Z</time>
      </trkpt>
      <trkpt lat="33.68358" lon="77.72001">
        <ele>4083.2</ele>
        <time>2015-09-06T08:07:56Z</time>
      </trkpt>
      <trkpt lat="33.68355" lon="77.72013">
        <ele>4082.6</ele>
        <time>2015-09-06T08:08:12Z</time>
      </trkpt>
      <trkpt lat="33.68355" lon="77.72026">
        <ele>4081.6</ele>
        <time>2015-09-06T08:08:30Z</time>
      </trkpt>
      <trkpt lat="33.68351" lon="77.72028">
        <ele>4080.4</ele>
        <time>2015-09-06T08:08:37Z</time>
      </trkpt>
      <trkpt lat="33.6835" lon="77.7203">
        <ele>4080</ele>
        <time>2015-09-06T08:08:39Z</time>
      </trkpt>
      <trkpt lat="33.68351" lon="77.72041">
        <ele>4080.4</ele>
        <time>2015-09-06T08:08:49Z</time>
      </trkpt>
      <trkpt lat="33.68349" lon="77.72049">
        <ele>4080.6</ele>
        <time>2015-09-06T08:08:56Z</time>
      </trkpt>
      <trkpt lat="33.68339" lon="77.72062">
        <ele>4079.2</ele>
        <time>2015-09-06T08:09:09Z</time>
      </trkpt>
      <trkpt lat="33.68336" lon="77.72065">
        <ele>4079</ele>
        <time>2015-09-06T08:09:13Z</time>
      </trkpt>
      <trkpt lat="33.68327" lon="77.72067">
        <ele>4079.4</ele>
        <time>2015-09-06T08:09:23Z</time>
      </trkpt>
      <trkpt lat="33.68325" lon="77.72066">
        <ele>4079.6</ele>
        <time>2015-09-06T08:09:25Z</time>
      </trkpt>
      <trkpt lat="33.68322" lon="77.72067">
        <ele>4079.6</ele>
        <time>2015-09-06T08:09:30Z</time>
      </trkpt>
      <trkpt lat="33.68319" lon="77.7207">
        <ele>4079.6</ele>
        <time>2015-09-06T08:09:33Z</time>
      </trkpt>
      <trkpt lat="33.68318" lon="77.72071">
        <ele>4079.4</ele>
        <time>2015-09-06T08:09:35Z</time>
      </trkpt>
      <trkpt lat="33.68316" lon="77.72077">
        <ele>4079.8</ele>
        <time>2015-09-06T08:09:39Z</time>
      </trkpt>
      <trkpt lat="33.68314" lon="77.7208">
        <ele>4080.4</ele>
        <time>2015-09-06T08:09:42Z</time>
      </trkpt>
      <trkpt lat="33.68314" lon="77.72081">
        <ele>4080.6</ele>
        <time>2015-09-06T08:09:43Z</time>
      </trkpt>
      <trkpt lat="33.68308" lon="77.72095">
        <ele>4081</ele>
        <time>2015-09-06T08:10:02Z</time>
      </trkpt>
      <trkpt lat="33.68296" lon="77.72102">
        <ele>4079.8</ele>
        <time>2015-09-06T08:10:15Z</time>
      </trkpt>
      <trkpt lat="33.68293" lon="77.72105">
        <ele>4079.4</ele>
        <time>2015-09-06T08:10:22Z</time>
      </trkpt>
      <trkpt lat="33.68286" lon="77.72113">
        <ele>4078.6</ele>
        <time>2015-09-06T08:10:33Z</time>
      </trkpt>
      <trkpt lat="33.68284" lon="77.72116">
        <ele>4078.6</ele>
        <time>2015-09-06T08:10:36Z</time>
      </trkpt>
      <trkpt lat="33.68283" lon="77.72117">
        <ele>4078.8</ele>
        <time>2015-09-06T08:10:38Z</time>
      </trkpt>
      <trkpt lat="33.68278" lon="77.72123">
        <ele>4078.6</ele>
        <time>2015-09-06T08:10:47Z</time>
      </trkpt>
      <trkpt lat="33.68277" lon="77.72125">
        <ele>4078.6</ele>
        <time>2015-09-06T08:10:50Z</time>
      </trkpt>
      <trkpt lat="33.68274" lon="77.72129">
        <ele>4078.6</ele>
        <time>2015-09-06T08:10:54Z</time>
      </trkpt>
      <trkpt lat="33.6827" lon="77.72132">
        <ele>4078.4</ele>
        <time>2015-09-06T08:11:00Z</time>
      </trkpt>
      <trkpt lat="33.68269" lon="77.72135">
        <ele>4077.6</ele>
        <time>2015-09-06T08:11:05Z</time>
      </trkpt>
      <trkpt lat="33.68274" lon="77.72131">
        <ele>4077.6</ele>
        <time>2015-09-06T08:11:14Z</time>
      </trkpt>
      <trkpt lat="33.6829" lon="77.72136">
        <ele>4077.8</ele>
        <time>2015-09-06T08:11:33Z</time>
      </trkpt>
      <trkpt lat="33.68288" lon="77.72137">
        <ele>4077.8</ele>
        <time>2015-09-06T08:11:34Z</time>
      </trkpt>
      <trkpt lat="33.68282" lon="77.7214">
        <ele>4077.2</ele>
        <time>2015-09-06T08:11:38Z</time>
      </trkpt>
      <trkpt lat="33.6828" lon="77.72142">
        <ele>4077</ele>
        <time>2015-09-06T08:11:41Z</time>
      </trkpt>
      <trkpt lat="33.68277" lon="77.72145">
        <ele>4076.4</ele>
        <time>2015-09-06T08:11:44Z</time>
      </trkpt>
      <trkpt lat="33.68275" lon="77.72147">
        <ele>4076.2</ele>
        <time>2015-09-06T08:11:46Z</time>
      </trkpt>
      <trkpt lat="33.68273" lon="77.72149">
        <ele>4076.2</ele>
        <time>2015-09-06T08:11:48Z</time>
      </trkpt>
      <trkpt lat="33.68268" lon="77.72153">
        <ele>4075.4</ele>
        <time>2015-09-06T08:11:52Z</time>
      </trkpt>
      <trkpt lat="33.68267" lon="77.72154">
        <ele>4075.2</ele>
        <time>2015-09-06T08:11:53Z</time>
      </trkpt>
      <trkpt lat="33.68267" lon="77.72155">
        <ele>4075</ele>
        <time>2015-09-06T08:11:54Z</time>
      </trkpt>
      <trkpt lat="33.68264" lon="77.7216">
        <ele>4074.8</ele>
        <time>2015-09-06T08:11:58Z</time>
      </trkpt>
      <trkpt lat="33.68263" lon="77.72162">
        <ele>4074.6</ele>
        <time>2015-09-06T08:12:00Z</time>
      </trkpt>
      <trkpt lat="33.6826" lon="77.72166">
        <ele>4074.2</ele>
        <time>2015-09-06T08:12:06Z</time>
      </trkpt>
      <trkpt lat="33.68261" lon="77.72168">
        <ele>4074</ele>
        <time>2015-09-06T08:12:08Z</time>
      </trkpt>
      <trkpt lat="33.68259" lon="77.72173">
        <ele>4073.8</ele>
        <time>2015-09-06T08:12:12Z</time>
      </trkpt>
      <trkpt lat="33.68259" lon="77.72175">
        <ele>4073.6</ele>
        <time>2015-09-06T08:12:14Z</time>
      </trkpt>
      <trkpt lat="33.68255" lon="77.7218">
        <ele>4073.4</ele>
        <time>2015-09-06T08:12:19Z</time>
      </trkpt>
      <trkpt lat="33.68253" lon="77.7218">
        <ele>4073.2</ele>
        <time>2015-09-06T08:12:21Z</time>
      </trkpt>
      <trkpt lat="33.68251" lon="77.72181">
        <ele>4073.4</ele>
        <time>2015-09-06T08:12:23Z</time>
      </trkpt>
      <trkpt lat="33.6825" lon="77.72183">
        <ele>4073</ele>
        <time>2015-09-06T08:12:32Z</time>
      </trkpt>
      <trkpt lat="33.68251" lon="77.72186">
        <ele>4072.6</ele>
        <time>2015-09-06T08:12:49Z</time>
      </trkpt>
      <trkpt lat="33.68251" lon="77.72185">
        <ele>4072.2</ele>
        <time>2015-09-06T08:13:06Z</time>
      </trkpt>
      <trkpt lat="33.68248" lon="77.72189">
        <ele>4072</ele>
        <time>2015-09-06T08:13:10Z</time>
      </trkpt>
      <trkpt lat="33.68249" lon="77.72201">
        <ele>4071.6</ele>
        <time>2015-09-06T08:13:43Z</time>
      </trkpt>
      <trkpt lat="33.68245" lon="77.72205">
        <ele>4071.2</ele>
        <time>2015-09-06T08:13:48Z</time>
      </trkpt>
      <trkpt lat="33.68244" lon="77.72207">
        <ele>4071</ele>
        <time>2015-09-06T08:13:51Z</time>
      </trkpt>
      <trkpt lat="33.68243" lon="77.72213">
        <ele>4070.8</ele>
        <time>2015-09-06T08:13:57Z</time>
      </trkpt>
      <trkpt lat="33.68241" lon="77.72221">
        <ele>4069.8</ele>
        <time>2015-09-06T08:14:10Z</time>
      </trkpt>
      <trkpt lat="33.68241" lon="77.72224">
        <ele>4069.4</ele>
        <time>2015-09-06T08:14:13Z</time>
      </trkpt>
      <trkpt lat="33.68239" lon="77.72226">
        <ele>4068.8</ele>
        <time>2015-09-06T08:14:16Z</time>
      </trkpt>
      <trkpt lat="33.68235" lon="77.72233">
        <ele>4068.4</ele>
        <time>2015-09-06T08:14:21Z</time>
      </trkpt>
      <trkpt lat="33.68234" lon="77.72241">
        <ele>4067.8</ele>
        <time>2015-09-06T08:14:27Z</time>
      </trkpt>
      <trkpt lat="33.68232" lon="77.72245">
        <ele>4067.6</ele>
        <time>2015-09-06T08:14:29Z</time>
      </trkpt>
      <trkpt lat="33.68223" lon="77.72264">
        <ele>4067.2</ele>
        <time>2015-09-06T08:14:44Z</time>
      </trkpt>
      <trkpt lat="33.68221" lon="77.72271">
        <ele>4066.4</ele>
        <time>2015-09-06T08:14:50Z</time>
      </trkpt>
      <trkpt lat="33.68221" lon="77.72273">
        <ele>4065.2</ele>
        <time>2015-09-06T08:14:53Z</time>
      </trkpt>
      <trkpt lat="33.68219" lon="77.72276">
        <ele>4064</ele>
        <time>2015-09-06T08:14:56Z</time>
      </trkpt>
      <trkpt lat="33.68215" lon="77.72281">
        <ele>4062.8</ele>
        <time>2015-09-06T08:15:04Z</time>
      </trkpt>
      <trkpt lat="33.68214" lon="77.72286">
        <ele>4061.8</ele>
        <time>2015-09-06T08:15:08Z</time>
      </trkpt>
      <trkpt lat="33.68211" lon="77.72291">
        <ele>4060.6</ele>
        <time>2015-09-06T08:15:13Z</time>
      </trkpt>
      <trkpt lat="33.68209" lon="77.72294">
        <ele>4060.4</ele>
        <time>2015-09-06T08:15:16Z</time>
      </trkpt>
      <trkpt lat="33.68207" lon="77.72301">
        <ele>4059.6</ele>
        <time>2015-09-06T08:15:30Z</time>
      </trkpt>
      <trkpt lat="33.68204" lon="77.72302">
        <ele>4058.6</ele>
        <time>2015-09-06T08:15:36Z</time>
      </trkpt>
      <trkpt lat="33.68201" lon="77.723">
        <ele>4057.8</ele>
        <time>2015-09-06T08:15:40Z</time>
      </trkpt>
      <trkpt lat="33.68198" lon="77.72302">
        <ele>4057.4</ele>
        <time>2015-09-06T08:15:44Z</time>
      </trkpt>
      <trkpt lat="33.68195" lon="77.72304">
        <ele>4056.4</ele>
        <time>2015-09-06T08:15:50Z</time>
      </trkpt>
      <trkpt lat="33.68192" lon="77.72306">
        <ele>4056</ele>
        <time>2015-09-06T08:15:53Z</time>
      </trkpt>
      <trkpt lat="33.68189" lon="77.72306">
        <ele>4055.6</ele>
        <time>2015-09-06T08:15:55Z</time>
      </trkpt>
      <trkpt lat="33.68187" lon="77.72306">
        <ele>4055.4</ele>
        <time>2015-09-06T08:15:57Z</time>
      </trkpt>
      <trkpt lat="33.68183" lon="77.72312">
        <ele>4055</ele>
        <time>2015-09-06T08:16:06Z</time>
      </trkpt>
      <trkpt lat="33.68183" lon="77.72313">
        <ele>4054.8</ele>
        <time>2015-09-06T08:16:07Z</time>
      </trkpt>
      <trkpt lat="33.68181" lon="77.72314">
        <ele>4054.6</ele>
        <time>2015-09-06T08:16:09Z</time>
      </trkpt>
      <trkpt lat="33.68178" lon="77.72319">
        <ele>4054.4</ele>
        <time>2015-09-06T08:16:14Z</time>
      </trkpt>
      <trkpt lat="33.68176" lon="77.72322">
        <ele>4054.2</ele>
        <time>2015-09-06T08:16:17Z</time>
      </trkpt>
      <trkpt lat="33.68173" lon="77.7233">
        <ele>4054.4</ele>
        <time>2015-09-06T08:16:27Z</time>
      </trkpt>
      <trkpt lat="33.68169" lon="77.72334">
        <ele>4054</ele>
        <time>2015-09-06T08:16:32Z</time>
      </trkpt>
      <trkpt lat="33.68154" lon="77.72342">
        <ele>4054.2</ele>
        <time>2015-09-06T08:16:51Z</time>
      </trkpt>
      <trkpt lat="33.68144" lon="77.72346">
        <ele>4053.2</ele>
        <time>2015-09-06T08:17:10Z</time>
      </trkpt>
      <trkpt lat="33.68144" lon="77.72348">
        <ele>4052.8</ele>
        <time>2015-09-06T08:17:12Z</time>
      </trkpt>
      <trkpt lat="33.68144" lon="77.72352">
        <ele>4052.6</ele>
        <time>2015-09-06T08:17:15Z</time>
      </trkpt>
      <trkpt lat="33.68143" lon="77.72361">
        <ele>4052.8</ele>
        <time>2015-09-06T08:17:23Z</time>
      </trkpt>
      <trkpt lat="33.6814" lon="77.72371">
        <ele>4052.2</ele>
        <time>2015-09-06T08:17:49Z</time>
      </trkpt>
      <trkpt lat="33.68136" lon="77.72366">
        <ele>4053</ele>
        <time>2015-09-06T08:18:07Z</time>
      </trkpt>
      <trkpt lat="33.68136" lon="77.72367">
        <ele>4051.2</ele>
        <time>2015-09-06T08:18:12Z</time>
      </trkpt>
      <trkpt lat="33.68141" lon="77.72372">
        <ele>4052.2</ele>
        <time>2015-09-06T08:18:59Z</time>
      </trkpt>
      <trkpt lat="33.68135" lon="77.72373">
        <ele>4051.2</ele>
        <time>2015-09-06T08:19:25Z</time>
      </trkpt>
      <trkpt lat="33.68134" lon="77.72373">
        <ele>4050.2</ele>
        <time>2015-09-06T08:19:36Z</time>
      </trkpt>
      <trkpt lat="33.6813" lon="77.72375">
        <ele>4050</ele>
        <time>2015-09-06T08:20:45Z</time>
      </trkpt>
      <trkpt lat="33.68133" lon="77.72378">
        <ele>4050.2</ele>
        <time>2015-09-06T08:21:24Z</time>
      </trkpt>
      <trkpt lat="33.68128" lon="77.7239">
        <ele>4050</ele>
        <time>2015-09-06T08:21:39Z</time>
      </trkpt>
      <trkpt lat="33.68124" lon="77.72408">
        <ele>4049.6</ele>
        <time>2015-09-06T08:21:55Z</time>
      </trkpt>
      <trkpt lat="33.68124" lon="77.72415">
        <ele>4049.2</ele>
        <time>2015-09-06T08:22:02Z</time>
      </trkpt>
      <trkpt lat="33.68123" lon="77.7242">
        <ele>4049.2</ele>
        <time>2015-09-06T08:22:07Z</time>
      </trkpt>
      <trkpt lat="33.68115" lon="77.72433">
        <ele>4048.4</ele>
        <time>2015-09-06T08:22:23Z</time>
      </trkpt>
      <trkpt lat="33.68114" lon="77.72437">
        <ele>4048.2</ele>
        <time>2015-09-06T08:22:27Z</time>
      </trkpt>
      <trkpt lat="33.68113" lon="77.72438">
        <ele>4048.2</ele>
        <time>2015-09-06T08:22:29Z</time>
      </trkpt>
      <trkpt lat="33.68111" lon="77.72447">
        <ele>4048.2</ele>
        <time>2015-09-06T08:22:40Z</time>
      </trkpt>
      <trkpt lat="33.68109" lon="77.7245">
        <ele>4048.2</ele>
        <time>2015-09-06T08:22:42Z</time>
      </trkpt>
      <trkpt lat="33.68106" lon="77.72466">
        <ele>4047.6</ele>
        <time>2015-09-06T08:22:56Z</time>
      </trkpt>
      <trkpt lat="33.68106" lon="77.72476">
        <ele>4047.4</ele>
        <time>2015-09-06T08:23:06Z</time>
      </trkpt>
      <trkpt lat="33.68101" lon="77.72487">
        <ele>4047.2</ele>
        <time>2015-09-06T08:23:18Z</time>
      </trkpt>
      <trkpt lat="33.68096" lon="77.72492">
        <ele>4047.2</ele>
        <time>2015-09-06T08:23:23Z</time>
      </trkpt>
      <trkpt lat="33.68091" lon="77.725">
        <ele>4047.2</ele>
        <time>2015-09-06T08:23:31Z</time>
      </trkpt>
      <trkpt lat="33.6809" lon="77.72501">
        <ele>4047.2</ele>
        <time>2015-09-06T08:23:33Z</time>
      </trkpt>
      <trkpt lat="33.68089" lon="77.72502">
        <ele>4047</ele>
        <time>2015-09-06T08:23:34Z</time>
      </trkpt>
      <trkpt lat="33.6808" lon="77.72521">
        <ele>4046.6</ele>
        <time>2015-09-06T08:23:58Z</time>
      </trkpt>
      <trkpt lat="33.68079" lon="77.72522">
        <ele>4046.6</ele>
        <time>2015-09-06T08:24:00Z</time>
      </trkpt>
      <trkpt lat="33.68075" lon="77.72526">
        <ele>4046.4</ele>
        <time>2015-09-06T08:24:06Z</time>
      </trkpt>
      <trkpt lat="33.68063" lon="77.72538">
        <ele>4047</ele>
        <time>2015-09-06T08:24:34Z</time>
      </trkpt>
      <trkpt lat="33.68061" lon="77.72538">
        <ele>4047</ele>
        <time>2015-09-06T08:24:35Z</time>
      </trkpt>
      <trkpt lat="33.68057" lon="77.72538">
        <ele>4046.8</ele>
        <time>2015-09-06T08:24:37Z</time>
      </trkpt>
      <trkpt lat="33.68056" lon="77.72538">
        <ele>4046</ele>
        <time>2015-09-06T08:24:44Z</time>
      </trkpt>
      <trkpt lat="33.68066" lon="77.72539">
        <ele>4046.4</ele>
        <time>2015-09-06T08:25:16Z</time>
      </trkpt>
      <trkpt lat="33.68064" lon="77.72537">
        <ele>4046.4</ele>
        <time>2015-09-06T08:25:19Z</time>
      </trkpt>
      <trkpt lat="33.68068" lon="77.72535">
        <ele>4046.2</ele>
        <time>2015-09-06T08:25:37Z</time>
      </trkpt>
      <trkpt lat="33.68066" lon="77.72537">
        <ele>4046.4</ele>
        <time>2015-09-06T08:25:53Z</time>
      </trkpt>
      <trkpt lat="33.68067" lon="77.72538">
        <ele>4047.2</ele>
        <time>2015-09-06T08:25:58Z</time>
      </trkpt>
      <trkpt lat="33.68066" lon="77.72544">
        <ele>4046.2</ele>
        <time>2015-09-06T08:26:09Z</time>
      </trkpt>
      <trkpt lat="33.68061" lon="77.72555">
        <ele>4046.2</ele>
        <time>2015-09-06T08:26:23Z</time>
      </trkpt>
      <trkpt lat="33.68056" lon="77.72563">
        <ele>4045.2</ele>
        <time>2015-09-06T08:26:34Z</time>
      </trkpt>
      <trkpt lat="33.68056" lon="77.72569">
        <ele>4044.2</ele>
        <time>2015-09-06T08:26:38Z</time>
      </trkpt>
      <trkpt lat="33.68054" lon="77.72571">
        <ele>4044</ele>
        <time>2015-09-06T08:26:40Z</time>
      </trkpt>
      <trkpt lat="33.68051" lon="77.72579">
        <ele>4044</ele>
        <time>2015-09-06T08:26:49Z</time>
      </trkpt>
      <trkpt lat="33.68049" lon="77.72585">
        <ele>4043.2</ele>
        <time>2015-09-06T08:26:54Z</time>
      </trkpt>
      <trkpt lat="33.68048" lon="77.72606">
        <ele>4042.2</ele>
        <time>2015-09-06T08:27:10Z</time>
      </trkpt>
      <trkpt lat="33.68047" lon="77.72619">
        <ele>4041</ele>
        <time>2015-09-06T08:27:21Z</time>
      </trkpt>
      <trkpt lat="33.68044" lon="77.72626">
        <ele>4039.8</ele>
        <time>2015-09-06T08:27:30Z</time>
      </trkpt>
      <trkpt lat="33.68044" lon="77.72645">
        <ele>4039.8</ele>
        <time>2015-09-06T08:27:53Z</time>
      </trkpt>
      <trkpt lat="33.68039" lon="77.72656">
        <ele>4039.2</ele>
        <time>2015-09-06T08:28:04Z</time>
      </trkpt>
      <trkpt lat="33.68034" lon="77.72665">
        <ele>4039.4</ele>
        <time>2015-09-06T08:28:13Z</time>
      </trkpt>
      <trkpt lat="33.68034" lon="77.72668">
        <ele>4039.4</ele>
        <time>2015-09-06T08:28:16Z</time>
      </trkpt>
      <trkpt lat="33.68033" lon="77.72677">
        <ele>4038.6</ele>
        <time>2015-09-06T08:28:29Z</time>
      </trkpt>
      <trkpt lat="33.68034" lon="77.72678">
        <ele>4037.4</ele>
        <time>2015-09-06T08:28:35Z</time>
      </trkpt>
      <trkpt lat="33.68033" lon="77.72686">
        <ele>4036.4</ele>
        <time>2015-09-06T08:28:49Z</time>
      </trkpt>
      <trkpt lat="33.68034" lon="77.72691">
        <ele>4035.4</ele>
        <time>2015-09-06T08:28:56Z</time>
      </trkpt>
      <trkpt lat="33.68035" lon="77.72698">
        <ele>4034.4</ele>
        <time>2015-09-06T08:29:08Z</time>
      </trkpt>
      <trkpt lat="33.68037" lon="77.72703">
        <ele>4033.4</ele>
        <time>2015-09-06T08:29:14Z</time>
      </trkpt>
      <trkpt lat="33.68039" lon="77.72714">
        <ele>4032.4</ele>
        <time>2015-09-06T08:29:25Z</time>
      </trkpt>
      <trkpt lat="33.68039" lon="77.72716">
        <ele>4032.2</ele>
        <time>2015-09-06T08:29:27Z</time>
      </trkpt>
      <trkpt lat="33.68038" lon="77.72725">
        <ele>4032</ele>
        <time>2015-09-06T08:29:35Z</time>
      </trkpt>
      <trkpt lat="33.68036" lon="77.72727">
        <ele>4031.8</ele>
        <time>2015-09-06T08:29:37Z</time>
      </trkpt>
      <trkpt lat="33.68033" lon="77.72742">
        <ele>4031.2</ele>
        <time>2015-09-06T08:29:49Z</time>
      </trkpt>
      <trkpt lat="33.68033" lon="77.72765">
        <ele>4031</ele>
        <time>2015-09-06T08:30:06Z</time>
      </trkpt>
      <trkpt lat="33.68028" lon="77.72776">
        <ele>4030.2</ele>
        <time>2015-09-06T08:30:17Z</time>
      </trkpt>
      <trkpt lat="33.68029" lon="77.72777">
        <ele>4030</ele>
        <time>2015-09-06T08:30:18Z</time>
      </trkpt>
      <trkpt lat="33.6803" lon="77.72787">
        <ele>4029.2</ele>
        <time>2015-09-06T08:30:25Z</time>
      </trkpt>
      <trkpt lat="33.68034" lon="77.72808">
        <ele>4028.4</ele>
        <time>2015-09-06T08:30:44Z</time>
      </trkpt>
      <trkpt lat="33.68034" lon="77.72811">
        <ele>4028.2</ele>
        <time>2015-09-06T08:30:46Z</time>
      </trkpt>
      <trkpt lat="33.68033" lon="77.72833">
        <ele>4027.2</ele>
        <time>2015-09-06T08:31:05Z</time>
      </trkpt>
      <trkpt lat="33.68033" lon="77.72835">
        <ele>4027.2</ele>
        <time>2015-09-06T08:31:07Z</time>
      </trkpt>
      <trkpt lat="33.68031" lon="77.72841">
        <ele>4027</ele>
        <time>2015-09-06T08:31:12Z</time>
      </trkpt>
      <trkpt lat="33.68031" lon="77.7285">
        <ele>4026.8</ele>
        <time>2015-09-06T08:31:20Z</time>
      </trkpt>
      <trkpt lat="33.68032" lon="77.72852">
        <ele>4026.6</ele>
        <time>2015-09-06T08:31:31Z</time>
      </trkpt>
      <trkpt lat="33.6803" lon="77.72857">
        <ele>4026.6</ele>
        <time>2015-09-06T08:31:36Z</time>
      </trkpt>
      <trkpt lat="33.6803" lon="77.72863">
        <ele>4026.2</ele>
        <time>2015-09-06T08:31:41Z</time>
      </trkpt>
      <trkpt lat="33.68029" lon="77.72877">
        <ele>4025.2</ele>
        <time>2015-09-06T08:31:53Z</time>
      </trkpt>
      <trkpt lat="33.68029" lon="77.72879">
        <ele>4025.2</ele>
        <time>2015-09-06T08:31:54Z</time>
      </trkpt>
      <trkpt lat="33.68029" lon="77.7288">
        <ele>4025</ele>
        <time>2015-09-06T08:31:55Z</time>
      </trkpt>
      <trkpt lat="33.68028" lon="77.72882">
        <ele>4025</ele>
        <time>2015-09-06T08:31:57Z</time>
      </trkpt>
      <trkpt lat="33.68026" lon="77.72883">
        <ele>4025</ele>
        <time>2015-09-06T08:31:59Z</time>
      </trkpt>
      <trkpt lat="33.68021" lon="77.72887">
        <ele>4024.6</ele>
        <time>2015-09-06T08:32:11Z</time>
      </trkpt>
      <trkpt lat="33.68018" lon="77.72893">
        <ele>4024.8</ele>
        <time>2015-09-06T08:32:16Z</time>
      </trkpt>
      <trkpt lat="33.68025" lon="77.72888">
        <ele>4025</ele>
        <time>2015-09-06T08:32:21Z</time>
      </trkpt>
      <trkpt lat="33.68027" lon="77.72886">
        <ele>4025</ele>
        <time>2015-09-06T08:32:23Z</time>
      </trkpt>
      <trkpt lat="33.68026" lon="77.72884">
        <ele>4024.8</ele>
        <time>2015-09-06T08:32:25Z</time>
      </trkpt>
      <trkpt lat="33.68026" lon="77.72882">
        <ele>4024.8</ele>
        <time>2015-09-06T08:32:28Z</time>
      </trkpt>
      <trkpt lat="33.68014" lon="77.72883">
        <ele>4024.6</ele>
        <time>2015-09-06T08:32:53Z</time>
      </trkpt>
      <trkpt lat="33.68004" lon="77.72881">
        <ele>4024.6</ele>
        <time>2015-09-06T08:33:03Z</time>
      </trkpt>
      <trkpt lat="33.67992" lon="77.72874">
        <ele>4024</ele>
        <time>2015-09-06T08:33:18Z</time>
      </trkpt>
      <trkpt lat="33.67985" lon="77.7287">
        <ele>4024.2</ele>
        <time>2015-09-06T08:33:27Z</time>
      </trkpt>
      <trkpt lat="33.67967" lon="77.72868">
        <ele>4024.4</ele>
        <time>2015-09-06T08:33:46Z</time>
      </trkpt>
      <trkpt lat="33.67966" lon="77.72867">
        <ele>4024.2</ele>
        <time>2015-09-06T08:33:47Z</time>
      </trkpt>
      <trkpt lat="33.6796" lon="77.72866">
        <ele>4025.2</ele>
        <time>2015-09-06T08:33:57Z</time>
      </trkpt>
      <trkpt lat="33.67937" lon="77.72866">
        <ele>4025.2</ele>
        <time>2015-09-06T08:34:17Z</time>
      </trkpt>
      <trkpt lat="33.67928" lon="77.7286">
        <ele>4025.4</ele>
        <time>2015-09-06T08:34:28Z</time>
      </trkpt>
      <trkpt lat="33.67929" lon="77.72858">
        <ele>4025.6</ele>
        <time>2015-09-06T08:34:35Z</time>
      </trkpt>
      <trkpt lat="33.67928" lon="77.72856">
        <ele>4026.2</ele>
        <time>2015-09-06T08:34:46Z</time>
      </trkpt>
      <trkpt lat="33.67943" lon="77.72867">
        <ele>4025.4</ele>
        <time>2015-09-06T08:35:06Z</time>
      </trkpt>
      <trkpt lat="33.67945" lon="77.72871">
        <ele>4025.2</ele>
        <time>2015-09-06T08:35:12Z</time>
      </trkpt>
      <trkpt lat="33.67946" lon="77.72872">
        <ele>4025.2</ele>
        <time>2015-09-06T08:35:13Z</time>
      </trkpt>
      <trkpt lat="33.67948" lon="77.72874">
        <ele>4025</ele>
        <time>2015-09-06T08:35:16Z</time>
      </trkpt>
      <trkpt lat="33.6795" lon="77.72871">
        <ele>4024.8</ele>
        <time>2015-09-06T08:35:18Z</time>
      </trkpt>
      <trkpt lat="33.67953" lon="77.72871">
        <ele>4024.6</ele>
        <time>2015-09-06T08:35:22Z</time>
      </trkpt>
      <trkpt lat="33.67953" lon="77.72872">
        <ele>4024.2</ele>
        <time>2015-09-06T08:35:36Z</time>
      </trkpt>
      <trkpt lat="33.67959" lon="77.72865">
        <ele>4023.8</ele>
        <time>2015-09-06T08:36:18Z</time>
      </trkpt>
      <trkpt lat="33.67955" lon="77.72868">
        <ele>4024.4</ele>
        <time>2015-09-06T08:36:34Z</time>
      </trkpt>
      <trkpt lat="33.67954" lon="77.72871">
        <ele>4024.6</ele>
        <time>2015-09-06T08:36:37Z</time>
      </trkpt>
      <trkpt lat="33.67955" lon="77.72866">
        <ele>4024.2</ele>
        <time>2015-09-06T08:37:10Z</time>
      </trkpt>
      <trkpt lat="33.6795" lon="77.72868">
        <ele>4023</ele>
        <time>2015-09-06T08:37:40Z</time>
      </trkpt>
      <trkpt lat="33.67949" lon="77.72878">
        <ele>4022.8</ele>
        <time>2015-09-06T08:37:55Z</time>
      </trkpt>
      <trkpt lat="33.67945" lon="77.72886">
        <ele>4022</ele>
        <time>2015-09-06T08:38:07Z</time>
      </trkpt>
      <trkpt lat="33.67944" lon="77.72887">
        <ele>4022</ele>
        <time>2015-09-06T08:38:08Z</time>
      </trkpt>
      <trkpt lat="33.67943" lon="77.72887">
        <ele>4021.8</ele>
        <time>2015-09-06T08:38:09Z</time>
      </trkpt>
      <trkpt lat="33.67941" lon="77.72887">
        <ele>4020.8</ele>
        <time>2015-09-06T08:38:13Z</time>
      </trkpt>
      <trkpt lat="33.67953" lon="77.72897">
        <ele>4020.6</ele>
        <time>2015-09-06T08:38:27Z</time>
      </trkpt>
      <trkpt lat="33.67949" lon="77.72901">
        <ele>4020.4</ele>
        <time>2015-09-06T08:38:33Z</time>
      </trkpt>
      <trkpt lat="33.6794" lon="77.72904">
        <ele>4020</ele>
        <time>2015-09-06T08:38:40Z</time>
      </trkpt>
      <trkpt lat="33.67938" lon="77.72904">
        <ele>4019.8</ele>
        <time>2015-09-06T08:38:43Z</time>
      </trkpt>
      <trkpt lat="33.67939" lon="77.72902">
        <ele>4142.8</ele>
        <time>2015-09-06T08:38:48Z</time>
      </trkpt>
    </trkseg>
  </trk>
</gpx>